<?xml version='1.0' encoding='UTF-8'?><gpx version="1.1" creator="JPX - https://github.com/jenetics/jpx" xmlns="http://www.topografix.com/GPX/1/1"><trk><trkseg><trkpt lat="39.359315" lon="9.0053583"><ele>43.0</ele><time>2026-04-26T07:47:13.525Z</time></trkpt><trkpt lat="39.3594033" lon="9.0054083"><ele>43.0</ele><time>2026-04-26T07:47:16.525Z</time></trkpt><trkpt lat="39.3594667" lon="9.0054133"><ele>43.0</ele><time>2026-04-26T07:47:20.525Z</time></trkpt><trkpt lat="39.35956" lon="9.0054033"><ele>43.0</ele><time>2026-04-26T07:47:36.525Z</time></trkpt><trkpt lat="39.35963" lon="9.0054017"><ele>43.0</ele><time>2026-04-26T07:47:37.526Z</time></trkpt><trkpt lat="39.35972" lon="9.0054033"><ele>43.0</ele><time>2026-04-26T07:47:38.526Z</time></trkpt><trkpt lat="39.3598217" lon="9.0054233"><ele>43.0</ele><time>2026-04-26T07:47:39.526Z</time></trkpt><trkpt lat="39.35992" lon="9.00545"><ele>43.0</ele><time>2026-04-26T07:47:40.525Z</time></trkpt><trkpt lat="39.360025" lon="9.00548"><ele>43.0</ele><time>2026-04-26T07:47:41.525Z</time></trkpt><trkpt lat="39.3601333" lon="9.005525"><ele>43.0</ele><time>2026-04-26T07:47:42.525Z</time></trkpt><trkpt lat="39.3602417" lon="9.0055633"><ele>43.0</ele><time>2026-04-26T07:47:43.525Z</time></trkpt><trkpt lat="39.360355" lon="9.0056017"><ele>43.0</ele><time>2026-04-26T07:47:44.526Z</time></trkpt><trkpt lat="39.3604817" lon="9.0056367"><ele>43.0</ele><time>2026-04-26T07:47:45.525Z</time></trkpt><trkpt lat="39.3606117" lon="9.0056883"><ele>43.0</ele><time>2026-04-26T07:47:46.526Z</time></trkpt><trkpt lat="39.3607517" lon="9.005745"><ele>43.0</ele><time>2026-04-26T07:47:47.526Z</time></trkpt><trkpt lat="39.3608933" lon="9.0057983"><ele>43.0</ele><time>2026-04-26T07:47:48.525Z</time></trkpt><trkpt lat="39.36103" lon="9.0058483"><ele>43.0</ele><time>2026-04-26T07:47:49.526Z</time></trkpt><trkpt lat="39.3611683" lon="9.005915"><ele>43.0</ele><time>2026-04-26T07:47:50.525Z</time></trkpt><trkpt lat="39.3612983" lon="9.0059967"><ele>43.0</ele><time>2026-04-26T07:47:51.525Z</time></trkpt><trkpt lat="39.3614383" lon="9.006055"><ele>43.0</ele><time>2026-04-26T07:47:52.526Z</time></trkpt><trkpt lat="39.3615633" lon="9.006125"><ele>43.0</ele><time>2026-04-26T07:47:53.525Z</time></trkpt><trkpt lat="39.361695" lon="9.006205"><ele>43.0</ele><time>2026-04-26T07:47:54.526Z</time></trkpt><trkpt lat="39.3618133" lon="9.0062667"><ele>43.0</ele><time>2026-04-26T07:47:55.526Z</time></trkpt><trkpt lat="39.36193" lon="9.0063317"><ele>43.0</ele><time>2026-04-26T07:47:56.526Z</time></trkpt><trkpt lat="39.3620417" lon="9.0064017"><ele>43.0</ele><time>2026-04-26T07:47:57.526Z</time></trkpt><trkpt lat="39.3621517" lon="9.006475"><ele>43.0</ele><time>2026-04-26T07:47:58.525Z</time></trkpt><trkpt lat="39.3622617" lon="9.006555"><ele>43.0</ele><time>2026-04-26T07:47:59.526Z</time></trkpt><trkpt lat="39.36239" lon="9.00664"><ele>43.0</ele><time>2026-04-26T07:48:00.526Z</time></trkpt><trkpt lat="39.3625183" lon="9.0067367"><ele>43.0</ele><time>2026-04-26T07:48:01.526Z</time></trkpt><trkpt lat="39.362645" lon="9.006835"><ele>43.0</ele><time>2026-04-26T07:48:02.526Z</time></trkpt><trkpt lat="39.3627867" lon="9.0069467"><ele>43.0</ele><time>2026-04-26T07:48:03.525Z</time></trkpt><trkpt lat="39.362925" lon="9.007045"><ele>43.0</ele><time>2026-04-26T07:48:04.526Z</time></trkpt><trkpt lat="39.3630633" lon="9.007155"><ele>43.0</ele><time>2026-04-26T07:48:05.525Z</time></trkpt><trkpt lat="39.3632067" lon="9.00726"><ele>43.0</ele><time>2026-04-26T07:48:06.526Z</time></trkpt><trkpt lat="39.3633617" lon="9.0073683"><ele>43.0</ele><time>2026-04-26T07:48:07.525Z</time></trkpt><trkpt lat="39.36352" lon="9.0074683"><ele>43.0</ele><time>2026-04-26T07:48:08.525Z</time></trkpt><trkpt lat="39.363675" lon="9.007555"><ele>43.0</ele><time>2026-04-26T07:48:09.525Z</time></trkpt><trkpt lat="39.3638167" lon="9.0076683"><ele>43.0</ele><time>2026-04-26T07:48:10.525Z</time></trkpt><trkpt lat="39.3639517" lon="9.0077817"><ele>43.0</ele><time>2026-04-26T07:48:11.525Z</time></trkpt><trkpt lat="39.3640983" lon="9.0078867"><ele>43.333333333333336</ele><time>2026-04-26T07:48:12.525Z</time></trkpt><trkpt lat="39.3642433" lon="9.0080067"><ele>43.666666666666664</ele><time>2026-04-26T07:48:13.525Z</time></trkpt><trkpt lat="39.3643917" lon="9.0081083"><ele>44.0</ele><time>2026-04-26T07:48:14.525Z</time></trkpt><trkpt lat="39.3645117" lon="9.0082117"><ele>44.0</ele><time>2026-04-26T07:48:15.526Z</time></trkpt><trkpt lat="39.364645" lon="9.0083017"><ele>44.0</ele><time>2026-04-26T07:48:16.525Z</time></trkpt><trkpt lat="39.364775" lon="9.0084"><ele>44.0</ele><time>2026-04-26T07:48:17.525Z</time></trkpt><trkpt lat="39.3649133" lon="9.008495"><ele>44.0</ele><time>2026-04-26T07:48:18.525Z</time></trkpt><trkpt lat="39.3650567" lon="9.0085867"><ele>44.0</ele><time>2026-04-26T07:48:19.526Z</time></trkpt><trkpt lat="39.3652" lon="9.008695"><ele>44.0</ele><time>2026-04-26T07:48:20.526Z</time></trkpt><trkpt lat="39.3653367" lon="9.0087817"><ele>44.0</ele><time>2026-04-26T07:48:21.525Z</time></trkpt><trkpt lat="39.3654667" lon="9.0088633"><ele>44.0</ele><time>2026-04-26T07:48:22.526Z</time></trkpt><trkpt lat="39.3655783" lon="9.008935"><ele>44.0</ele><time>2026-04-26T07:48:23.526Z</time></trkpt><trkpt lat="39.36568" lon="9.0090217"><ele>44.0</ele><time>2026-04-26T07:48:24.526Z</time></trkpt><trkpt lat="39.3657833" lon="9.00911"><ele>44.5</ele><time>2026-04-26T07:48:25.525Z</time></trkpt><trkpt lat="39.3659033" lon="9.0091883"><ele>45.0</ele><time>2026-04-26T07:48:26.525Z</time></trkpt><trkpt lat="39.36601" lon="9.00927"><ele>45.5</ele><time>2026-04-26T07:48:27.525Z</time></trkpt><trkpt lat="39.3661117" lon="9.0093483"><ele>46.0</ele><time>2026-04-26T07:48:28.525Z</time></trkpt><trkpt lat="39.3662117" lon="9.00944"><ele>46.0</ele><time>2026-04-26T07:48:29.525Z</time></trkpt><trkpt lat="39.3663367" lon="9.0095233"><ele>46.0</ele><time>2026-04-26T07:48:30.525Z</time></trkpt><trkpt lat="39.36648" lon="9.0096"><ele>46.0</ele><time>2026-04-26T07:48:31.526Z</time></trkpt><trkpt lat="39.3666133" lon="9.009705"><ele>45.66666666666667</ele><time>2026-04-26T07:48:32.526Z</time></trkpt><trkpt lat="39.3667617" lon="9.00981"><ele>45.333333333333336</ele><time>2026-04-26T07:48:33.525Z</time></trkpt><trkpt lat="39.3669167" lon="9.0099283"><ele>45.0</ele><time>2026-04-26T07:48:34.526Z</time></trkpt><trkpt lat="39.367075" lon="9.010035"><ele>45.333333333333336</ele><time>2026-04-26T07:48:35.526Z</time></trkpt><trkpt lat="39.3672283" lon="9.010145"><ele>45.66666666666667</ele><time>2026-04-26T07:48:36.526Z</time></trkpt><trkpt lat="39.3673767" lon="9.010255"><ele>46.0</ele><time>2026-04-26T07:48:37.525Z</time></trkpt><trkpt lat="39.3675167" lon="9.0103567"><ele>46.0</ele><time>2026-04-26T07:48:38.526Z</time></trkpt><trkpt lat="39.3676717" lon="9.0104483"><ele>46.0</ele><time>2026-04-26T07:48:39.525Z</time></trkpt><trkpt lat="39.3678233" lon="9.01054"><ele>46.0</ele><time>2026-04-26T07:48:40.525Z</time></trkpt><trkpt lat="39.3679783" lon="9.0106233"><ele>46.0</ele><time>2026-04-26T07:48:41.526Z</time></trkpt><trkpt lat="39.3681333" lon="9.0107133"><ele>46.0</ele><time>2026-04-26T07:48:42.525Z</time></trkpt><trkpt lat="39.368295" lon="9.010795"><ele>46.0</ele><time>2026-04-26T07:48:43.525Z</time></trkpt><trkpt lat="39.3684683" lon="9.010865"><ele>45.66666666666667</ele><time>2026-04-26T07:48:44.526Z</time></trkpt><trkpt lat="39.3686433" lon="9.0109133"><ele>45.333333333333336</ele><time>2026-04-26T07:48:45.525Z</time></trkpt><trkpt lat="39.368835" lon="9.01097"><ele>45.0</ele><time>2026-04-26T07:48:46.525Z</time></trkpt><trkpt lat="39.36903" lon="9.0110117"><ele>45.666666666666664</ele><time>2026-04-26T07:48:47.526Z</time></trkpt><trkpt lat="39.3692267" lon="9.01105"><ele>46.33333333333333</ele><time>2026-04-26T07:48:48.525Z</time></trkpt><trkpt lat="39.3694133" lon="9.0110833"><ele>47.0</ele><time>2026-04-26T07:48:49.526Z</time></trkpt><trkpt lat="39.3696017" lon="9.0111217"><ele>47.33333333333333</ele><time>2026-04-26T07:48:50.526Z</time></trkpt><trkpt lat="39.3697933" lon="9.0111567"><ele>47.666666666666664</ele><time>2026-04-26T07:48:51.525Z</time></trkpt><trkpt lat="39.3699883" lon="9.0111917"><ele>48.0</ele><time>2026-04-26T07:48:52.525Z</time></trkpt><trkpt lat="39.370175" lon="9.011225"><ele>48.0</ele><time>2026-04-26T07:48:53.526Z</time></trkpt><trkpt lat="39.370355" lon="9.0112483"><ele>48.0</ele><time>2026-04-26T07:48:54.525Z</time></trkpt><trkpt lat="39.37053" lon="9.011275"><ele>48.0</ele><time>2026-04-26T07:48:55.526Z</time></trkpt><trkpt lat="39.3707083" lon="9.0113017"><ele>47.666666666666664</ele><time>2026-04-26T07:48:56.526Z</time></trkpt><trkpt lat="39.3708817" lon="9.0113367"><ele>47.33333333333333</ele><time>2026-04-26T07:48:57.525Z</time></trkpt><trkpt lat="39.3710533" lon="9.0113667"><ele>47.0</ele><time>2026-04-26T07:48:58.526Z</time></trkpt><trkpt lat="39.3712483" lon="9.0113883"><ele>47.0</ele><time>2026-04-26T07:48:59.525Z</time></trkpt><trkpt lat="39.371435" lon="9.0114267"><ele>47.0</ele><time>2026-04-26T07:49:00.526Z</time></trkpt><trkpt lat="39.3716267" lon="9.0114683"><ele>47.0</ele><time>2026-04-26T07:49:01.525Z</time></trkpt><trkpt lat="39.3718167" lon="9.01152"><ele>47.0</ele><time>2026-04-26T07:49:02.525Z</time></trkpt><trkpt lat="39.3720133" lon="9.0115983"><ele>47.0</ele><time>2026-04-26T07:49:03.525Z</time></trkpt><trkpt lat="39.3722033" lon="9.0117017"><ele>47.0</ele><time>2026-04-26T07:49:04.525Z</time></trkpt><trkpt lat="39.3723933" lon="9.0118267"><ele>47.666666666666664</ele><time>2026-04-26T07:49:05.525Z</time></trkpt><trkpt lat="39.3725717" lon="9.011985"><ele>48.33333333333333</ele><time>2026-04-26T07:49:06.525Z</time></trkpt><trkpt lat="39.3727417" lon="9.0121583"><ele>49.0</ele><time>2026-04-26T07:49:07.526Z</time></trkpt><trkpt lat="39.372915" lon="9.0123433"><ele>49.0</ele><time>2026-04-26T07:49:08.525Z</time></trkpt><trkpt lat="39.37308" lon="9.0125367"><ele>49.0</ele><time>2026-04-26T07:49:09.525Z</time></trkpt><trkpt lat="39.373245" lon="9.01273"><ele>49.0</ele><time>2026-04-26T07:49:10.525Z</time></trkpt><trkpt lat="39.3734033" lon="9.01292"><ele>49.0</ele><time>2026-04-26T07:49:11.526Z</time></trkpt><trkpt lat="39.373555" lon="9.013115"><ele>49.0</ele><time>2026-04-26T07:49:12.526Z</time></trkpt><trkpt lat="39.373705" lon="9.0132933"><ele>49.0</ele><time>2026-04-26T07:49:13.525Z</time></trkpt><trkpt lat="39.3738483" lon="9.01347"><ele>49.0</ele><time>2026-04-26T07:49:14.525Z</time></trkpt><trkpt lat="39.3740017" lon="9.0136533"><ele>49.0</ele><time>2026-04-26T07:49:15.525Z</time></trkpt><trkpt lat="39.3741483" lon="9.013835"><ele>49.0</ele><time>2026-04-26T07:49:16.526Z</time></trkpt><trkpt lat="39.3743017" lon="9.014015"><ele>48.666666666666664</ele><time>2026-04-26T07:49:17.526Z</time></trkpt><trkpt lat="39.3744517" lon="9.0141883"><ele>48.33333333333333</ele><time>2026-04-26T07:49:18.525Z</time></trkpt><trkpt lat="39.3745983" lon="9.01437"><ele>48.0</ele><time>2026-04-26T07:49:19.526Z</time></trkpt><trkpt lat="39.3747467" lon="9.0145567"><ele>48.66666666666667</ele><time>2026-04-26T07:49:20.525Z</time></trkpt><trkpt lat="39.3748967" lon="9.0147567"><ele>49.333333333333336</ele><time>2026-04-26T07:49:21.526Z</time></trkpt><trkpt lat="39.3750433" lon="9.0149483"><ele>50.0</ele><time>2026-04-26T07:49:22.526Z</time></trkpt><trkpt lat="39.375185" lon="9.01515"><ele>50.0</ele><time>2026-04-26T07:49:23.526Z</time></trkpt><trkpt lat="39.3753233" lon="9.0153767"><ele>50.0</ele><time>2026-04-26T07:49:24.526Z</time></trkpt><trkpt lat="39.3754533" lon="9.0156033"><ele>50.0</ele><time>2026-04-26T07:49:25.526Z</time></trkpt><trkpt lat="39.375575" lon="9.0158383"><ele>50.5</ele><time>2026-04-26T07:49:26.525Z</time></trkpt><trkpt lat="39.3757067" lon="9.01608"><ele>51.0</ele><time>2026-04-26T07:49:27.526Z</time></trkpt><trkpt lat="39.3758283" lon="9.0163233"><ele>51.0</ele><time>2026-04-26T07:49:28.526Z</time></trkpt><trkpt lat="39.3759583" lon="9.016555"><ele>51.0</ele><time>2026-04-26T07:49:29.526Z</time></trkpt><trkpt lat="39.3760833" lon="9.01679"><ele>51.0</ele><time>2026-04-26T07:49:30.526Z</time></trkpt><trkpt lat="39.3762017" lon="9.0170217"><ele>51.0</ele><time>2026-04-26T07:49:31.525Z</time></trkpt><trkpt lat="39.3763133" lon="9.017265"><ele>51.0</ele><time>2026-04-26T07:49:32.525Z</time></trkpt><trkpt lat="39.376435" lon="9.0174983"><ele>51.0</ele><time>2026-04-26T07:49:33.525Z</time></trkpt><trkpt lat="39.3765633" lon="9.01774"><ele>51.0</ele><time>2026-04-26T07:49:34.526Z</time></trkpt><trkpt lat="39.3766867" lon="9.01799"><ele>51.0</ele><time>2026-04-26T07:49:35.526Z</time></trkpt><trkpt lat="39.3768167" lon="9.01825"><ele>51.0</ele><time>2026-04-26T07:49:36.526Z</time></trkpt><trkpt lat="39.3769533" lon="9.0185117"><ele>51.0</ele><time>2026-04-26T07:49:37.525Z</time></trkpt><trkpt lat="39.3770967" lon="9.01878"><ele>52.0</ele><time>2026-04-26T07:49:38.526Z</time></trkpt><trkpt lat="39.3772383" lon="9.01906"><ele>53.0</ele><time>2026-04-26T07:49:39.525Z</time></trkpt><trkpt lat="39.3773883" lon="9.0193533"><ele>53.0</ele><time>2026-04-26T07:49:40.525Z</time></trkpt><trkpt lat="39.37754" lon="9.0196517"><ele>53.0</ele><time>2026-04-26T07:49:41.525Z</time></trkpt><trkpt lat="39.3776883" lon="9.019955"><ele>52.5</ele><time>2026-04-26T07:49:42.525Z</time></trkpt><trkpt lat="39.3778467" lon="9.0202517"><ele>52.0</ele><time>2026-04-26T07:49:43.525Z</time></trkpt><trkpt lat="39.3779967" lon="9.02054"><ele>53.0</ele><time>2026-04-26T07:49:44.525Z</time></trkpt><trkpt lat="39.3781467" lon="9.0208233"><ele>54.0</ele><time>2026-04-26T07:49:45.525Z</time></trkpt><trkpt lat="39.3782783" lon="9.021105"><ele>54.0</ele><time>2026-04-26T07:49:46.526Z</time></trkpt><trkpt lat="39.3784167" lon="9.0213733"><ele>54.0</ele><time>2026-04-26T07:49:47.526Z</time></trkpt><trkpt lat="39.378555" lon="9.0216483"><ele>54.5</ele><time>2026-04-26T07:49:48.525Z</time></trkpt><trkpt lat="39.3786933" lon="9.02192"><ele>55.0</ele><time>2026-04-26T07:49:49.526Z</time></trkpt><trkpt lat="39.3788267" lon="9.0221983"><ele>55.0</ele><time>2026-04-26T07:49:50.526Z</time></trkpt><trkpt lat="39.3789767" lon="9.0224883"><ele>55.0</ele><time>2026-04-26T07:49:51.525Z</time></trkpt><trkpt lat="39.3791183" lon="9.0227683"><ele>55.0</ele><time>2026-04-26T07:49:52.525Z</time></trkpt><trkpt lat="39.37926" lon="9.023055"><ele>55.0</ele><time>2026-04-26T07:49:53.526Z</time></trkpt><trkpt lat="39.379405" lon="9.0233267"><ele>55.0</ele><time>2026-04-26T07:49:54.526Z</time></trkpt><trkpt lat="39.37955" lon="9.0236017"><ele>55.0</ele><time>2026-04-26T07:49:55.526Z</time></trkpt><trkpt lat="39.3797017" lon="9.0238617"><ele>55.5</ele><time>2026-04-26T07:49:56.526Z</time></trkpt><trkpt lat="39.3798433" lon="9.02412"><ele>56.0</ele><time>2026-04-26T07:49:57.525Z</time></trkpt><trkpt lat="39.3799833" lon="9.0244"><ele>56.0</ele><time>2026-04-26T07:49:58.526Z</time></trkpt><trkpt lat="39.380125" lon="9.0246667"><ele>56.0</ele><time>2026-04-26T07:49:59.525Z</time></trkpt><trkpt lat="39.38026" lon="9.0249367"><ele>56.0</ele><time>2026-04-26T07:50:00.525Z</time></trkpt><trkpt lat="39.3803917" lon="9.02522"><ele>56.0</ele><time>2026-04-26T07:50:01.526Z</time></trkpt><trkpt lat="39.3805317" lon="9.0254933"><ele>56.0</ele><time>2026-04-26T07:50:02.526Z</time></trkpt><trkpt lat="39.3806717" lon="9.0257767"><ele>56.0</ele><time>2026-04-26T07:50:03.526Z</time></trkpt><trkpt lat="39.3808083" lon="9.02605"><ele>56.0</ele><time>2026-04-26T07:50:04.525Z</time></trkpt><trkpt lat="39.380955" lon="9.0263283"><ele>56.0</ele><time>2026-04-26T07:50:05.525Z</time></trkpt><trkpt lat="39.3811017" lon="9.0266017"><ele>56.5</ele><time>2026-04-26T07:50:06.526Z</time></trkpt><trkpt lat="39.3812567" lon="9.02687"><ele>57.0</ele><time>2026-04-26T07:50:07.525Z</time></trkpt><trkpt lat="39.3814017" lon="9.0271517"><ele>57.0</ele><time>2026-04-26T07:50:08.525Z</time></trkpt><trkpt lat="39.381545" lon="9.027425"><ele>57.0</ele><time>2026-04-26T07:50:09.525Z</time></trkpt><trkpt lat="39.381685" lon="9.0277017"><ele>57.0</ele><time>2026-04-26T07:50:10.526Z</time></trkpt><trkpt lat="39.3818267" lon="9.0279667"><ele>57.0</ele><time>2026-04-26T07:50:11.525Z</time></trkpt><trkpt lat="39.3819683" lon="9.028235"><ele>57.5</ele><time>2026-04-26T07:50:12.525Z</time></trkpt><trkpt lat="39.3821083" lon="9.0285033"><ele>58.0</ele><time>2026-04-26T07:50:13.526Z</time></trkpt><trkpt lat="39.3822333" lon="9.0287783"><ele>58.0</ele><time>2026-04-26T07:50:14.525Z</time></trkpt><trkpt lat="39.38237" lon="9.0290467"><ele>58.0</ele><time>2026-04-26T07:50:15.526Z</time></trkpt><trkpt lat="39.3825183" lon="9.0293067"><ele>58.0</ele><time>2026-04-26T07:50:16.526Z</time></trkpt><trkpt lat="39.382655" lon="9.0295817"><ele>58.0</ele><time>2026-04-26T07:50:17.526Z</time></trkpt><trkpt lat="39.3827967" lon="9.0298483"><ele>58.0</ele><time>2026-04-26T07:50:18.526Z</time></trkpt><trkpt lat="39.3829317" lon="9.0301167"><ele>58.0</ele><time>2026-04-26T07:50:19.526Z</time></trkpt><trkpt lat="39.38306" lon="9.0303883"><ele>59.0</ele><time>2026-04-26T07:50:20.525Z</time></trkpt><trkpt lat="39.38319" lon="9.030655"><ele>60.0</ele><time>2026-04-26T07:50:21.526Z</time></trkpt><trkpt lat="39.383325" lon="9.0309167"><ele>60.0</ele><time>2026-04-26T07:50:22.525Z</time></trkpt><trkpt lat="39.383485" lon="9.031175"><ele>60.0</ele><time>2026-04-26T07:50:23.526Z</time></trkpt><trkpt lat="39.3836467" lon="9.0314383"><ele>60.0</ele><time>2026-04-26T07:50:24.526Z</time></trkpt><trkpt lat="39.3838217" lon="9.0316767"><ele>60.0</ele><time>2026-04-26T07:50:25.525Z</time></trkpt><trkpt lat="39.38401" lon="9.0318867"><ele>60.0</ele><time>2026-04-26T07:50:26.525Z</time></trkpt><trkpt lat="39.3841867" lon="9.0320917"><ele>60.0</ele><time>2026-04-26T07:50:27.526Z</time></trkpt><trkpt lat="39.3843667" lon="9.0322967"><ele>60.0</ele><time>2026-04-26T07:50:28.526Z</time></trkpt><trkpt lat="39.384555" lon="9.0324867"><ele>60.0</ele><time>2026-04-26T07:50:29.526Z</time></trkpt><trkpt lat="39.3847433" lon="9.0326817"><ele>60.0</ele><time>2026-04-26T07:50:30.526Z</time></trkpt><trkpt lat="39.3849367" lon="9.03287"><ele>60.0</ele><time>2026-04-26T07:50:31.525Z</time></trkpt><trkpt lat="39.3851167" lon="9.033055"><ele>60.0</ele><time>2026-04-26T07:50:32.525Z</time></trkpt><trkpt lat="39.3852933" lon="9.0332417"><ele>60.0</ele><time>2026-04-26T07:50:33.526Z</time></trkpt><trkpt lat="39.3854767" lon="9.0334267"><ele>60.33333333333333</ele><time>2026-04-26T07:50:34.526Z</time></trkpt><trkpt lat="39.3856483" lon="9.033605"><ele>60.666666666666664</ele><time>2026-04-26T07:50:35.526Z</time></trkpt><trkpt lat="39.38582" lon="9.033785"><ele>61.0</ele><time>2026-04-26T07:50:36.525Z</time></trkpt><trkpt lat="39.3859967" lon="9.0339617"><ele>61.5</ele><time>2026-04-26T07:50:37.525Z</time></trkpt><trkpt lat="39.386175" lon="9.03414"><ele>62.0</ele><time>2026-04-26T07:50:38.525Z</time></trkpt><trkpt lat="39.386355" lon="9.034315"><ele>62.5</ele><time>2026-04-26T07:50:39.525Z</time></trkpt><trkpt lat="39.3865233" lon="9.034505"><ele>63.0</ele><time>2026-04-26T07:50:40.525Z</time></trkpt><trkpt lat="39.3867117" lon="9.0346967"><ele>63.0</ele><time>2026-04-26T07:50:41.525Z</time></trkpt><trkpt lat="39.3868883" lon="9.0348783"><ele>63.0</ele><time>2026-04-26T07:50:42.525Z</time></trkpt><trkpt lat="39.38707" lon="9.03506"><ele>63.0</ele><time>2026-04-26T07:50:43.526Z</time></trkpt><trkpt lat="39.3872417" lon="9.0352567"><ele>63.0</ele><time>2026-04-26T07:50:44.526Z</time></trkpt><trkpt lat="39.3874133" lon="9.03545"><ele>63.0</ele><time>2026-04-26T07:50:45.525Z</time></trkpt><trkpt lat="39.387585" lon="9.0356467"><ele>63.0</ele><time>2026-04-26T07:50:46.525Z</time></trkpt><trkpt lat="39.3877583" lon="9.0358483"><ele>63.0</ele><time>2026-04-26T07:50:47.525Z</time></trkpt><trkpt lat="39.3879233" lon="9.0360683"><ele>63.0</ele><time>2026-04-26T07:50:48.526Z</time></trkpt><trkpt lat="39.3880917" lon="9.0362817"><ele>63.0</ele><time>2026-04-26T07:50:49.526Z</time></trkpt><trkpt lat="39.3882617" lon="9.0365117"><ele>63.0</ele><time>2026-04-26T07:50:50.526Z</time></trkpt><trkpt lat="39.3884033" lon="9.0367433"><ele>63.0</ele><time>2026-04-26T07:50:51.526Z</time></trkpt><trkpt lat="39.3885633" lon="9.0369617"><ele>63.0</ele><time>2026-04-26T07:50:52.526Z</time></trkpt><trkpt lat="39.388715" lon="9.03718"><ele>63.33333333333333</ele><time>2026-04-26T07:50:53.526Z</time></trkpt><trkpt lat="39.388865" lon="9.0374017"><ele>63.666666666666664</ele><time>2026-04-26T07:50:54.525Z</time></trkpt><trkpt lat="39.3890017" lon="9.0376083"><ele>64.0</ele><time>2026-04-26T07:50:55.525Z</time></trkpt><trkpt lat="39.3891317" lon="9.03781"><ele>64.0</ele><time>2026-04-26T07:50:56.525Z</time></trkpt><trkpt lat="39.3892517" lon="9.038005"><ele>64.0</ele><time>2026-04-26T07:50:57.525Z</time></trkpt><trkpt lat="39.3893683" lon="9.038215"><ele>64.0</ele><time>2026-04-26T07:50:58.525Z</time></trkpt><trkpt lat="39.389475" lon="9.03843"><ele>64.66666666666666</ele><time>2026-04-26T07:50:59.525Z</time></trkpt><trkpt lat="39.3895533" lon="9.0386767"><ele>65.33333333333333</ele><time>2026-04-26T07:51:00.526Z</time></trkpt><trkpt lat="39.389615" lon="9.0389267"><ele>66.0</ele><time>2026-04-26T07:51:01.525Z</time></trkpt><trkpt lat="39.3896633" lon="9.03917"><ele>66.33333333333333</ele><time>2026-04-26T07:51:02.526Z</time></trkpt><trkpt lat="39.3897133" lon="9.039395"><ele>66.66666666666666</ele><time>2026-04-26T07:51:03.525Z</time></trkpt><trkpt lat="39.389765" lon="9.0395867"><ele>67.0</ele><time>2026-04-26T07:51:04.526Z</time></trkpt><trkpt lat="39.3898083" lon="9.039755"><ele>67.0</ele><time>2026-04-26T07:51:05.525Z</time></trkpt><trkpt lat="39.389855" lon="9.0399083"><ele>67.0</ele><time>2026-04-26T07:51:06.525Z</time></trkpt><trkpt lat="39.3899" lon="9.0400367"><ele>67.0</ele><time>2026-04-26T07:51:07.525Z</time></trkpt><trkpt lat="39.3899483" lon="9.040155"><ele>67.0</ele><time>2026-04-26T07:51:08.525Z</time></trkpt><trkpt lat="39.3899867" lon="9.0402783"><ele>67.0</ele><time>2026-04-26T07:51:09.526Z</time></trkpt><trkpt lat="39.3900217" lon="9.0403717"><ele>67.0</ele><time>2026-04-26T07:51:10.526Z</time></trkpt><trkpt lat="39.39004" lon="9.04046"><ele>67.0</ele><time>2026-04-26T07:51:11.526Z</time></trkpt><trkpt lat="39.3900217" lon="9.040545"><ele>67.0</ele><time>2026-04-26T07:51:12.526Z</time></trkpt><trkpt lat="39.3899967" lon="9.0406417"><ele>67.0</ele><time>2026-04-26T07:51:13.526Z</time></trkpt><trkpt lat="39.389985" lon="9.0407417"><ele>67.0</ele><time>2026-04-26T07:51:14.525Z</time></trkpt><trkpt lat="39.38999" lon="9.04085"><ele>67.0</ele><time>2026-04-26T07:51:15.525Z</time></trkpt><trkpt lat="39.3900167" lon="9.04094"><ele>67.0</ele><time>2026-04-26T07:51:16.526Z</time></trkpt><trkpt lat="39.3900717" lon="9.0410083"><ele>67.0</ele><time>2026-04-26T07:51:17.525Z</time></trkpt><trkpt lat="39.39015" lon="9.04105"><ele>67.0</ele><time>2026-04-26T07:51:18.526Z</time></trkpt><trkpt lat="39.390225" lon="9.041085"><ele>67.0</ele><time>2026-04-26T07:51:19.525Z</time></trkpt><trkpt lat="39.3903" lon="9.04114"><ele>67.0</ele><time>2026-04-26T07:51:20.525Z</time></trkpt><trkpt lat="39.3903567" lon="9.0412383"><ele>67.0</ele><time>2026-04-26T07:51:21.526Z</time></trkpt><trkpt lat="39.3904117" lon="9.04137"><ele>67.0</ele><time>2026-04-26T07:51:22.526Z</time></trkpt><trkpt lat="39.3904767" lon="9.0415333"><ele>67.0</ele><time>2026-04-26T07:51:23.525Z</time></trkpt><trkpt lat="39.390545" lon="9.0417183"><ele>67.0</ele><time>2026-04-26T07:51:24.525Z</time></trkpt><trkpt lat="39.390615" lon="9.0419117"><ele>67.33333333333333</ele><time>2026-04-26T07:51:25.525Z</time></trkpt><trkpt lat="39.39069" lon="9.042115"><ele>67.66666666666667</ele><time>2026-04-26T07:51:26.525Z</time></trkpt><trkpt lat="39.3907667" lon="9.0423183"><ele>68.0</ele><time>2026-04-26T07:51:27.526Z</time></trkpt><trkpt lat="39.39084" lon="9.042515"><ele>68.0</ele><time>2026-04-26T07:51:28.526Z</time></trkpt><trkpt lat="39.390915" lon="9.042695"><ele>68.0</ele><time>2026-04-26T07:51:29.526Z</time></trkpt><trkpt lat="39.3909917" lon="9.0428683"><ele>68.0</ele><time>2026-04-26T07:51:30.526Z</time></trkpt><trkpt lat="39.391065" lon="9.04305"><ele>68.0</ele><time>2026-04-26T07:51:31.525Z</time></trkpt><trkpt lat="39.3911167" lon="9.043245"><ele>68.0</ele><time>2026-04-26T07:51:32.525Z</time></trkpt><trkpt lat="39.3911483" lon="9.0434567"><ele>68.0</ele><time>2026-04-26T07:51:33.526Z</time></trkpt><trkpt lat="39.391165" lon="9.0436733"><ele>68.33333333333334</ele><time>2026-04-26T07:51:34.525Z</time></trkpt><trkpt lat="39.3911633" lon="9.0438983"><ele>68.66666666666667</ele><time>2026-04-26T07:51:35.526Z</time></trkpt><trkpt lat="39.3911417" lon="9.0441417"><ele>69.0</ele><time>2026-04-26T07:51:36.525Z</time></trkpt><trkpt lat="39.3911283" lon="9.0443983"><ele>69.5</ele><time>2026-04-26T07:51:37.525Z</time></trkpt><trkpt lat="39.3910717" lon="9.0446833"><ele>70.0</ele><time>2026-04-26T07:51:38.526Z</time></trkpt><trkpt lat="39.3910233" lon="9.044985"><ele>71.5</ele><time>2026-04-26T07:51:39.526Z</time></trkpt><trkpt lat="39.3910167" lon="9.0452917"><ele>73.0</ele><time>2026-04-26T07:51:40.526Z</time></trkpt><trkpt lat="39.3909733" lon="9.0456083"><ele>72.66666666666666</ele><time>2026-04-26T07:51:41.525Z</time></trkpt><trkpt lat="39.390925" lon="9.0458917"><ele>72.33333333333333</ele><time>2026-04-26T07:51:42.526Z</time></trkpt><trkpt lat="39.39088" lon="9.0461533"><ele>72.0</ele><time>2026-04-26T07:51:43.526Z</time></trkpt><trkpt lat="39.3908467" lon="9.046385"><ele>72.0</ele><time>2026-04-26T07:51:44.525Z</time></trkpt><trkpt lat="39.3908183" lon="9.0466117"><ele>72.0</ele><time>2026-04-26T07:51:45.525Z</time></trkpt><trkpt lat="39.3907817" lon="9.0468417"><ele>72.0</ele><time>2026-04-26T07:51:46.526Z</time></trkpt><trkpt lat="39.3907517" lon="9.0470717"><ele>71.66666666666667</ele><time>2026-04-26T07:51:47.525Z</time></trkpt><trkpt lat="39.3907317" lon="9.047305"><ele>71.33333333333334</ele><time>2026-04-26T07:51:48.525Z</time></trkpt><trkpt lat="39.390725" lon="9.0475417"><ele>71.0</ele><time>2026-04-26T07:51:49.525Z</time></trkpt><trkpt lat="39.3907367" lon="9.0477767"><ele>71.0</ele><time>2026-04-26T07:51:50.525Z</time></trkpt><trkpt lat="39.3907667" lon="9.0480067"><ele>71.0</ele><time>2026-04-26T07:51:51.525Z</time></trkpt><trkpt lat="39.3908133" lon="9.04824"><ele>71.0</ele><time>2026-04-26T07:51:52.526Z</time></trkpt><trkpt lat="39.3908817" lon="9.0484733"><ele>71.33333333333334</ele><time>2026-04-26T07:51:53.525Z</time></trkpt><trkpt lat="39.3909617" lon="9.0487183"><ele>71.66666666666667</ele><time>2026-04-26T07:51:54.526Z</time></trkpt><trkpt lat="39.39106" lon="9.0489817"><ele>72.0</ele><time>2026-04-26T07:51:55.526Z</time></trkpt><trkpt lat="39.3911683" lon="9.0492517"><ele>72.0</ele><time>2026-04-26T07:51:56.526Z</time></trkpt><trkpt lat="39.391265" lon="9.0495283"><ele>72.0</ele><time>2026-04-26T07:51:57.525Z</time></trkpt><trkpt lat="39.3913733" lon="9.0498133"><ele>72.0</ele><time>2026-04-26T07:51:58.526Z</time></trkpt><trkpt lat="39.39148" lon="9.0501"><ele>72.0</ele><time>2026-04-26T07:51:59.525Z</time></trkpt><trkpt lat="39.3915783" lon="9.0504083"><ele>72.0</ele><time>2026-04-26T07:52:00.526Z</time></trkpt><trkpt lat="39.3916717" lon="9.0507333"><ele>72.0</ele><time>2026-04-26T07:52:01.525Z</time></trkpt><trkpt lat="39.391755" lon="9.0510783"><ele>72.5</ele><time>2026-04-26T07:52:02.525Z</time></trkpt><trkpt lat="39.3918267" lon="9.051415"><ele>73.0</ele><time>2026-04-26T07:52:03.526Z</time></trkpt><trkpt lat="39.3918883" lon="9.0517417"><ele>73.0</ele><time>2026-04-26T07:52:04.525Z</time></trkpt><trkpt lat="39.39195" lon="9.0520583"><ele>73.0</ele><time>2026-04-26T07:52:05.526Z</time></trkpt><trkpt lat="39.3920083" lon="9.0523733"><ele>73.5</ele><time>2026-04-26T07:52:06.525Z</time></trkpt><trkpt lat="39.3920633" lon="9.0526867"><ele>74.0</ele><time>2026-04-26T07:52:07.525Z</time></trkpt><trkpt lat="39.3921183" lon="9.0529933"><ele>75.0</ele><time>2026-04-26T07:52:08.525Z</time></trkpt><trkpt lat="39.3921783" lon="9.0533117"><ele>76.0</ele><time>2026-04-26T07:52:09.526Z</time></trkpt><trkpt lat="39.39224" lon="9.0536133"><ele>76.0</ele><time>2026-04-26T07:52:10.526Z</time></trkpt><trkpt lat="39.39229" lon="9.0539133"><ele>76.0</ele><time>2026-04-26T07:52:11.525Z</time></trkpt><trkpt lat="39.3923483" lon="9.0542083"><ele>75.5</ele><time>2026-04-26T07:52:12.526Z</time></trkpt><trkpt lat="39.3924083" lon="9.054505"><ele>75.0</ele><time>2026-04-26T07:52:13.525Z</time></trkpt><trkpt lat="39.3924717" lon="9.054805"><ele>75.5</ele><time>2026-04-26T07:52:14.526Z</time></trkpt><trkpt lat="39.3925267" lon="9.0551067"><ele>76.0</ele><time>2026-04-26T07:52:15.525Z</time></trkpt><trkpt lat="39.3925883" lon="9.0554133"><ele>76.0</ele><time>2026-04-26T07:52:16.525Z</time></trkpt><trkpt lat="39.39264" lon="9.0557083"><ele>76.0</ele><time>2026-04-26T07:52:17.526Z</time></trkpt><trkpt lat="39.3927033" lon="9.05601"><ele>76.0</ele><time>2026-04-26T07:52:18.525Z</time></trkpt><trkpt lat="39.392765" lon="9.0563067"><ele>76.0</ele><time>2026-04-26T07:52:19.525Z</time></trkpt><trkpt lat="39.3928183" lon="9.05661"><ele>76.0</ele><time>2026-04-26T07:52:20.525Z</time></trkpt><trkpt lat="39.392865" lon="9.05691"><ele>76.0</ele><time>2026-04-26T07:52:21.525Z</time></trkpt><trkpt lat="39.392925" lon="9.0572133"><ele>76.0</ele><time>2026-04-26T07:52:22.525Z</time></trkpt><trkpt lat="39.3929817" lon="9.0575183"><ele>76.0</ele><time>2026-04-26T07:52:23.526Z</time></trkpt><trkpt lat="39.3930417" lon="9.0578267"><ele>77.0</ele><time>2026-04-26T07:52:24.526Z</time></trkpt><trkpt lat="39.3931017" lon="9.0581417"><ele>78.0</ele><time>2026-04-26T07:52:25.526Z</time></trkpt><trkpt lat="39.3931717" lon="9.0584783"><ele>78.0</ele><time>2026-04-26T07:52:26.526Z</time></trkpt><trkpt lat="39.3932317" lon="9.058815"><ele>78.0</ele><time>2026-04-26T07:52:27.526Z</time></trkpt><trkpt lat="39.3932833" lon="9.0591417"><ele>78.0</ele><time>2026-04-26T07:52:28.526Z</time></trkpt><trkpt lat="39.39334" lon="9.05947"><ele>78.0</ele><time>2026-04-26T07:52:29.525Z</time></trkpt><trkpt lat="39.3934067" lon="9.0597917"><ele>78.5</ele><time>2026-04-26T07:52:30.525Z</time></trkpt><trkpt lat="39.39348" lon="9.0601283"><ele>79.0</ele><time>2026-04-26T07:52:31.525Z</time></trkpt><trkpt lat="39.3935533" lon="9.0604667"><ele>79.0</ele><time>2026-04-26T07:52:32.525Z</time></trkpt><trkpt lat="39.3936233" lon="9.0608117"><ele>79.0</ele><time>2026-04-26T07:52:33.525Z</time></trkpt><trkpt lat="39.3936917" lon="9.0611567"><ele>79.0</ele><time>2026-04-26T07:52:34.525Z</time></trkpt><trkpt lat="39.3937633" lon="9.0615067"><ele>79.0</ele><time>2026-04-26T07:52:35.525Z</time></trkpt><trkpt lat="39.3938317" lon="9.0618533"><ele>78.5</ele><time>2026-04-26T07:52:36.525Z</time></trkpt><trkpt lat="39.3938917" lon="9.0622117"><ele>78.0</ele><time>2026-04-26T07:52:37.526Z</time></trkpt><trkpt lat="39.393945" lon="9.0625433"><ele>78.0</ele><time>2026-04-26T07:52:38.525Z</time></trkpt><trkpt lat="39.3939933" lon="9.0628717"><ele>78.0</ele><time>2026-04-26T07:52:39.526Z</time></trkpt><trkpt lat="39.3940433" lon="9.063185"><ele>79.5</ele><time>2026-04-26T07:52:40.526Z</time></trkpt><trkpt lat="39.394095" lon="9.0634833"><ele>81.0</ele><time>2026-04-26T07:52:41.526Z</time></trkpt><trkpt lat="39.3941433" lon="9.0637567"><ele>81.0</ele><time>2026-04-26T07:52:42.526Z</time></trkpt><trkpt lat="39.394195" lon="9.06402"><ele>81.0</ele><time>2026-04-26T07:52:43.525Z</time></trkpt><trkpt lat="39.39424" lon="9.06426"><ele>81.0</ele><time>2026-04-26T07:52:44.526Z</time></trkpt><trkpt lat="39.3942833" lon="9.0644867"><ele>81.25</ele><time>2026-04-26T07:52:45.525Z</time></trkpt><trkpt lat="39.3943117" lon="9.0646983"><ele>81.5</ele><time>2026-04-26T07:52:46.525Z</time></trkpt><trkpt lat="39.3943317" lon="9.0648867"><ele>81.75</ele><time>2026-04-26T07:52:47.526Z</time></trkpt><trkpt lat="39.3943483" lon="9.0650483"><ele>82.0</ele><time>2026-04-26T07:52:48.525Z</time></trkpt><trkpt lat="39.39434" lon="9.0652017"><ele>82.0</ele><time>2026-04-26T07:52:49.526Z</time></trkpt><trkpt lat="39.394285" lon="9.06538"><ele>82.0</ele><time>2026-04-26T07:52:50.526Z</time></trkpt><trkpt lat="39.3942283" lon="9.0655567"><ele>82.0</ele><time>2026-04-26T07:52:51.526Z</time></trkpt><trkpt lat="39.3941517" lon="9.06575"><ele>82.0</ele><time>2026-04-26T07:52:52.525Z</time></trkpt><trkpt lat="39.3940533" lon="9.0659567"><ele>82.0</ele><time>2026-04-26T07:52:53.526Z</time></trkpt><trkpt lat="39.39393" lon="9.0661867"><ele>82.0</ele><time>2026-04-26T07:52:54.526Z</time></trkpt><trkpt lat="39.3938117" lon="9.066395"><ele>82.0</ele><time>2026-04-26T07:52:55.525Z</time></trkpt><trkpt lat="39.39366" lon="9.066595"><ele>82.0</ele><time>2026-04-26T07:52:56.525Z</time></trkpt><trkpt lat="39.393475" lon="9.0667717"><ele>82.0</ele><time>2026-04-26T07:52:57.525Z</time></trkpt><trkpt lat="39.39327" lon="9.0669317"><ele>82.0</ele><time>2026-04-26T07:52:58.526Z</time></trkpt><trkpt lat="39.3930483" lon="9.0670767"><ele>82.0</ele><time>2026-04-26T07:52:59.525Z</time></trkpt><trkpt lat="39.39283" lon="9.0672133"><ele>82.5</ele><time>2026-04-26T07:53:00.525Z</time></trkpt><trkpt lat="39.3925967" lon="9.06736"><ele>83.0</ele><time>2026-04-26T07:53:01.525Z</time></trkpt><trkpt lat="39.392365" lon="9.0675183"><ele>84.0</ele><time>2026-04-26T07:53:02.525Z</time></trkpt><trkpt lat="39.3921217" lon="9.067675"><ele>85.0</ele><time>2026-04-26T07:53:03.526Z</time></trkpt><trkpt lat="39.3918767" lon="9.0678283"><ele>85.0</ele><time>2026-04-26T07:53:04.526Z</time></trkpt><trkpt lat="39.3916233" lon="9.0679867"><ele>85.0</ele><time>2026-04-26T07:53:05.525Z</time></trkpt><trkpt lat="39.3913717" lon="9.0681383"><ele>84.5</ele><time>2026-04-26T07:53:06.526Z</time></trkpt><trkpt lat="39.39113" lon="9.06829"><ele>84.0</ele><time>2026-04-26T07:53:07.526Z</time></trkpt><trkpt lat="39.3909" lon="9.0684333"><ele>84.0</ele><time>2026-04-26T07:53:08.525Z</time></trkpt><trkpt lat="39.3906633" lon="9.0685983"><ele>84.0</ele><time>2026-04-26T07:53:09.526Z</time></trkpt><trkpt lat="39.3904133" lon="9.0687517"><ele>85.5</ele><time>2026-04-26T07:53:10.526Z</time></trkpt><trkpt lat="39.3901617" lon="9.068895"><ele>87.0</ele><time>2026-04-26T07:53:11.525Z</time></trkpt><trkpt lat="39.3899233" lon="9.069055"><ele>86.5</ele><time>2026-04-26T07:53:12.526Z</time></trkpt><trkpt lat="39.389695" lon="9.069195"><ele>86.0</ele><time>2026-04-26T07:53:13.526Z</time></trkpt><trkpt lat="39.3894717" lon="9.0693333"><ele>87.5</ele><time>2026-04-26T07:53:14.526Z</time></trkpt><trkpt lat="39.389245" lon="9.0694717"><ele>89.0</ele><time>2026-04-26T07:53:15.526Z</time></trkpt><trkpt lat="39.3890283" lon="9.0696033"><ele>89.0</ele><time>2026-04-26T07:53:16.526Z</time></trkpt><trkpt lat="39.3887883" lon="9.0697467"><ele>89.0</ele><time>2026-04-26T07:53:17.526Z</time></trkpt><trkpt lat="39.388565" lon="9.0698917"><ele>88.66666666666667</ele><time>2026-04-26T07:53:18.526Z</time></trkpt><trkpt lat="39.388365" lon="9.0700317"><ele>88.33333333333333</ele><time>2026-04-26T07:53:19.525Z</time></trkpt><trkpt lat="39.3881833" lon="9.0701883"><ele>88.0</ele><time>2026-04-26T07:53:20.525Z</time></trkpt><trkpt lat="39.3879867" lon="9.0703783"><ele>89.5</ele><time>2026-04-26T07:53:21.526Z</time></trkpt><trkpt lat="39.3878017" lon="9.0706133"><ele>91.0</ele><time>2026-04-26T07:53:22.525Z</time></trkpt><trkpt lat="39.3876317" lon="9.0708783"><ele>91.0</ele><time>2026-04-26T07:53:23.526Z</time></trkpt><trkpt lat="39.38751" lon="9.0711583"><ele>91.0</ele><time>2026-04-26T07:53:24.525Z</time></trkpt><trkpt lat="39.38742" lon="9.07142"><ele>90.5</ele><time>2026-04-26T07:53:25.525Z</time></trkpt><trkpt lat="39.3873483" lon="9.0716967"><ele>90.0</ele><time>2026-04-26T07:53:26.526Z</time></trkpt><trkpt lat="39.3872983" lon="9.0719867"><ele>90.0</ele><time>2026-04-26T07:53:27.525Z</time></trkpt><trkpt lat="39.3872817" lon="9.0722783"><ele>90.0</ele><time>2026-04-26T07:53:28.526Z</time></trkpt><trkpt lat="39.387275" lon="9.0725783"><ele>90.5</ele><time>2026-04-26T07:53:29.526Z</time></trkpt><trkpt lat="39.38729" lon="9.072865"><ele>91.0</ele><time>2026-04-26T07:53:30.526Z</time></trkpt><trkpt lat="39.3873083" lon="9.0731633"><ele>91.5</ele><time>2026-04-26T07:53:31.525Z</time></trkpt><trkpt lat="39.3873467" lon="9.0734633"><ele>92.0</ele><time>2026-04-26T07:53:32.525Z</time></trkpt><trkpt lat="39.3873817" lon="9.0737783"><ele>92.0</ele><time>2026-04-26T07:53:33.526Z</time></trkpt><trkpt lat="39.3874133" lon="9.0740983"><ele>92.0</ele><time>2026-04-26T07:53:34.526Z</time></trkpt><trkpt lat="39.3874483" lon="9.07441"><ele>94.0</ele><time>2026-04-26T07:53:35.525Z</time></trkpt><trkpt lat="39.387485" lon="9.0747333"><ele>96.0</ele><time>2026-04-26T07:53:36.526Z</time></trkpt><trkpt lat="39.3875183" lon="9.0750433"><ele>100.0</ele><time>2026-04-26T07:53:37.526Z</time></trkpt><trkpt lat="39.3875633" lon="9.0753633"><ele>104.0</ele><time>2026-04-26T07:53:38.526Z</time></trkpt><trkpt lat="39.38759" lon="9.075675"><ele>102.5</ele><time>2026-04-26T07:53:39.525Z</time></trkpt><trkpt lat="39.387625" lon="9.0759933"><ele>101.0</ele><time>2026-04-26T07:53:40.525Z</time></trkpt><trkpt lat="39.3876683" lon="9.0763083"><ele>102.0</ele><time>2026-04-26T07:53:41.525Z</time></trkpt><trkpt lat="39.3877183" lon="9.0766233"><ele>103.0</ele><time>2026-04-26T07:53:42.525Z</time></trkpt><trkpt lat="39.38776" lon="9.0769517"><ele>103.0</ele><time>2026-04-26T07:53:43.526Z</time></trkpt><trkpt lat="39.3878283" lon="9.0772833"><ele>103.0</ele><time>2026-04-26T07:53:44.525Z</time></trkpt><trkpt lat="39.3878833" lon="9.077625"><ele>102.5</ele><time>2026-04-26T07:53:45.526Z</time></trkpt><trkpt lat="39.387955" lon="9.0779667"><ele>102.0</ele><time>2026-04-26T07:53:46.525Z</time></trkpt><trkpt lat="39.388015" lon="9.0783067"><ele>99.0</ele><time>2026-04-26T07:53:47.525Z</time></trkpt><trkpt lat="39.3880767" lon="9.0786567"><ele>96.0</ele><time>2026-04-26T07:53:48.525Z</time></trkpt><trkpt lat="39.38814" lon="9.0790017"><ele>94.5</ele><time>2026-04-26T07:53:49.526Z</time></trkpt><trkpt lat="39.3881983" lon="9.0793383"><ele>93.0</ele><time>2026-04-26T07:53:50.525Z</time></trkpt><trkpt lat="39.38825" lon="9.079675"><ele>93.5</ele><time>2026-04-26T07:53:51.526Z</time></trkpt><trkpt lat="39.3883117" lon="9.0800033"><ele>94.0</ele><time>2026-04-26T07:53:52.526Z</time></trkpt><trkpt lat="39.3883667" lon="9.0803317"><ele>94.0</ele><time>2026-04-26T07:53:53.525Z</time></trkpt><trkpt lat="39.3884417" lon="9.0806467"><ele>94.0</ele><time>2026-04-26T07:53:54.526Z</time></trkpt><trkpt lat="39.3885133" lon="9.0809467"><ele>94.5</ele><time>2026-04-26T07:53:55.526Z</time></trkpt><trkpt lat="39.38857" lon="9.0812367"><ele>95.0</ele><time>2026-04-26T07:53:56.526Z</time></trkpt><trkpt lat="39.38862" lon="9.0815183"><ele>94.66666666666667</ele><time>2026-04-26T07:53:57.525Z</time></trkpt><trkpt lat="39.3886717" lon="9.0817783"><ele>94.33333333333333</ele><time>2026-04-26T07:53:58.525Z</time></trkpt><trkpt lat="39.3887167" lon="9.0820133"><ele>94.0</ele><time>2026-04-26T07:53:59.526Z</time></trkpt><trkpt lat="39.388755" lon="9.08225"><ele>94.66666666666666</ele><time>2026-04-26T07:54:00.525Z</time></trkpt><trkpt lat="39.3887867" lon="9.08248"><ele>95.33333333333333</ele><time>2026-04-26T07:54:01.526Z</time></trkpt><trkpt lat="39.3888117" lon="9.0827"><ele>96.0</ele><time>2026-04-26T07:54:02.525Z</time></trkpt><trkpt lat="39.388805" lon="9.082905"><ele>96.0</ele><time>2026-04-26T07:54:03.526Z</time></trkpt><trkpt lat="39.3887933" lon="9.083085"><ele>96.0</ele><time>2026-04-26T07:54:04.526Z</time></trkpt><trkpt lat="39.388775" lon="9.0832517"><ele>96.0</ele><time>2026-04-26T07:54:05.525Z</time></trkpt><trkpt lat="39.3887583" lon="9.0833983"><ele>96.0</ele><time>2026-04-26T07:54:06.525Z</time></trkpt><trkpt lat="39.3887283" lon="9.0835283"><ele>96.16666666666667</ele><time>2026-04-26T07:54:07.526Z</time></trkpt><trkpt lat="39.3887117" lon="9.08364"><ele>96.33333333333334</ele><time>2026-04-26T07:54:08.525Z</time></trkpt><trkpt lat="39.3887117" lon="9.083735"><ele>96.5</ele><time>2026-04-26T07:54:09.526Z</time></trkpt><trkpt lat="39.3887233" lon="9.0838317"><ele>96.66666666666667</ele><time>2026-04-26T07:54:10.525Z</time></trkpt><trkpt lat="39.388765" lon="9.083895"><ele>96.83333333333334</ele><time>2026-04-26T07:54:11.525Z</time></trkpt><trkpt lat="39.3888783" lon="9.0839"><ele>97.0</ele><time>2026-04-26T07:54:13.526Z</time></trkpt><trkpt lat="39.388985" lon="9.08376"><ele>97.0</ele><time>2026-04-26T07:54:15.526Z</time></trkpt><trkpt lat="39.3890567" lon="9.083665"><ele>97.0</ele><time>2026-04-26T07:54:16.525Z</time></trkpt><trkpt lat="39.3891383" lon="9.0835533"><ele>97.0</ele><time>2026-04-26T07:54:17.525Z</time></trkpt><trkpt lat="39.3892317" lon="9.0834317"><ele>97.0</ele><time>2026-04-26T07:54:18.526Z</time></trkpt><trkpt lat="39.3893167" lon="9.0833183"><ele>97.00000000000001</ele><time>2026-04-26T07:54:19.525Z</time></trkpt><trkpt lat="39.3893933" lon="9.083215"><ele>97.0</ele><time>2026-04-26T07:54:20.526Z</time></trkpt><trkpt lat="39.3894617" lon="9.0831233"><ele>97.0</ele><time>2026-04-26T07:54:21.526Z</time></trkpt><trkpt lat="39.38952" lon="9.083055"><ele>97.0</ele><time>2026-04-26T07:54:22.526Z</time></trkpt><trkpt lat="39.3895817" lon="9.083"><ele>97.00000000000001</ele><time>2026-04-26T07:54:23.525Z</time></trkpt><trkpt lat="39.3896467" lon="9.0829683"><ele>97.0</ele><time>2026-04-26T07:54:24.526Z</time></trkpt><trkpt lat="39.3897133" lon="9.0829633"><ele>97.19999999999999</ele><time>2026-04-26T07:54:25.525Z</time></trkpt><trkpt lat="39.3897867" lon="9.083005"><ele>97.4</ele><time>2026-04-26T07:54:26.526Z</time></trkpt><trkpt lat="39.3898683" lon="9.083075"><ele>97.6</ele><time>2026-04-26T07:54:27.525Z</time></trkpt><trkpt lat="39.3899683" lon="9.083145"><ele>97.80000000000001</ele><time>2026-04-26T07:54:28.526Z</time></trkpt><trkpt lat="39.3900983" lon="9.0832033"><ele>98.0</ele><time>2026-04-26T07:54:29.526Z</time></trkpt><trkpt lat="39.3902467" lon="9.083235"><ele>98.0</ele><time>2026-04-26T07:54:30.526Z</time></trkpt><trkpt lat="39.3903983" lon="9.0832583"><ele>98.0</ele><time>2026-04-26T07:54:31.525Z</time></trkpt><trkpt lat="39.3905467" lon="9.0832867"><ele>98.0</ele><time>2026-04-26T07:54:32.526Z</time></trkpt><trkpt lat="39.3907167" lon="9.0833217"><ele>97.33333333333333</ele><time>2026-04-26T07:54:33.526Z</time></trkpt><trkpt lat="39.390895" lon="9.0833683"><ele>96.66666666666666</ele><time>2026-04-26T07:54:34.526Z</time></trkpt><trkpt lat="39.3910767" lon="9.0834033"><ele>96.0</ele><time>2026-04-26T07:54:35.526Z</time></trkpt><trkpt lat="39.391265" lon="9.083415"><ele>95.66666666666667</ele><time>2026-04-26T07:54:36.526Z</time></trkpt><trkpt lat="39.3914517" lon="9.08341"><ele>95.33333333333334</ele><time>2026-04-26T07:54:37.525Z</time></trkpt><trkpt lat="39.391645" lon="9.08338"><ele>95.0</ele><time>2026-04-26T07:54:38.525Z</time></trkpt><trkpt lat="39.3918417" lon="9.0833333"><ele>95.33333333333334</ele><time>2026-04-26T07:54:39.525Z</time></trkpt><trkpt lat="39.3920633" lon="9.0832633"><ele>95.66666666666667</ele><time>2026-04-26T07:54:40.525Z</time></trkpt><trkpt lat="39.39228" lon="9.0832067"><ele>96.0</ele><time>2026-04-26T07:54:41.525Z</time></trkpt><trkpt lat="39.392495" lon="9.0831433"><ele>96.0</ele><time>2026-04-26T07:54:42.525Z</time></trkpt><trkpt lat="39.3927217" lon="9.083105"><ele>96.0</ele><time>2026-04-26T07:54:43.525Z</time></trkpt><trkpt lat="39.3929333" lon="9.08307"><ele>96.0</ele><time>2026-04-26T07:54:44.526Z</time></trkpt><trkpt lat="39.39315" lon="9.083025"><ele>95.66666666666667</ele><time>2026-04-26T07:54:45.525Z</time></trkpt><trkpt lat="39.39336" lon="9.0829883"><ele>95.33333333333334</ele><time>2026-04-26T07:54:46.525Z</time></trkpt><trkpt lat="39.3935583" lon="9.082945"><ele>95.0</ele><time>2026-04-26T07:54:47.526Z</time></trkpt><trkpt lat="39.3937467" lon="9.082905"><ele>95.0</ele><time>2026-04-26T07:54:48.525Z</time></trkpt><trkpt lat="39.3939217" lon="9.0828733"><ele>95.0</ele><time>2026-04-26T07:54:49.526Z</time></trkpt><trkpt lat="39.3940883" lon="9.0828417"><ele>95.0</ele><time>2026-04-26T07:54:50.525Z</time></trkpt><trkpt lat="39.3942433" lon="9.0828217"><ele>95.0</ele><time>2026-04-26T07:54:51.526Z</time></trkpt><trkpt lat="39.3944017" lon="9.0828017"><ele>95.0</ele><time>2026-04-26T07:54:52.525Z</time></trkpt><trkpt lat="39.394565" lon="9.08279"><ele>95.0</ele><time>2026-04-26T07:54:53.525Z</time></trkpt><trkpt lat="39.3947567" lon="9.0827967"><ele>95.0</ele><time>2026-04-26T07:54:54.526Z</time></trkpt><trkpt lat="39.39497" lon="9.08281"><ele>95.0</ele><time>2026-04-26T07:54:55.525Z</time></trkpt><trkpt lat="39.3951817" lon="9.08283"><ele>95.0</ele><time>2026-04-26T07:54:56.526Z</time></trkpt><trkpt lat="39.3953883" lon="9.0828417"><ele>94.66666666666667</ele><time>2026-04-26T07:54:57.525Z</time></trkpt><trkpt lat="39.3955817" lon="9.082845"><ele>94.33333333333333</ele><time>2026-04-26T07:54:58.525Z</time></trkpt><trkpt lat="39.3957833" lon="9.0828433"><ele>94.0</ele><time>2026-04-26T07:54:59.526Z</time></trkpt><trkpt lat="39.3959833" lon="9.0828433"><ele>94.0</ele><time>2026-04-26T07:55:00.525Z</time></trkpt><trkpt lat="39.396185" lon="9.0828467"><ele>94.0</ele><time>2026-04-26T07:55:01.526Z</time></trkpt><trkpt lat="39.3963833" lon="9.082845"><ele>94.0</ele><time>2026-04-26T07:55:02.525Z</time></trkpt><trkpt lat="39.39659" lon="9.0828517"><ele>94.0</ele><time>2026-04-26T07:55:03.526Z</time></trkpt><trkpt lat="39.3967867" lon="9.08284"><ele>94.0</ele><time>2026-04-26T07:55:04.525Z</time></trkpt><trkpt lat="39.39697" lon="9.0828367"><ele>94.0</ele><time>2026-04-26T07:55:05.525Z</time></trkpt><trkpt lat="39.3971383" lon="9.0828333"><ele>94.25</ele><time>2026-04-26T07:55:06.526Z</time></trkpt><trkpt lat="39.3972883" lon="9.0828383"><ele>94.5</ele><time>2026-04-26T07:55:07.525Z</time></trkpt><trkpt lat="39.3974183" lon="9.0828533"><ele>94.75</ele><time>2026-04-26T07:55:08.526Z</time></trkpt><trkpt lat="39.3975433" lon="9.0828883"><ele>95.0</ele><time>2026-04-26T07:55:09.526Z</time></trkpt><trkpt lat="39.397655" lon="9.0829683"><ele>95.0</ele><time>2026-04-26T07:55:10.525Z</time></trkpt><trkpt lat="39.3977617" lon="9.083065"><ele>95.0</ele><time>2026-04-26T07:55:11.525Z</time></trkpt><trkpt lat="39.3978717" lon="9.0831733"><ele>95.0</ele><time>2026-04-26T07:55:12.526Z</time></trkpt><trkpt lat="39.3979733" lon="9.0832867"><ele>95.0</ele><time>2026-04-26T07:55:13.525Z</time></trkpt><trkpt lat="39.3980683" lon="9.0833867"><ele>94.25</ele><time>2026-04-26T07:55:14.526Z</time></trkpt><trkpt lat="39.3981583" lon="9.0834883"><ele>93.5</ele><time>2026-04-26T07:55:15.526Z</time></trkpt><trkpt lat="39.398255" lon="9.083595"><ele>92.75</ele><time>2026-04-26T07:55:16.525Z</time></trkpt><trkpt lat="39.3983483" lon="9.0837133"><ele>92.0</ele><time>2026-04-26T07:55:17.526Z</time></trkpt><trkpt lat="39.3984617" lon="9.08383"><ele>92.0</ele><time>2026-04-26T07:55:18.525Z</time></trkpt><trkpt lat="39.398595" lon="9.08393"><ele>92.0</ele><time>2026-04-26T07:55:19.525Z</time></trkpt><trkpt lat="39.3987433" lon="9.084015"><ele>92.0</ele><time>2026-04-26T07:55:20.525Z</time></trkpt><trkpt lat="39.398895" lon="9.084065"><ele>92.33333333333334</ele><time>2026-04-26T07:55:21.526Z</time></trkpt><trkpt lat="39.3990567" lon="9.0840717"><ele>92.66666666666667</ele><time>2026-04-26T07:55:22.526Z</time></trkpt><trkpt lat="39.39923" lon="9.084075"><ele>93.0</ele><time>2026-04-26T07:55:23.525Z</time></trkpt><trkpt lat="39.399415" lon="9.0840817"><ele>93.0</ele><time>2026-04-26T07:55:24.525Z</time></trkpt><trkpt lat="39.3996083" lon="9.0840817"><ele>93.0</ele><time>2026-04-26T07:55:25.526Z</time></trkpt><trkpt lat="39.39981" lon="9.0840833"><ele>93.0</ele><time>2026-04-26T07:55:26.525Z</time></trkpt><trkpt lat="39.4000267" lon="9.0840917"><ele>93.33333333333333</ele><time>2026-04-26T07:55:27.526Z</time></trkpt><trkpt lat="39.400245" lon="9.0840933"><ele>93.66666666666666</ele><time>2026-04-26T07:55:28.525Z</time></trkpt><trkpt lat="39.4004667" lon="9.084095"><ele>94.0</ele><time>2026-04-26T07:55:29.525Z</time></trkpt><trkpt lat="39.40069" lon="9.0840967"><ele>94.0</ele><time>2026-04-26T07:55:30.525Z</time></trkpt><trkpt lat="39.400925" lon="9.0840983"><ele>94.0</ele><time>2026-04-26T07:55:31.526Z</time></trkpt><trkpt lat="39.4011567" lon="9.0841017"><ele>93.5</ele><time>2026-04-26T07:55:32.526Z</time></trkpt><trkpt lat="39.40139" lon="9.0841017"><ele>93.0</ele><time>2026-04-26T07:55:33.526Z</time></trkpt><trkpt lat="39.4016217" lon="9.084105"><ele>93.0</ele><time>2026-04-26T07:55:34.525Z</time></trkpt><trkpt lat="39.4018467" lon="9.0841167"><ele>93.0</ele><time>2026-04-26T07:55:35.526Z</time></trkpt><trkpt lat="39.4020733" lon="9.0841317"><ele>92.5</ele><time>2026-04-26T07:55:36.526Z</time></trkpt><trkpt lat="39.4023033" lon="9.0841567"><ele>92.0</ele><time>2026-04-26T07:55:37.526Z</time></trkpt><trkpt lat="39.4025417" lon="9.0841883"><ele>92.0</ele><time>2026-04-26T07:55:38.525Z</time></trkpt><trkpt lat="39.4027867" lon="9.0842267"><ele>92.0</ele><time>2026-04-26T07:55:39.526Z</time></trkpt><trkpt lat="39.4030283" lon="9.0842633"><ele>92.5</ele><time>2026-04-26T07:55:40.525Z</time></trkpt><trkpt lat="39.40327" lon="9.0843083"><ele>93.0</ele><time>2026-04-26T07:55:41.526Z</time></trkpt><trkpt lat="39.4035167" lon="9.0843467"><ele>93.0</ele><time>2026-04-26T07:55:42.526Z</time></trkpt><trkpt lat="39.40376" lon="9.0843867"><ele>93.0</ele><time>2026-04-26T07:55:43.526Z</time></trkpt><trkpt lat="39.4040033" lon="9.08443"><ele>93.5</ele><time>2026-04-26T07:55:44.525Z</time></trkpt><trkpt lat="39.4042483" lon="9.0844783"><ele>94.0</ele><time>2026-04-26T07:55:45.526Z</time></trkpt><trkpt lat="39.4044867" lon="9.0845117"><ele>94.5</ele><time>2026-04-26T07:55:46.526Z</time></trkpt><trkpt lat="39.4047183" lon="9.0845417"><ele>95.0</ele><time>2026-04-26T07:55:47.525Z</time></trkpt><trkpt lat="39.4049383" lon="9.0845533"><ele>95.0</ele><time>2026-04-26T07:55:48.526Z</time></trkpt><trkpt lat="39.4051417" lon="9.0845583"><ele>95.0</ele><time>2026-04-26T07:55:49.526Z</time></trkpt><trkpt lat="39.4053183" lon="9.0845483"><ele>95.0</ele><time>2026-04-26T07:55:50.526Z</time></trkpt><trkpt lat="39.4054883" lon="9.084555"><ele>94.33333333333334</ele><time>2026-04-26T07:55:51.526Z</time></trkpt><trkpt lat="39.4056633" lon="9.084565"><ele>93.66666666666667</ele><time>2026-04-26T07:55:52.526Z</time></trkpt><trkpt lat="39.405835" lon="9.084585"><ele>93.0</ele><time>2026-04-26T07:55:53.525Z</time></trkpt><trkpt lat="39.4060117" lon="9.0846467"><ele>93.0</ele><time>2026-04-26T07:55:54.525Z</time></trkpt><trkpt lat="39.4061933" lon="9.08473"><ele>93.0</ele><time>2026-04-26T07:55:55.526Z</time></trkpt><trkpt lat="39.4063767" lon="9.08485"><ele>93.0</ele><time>2026-04-26T07:55:56.526Z</time></trkpt><trkpt lat="39.4065583" lon="9.084985"><ele>91.66666666666667</ele><time>2026-04-26T07:55:57.525Z</time></trkpt><trkpt lat="39.4067383" lon="9.0851417"><ele>90.33333333333334</ele><time>2026-04-26T07:55:58.526Z</time></trkpt><trkpt lat="39.4069117" lon="9.0853117"><ele>89.0</ele><time>2026-04-26T07:55:59.525Z</time></trkpt><trkpt lat="39.407095" lon="9.0854833"><ele>88.66666666666667</ele><time>2026-04-26T07:56:00.526Z</time></trkpt><trkpt lat="39.4072717" lon="9.0856567"><ele>88.33333333333333</ele><time>2026-04-26T07:56:01.526Z</time></trkpt><trkpt lat="39.4074467" lon="9.0858317"><ele>88.0</ele><time>2026-04-26T07:56:02.525Z</time></trkpt><trkpt lat="39.4076233" lon="9.08601"><ele>88.66666666666666</ele><time>2026-04-26T07:56:03.526Z</time></trkpt><trkpt lat="39.4078017" lon="9.0861867"><ele>89.33333333333333</ele><time>2026-04-26T07:56:04.525Z</time></trkpt><trkpt lat="39.407975" lon="9.0863717"><ele>90.0</ele><time>2026-04-26T07:56:05.525Z</time></trkpt><trkpt lat="39.408145" lon="9.0865633"><ele>90.66666666666667</ele><time>2026-04-26T07:56:06.527Z</time></trkpt><trkpt lat="39.40831" lon="9.08676"><ele>91.33333333333334</ele><time>2026-04-26T07:56:07.527Z</time></trkpt><trkpt lat="39.4084667" lon="9.0869583"><ele>92.0</ele><time>2026-04-26T07:56:08.526Z</time></trkpt><trkpt lat="39.40863" lon="9.08716"><ele>92.0</ele><time>2026-04-26T07:56:09.526Z</time></trkpt><trkpt lat="39.4088" lon="9.0873367"><ele>92.0</ele><time>2026-04-26T07:56:10.526Z</time></trkpt><trkpt lat="39.4089783" lon="9.0874933"><ele>92.0</ele><time>2026-04-26T07:56:11.527Z</time></trkpt><trkpt lat="39.4091683" lon="9.0876383"><ele>91.66666666666667</ele><time>2026-04-26T07:56:12.527Z</time></trkpt><trkpt lat="39.40937" lon="9.0877567"><ele>91.33333333333333</ele><time>2026-04-26T07:56:13.527Z</time></trkpt><trkpt lat="39.4095783" lon="9.0878583"><ele>91.0</ele><time>2026-04-26T07:56:14.526Z</time></trkpt><trkpt lat="39.4097983" lon="9.08795"><ele>91.0</ele><time>2026-04-26T07:56:15.527Z</time></trkpt><trkpt lat="39.41001" lon="9.0880383"><ele>91.0</ele><time>2026-04-26T07:56:16.527Z</time></trkpt><trkpt lat="39.4102317" lon="9.088125"><ele>91.0</ele><time>2026-04-26T07:56:17.526Z</time></trkpt><trkpt lat="39.4104567" lon="9.0882033"><ele>91.0</ele><time>2026-04-26T07:56:18.527Z</time></trkpt><trkpt lat="39.4106867" lon="9.0882783"><ele>92.5</ele><time>2026-04-26T07:56:19.527Z</time></trkpt><trkpt lat="39.4109267" lon="9.088325"><ele>94.0</ele><time>2026-04-26T07:56:20.527Z</time></trkpt><trkpt lat="39.4111583" lon="9.0883383"><ele>94.0</ele><time>2026-04-26T07:56:21.526Z</time></trkpt><trkpt lat="39.4113833" lon="9.0883417"><ele>94.0</ele><time>2026-04-26T07:56:22.526Z</time></trkpt><trkpt lat="39.4115933" lon="9.0883433"><ele>94.0</ele><time>2026-04-26T07:56:23.527Z</time></trkpt><trkpt lat="39.4117867" lon="9.0883683"><ele>94.0</ele><time>2026-04-26T07:56:24.526Z</time></trkpt><trkpt lat="39.4119683" lon="9.0884217"><ele>94.0</ele><time>2026-04-26T07:56:25.526Z</time></trkpt><trkpt lat="39.4121517" lon="9.0885"><ele>94.0</ele><time>2026-04-26T07:56:26.526Z</time></trkpt><trkpt lat="39.412315" lon="9.0886083"><ele>94.0</ele><time>2026-04-26T07:56:27.526Z</time></trkpt><trkpt lat="39.4124833" lon="9.0887283"><ele>94.0</ele><time>2026-04-26T07:56:28.527Z</time></trkpt><trkpt lat="39.412655" lon="9.0888483"><ele>94.0</ele><time>2026-04-26T07:56:29.527Z</time></trkpt><trkpt lat="39.412835" lon="9.0889783"><ele>94.0</ele><time>2026-04-26T07:56:30.526Z</time></trkpt><trkpt lat="39.4130283" lon="9.0891117"><ele>94.0</ele><time>2026-04-26T07:56:31.526Z</time></trkpt><trkpt lat="39.4132233" lon="9.0892533"><ele>94.0</ele><time>2026-04-26T07:56:32.527Z</time></trkpt><trkpt lat="39.4134233" lon="9.0893983"><ele>94.0</ele><time>2026-04-26T07:56:33.526Z</time></trkpt><trkpt lat="39.41362" lon="9.0895433"><ele>94.0</ele><time>2026-04-26T07:56:34.526Z</time></trkpt><trkpt lat="39.4138117" lon="9.08969"><ele>94.0</ele><time>2026-04-26T07:56:35.526Z</time></trkpt><trkpt lat="39.41401" lon="9.0898383"><ele>95.0</ele><time>2026-04-26T07:56:36.527Z</time></trkpt><trkpt lat="39.4142133" lon="9.0899917"><ele>96.0</ele><time>2026-04-26T07:56:37.526Z</time></trkpt><trkpt lat="39.4144167" lon="9.090145"><ele>96.0</ele><time>2026-04-26T07:56:38.527Z</time></trkpt><trkpt lat="39.414625" lon="9.0902917"><ele>96.0</ele><time>2026-04-26T07:56:39.526Z</time></trkpt><trkpt lat="39.4148317" lon="9.0904417"><ele>95.5</ele><time>2026-04-26T07:56:40.527Z</time></trkpt><trkpt lat="39.4150367" lon="9.0905917"><ele>95.0</ele><time>2026-04-26T07:56:41.526Z</time></trkpt><trkpt lat="39.4152383" lon="9.090745"><ele>95.0</ele><time>2026-04-26T07:56:42.526Z</time></trkpt><trkpt lat="39.41544" lon="9.0909"><ele>95.0</ele><time>2026-04-26T07:56:43.527Z</time></trkpt><trkpt lat="39.4156383" lon="9.09106"><ele>96.0</ele><time>2026-04-26T07:56:44.526Z</time></trkpt><trkpt lat="39.4158317" lon="9.091235"><ele>97.0</ele><time>2026-04-26T07:56:45.526Z</time></trkpt><trkpt lat="39.4160217" lon="9.0914167"><ele>98.0</ele><time>2026-04-26T07:56:46.526Z</time></trkpt><trkpt lat="39.4162017" lon="9.09162"><ele>99.0</ele><time>2026-04-26T07:56:47.527Z</time></trkpt><trkpt lat="39.4163767" lon="9.0918383"><ele>99.0</ele><time>2026-04-26T07:56:48.527Z</time></trkpt><trkpt lat="39.4165467" lon="9.09207"><ele>99.0</ele><time>2026-04-26T07:56:49.526Z</time></trkpt><trkpt lat="39.4167083" lon="9.0923"><ele>99.66666666666666</ele><time>2026-04-26T07:56:50.527Z</time></trkpt><trkpt lat="39.4168583" lon="9.0925267"><ele>100.33333333333333</ele><time>2026-04-26T07:56:51.527Z</time></trkpt><trkpt lat="39.4169867" lon="9.0927533"><ele>101.0</ele><time>2026-04-26T07:56:52.527Z</time></trkpt><trkpt lat="39.4171083" lon="9.0929783"><ele>100.66666666666666</ele><time>2026-04-26T07:56:53.526Z</time></trkpt><trkpt lat="39.4172033" lon="9.0932133"><ele>100.33333333333334</ele><time>2026-04-26T07:56:54.526Z</time></trkpt><trkpt lat="39.4172983" lon="9.0934667"><ele>100.0</ele><time>2026-04-26T07:56:55.527Z</time></trkpt><trkpt lat="39.4173783" lon="9.0937417"><ele>101.0</ele><time>2026-04-26T07:56:56.527Z</time></trkpt><trkpt lat="39.4174633" lon="9.0940117"><ele>102.0</ele><time>2026-04-26T07:56:57.526Z</time></trkpt><trkpt lat="39.4175467" lon="9.0943083"><ele>103.5</ele><time>2026-04-26T07:56:58.526Z</time></trkpt><trkpt lat="39.4176367" lon="9.094585"><ele>105.0</ele><time>2026-04-26T07:56:59.526Z</time></trkpt><trkpt lat="39.4177233" lon="9.0948667"><ele>106.0</ele><time>2026-04-26T07:57:00.527Z</time></trkpt><trkpt lat="39.41781" lon="9.0951467"><ele>107.0</ele><time>2026-04-26T07:57:01.526Z</time></trkpt><trkpt lat="39.4178917" lon="9.09542"><ele>107.0</ele><time>2026-04-26T07:57:02.526Z</time></trkpt><trkpt lat="39.4179633" lon="9.09567"><ele>107.0</ele><time>2026-04-26T07:57:03.527Z</time></trkpt><trkpt lat="39.4180383" lon="9.0959017"><ele>107.0</ele><time>2026-04-26T07:57:04.527Z</time></trkpt><trkpt lat="39.4181183" lon="9.0961167"><ele>107.66666666666666</ele><time>2026-04-26T07:57:05.527Z</time></trkpt><trkpt lat="39.4182433" lon="9.096305"><ele>108.33333333333334</ele><time>2026-04-26T07:57:06.527Z</time></trkpt><trkpt lat="39.418395" lon="9.096475"><ele>109.0</ele><time>2026-04-26T07:57:07.526Z</time></trkpt><trkpt lat="39.4185583" lon="9.0966283"><ele>109.0</ele><time>2026-04-26T07:57:08.526Z</time></trkpt><trkpt lat="39.41872" lon="9.0967767"><ele>109.0</ele><time>2026-04-26T07:57:09.526Z</time></trkpt><trkpt lat="39.4188833" lon="9.09693"><ele>109.0</ele><time>2026-04-26T07:57:10.526Z</time></trkpt><trkpt lat="39.419055" lon="9.09708"><ele>110.0</ele><time>2026-04-26T07:57:11.527Z</time></trkpt><trkpt lat="39.41922" lon="9.097235"><ele>111.0</ele><time>2026-04-26T07:57:12.526Z</time></trkpt><trkpt lat="39.4193967" lon="9.0973917"><ele>112.0</ele><time>2026-04-26T07:57:13.527Z</time></trkpt><trkpt lat="39.41957" lon="9.0975483"><ele>113.33333333333334</ele><time>2026-04-26T07:57:14.527Z</time></trkpt><trkpt lat="39.41974" lon="9.097715"><ele>114.66666666666666</ele><time>2026-04-26T07:57:15.526Z</time></trkpt><trkpt lat="39.4199" lon="9.097905"><ele>116.0</ele><time>2026-04-26T07:57:16.527Z</time></trkpt><trkpt lat="39.4200667" lon="9.0981233"><ele>114.5</ele><time>2026-04-26T07:57:17.526Z</time></trkpt><trkpt lat="39.420225" lon="9.0983617"><ele>113.0</ele><time>2026-04-26T07:57:18.526Z</time></trkpt><trkpt lat="39.4203917" lon="9.0986083"><ele>114.5</ele><time>2026-04-26T07:57:19.527Z</time></trkpt><trkpt lat="39.42056" lon="9.09886"><ele>116.0</ele><time>2026-04-26T07:57:20.526Z</time></trkpt><trkpt lat="39.42073" lon="9.0991167"><ele>116.0</ele><time>2026-04-26T07:57:21.527Z</time></trkpt><trkpt lat="39.4209017" lon="9.0993767"><ele>116.0</ele><time>2026-04-26T07:57:22.526Z</time></trkpt><trkpt lat="39.4210667" lon="9.0996367"><ele>116.0</ele><time>2026-04-26T07:57:23.526Z</time></trkpt><trkpt lat="39.4212333" lon="9.0998933"><ele>116.0</ele><time>2026-04-26T07:57:24.526Z</time></trkpt><trkpt lat="39.4213983" lon="9.100145"><ele>116.5</ele><time>2026-04-26T07:57:25.527Z</time></trkpt><trkpt lat="39.421565" lon="9.1003867"><ele>117.0</ele><time>2026-04-26T07:57:26.526Z</time></trkpt><trkpt lat="39.42173" lon="9.1006367"><ele>116.5</ele><time>2026-04-26T07:57:27.526Z</time></trkpt><trkpt lat="39.421895" lon="9.1008867"><ele>116.0</ele><time>2026-04-26T07:57:28.526Z</time></trkpt><trkpt lat="39.4220567" lon="9.1011333"><ele>117.5</ele><time>2026-04-26T07:57:29.527Z</time></trkpt><trkpt lat="39.42222" lon="9.10138"><ele>119.0</ele><time>2026-04-26T07:57:30.526Z</time></trkpt><trkpt lat="39.42238" lon="9.1016233"><ele>119.0</ele><time>2026-04-26T07:57:31.526Z</time></trkpt><trkpt lat="39.42253" lon="9.1018733"><ele>119.0</ele><time>2026-04-26T07:57:32.526Z</time></trkpt><trkpt lat="39.4226817" lon="9.102105"><ele>119.0</ele><time>2026-04-26T07:57:33.527Z</time></trkpt><trkpt lat="39.4228317" lon="9.10234"><ele>119.0</ele><time>2026-04-26T07:57:34.526Z</time></trkpt><trkpt lat="39.4229833" lon="9.1025733"><ele>120.0</ele><time>2026-04-26T07:57:35.526Z</time></trkpt><trkpt lat="39.4231383" lon="9.1028067"><ele>121.0</ele><time>2026-04-26T07:57:36.527Z</time></trkpt><trkpt lat="39.4232967" lon="9.1030367"><ele>121.0</ele><time>2026-04-26T07:57:37.526Z</time></trkpt><trkpt lat="39.42346" lon="9.103265"><ele>121.0</ele><time>2026-04-26T07:57:38.526Z</time></trkpt><trkpt lat="39.423615" lon="9.1034983"><ele>121.0</ele><time>2026-04-26T07:57:39.526Z</time></trkpt><trkpt lat="39.42378" lon="9.10374"><ele>121.0</ele><time>2026-04-26T07:57:40.526Z</time></trkpt><trkpt lat="39.4239483" lon="9.1039783"><ele>121.0</ele><time>2026-04-26T07:57:41.526Z</time></trkpt><trkpt lat="39.4241267" lon="9.1042217"><ele>121.0</ele><time>2026-04-26T07:57:42.526Z</time></trkpt><trkpt lat="39.424325" lon="9.1044483"><ele>121.0</ele><time>2026-04-26T07:57:43.527Z</time></trkpt><trkpt lat="39.4245467" lon="9.10467"><ele>121.0</ele><time>2026-04-26T07:57:44.527Z</time></trkpt><trkpt lat="39.4247667" lon="9.10486"><ele>120.0</ele><time>2026-04-26T07:57:45.527Z</time></trkpt><trkpt lat="39.4249867" lon="9.10503"><ele>119.0</ele><time>2026-04-26T07:57:46.526Z</time></trkpt><trkpt lat="39.4251917" lon="9.1051883"><ele>119.0</ele><time>2026-04-26T07:57:47.527Z</time></trkpt><trkpt lat="39.4253883" lon="9.1053433"><ele>119.0</ele><time>2026-04-26T07:57:48.527Z</time></trkpt><trkpt lat="39.425575" lon="9.1054917"><ele>119.0</ele><time>2026-04-26T07:57:49.527Z</time></trkpt><trkpt lat="39.425755" lon="9.10564"><ele>119.0</ele><time>2026-04-26T07:57:50.526Z</time></trkpt><trkpt lat="39.425935" lon="9.1058"><ele>119.0</ele><time>2026-04-26T07:57:51.527Z</time></trkpt><trkpt lat="39.4260983" lon="9.1059633"><ele>119.0</ele><time>2026-04-26T07:57:52.526Z</time></trkpt><trkpt lat="39.4262467" lon="9.10612"><ele>119.0</ele><time>2026-04-26T07:57:53.527Z</time></trkpt><trkpt lat="39.4263733" lon="9.1062817"><ele>119.0</ele><time>2026-04-26T07:57:54.527Z</time></trkpt><trkpt lat="39.4264883" lon="9.1064533"><ele>119.0</ele><time>2026-04-26T07:57:55.527Z</time></trkpt><trkpt lat="39.4265917" lon="9.1066433"><ele>119.0</ele><time>2026-04-26T07:57:56.527Z</time></trkpt><trkpt lat="39.426695" lon="9.1068483"><ele>119.0</ele><time>2026-04-26T07:57:57.527Z</time></trkpt><trkpt lat="39.42679" lon="9.1070633"><ele>119.0</ele><time>2026-04-26T07:57:58.527Z</time></trkpt><trkpt lat="39.4268767" lon="9.1072783"><ele>119.66666666666666</ele><time>2026-04-26T07:57:59.526Z</time></trkpt><trkpt lat="39.426955" lon="9.1074817"><ele>120.33333333333334</ele><time>2026-04-26T07:58:00.527Z</time></trkpt><trkpt lat="39.42702" lon="9.1076983"><ele>121.0</ele><time>2026-04-26T07:58:01.526Z</time></trkpt><trkpt lat="39.4270867" lon="9.1079333"><ele>120.66666666666667</ele><time>2026-04-26T07:58:02.527Z</time></trkpt><trkpt lat="39.42715" lon="9.1081817"><ele>120.33333333333334</ele><time>2026-04-26T07:58:03.526Z</time></trkpt><trkpt lat="39.4272067" lon="9.1084417"><ele>120.0</ele><time>2026-04-26T07:58:04.527Z</time></trkpt><trkpt lat="39.4272583" lon="9.1087117"><ele>120.0</ele><time>2026-04-26T07:58:05.526Z</time></trkpt><trkpt lat="39.4273117" lon="9.10898"><ele>120.0</ele><time>2026-04-26T07:58:06.527Z</time></trkpt><trkpt lat="39.4273683" lon="9.1092433"><ele>120.0</ele><time>2026-04-26T07:58:07.526Z</time></trkpt><trkpt lat="39.4274467" lon="9.1095067"><ele>120.33333333333334</ele><time>2026-04-26T07:58:08.527Z</time></trkpt><trkpt lat="39.4275367" lon="9.1097567"><ele>120.66666666666667</ele><time>2026-04-26T07:58:09.526Z</time></trkpt><trkpt lat="39.4276433" lon="9.1099917"><ele>121.0</ele><time>2026-04-26T07:58:10.527Z</time></trkpt><trkpt lat="39.42774" lon="9.1102217"><ele>121.0</ele><time>2026-04-26T07:58:11.527Z</time></trkpt><trkpt lat="39.42782" lon="9.1104567"><ele>121.0</ele><time>2026-04-26T07:58:12.526Z</time></trkpt><trkpt lat="39.4278783" lon="9.1107133"><ele>121.0</ele><time>2026-04-26T07:58:13.526Z</time></trkpt><trkpt lat="39.42793" lon="9.1109817"><ele>121.0</ele><time>2026-04-26T07:58:14.527Z</time></trkpt><trkpt lat="39.4279817" lon="9.1112433"><ele>121.0</ele><time>2026-04-26T07:58:15.527Z</time></trkpt><trkpt lat="39.4280367" lon="9.1115"><ele>121.0</ele><time>2026-04-26T07:58:16.527Z</time></trkpt><trkpt lat="39.428095" lon="9.111755"><ele>121.33333333333334</ele><time>2026-04-26T07:58:17.527Z</time></trkpt><trkpt lat="39.4281817" lon="9.1120117"><ele>121.66666666666666</ele><time>2026-04-26T07:58:18.526Z</time></trkpt><trkpt lat="39.428285" lon="9.112255"><ele>122.0</ele><time>2026-04-26T07:58:19.527Z</time></trkpt><trkpt lat="39.4283983" lon="9.1124917"><ele>122.5</ele><time>2026-04-26T07:58:20.527Z</time></trkpt><trkpt lat="39.4285233" lon="9.1127317"><ele>123.0</ele><time>2026-04-26T07:58:21.527Z</time></trkpt><trkpt lat="39.428655" lon="9.1129767"><ele>123.0</ele><time>2026-04-26T07:58:22.527Z</time></trkpt><trkpt lat="39.4287883" lon="9.1132267"><ele>123.0</ele><time>2026-04-26T07:58:23.526Z</time></trkpt><trkpt lat="39.428935" lon="9.1134733"><ele>123.0</ele><time>2026-04-26T07:58:24.527Z</time></trkpt><trkpt lat="39.429085" lon="9.1137183"><ele>123.0</ele><time>2026-04-26T07:58:25.527Z</time></trkpt><trkpt lat="39.4292383" lon="9.1139667"><ele>122.5</ele><time>2026-04-26T07:58:26.527Z</time></trkpt><trkpt lat="39.429395" lon="9.1142017"><ele>122.0</ele><time>2026-04-26T07:58:27.526Z</time></trkpt><trkpt lat="39.4295317" lon="9.114425"><ele>122.33333333333333</ele><time>2026-04-26T07:58:28.527Z</time></trkpt><trkpt lat="39.4296583" lon="9.1146317"><ele>122.66666666666666</ele><time>2026-04-26T07:58:29.526Z</time></trkpt><trkpt lat="39.42977" lon="9.1148217"><ele>123.0</ele><time>2026-04-26T07:58:30.526Z</time></trkpt><trkpt lat="39.42988" lon="9.1149933"><ele>123.33333333333334</ele><time>2026-04-26T07:58:31.527Z</time></trkpt><trkpt lat="39.42997" lon="9.115175"><ele>123.66666666666667</ele><time>2026-04-26T07:58:32.526Z</time></trkpt><trkpt lat="39.4300533" lon="9.1153867"><ele>124.0</ele><time>2026-04-26T07:58:33.527Z</time></trkpt><trkpt lat="39.43014" lon="9.115615"><ele>124.0</ele><time>2026-04-26T07:58:34.526Z</time></trkpt><trkpt lat="39.430215" lon="9.1158533"><ele>124.0</ele><time>2026-04-26T07:58:35.526Z</time></trkpt><trkpt lat="39.430285" lon="9.1160983"><ele>124.0</ele><time>2026-04-26T07:58:36.527Z</time></trkpt><trkpt lat="39.43035" lon="9.1163383"><ele>124.66666666666667</ele><time>2026-04-26T07:58:37.526Z</time></trkpt><trkpt lat="39.430425" lon="9.116575"><ele>125.33333333333334</ele><time>2026-04-26T07:58:38.527Z</time></trkpt><trkpt lat="39.4305167" lon="9.1168083"><ele>126.0</ele><time>2026-04-26T07:58:39.527Z</time></trkpt><trkpt lat="39.4306183" lon="9.117035"><ele>126.33333333333334</ele><time>2026-04-26T07:58:40.527Z</time></trkpt><trkpt lat="39.4307267" lon="9.1172733"><ele>126.66666666666667</ele><time>2026-04-26T07:58:41.527Z</time></trkpt><trkpt lat="39.4308417" lon="9.1175033"><ele>127.0</ele><time>2026-04-26T07:58:42.527Z</time></trkpt><trkpt lat="39.430955" lon="9.1177383"><ele>127.0</ele><time>2026-04-26T07:58:43.526Z</time></trkpt><trkpt lat="39.43106" lon="9.11796"><ele>127.0</ele><time>2026-04-26T07:58:44.527Z</time></trkpt><trkpt lat="39.4311567" lon="9.1181817"><ele>127.0</ele><time>2026-04-26T07:58:45.526Z</time></trkpt><trkpt lat="39.4312417" lon="9.118405"><ele>127.33333333333334</ele><time>2026-04-26T07:58:46.526Z</time></trkpt><trkpt lat="39.43132" lon="9.118605"><ele>127.66666666666666</ele><time>2026-04-26T07:58:47.526Z</time></trkpt><trkpt lat="39.4313967" lon="9.1187917"><ele>128.0</ele><time>2026-04-26T07:58:48.526Z</time></trkpt><trkpt lat="39.4314633" lon="9.1189817"><ele>129.0</ele><time>2026-04-26T07:58:49.526Z</time></trkpt><trkpt lat="39.4315367" lon="9.1191867"><ele>130.0</ele><time>2026-04-26T07:58:50.526Z</time></trkpt><trkpt lat="39.4316033" lon="9.1193983"><ele>131.0</ele><time>2026-04-26T07:58:51.526Z</time></trkpt><trkpt lat="39.4316667" lon="9.1195983"><ele>131.0</ele><time>2026-04-26T07:58:52.526Z</time></trkpt><trkpt lat="39.4317217" lon="9.1198067"><ele>131.0</ele><time>2026-04-26T07:58:53.526Z</time></trkpt><trkpt lat="39.4317683" lon="9.12003"><ele>131.0</ele><time>2026-04-26T07:58:54.526Z</time></trkpt><trkpt lat="39.4318067" lon="9.12025"><ele>131.0</ele><time>2026-04-26T07:58:55.527Z</time></trkpt><trkpt lat="39.4318383" lon="9.12045"><ele>131.0</ele><time>2026-04-26T07:58:56.526Z</time></trkpt><trkpt lat="39.43186" lon="9.1206433"><ele>131.0</ele><time>2026-04-26T07:58:57.527Z</time></trkpt><trkpt lat="39.4318733" lon="9.1208217"><ele>131.0</ele><time>2026-04-26T07:58:58.527Z</time></trkpt><trkpt lat="39.4318883" lon="9.1210067"><ele>132.0</ele><time>2026-04-26T07:58:59.526Z</time></trkpt><trkpt lat="39.4319017" lon="9.1211867"><ele>133.0</ele><time>2026-04-26T07:59:00.526Z</time></trkpt><trkpt lat="39.4319083" lon="9.121355"><ele>134.0</ele><time>2026-04-26T07:59:01.526Z</time></trkpt><trkpt lat="39.431915" lon="9.12151"><ele>135.0</ele><time>2026-04-26T07:59:02.526Z</time></trkpt><trkpt lat="39.431925" lon="9.1216467"><ele>135.4</ele><time>2026-04-26T07:59:03.526Z</time></trkpt><trkpt lat="39.4319383" lon="9.1217667"><ele>135.8</ele><time>2026-04-26T07:59:04.527Z</time></trkpt><trkpt lat="39.4319517" lon="9.1218583"><ele>136.2</ele><time>2026-04-26T07:59:05.527Z</time></trkpt><trkpt lat="39.4319567" lon="9.121995"><ele>136.6</ele><time>2026-04-26T07:59:07.527Z</time></trkpt><trkpt lat="39.4319467" lon="9.1221083"><ele>137.0</ele><time>2026-04-26T07:59:09.527Z</time></trkpt><trkpt lat="39.4319033" lon="9.12224"><ele>137.0</ele><time>2026-04-26T07:59:11.527Z</time></trkpt><trkpt lat="39.4318833" lon="9.12233"><ele>137.0</ele><time>2026-04-26T07:59:12.527Z</time></trkpt><trkpt lat="39.431875" lon="9.12245"><ele>137.0</ele><time>2026-04-26T07:59:13.527Z</time></trkpt><trkpt lat="39.4318617" lon="9.1226"><ele>137.0</ele><time>2026-04-26T07:59:14.527Z</time></trkpt><trkpt lat="39.431855" lon="9.12275"><ele>137.0</ele><time>2026-04-26T07:59:15.526Z</time></trkpt><trkpt lat="39.4318417" lon="9.1228683"><ele>137.6</ele><time>2026-04-26T07:59:16.526Z</time></trkpt><trkpt lat="39.4318217" lon="9.122975"><ele>138.2</ele><time>2026-04-26T07:59:17.526Z</time></trkpt><trkpt lat="39.431835" lon="9.1231"><ele>138.8</ele><time>2026-04-26T07:59:19.526Z</time></trkpt><trkpt lat="39.4318817" lon="9.12317"><ele>139.4</ele><time>2026-04-26T07:59:21.526Z</time></trkpt><trkpt lat="39.4319883" lon="9.1231067"><ele>140.0</ele><time>2026-04-26T07:59:23.526Z</time></trkpt><trkpt lat="39.4320667" lon="9.1230267"><ele>139.5</ele><time>2026-04-26T07:59:24.526Z</time></trkpt><trkpt lat="39.4321567" lon="9.1229467"><ele>139.0</ele><time>2026-04-26T07:59:25.527Z</time></trkpt><trkpt lat="39.432265" lon="9.122865"><ele>138.5</ele><time>2026-04-26T07:59:26.527Z</time></trkpt><trkpt lat="39.4323817" lon="9.1227767"><ele>138.0</ele><time>2026-04-26T07:59:27.526Z</time></trkpt><trkpt lat="39.4325033" lon="9.122715"><ele>138.0</ele><time>2026-04-26T07:59:28.526Z</time></trkpt><trkpt lat="39.4326067" lon="9.1226967"><ele>138.0</ele><time>2026-04-26T07:59:29.527Z</time></trkpt><trkpt lat="39.43272" lon="9.122715"><ele>138.0</ele><time>2026-04-26T07:59:30.526Z</time></trkpt><trkpt lat="39.4328433" lon="9.1227583"><ele>138.0</ele><time>2026-04-26T07:59:31.526Z</time></trkpt><trkpt lat="39.432955" lon="9.122805"><ele>137.4</ele><time>2026-04-26T07:59:32.526Z</time></trkpt><trkpt lat="39.4330567" lon="9.12286"><ele>136.8</ele><time>2026-04-26T07:59:33.526Z</time></trkpt><trkpt lat="39.4331517" lon="9.1229017"><ele>136.2</ele><time>2026-04-26T07:59:34.527Z</time></trkpt><trkpt lat="39.4332517" lon="9.1229467"><ele>135.6</ele><time>2026-04-26T07:59:35.526Z</time></trkpt><trkpt lat="39.4333533" lon="9.122985"><ele>135.0</ele><time>2026-04-26T07:59:36.526Z</time></trkpt><trkpt lat="39.43345" lon="9.1230233"><ele>135.0</ele><time>2026-04-26T07:59:37.527Z</time></trkpt><trkpt lat="39.4335283" lon="9.1230633"><ele>135.0</ele><time>2026-04-26T07:59:38.527Z</time></trkpt><trkpt lat="39.4335883" lon="9.1230917"><ele>135.0</ele><time>2026-04-26T07:59:39.527Z</time></trkpt><trkpt lat="39.4336667" lon="9.123135"><ele>135.0</ele><time>2026-04-26T07:59:41.526Z</time></trkpt><trkpt lat="39.4337417" lon="9.12319"><ele>135.0</ele><time>2026-04-26T07:59:44.527Z</time></trkpt><trkpt lat="39.4337483" lon="9.123305"><ele>135.0</ele><time>2026-04-26T07:59:46.527Z</time></trkpt><trkpt lat="39.4337217" lon="9.1234567"><ele>135.6</ele><time>2026-04-26T07:59:48.527Z</time></trkpt><trkpt lat="39.43369" lon="9.1236067"><ele>136.2</ele><time>2026-04-26T07:59:50.527Z</time></trkpt><trkpt lat="39.4336617" lon="9.1237367"><ele>136.8</ele><time>2026-04-26T07:59:52.526Z</time></trkpt><trkpt lat="39.4336383" lon="9.123815"><ele>137.4</ele><time>2026-04-26T07:59:54.526Z</time></trkpt><trkpt lat="39.4335967" lon="9.1239367"><ele>138.0</ele><time>2026-04-26T07:59:57.527Z</time></trkpt><trkpt lat="39.4335483" lon="9.1240017"><ele>138.5</ele><time>2026-04-26T07:59:58.527Z</time></trkpt><trkpt lat="39.433475" lon="9.12407"><ele>139.0</ele><time>2026-04-26T07:59:59.526Z</time></trkpt><trkpt lat="39.433375" lon="9.124155"><ele>139.5</ele><time>2026-04-26T08:00:00.526Z</time></trkpt><trkpt lat="39.43327" lon="9.1242467"><ele>140.0</ele><time>2026-04-26T08:00:01.526Z</time></trkpt><trkpt lat="39.4331633" lon="9.1243533"><ele>140.0</ele><time>2026-04-26T08:00:02.527Z</time></trkpt><trkpt lat="39.4330467" lon="9.124485"><ele>140.0</ele><time>2026-04-26T08:00:03.526Z</time></trkpt><trkpt lat="39.4329783" lon="9.1245983"><ele>140.0</ele><time>2026-04-26T08:00:04.527Z</time></trkpt><trkpt lat="39.4329" lon="9.1246983"><ele>140.0</ele><time>2026-04-26T08:00:05.527Z</time></trkpt><trkpt lat="39.4328083" lon="9.124805"><ele>140.6</ele><time>2026-04-26T08:00:06.527Z</time></trkpt><trkpt lat="39.4327133" lon="9.1248667"><ele>141.2</ele><time>2026-04-26T08:00:07.526Z</time></trkpt><trkpt lat="39.4326517" lon="9.124945"><ele>141.8</ele><time>2026-04-26T08:00:08.526Z</time></trkpt><trkpt lat="39.4326033" lon="9.1250017"><ele>142.4</ele><time>2026-04-26T08:00:09.526Z</time></trkpt><trkpt lat="39.432505" lon="9.1250883"><ele>143.0</ele><time>2026-04-26T08:00:11.527Z</time></trkpt><trkpt lat="39.4323933" lon="9.1251583"><ele>143.33333333333331</ele><time>2026-04-26T08:00:13.527Z</time></trkpt><trkpt lat="39.4323183" lon="9.125195"><ele>143.66666666666666</ele><time>2026-04-26T08:00:14.526Z</time></trkpt><trkpt lat="39.43223" lon="9.1252383"><ele>144.0</ele><time>2026-04-26T08:00:15.526Z</time></trkpt><trkpt lat="39.4321383" lon="9.1252683"><ele>144.33333333333334</ele><time>2026-04-26T08:00:16.527Z</time></trkpt><trkpt lat="39.4320683" lon="9.12529"><ele>144.66666666666669</ele><time>2026-04-26T08:00:17.527Z</time></trkpt><trkpt lat="39.432005" lon="9.1253133"><ele>145.0</ele><time>2026-04-26T08:00:18.527Z</time></trkpt><trkpt lat="39.4319317" lon="9.1253917"><ele>145.6</ele><time>2026-04-26T08:00:20.526Z</time></trkpt><trkpt lat="39.4318917" lon="9.1255"><ele>146.2</ele><time>2026-04-26T08:00:22.526Z</time></trkpt><trkpt lat="39.4319217" lon="9.125665"><ele>146.8</ele><time>2026-04-26T08:00:24.527Z</time></trkpt><trkpt lat="39.4319633" lon="9.125735"><ele>147.4</ele><time>2026-04-26T08:00:25.527Z</time></trkpt><trkpt lat="39.4320217" lon="9.1258083"><ele>148.0</ele><time>2026-04-26T08:00:26.526Z</time></trkpt><trkpt lat="39.4321117" lon="9.1259167"><ele>148.33333333333334</ele><time>2026-04-26T08:00:28.527Z</time></trkpt><trkpt lat="39.4321583" lon="9.1259917"><ele>148.66666666666669</ele><time>2026-04-26T08:00:29.526Z</time></trkpt><trkpt lat="39.4322033" lon="9.1260533"><ele>149.0</ele><time>2026-04-26T08:00:30.526Z</time></trkpt><trkpt lat="39.4322733" lon="9.1261633"><ele>149.33333333333334</ele><time>2026-04-26T08:00:32.526Z</time></trkpt><trkpt lat="39.43232" lon="9.1262233"><ele>149.66666666666666</ele><time>2026-04-26T08:00:34.526Z</time></trkpt><trkpt lat="39.4323833" lon="9.1262517"><ele>150.0</ele><time>2026-04-26T08:00:36.527Z</time></trkpt><trkpt lat="39.4324767" lon="9.12628"><ele>150.0</ele><time>2026-04-26T08:00:38.527Z</time></trkpt><trkpt lat="39.4325617" lon="9.1263167"><ele>150.0</ele><time>2026-04-26T08:00:40.526Z</time></trkpt><trkpt lat="39.4326517" lon="9.1264183"><ele>150.0</ele><time>2026-04-26T08:00:42.526Z</time></trkpt><trkpt lat="39.4327" lon="9.1265067"><ele>150.0</ele><time>2026-04-26T08:00:43.527Z</time></trkpt><trkpt lat="39.43275" lon="9.12661"><ele>150.0</ele><time>2026-04-26T08:00:44.526Z</time></trkpt><trkpt lat="39.4328017" lon="9.1267167"><ele>150.0</ele><time>2026-04-26T08:00:45.527Z</time></trkpt><trkpt lat="39.4328617" lon="9.1268083"><ele>150.0</ele><time>2026-04-26T08:00:46.526Z</time></trkpt><trkpt lat="39.4329283" lon="9.1268883"><ele>150.0</ele><time>2026-04-26T08:00:47.526Z</time></trkpt><trkpt lat="39.43301" lon="9.1269617"><ele>150.0</ele><time>2026-04-26T08:00:48.527Z</time></trkpt><trkpt lat="39.4330917" lon="9.1269883"><ele>150.0</ele><time>2026-04-26T08:00:49.526Z</time></trkpt><trkpt lat="39.4331533" lon="9.1270217"><ele>150.0</ele><time>2026-04-26T08:00:50.526Z</time></trkpt><trkpt lat="39.43322" lon="9.1270583"><ele>149.33333333333334</ele><time>2026-04-26T08:00:51.527Z</time></trkpt><trkpt lat="39.4333133" lon="9.1271533"><ele>148.66666666666666</ele><time>2026-04-26T08:00:53.527Z</time></trkpt><trkpt lat="39.43335" lon="9.1272317"><ele>148.0</ele><time>2026-04-26T08:00:54.527Z</time></trkpt><trkpt lat="39.4333683" lon="9.12733"><ele>147.33333333333331</ele><time>2026-04-26T08:00:55.527Z</time></trkpt><trkpt lat="39.4333833" lon="9.12743"><ele>146.66666666666666</ele><time>2026-04-26T08:00:56.526Z</time></trkpt><trkpt lat="39.4333867" lon="9.1275233"><ele>146.0</ele><time>2026-04-26T08:00:57.527Z</time></trkpt><trkpt lat="39.433375" lon="9.1276383"><ele>145.33333333333331</ele><time>2026-04-26T08:00:58.527Z</time></trkpt><trkpt lat="39.43335" lon="9.1277383"><ele>144.66666666666666</ele><time>2026-04-26T08:00:59.527Z</time></trkpt><trkpt lat="39.4333217" lon="9.127835"><ele>144.0</ele><time>2026-04-26T08:01:00.527Z</time></trkpt><trkpt lat="39.4332783" lon="9.1279467"><ele>143.33333333333334</ele><time>2026-04-26T08:01:01.527Z</time></trkpt><trkpt lat="39.4332333" lon="9.1280467"><ele>142.66666666666669</ele><time>2026-04-26T08:01:02.526Z</time></trkpt><trkpt lat="39.43319" lon="9.1281383"><ele>142.0</ele><time>2026-04-26T08:01:03.526Z</time></trkpt><trkpt lat="39.43314" lon="9.12823"><ele>141.79999999999998</ele><time>2026-04-26T08:01:04.526Z</time></trkpt><trkpt lat="39.433075" lon="9.1283117"><ele>141.6</ele><time>2026-04-26T08:01:05.527Z</time></trkpt><trkpt lat="39.4330133" lon="9.1284117"><ele>141.39999999999998</ele><time>2026-04-26T08:01:06.527Z</time></trkpt><trkpt lat="39.4329383" lon="9.1285033"><ele>141.2</ele><time>2026-04-26T08:01:07.527Z</time></trkpt><trkpt lat="39.4328683" lon="9.12861"><ele>141.0</ele><time>2026-04-26T08:01:08.527Z</time></trkpt><trkpt lat="39.4328" lon="9.1287133"><ele>141.5</ele><time>2026-04-26T08:01:09.526Z</time></trkpt><trkpt lat="39.4327283" lon="9.1288033"><ele>142.0</ele><time>2026-04-26T08:01:10.527Z</time></trkpt><trkpt lat="39.432675" lon="9.128865"><ele>142.5</ele><time>2026-04-26T08:01:11.527Z</time></trkpt><trkpt lat="39.4326217" lon="9.1289767"><ele>143.0</ele><time>2026-04-26T08:01:13.526Z</time></trkpt><trkpt lat="39.4325867" lon="9.1290517"><ele>143.5</ele><time>2026-04-26T08:01:15.527Z</time></trkpt><trkpt lat="39.43255" lon="9.1291467"><ele>144.0</ele><time>2026-04-26T08:01:17.527Z</time></trkpt><trkpt lat="39.432535" lon="9.1292283"><ele>144.0</ele><time>2026-04-26T08:01:18.526Z</time></trkpt><trkpt lat="39.4325267" lon="9.1293517"><ele>144.0</ele><time>2026-04-26T08:01:19.527Z</time></trkpt><trkpt lat="39.4325167" lon="9.12952"><ele>144.0</ele><time>2026-04-26T08:01:20.527Z</time></trkpt><trkpt lat="39.4325133" lon="9.1297067"><ele>144.0</ele><time>2026-04-26T08:01:21.526Z</time></trkpt><trkpt lat="39.4325" lon="9.1298817"><ele>144.0</ele><time>2026-04-26T08:01:22.526Z</time></trkpt><trkpt lat="39.432485" lon="9.1300467"><ele>144.0</ele><time>2026-04-26T08:01:23.527Z</time></trkpt><trkpt lat="39.43248" lon="9.1302067"><ele>144.0</ele><time>2026-04-26T08:01:24.527Z</time></trkpt><trkpt lat="39.432475" lon="9.1303567"><ele>144.0</ele><time>2026-04-26T08:01:25.527Z</time></trkpt><trkpt lat="39.4324867" lon="9.130515"><ele>144.0</ele><time>2026-04-26T08:01:26.526Z</time></trkpt><trkpt lat="39.4324917" lon="9.130705"><ele>144.0</ele><time>2026-04-26T08:01:27.526Z</time></trkpt><trkpt lat="39.4325033" lon="9.1308983"><ele>144.0</ele><time>2026-04-26T08:01:28.527Z</time></trkpt><trkpt lat="39.4325183" lon="9.13109"><ele>144.0</ele><time>2026-04-26T08:01:29.526Z</time></trkpt><trkpt lat="39.432525" lon="9.131285"><ele>144.0</ele><time>2026-04-26T08:01:30.527Z</time></trkpt><trkpt lat="39.4325317" lon="9.131485"><ele>144.0</ele><time>2026-04-26T08:01:31.527Z</time></trkpt><trkpt lat="39.4325283" lon="9.1316733"><ele>144.0</ele><time>2026-04-26T08:01:32.526Z</time></trkpt><trkpt lat="39.4325283" lon="9.1318617"><ele>144.0</ele><time>2026-04-26T08:01:33.527Z</time></trkpt><trkpt lat="39.4325217" lon="9.132055"><ele>144.0</ele><time>2026-04-26T08:01:34.526Z</time></trkpt><trkpt lat="39.4325117" lon="9.1322583"><ele>144.0</ele><time>2026-04-26T08:01:35.526Z</time></trkpt><trkpt lat="39.4324867" lon="9.1324783"><ele>144.0</ele><time>2026-04-26T08:01:36.527Z</time></trkpt><trkpt lat="39.43248" lon="9.132715"><ele>144.33333333333334</ele><time>2026-04-26T08:01:37.527Z</time></trkpt><trkpt lat="39.4324767" lon="9.1329583"><ele>144.66666666666669</ele><time>2026-04-26T08:01:38.526Z</time></trkpt><trkpt lat="39.4324567" lon="9.1332"><ele>145.0</ele><time>2026-04-26T08:01:39.527Z</time></trkpt><trkpt lat="39.43244" lon="9.1334483"><ele>144.33333333333334</ele><time>2026-04-26T08:01:40.526Z</time></trkpt><trkpt lat="39.4324367" lon="9.1336933"><ele>143.66666666666666</ele><time>2026-04-26T08:01:41.527Z</time></trkpt><trkpt lat="39.4324267" lon="9.1339433"><ele>143.0</ele><time>2026-04-26T08:01:42.527Z</time></trkpt><trkpt lat="39.4324233" lon="9.13421"><ele>142.66666666666666</ele><time>2026-04-26T08:01:43.527Z</time></trkpt><trkpt lat="39.432425" lon="9.1344683"><ele>142.33333333333334</ele><time>2026-04-26T08:01:44.527Z</time></trkpt><trkpt lat="39.4324233" lon="9.1347367"><ele>142.0</ele><time>2026-04-26T08:01:45.526Z</time></trkpt><trkpt lat="39.4324167" lon="9.1349833"><ele>142.66666666666669</ele><time>2026-04-26T08:01:46.526Z</time></trkpt><trkpt lat="39.4324117" lon="9.1352133"><ele>143.33333333333334</ele><time>2026-04-26T08:01:47.526Z</time></trkpt><trkpt lat="39.4323933" lon="9.135455"><ele>144.0</ele><time>2026-04-26T08:01:48.527Z</time></trkpt><trkpt lat="39.4323733" lon="9.1356883"><ele>145.0</ele><time>2026-04-26T08:01:49.527Z</time></trkpt><trkpt lat="39.432335" lon="9.1359083"><ele>146.0</ele><time>2026-04-26T08:01:50.526Z</time></trkpt><trkpt lat="39.4322883" lon="9.1361017"><ele>147.0</ele><time>2026-04-26T08:01:51.527Z</time></trkpt><trkpt lat="39.4322383" lon="9.1362867"><ele>147.0</ele><time>2026-04-26T08:01:52.527Z</time></trkpt><trkpt lat="39.43217" lon="9.1364717"><ele>147.0</ele><time>2026-04-26T08:01:53.527Z</time></trkpt><trkpt lat="39.4320933" lon="9.136675"><ele>147.0</ele><time>2026-04-26T08:01:54.526Z</time></trkpt><trkpt lat="39.432005" lon="9.1368833"><ele>147.0</ele><time>2026-04-26T08:01:55.526Z</time></trkpt><trkpt lat="39.4319267" lon="9.13711"><ele>147.0</ele><time>2026-04-26T08:01:56.527Z</time></trkpt><trkpt lat="39.4318317" lon="9.1373333"><ele>147.0</ele><time>2026-04-26T08:01:57.527Z</time></trkpt><trkpt lat="39.4317367" lon="9.1375883"><ele>147.0</ele><time>2026-04-26T08:01:58.527Z</time></trkpt><trkpt lat="39.4316417" lon="9.137845"><ele>147.0</ele><time>2026-04-26T08:01:59.526Z</time></trkpt><trkpt lat="39.4315433" lon="9.1381067"><ele>147.0</ele><time>2026-04-26T08:02:00.527Z</time></trkpt><trkpt lat="39.4314433" lon="9.13835"><ele>147.0</ele><time>2026-04-26T08:02:01.527Z</time></trkpt><trkpt lat="39.4313467" lon="9.1385817"><ele>147.0</ele><time>2026-04-26T08:02:02.527Z</time></trkpt><trkpt lat="39.4312617" lon="9.138815"><ele>147.0</ele><time>2026-04-26T08:02:03.526Z</time></trkpt><trkpt lat="39.4311933" lon="9.1390333"><ele>147.33333333333334</ele><time>2026-04-26T08:02:04.527Z</time></trkpt><trkpt lat="39.4311217" lon="9.1392483"><ele>147.66666666666669</ele><time>2026-04-26T08:02:05.527Z</time></trkpt><trkpt lat="39.4310417" lon="9.1394667"><ele>148.0</ele><time>2026-04-26T08:02:06.527Z</time></trkpt><trkpt lat="39.43095" lon="9.1396933"><ele>148.0</ele><time>2026-04-26T08:02:07.526Z</time></trkpt><trkpt lat="39.43086" lon="9.139925"><ele>148.0</ele><time>2026-04-26T08:02:08.526Z</time></trkpt><trkpt lat="39.4307733" lon="9.14016"><ele>148.0</ele><time>2026-04-26T08:02:09.526Z</time></trkpt><trkpt lat="39.4306767" lon="9.1403983"><ele>148.0</ele><time>2026-04-26T08:02:10.526Z</time></trkpt><trkpt lat="39.4305783" lon="9.1406467"><ele>148.0</ele><time>2026-04-26T08:02:11.527Z</time></trkpt><trkpt lat="39.430475" lon="9.1408967"><ele>148.0</ele><time>2026-04-26T08:02:12.526Z</time></trkpt><trkpt lat="39.4303883" lon="9.1411417"><ele>149.66666666666669</ele><time>2026-04-26T08:02:13.526Z</time></trkpt><trkpt lat="39.4302967" lon="9.1413683"><ele>151.33333333333334</ele><time>2026-04-26T08:02:14.527Z</time></trkpt><trkpt lat="39.4302133" lon="9.141605"><ele>153.0</ele><time>2026-04-26T08:02:15.526Z</time></trkpt><trkpt lat="39.4301333" lon="9.14183"><ele>154.0</ele><time>2026-04-26T08:02:16.526Z</time></trkpt><trkpt lat="39.4300567" lon="9.1420483"><ele>155.0</ele><time>2026-04-26T08:02:17.526Z</time></trkpt><trkpt lat="39.429975" lon="9.14226"><ele>156.0</ele><time>2026-04-26T08:02:18.527Z</time></trkpt><trkpt lat="39.42988" lon="9.1424633"><ele>156.0</ele><time>2026-04-26T08:02:19.527Z</time></trkpt><trkpt lat="39.4298067" lon="9.142675"><ele>156.0</ele><time>2026-04-26T08:02:20.527Z</time></trkpt><trkpt lat="39.4297483" lon="9.1428683"><ele>156.0</ele><time>2026-04-26T08:02:21.527Z</time></trkpt><trkpt lat="39.4296733" lon="9.14307"><ele>158.0</ele><time>2026-04-26T08:02:22.526Z</time></trkpt><trkpt lat="39.4295933" lon="9.14325"><ele>160.0</ele><time>2026-04-26T08:02:23.527Z</time></trkpt><trkpt lat="39.429515" lon="9.14343"><ele>162.0</ele><time>2026-04-26T08:02:24.527Z</time></trkpt><trkpt lat="39.4294217" lon="9.143595"><ele>162.0</ele><time>2026-04-26T08:02:25.526Z</time></trkpt><trkpt lat="39.4293033" lon="9.1437433"><ele>162.0</ele><time>2026-04-26T08:02:26.526Z</time></trkpt><trkpt lat="39.4291733" lon="9.1439017"><ele>162.0</ele><time>2026-04-26T08:02:27.527Z</time></trkpt><trkpt lat="39.42903" lon="9.1440533"><ele>161.5</ele><time>2026-04-26T08:02:28.526Z</time></trkpt><trkpt lat="39.4289117" lon="9.1442"><ele>161.0</ele><time>2026-04-26T08:02:29.526Z</time></trkpt><trkpt lat="39.42881" lon="9.1443017"><ele>160.5</ele><time>2026-04-26T08:02:30.526Z</time></trkpt><trkpt lat="39.4287267" lon="9.144415"><ele>160.0</ele><time>2026-04-26T08:02:31.527Z</time></trkpt><trkpt lat="39.4286667" lon="9.1445083"><ele>160.0</ele><time>2026-04-26T08:02:32.527Z</time></trkpt><trkpt lat="39.4286233" lon="9.1445783"><ele>160.0</ele><time>2026-04-26T08:02:33.526Z</time></trkpt><trkpt lat="39.4285367" lon="9.144675"><ele>160.0</ele><time>2026-04-26T08:02:34.527Z</time></trkpt><trkpt lat="39.428465" lon="9.1447683"><ele>160.0</ele><time>2026-04-26T08:02:35.526Z</time></trkpt><trkpt lat="39.428375" lon="9.1448717"><ele>160.0</ele><time>2026-04-26T08:02:36.526Z</time></trkpt><trkpt lat="39.428285" lon="9.1449817"><ele>159.66666666666669</ele><time>2026-04-26T08:02:37.526Z</time></trkpt><trkpt lat="39.4281683" lon="9.1451317"><ele>159.33333333333334</ele><time>2026-04-26T08:02:38.527Z</time></trkpt><trkpt lat="39.4280317" lon="9.1452833"><ele>159.0</ele><time>2026-04-26T08:02:39.527Z</time></trkpt><trkpt lat="39.4278767" lon="9.1454667"><ele>159.66666666666666</ele><time>2026-04-26T08:02:40.526Z</time></trkpt><trkpt lat="39.4277183" lon="9.14565"><ele>160.33333333333331</ele><time>2026-04-26T08:02:41.526Z</time></trkpt><trkpt lat="39.4275633" lon="9.1458417"><ele>161.0</ele><time>2026-04-26T08:02:42.526Z</time></trkpt><trkpt lat="39.4274017" lon="9.1460333"><ele>161.0</ele><time>2026-04-26T08:02:43.526Z</time></trkpt><trkpt lat="39.42725" lon="9.1462017"><ele>161.0</ele><time>2026-04-26T08:02:44.526Z</time></trkpt><trkpt lat="39.4271217" lon="9.146365"><ele>161.0</ele><time>2026-04-26T08:02:45.527Z</time></trkpt><trkpt lat="39.4269783" lon="9.146525"><ele>161.33333333333331</ele><time>2026-04-26T08:02:46.526Z</time></trkpt><trkpt lat="39.426855" lon="9.1466633"><ele>161.66666666666666</ele><time>2026-04-26T08:02:47.526Z</time></trkpt><trkpt lat="39.42674" lon="9.1468183"><ele>162.0</ele><time>2026-04-26T08:02:48.526Z</time></trkpt><trkpt lat="39.426625" lon="9.1469467"><ele>162.0</ele><time>2026-04-26T08:02:49.527Z</time></trkpt><trkpt lat="39.426535" lon="9.1470633"><ele>162.0</ele><time>2026-04-26T08:02:50.526Z</time></trkpt><trkpt lat="39.426455" lon="9.147165"><ele>162.0</ele><time>2026-04-26T08:02:51.526Z</time></trkpt><trkpt lat="39.4263833" lon="9.14725"><ele>162.0</ele><time>2026-04-26T08:02:52.526Z</time></trkpt><trkpt lat="39.42631" lon="9.1473367"><ele>162.0</ele><time>2026-04-26T08:02:53.526Z</time></trkpt><trkpt lat="39.4262433" lon="9.1474433"><ele>162.0</ele><time>2026-04-26T08:02:54.526Z</time></trkpt><trkpt lat="39.4261767" lon="9.1475367"><ele>162.0</ele><time>2026-04-26T08:02:55.526Z</time></trkpt><trkpt lat="39.4261167" lon="9.1476233"><ele>162.0</ele><time>2026-04-26T08:02:56.527Z</time></trkpt><trkpt lat="39.426085" lon="9.1477017"><ele>162.0</ele><time>2026-04-26T08:02:57.527Z</time></trkpt><trkpt lat="39.4260633" lon="9.1478117"><ele>162.0</ele><time>2026-04-26T08:02:59.526Z</time></trkpt><trkpt lat="39.4261017" lon="9.1479317"><ele>162.0</ele><time>2026-04-26T08:03:02.527Z</time></trkpt><trkpt lat="39.4261567" lon="9.1479767"><ele>162.0</ele><time>2026-04-26T08:03:03.527Z</time></trkpt><trkpt lat="39.42625" lon="9.148025"><ele>162.0</ele><time>2026-04-26T08:03:04.526Z</time></trkpt><trkpt lat="39.4263617" lon="9.148075"><ele>162.0</ele><time>2026-04-26T08:03:05.527Z</time></trkpt><trkpt lat="39.4264917" lon="9.1481117"><ele>162.0</ele><time>2026-04-26T08:03:06.526Z</time></trkpt><trkpt lat="39.4266367" lon="9.148155"><ele>162.0</ele><time>2026-04-26T08:03:07.527Z</time></trkpt><trkpt lat="39.4267833" lon="9.1481917"><ele>162.0</ele><time>2026-04-26T08:03:08.527Z</time></trkpt><trkpt lat="39.4269283" lon="9.14823"><ele>162.0</ele><time>2026-04-26T08:03:09.527Z</time></trkpt><trkpt lat="39.4270667" lon="9.1482633"><ele>162.0</ele><time>2026-04-26T08:03:10.527Z</time></trkpt><trkpt lat="39.427205" lon="9.1483033"><ele>162.66666666666666</ele><time>2026-04-26T08:03:11.526Z</time></trkpt><trkpt lat="39.42736" lon="9.148335"><ele>163.33333333333331</ele><time>2026-04-26T08:03:12.527Z</time></trkpt><trkpt lat="39.42753" lon="9.1483667"><ele>164.0</ele><time>2026-04-26T08:03:13.527Z</time></trkpt><trkpt lat="39.42772" lon="9.1483967"><ele>164.0</ele><time>2026-04-26T08:03:14.526Z</time></trkpt><trkpt lat="39.4279217" lon="9.1484483"><ele>164.0</ele><time>2026-04-26T08:03:15.527Z</time></trkpt><trkpt lat="39.4281383" lon="9.1485033"><ele>164.0</ele><time>2026-04-26T08:03:16.527Z</time></trkpt><trkpt lat="39.4283683" lon="9.1485583"><ele>163.5</ele><time>2026-04-26T08:03:17.527Z</time></trkpt><trkpt lat="39.428615" lon="9.1486117"><ele>163.0</ele><time>2026-04-26T08:03:18.527Z</time></trkpt><trkpt lat="39.4288567" lon="9.1486783"><ele>161.5</ele><time>2026-04-26T08:03:19.526Z</time></trkpt><trkpt lat="39.4291017" lon="9.148735"><ele>160.0</ele><time>2026-04-26T08:03:20.527Z</time></trkpt><trkpt lat="39.42936" lon="9.148795"><ele>160.0</ele><time>2026-04-26T08:03:21.527Z</time></trkpt><trkpt lat="39.4296333" lon="9.1488183"><ele>160.0</ele><time>2026-04-26T08:03:22.527Z</time></trkpt><trkpt lat="39.4299183" lon="9.14881"><ele>159.0</ele><time>2026-04-26T08:03:23.526Z</time></trkpt><trkpt lat="39.4301983" lon="9.1488017"><ele>158.0</ele><time>2026-04-26T08:03:24.527Z</time></trkpt><trkpt lat="39.43047" lon="9.1487883"><ele>158.0</ele><time>2026-04-26T08:03:25.527Z</time></trkpt><trkpt lat="39.430725" lon="9.1487767"><ele>158.0</ele><time>2026-04-26T08:03:26.526Z</time></trkpt><trkpt lat="39.430965" lon="9.1487683"><ele>158.0</ele><time>2026-04-26T08:03:27.526Z</time></trkpt><trkpt lat="39.4311883" lon="9.1487733"><ele>158.0</ele><time>2026-04-26T08:03:28.527Z</time></trkpt><trkpt lat="39.4314117" lon="9.1487767"><ele>158.0</ele><time>2026-04-26T08:03:29.527Z</time></trkpt><trkpt lat="39.4316367" lon="9.1487633"><ele>158.5</ele><time>2026-04-26T08:03:30.527Z</time></trkpt><trkpt lat="39.43186" lon="9.1487233"><ele>159.0</ele><time>2026-04-26T08:03:31.526Z</time></trkpt><trkpt lat="39.4320867" lon="9.148655"><ele>159.0</ele><time>2026-04-26T08:03:32.526Z</time></trkpt><trkpt lat="39.432305" lon="9.1485383"><ele>159.0</ele><time>2026-04-26T08:03:33.526Z</time></trkpt><trkpt lat="39.43251" lon="9.14839"><ele>159.0</ele><time>2026-04-26T08:03:34.526Z</time></trkpt><trkpt lat="39.4327" lon="9.1482067"><ele>159.0</ele><time>2026-04-26T08:03:35.527Z</time></trkpt><trkpt lat="39.4328833" lon="9.1480033"><ele>158.66666666666666</ele><time>2026-04-26T08:03:36.526Z</time></trkpt><trkpt lat="39.4330517" lon="9.14781"><ele>158.33333333333331</ele><time>2026-04-26T08:03:37.526Z</time></trkpt><trkpt lat="39.4332167" lon="9.1476333"><ele>158.0</ele><time>2026-04-26T08:03:38.527Z</time></trkpt><trkpt lat="39.4333767" lon="9.1474633"><ele>157.33333333333331</ele><time>2026-04-26T08:03:39.527Z</time></trkpt><trkpt lat="39.43354" lon="9.147305"><ele>156.66666666666666</ele><time>2026-04-26T08:03:40.527Z</time></trkpt><trkpt lat="39.4337067" lon="9.1471733"><ele>156.0</ele><time>2026-04-26T08:03:41.527Z</time></trkpt><trkpt lat="39.4338783" lon="9.147065"><ele>155.66666666666666</ele><time>2026-04-26T08:03:42.526Z</time></trkpt><trkpt lat="39.4340583" lon="9.1469783"><ele>155.33333333333331</ele><time>2026-04-26T08:03:43.527Z</time></trkpt><trkpt lat="39.4342433" lon="9.1469083"><ele>155.0</ele><time>2026-04-26T08:03:44.527Z</time></trkpt><trkpt lat="39.4344383" lon="9.1468817"><ele>156.0</ele><time>2026-04-26T08:03:45.527Z</time></trkpt><trkpt lat="39.4346433" lon="9.1468983"><ele>157.0</ele><time>2026-04-26T08:03:46.527Z</time></trkpt><trkpt lat="39.43484" lon="9.1469433"><ele>158.0</ele><time>2026-04-26T08:03:47.527Z</time></trkpt><trkpt lat="39.4350367" lon="9.1470117"><ele>158.0</ele><time>2026-04-26T08:03:48.527Z</time></trkpt><trkpt lat="39.4352217" lon="9.14711"><ele>158.0</ele><time>2026-04-26T08:03:49.527Z</time></trkpt><trkpt lat="39.4354083" lon="9.1472317"><ele>158.0</ele><time>2026-04-26T08:03:50.526Z</time></trkpt><trkpt lat="39.435605" lon="9.14737"><ele>159.0</ele><time>2026-04-26T08:03:51.526Z</time></trkpt><trkpt lat="39.4358117" lon="9.1474983"><ele>160.0</ele><time>2026-04-26T08:03:52.526Z</time></trkpt><trkpt lat="39.4360167" lon="9.1476283"><ele>160.0</ele><time>2026-04-26T08:03:53.526Z</time></trkpt><trkpt lat="39.4362333" lon="9.1477717"><ele>160.0</ele><time>2026-04-26T08:03:54.526Z</time></trkpt><trkpt lat="39.436455" lon="9.1479117"><ele>159.5</ele><time>2026-04-26T08:03:55.526Z</time></trkpt><trkpt lat="39.4366833" lon="9.1480567"><ele>159.0</ele><time>2026-04-26T08:03:56.527Z</time></trkpt><trkpt lat="39.436915" lon="9.1482083"><ele>158.5</ele><time>2026-04-26T08:03:57.526Z</time></trkpt><trkpt lat="39.43715" lon="9.1483583"><ele>158.0</ele><time>2026-04-26T08:03:58.526Z</time></trkpt><trkpt lat="39.437375" lon="9.148505"><ele>158.0</ele><time>2026-04-26T08:03:59.527Z</time></trkpt><trkpt lat="39.4376033" lon="9.148645"><ele>158.0</ele><time>2026-04-26T08:04:00.527Z</time></trkpt><trkpt lat="39.437845" lon="9.1487767"><ele>158.5</ele><time>2026-04-26T08:04:01.526Z</time></trkpt><trkpt lat="39.438075" lon="9.14891"><ele>159.0</ele><time>2026-04-26T08:04:02.527Z</time></trkpt><trkpt lat="39.4382817" lon="9.1490433"><ele>160.5</ele><time>2026-04-26T08:04:03.527Z</time></trkpt><trkpt lat="39.43849" lon="9.1491733"><ele>162.0</ele><time>2026-04-26T08:04:04.527Z</time></trkpt><trkpt lat="39.43869" lon="9.149295"><ele>161.0</ele><time>2026-04-26T08:04:05.526Z</time></trkpt><trkpt lat="39.4388733" lon="9.1494333"><ele>160.0</ele><time>2026-04-26T08:04:06.527Z</time></trkpt><trkpt lat="39.4390433" lon="9.14959"><ele>159.0</ele><time>2026-04-26T08:04:07.526Z</time></trkpt><trkpt lat="39.4392017" lon="9.149775"><ele>160.0</ele><time>2026-04-26T08:04:08.526Z</time></trkpt><trkpt lat="39.4393533" lon="9.149985"><ele>161.0</ele><time>2026-04-26T08:04:09.527Z</time></trkpt><trkpt lat="39.4395017" lon="9.15021"><ele>160.5</ele><time>2026-04-26T08:04:10.526Z</time></trkpt><trkpt lat="39.4396533" lon="9.1504283"><ele>160.0</ele><time>2026-04-26T08:04:11.527Z</time></trkpt><trkpt lat="39.4398" lon="9.1506517"><ele>160.66666666666669</ele><time>2026-04-26T08:04:12.526Z</time></trkpt><trkpt lat="39.4399383" lon="9.150875"><ele>161.33333333333334</ele><time>2026-04-26T08:04:13.526Z</time></trkpt><trkpt lat="39.4400733" lon="9.1510933"><ele>162.0</ele><time>2026-04-26T08:04:14.527Z</time></trkpt><trkpt lat="39.4402067" lon="9.1512733"><ele>162.0</ele><time>2026-04-26T08:04:15.527Z</time></trkpt><trkpt lat="39.4403467" lon="9.1514417"><ele>162.0</ele><time>2026-04-26T08:04:16.527Z</time></trkpt><trkpt lat="39.440465" lon="9.15161"><ele>162.0</ele><time>2026-04-26T08:04:17.526Z</time></trkpt><trkpt lat="39.44058" lon="9.1517767"><ele>163.66666666666666</ele><time>2026-04-26T08:04:18.526Z</time></trkpt><trkpt lat="39.4406817" lon="9.1519583"><ele>165.33333333333331</ele><time>2026-04-26T08:04:19.527Z</time></trkpt><trkpt lat="39.4408017" lon="9.15213"><ele>167.0</ele><time>2026-04-26T08:04:20.526Z</time></trkpt><trkpt lat="39.440925" lon="9.1523033"><ele>166.66666666666666</ele><time>2026-04-26T08:04:21.526Z</time></trkpt><trkpt lat="39.4410733" lon="9.152465"><ele>166.33333333333334</ele><time>2026-04-26T08:04:22.526Z</time></trkpt><trkpt lat="39.4412367" lon="9.15261"><ele>166.0</ele><time>2026-04-26T08:04:23.526Z</time></trkpt><trkpt lat="39.4414067" lon="9.152755"><ele>167.66666666666669</ele><time>2026-04-26T08:04:24.527Z</time></trkpt><trkpt lat="39.4415867" lon="9.1528933"><ele>169.33333333333334</ele><time>2026-04-26T08:04:25.526Z</time></trkpt><trkpt lat="39.4418" lon="9.1530133"><ele>171.0</ele><time>2026-04-26T08:04:26.527Z</time></trkpt><trkpt lat="39.4420333" lon="9.15311"><ele>172.5</ele><time>2026-04-26T08:04:27.526Z</time></trkpt><trkpt lat="39.4422633" lon="9.1532317"><ele>174.0</ele><time>2026-04-26T08:04:28.527Z</time></trkpt><trkpt lat="39.442485" lon="9.153365"><ele>174.0</ele><time>2026-04-26T08:04:29.527Z</time></trkpt><trkpt lat="39.4427167" lon="9.1534967"><ele>174.0</ele><time>2026-04-26T08:04:30.526Z</time></trkpt><trkpt lat="39.4429517" lon="9.15362"><ele>175.5</ele><time>2026-04-26T08:04:31.526Z</time></trkpt><trkpt lat="39.4431833" lon="9.1537467"><ele>177.0</ele><time>2026-04-26T08:04:32.527Z</time></trkpt><trkpt lat="39.4434133" lon="9.1538767"><ele>177.0</ele><time>2026-04-26T08:04:33.527Z</time></trkpt><trkpt lat="39.4436317" lon="9.1539983"><ele>177.0</ele><time>2026-04-26T08:04:34.526Z</time></trkpt><trkpt lat="39.4438317" lon="9.15411"><ele>178.33333333333334</ele><time>2026-04-26T08:04:35.526Z</time></trkpt><trkpt lat="39.4440133" lon="9.1542417"><ele>179.66666666666669</ele><time>2026-04-26T08:04:36.527Z</time></trkpt><trkpt lat="39.4441883" lon="9.1543933"><ele>181.0</ele><time>2026-04-26T08:04:37.527Z</time></trkpt><trkpt lat="39.4443433" lon="9.1545783"><ele>181.0</ele><time>2026-04-26T08:04:38.526Z</time></trkpt><trkpt lat="39.444485" lon="9.1547867"><ele>181.0</ele><time>2026-04-26T08:04:39.527Z</time></trkpt><trkpt lat="39.4446333" lon="9.1549967"><ele>181.0</ele><time>2026-04-26T08:04:40.527Z</time></trkpt><trkpt lat="39.4447817" lon="9.155215"><ele>182.66666666666669</ele><time>2026-04-26T08:04:41.526Z</time></trkpt><trkpt lat="39.444945" lon="9.1554133"><ele>184.33333333333334</ele><time>2026-04-26T08:04:42.527Z</time></trkpt><trkpt lat="39.4451083" lon="9.1556017"><ele>186.0</ele><time>2026-04-26T08:04:43.526Z</time></trkpt><trkpt lat="39.4452683" lon="9.1557733"><ele>187.66666666666666</ele><time>2026-04-26T08:04:44.526Z</time></trkpt><trkpt lat="39.4454233" lon="9.1559083"><ele>189.33333333333331</ele><time>2026-04-26T08:04:45.526Z</time></trkpt><trkpt lat="39.44559" lon="9.1560017"><ele>191.0</ele><time>2026-04-26T08:04:46.527Z</time></trkpt><trkpt lat="39.44577" lon="9.1560517"><ele>191.0</ele><time>2026-04-26T08:04:47.526Z</time></trkpt><trkpt lat="39.4459483" lon="9.1560667"><ele>191.0</ele><time>2026-04-26T08:04:48.526Z</time></trkpt><trkpt lat="39.4461133" lon="9.1560217"><ele>191.0</ele><time>2026-04-26T08:04:49.527Z</time></trkpt><trkpt lat="39.4462817" lon="9.1559533"><ele>193.0</ele><time>2026-04-26T08:04:50.527Z</time></trkpt><trkpt lat="39.44645" lon="9.1558817"><ele>195.0</ele><time>2026-04-26T08:04:51.527Z</time></trkpt><trkpt lat="39.44661" lon="9.15584"><ele>197.0</ele><time>2026-04-26T08:04:52.527Z</time></trkpt><trkpt lat="39.4467583" lon="9.155855"><ele>197.0</ele><time>2026-04-26T08:04:53.526Z</time></trkpt><trkpt lat="39.4468967" lon="9.1558983"><ele>197.0</ele><time>2026-04-26T08:04:54.526Z</time></trkpt><trkpt lat="39.4469883" lon="9.1560133"><ele>197.0</ele><time>2026-04-26T08:04:55.526Z</time></trkpt><trkpt lat="39.4470817" lon="9.15614"><ele>197.0</ele><time>2026-04-26T08:04:56.527Z</time></trkpt><trkpt lat="39.4471717" lon="9.1562833"><ele>197.75</ele><time>2026-04-26T08:04:57.527Z</time></trkpt><trkpt lat="39.447255" lon="9.1564017"><ele>198.5</ele><time>2026-04-26T08:04:58.526Z</time></trkpt><trkpt lat="39.44736" lon="9.1564817"><ele>199.25</ele><time>2026-04-26T08:04:59.527Z</time></trkpt><trkpt lat="39.4474767" lon="9.1565483"><ele>200.0</ele><time>2026-04-26T08:05:00.527Z</time></trkpt><trkpt lat="39.4476133" lon="9.1565917"><ele>203.0</ele><time>2026-04-26T08:05:01.527Z</time></trkpt><trkpt lat="39.4477717" lon="9.1565867"><ele>206.0</ele><time>2026-04-26T08:05:02.527Z</time></trkpt><trkpt lat="39.44795" lon="9.1565767"><ele>209.0</ele><time>2026-04-26T08:05:03.527Z</time></trkpt><trkpt lat="39.4481367" lon="9.1565533"><ele>207.33333333333334</ele><time>2026-04-26T08:05:04.527Z</time></trkpt><trkpt lat="39.4483267" lon="9.1565083"><ele>205.66666666666669</ele><time>2026-04-26T08:05:05.526Z</time></trkpt><trkpt lat="39.44852" lon="9.15647"><ele>204.0</ele><time>2026-04-26T08:05:06.527Z</time></trkpt><trkpt lat="39.4487183" lon="9.15641"><ele>206.0</ele><time>2026-04-26T08:05:07.526Z</time></trkpt><trkpt lat="39.4489233" lon="9.156325"><ele>208.0</ele><time>2026-04-26T08:05:08.526Z</time></trkpt><trkpt lat="39.449135" lon="9.156225"><ele>210.0</ele><time>2026-04-26T08:05:09.526Z</time></trkpt><trkpt lat="39.4493433" lon="9.1561133"><ele>210.0</ele><time>2026-04-26T08:05:10.526Z</time></trkpt><trkpt lat="39.4495567" lon="9.155985"><ele>210.0</ele><time>2026-04-26T08:05:11.526Z</time></trkpt><trkpt lat="39.4497883" lon="9.1558817"><ele>212.5</ele><time>2026-04-26T08:05:12.526Z</time></trkpt><trkpt lat="39.4500183" lon="9.155765"><ele>215.0</ele><time>2026-04-26T08:05:13.527Z</time></trkpt><trkpt lat="39.4502467" lon="9.155635"><ele>217.5</ele><time>2026-04-26T08:05:14.526Z</time></trkpt><trkpt lat="39.4504767" lon="9.1555133"><ele>220.0</ele><time>2026-04-26T08:05:15.527Z</time></trkpt><trkpt lat="39.4506983" lon="9.1553867"><ele>220.0</ele><time>2026-04-26T08:05:16.527Z</time></trkpt><trkpt lat="39.4509233" lon="9.1552667"><ele>220.0</ele><time>2026-04-26T08:05:17.527Z</time></trkpt><trkpt lat="39.4511717" lon="9.15515"><ele>222.5</ele><time>2026-04-26T08:05:18.527Z</time></trkpt><trkpt lat="39.4514367" lon="9.1550533"><ele>225.0</ele><time>2026-04-26T08:05:19.527Z</time></trkpt><trkpt lat="39.4517133" lon="9.1549733"><ele>225.0</ele><time>2026-04-26T08:05:20.526Z</time></trkpt><trkpt lat="39.45199" lon="9.1549067"><ele>225.0</ele><time>2026-04-26T08:05:21.526Z</time></trkpt><trkpt lat="39.4522767" lon="9.1548467"><ele>226.5</ele><time>2026-04-26T08:05:22.527Z</time></trkpt><trkpt lat="39.4525683" lon="9.154815"><ele>228.0</ele><time>2026-04-26T08:05:23.527Z</time></trkpt><trkpt lat="39.452885" lon="9.1548033"><ele>233.5</ele><time>2026-04-26T08:05:24.526Z</time></trkpt><trkpt lat="39.453195" lon="9.15481"><ele>239.0</ele><time>2026-04-26T08:05:25.526Z</time></trkpt><trkpt lat="39.4534933" lon="9.1548283"><ele>239.0</ele><time>2026-04-26T08:05:26.527Z</time></trkpt><trkpt lat="39.4537767" lon="9.1548583"><ele>239.0</ele><time>2026-04-26T08:05:27.526Z</time></trkpt><trkpt lat="39.4540417" lon="9.15491"><ele>246.5</ele><time>2026-04-26T08:05:28.527Z</time></trkpt><trkpt lat="39.4543033" lon="9.154965"><ele>254.0</ele><time>2026-04-26T08:05:29.526Z</time></trkpt><trkpt lat="39.4545317" lon="9.1550317"><ele>253.33333333333334</ele><time>2026-04-26T08:05:30.526Z</time></trkpt><trkpt lat="39.4547267" lon="9.15508"><ele>252.66666666666669</ele><time>2026-04-26T08:05:31.526Z</time></trkpt><trkpt lat="39.4549083" lon="9.15513"><ele>252.0</ele><time>2026-04-26T08:05:32.526Z</time></trkpt><trkpt lat="39.455075" lon="9.1551633"><ele>252.0</ele><time>2026-04-26T08:05:33.526Z</time></trkpt><trkpt lat="39.4552533" lon="9.155185"><ele>252.0</ele><time>2026-04-26T08:05:34.526Z</time></trkpt><trkpt lat="39.4554067" lon="9.155165"><ele>252.0</ele><time>2026-04-26T08:05:35.526Z</time></trkpt><trkpt lat="39.455555" lon="9.1550767"><ele>254.0</ele><time>2026-04-26T08:05:36.526Z</time></trkpt><trkpt lat="39.455665" lon="9.154935"><ele>256.0</ele><time>2026-04-26T08:05:37.526Z</time></trkpt><trkpt lat="39.45576" lon="9.1547817"><ele>258.0</ele><time>2026-04-26T08:05:38.527Z</time></trkpt><trkpt lat="39.4558233" lon="9.154605"><ele>258.0</ele><time>2026-04-26T08:05:39.526Z</time></trkpt><trkpt lat="39.4558533" lon="9.1543883"><ele>258.0</ele><time>2026-04-26T08:05:40.526Z</time></trkpt><trkpt lat="39.4558683" lon="9.1541533"><ele>258.0</ele><time>2026-04-26T08:05:41.526Z</time></trkpt><trkpt lat="39.45587" lon="9.1539133"><ele>258.0</ele><time>2026-04-26T08:05:42.526Z</time></trkpt><trkpt lat="39.4558683" lon="9.1536717"><ele>258.0</ele><time>2026-04-26T08:05:43.526Z</time></trkpt><trkpt lat="39.4558717" lon="9.1534683"><ele>258.0</ele><time>2026-04-26T08:05:44.527Z</time></trkpt><trkpt lat="39.4558967" lon="9.1532883"><ele>255.66666666666669</ele><time>2026-04-26T08:05:45.526Z</time></trkpt><trkpt lat="39.455945" lon="9.153115"><ele>253.33333333333334</ele><time>2026-04-26T08:05:46.527Z</time></trkpt><trkpt lat="39.4560117" lon="9.1529383"><ele>251.0</ele><time>2026-04-26T08:05:47.526Z</time></trkpt><trkpt lat="39.4561083" lon="9.1527717"><ele>251.0</ele><time>2026-04-26T08:05:48.526Z</time></trkpt><trkpt lat="39.4562267" lon="9.1526383"><ele>251.0</ele><time>2026-04-26T08:05:49.526Z</time></trkpt><trkpt lat="39.456375" lon="9.15255"><ele>251.0</ele><time>2026-04-26T08:05:50.527Z</time></trkpt><trkpt lat="39.4565167" lon="9.15249"><ele>254.66666666666669</ele><time>2026-04-26T08:05:51.527Z</time></trkpt><trkpt lat="39.456685" lon="9.15247"><ele>258.3333333333333</ele><time>2026-04-26T08:05:52.526Z</time></trkpt><trkpt lat="39.4568533" lon="9.15248"><ele>262.0</ele><time>2026-04-26T08:05:53.527Z</time></trkpt><trkpt lat="39.457015" lon="9.1525333"><ele>265.0</ele><time>2026-04-26T08:05:54.526Z</time></trkpt><trkpt lat="39.4571783" lon="9.1526283"><ele>268.0</ele><time>2026-04-26T08:05:55.526Z</time></trkpt><trkpt lat="39.4573167" lon="9.15277"><ele>271.0</ele><time>2026-04-26T08:05:56.526Z</time></trkpt><trkpt lat="39.457435" lon="9.1529433"><ele>271.0</ele><time>2026-04-26T08:05:57.526Z</time></trkpt><trkpt lat="39.45752" lon="9.15314"><ele>271.0</ele><time>2026-04-26T08:05:58.527Z</time></trkpt><trkpt lat="39.4575767" lon="9.153345"><ele>271.0</ele><time>2026-04-26T08:05:59.527Z</time></trkpt><trkpt lat="39.4576" lon="9.153565"><ele>272.66666666666663</ele><time>2026-04-26T08:06:00.527Z</time></trkpt><trkpt lat="39.4575933" lon="9.1537783"><ele>274.3333333333333</ele><time>2026-04-26T08:06:01.527Z</time></trkpt><trkpt lat="39.4575633" lon="9.1539867"><ele>276.0</ele><time>2026-04-26T08:06:02.526Z</time></trkpt><trkpt lat="39.4575" lon="9.1542083"><ele>278.0</ele><time>2026-04-26T08:06:03.527Z</time></trkpt><trkpt lat="39.45741" lon="9.1544417"><ele>280.0</ele><time>2026-04-26T08:06:04.527Z</time></trkpt><trkpt lat="39.4573217" lon="9.1547067"><ele>282.0</ele><time>2026-04-26T08:06:05.527Z</time></trkpt><trkpt lat="39.4572167" lon="9.15499"><ele>279.5</ele><time>2026-04-26T08:06:06.527Z</time></trkpt><trkpt lat="39.4571217" lon="9.15529"><ele>277.0</ele><time>2026-04-26T08:06:07.526Z</time></trkpt><trkpt lat="39.4570217" lon="9.1555867"><ele>280.0</ele><time>2026-04-26T08:06:08.527Z</time></trkpt><trkpt lat="39.4569283" lon="9.1558517"><ele>283.0</ele><time>2026-04-26T08:06:09.526Z</time></trkpt><trkpt lat="39.45684" lon="9.1560983"><ele>286.0</ele><time>2026-04-26T08:06:10.526Z</time></trkpt><trkpt lat="39.45675" lon="9.15631"><ele>286.0</ele><time>2026-04-26T08:06:11.526Z</time></trkpt><trkpt lat="39.4566583" lon="9.1564967"><ele>286.0</ele><time>2026-04-26T08:06:12.527Z</time></trkpt><trkpt lat="39.4565483" lon="9.1566767"><ele>286.0</ele><time>2026-04-26T08:06:13.527Z</time></trkpt><trkpt lat="39.4564083" lon="9.1568383"><ele>285.3333333333333</ele><time>2026-04-26T08:06:14.527Z</time></trkpt><trkpt lat="39.4562367" lon="9.15696"><ele>284.6666666666667</ele><time>2026-04-26T08:06:15.526Z</time></trkpt><trkpt lat="39.45605" lon="9.1570383"><ele>284.0</ele><time>2026-04-26T08:06:16.527Z</time></trkpt><trkpt lat="39.4558417" lon="9.1571067"><ele>284.0</ele><time>2026-04-26T08:06:17.527Z</time></trkpt><trkpt lat="39.4556367" lon="9.15717"><ele>284.0</ele><time>2026-04-26T08:06:18.527Z</time></trkpt><trkpt lat="39.4554467" lon="9.157225"><ele>284.0</ele><time>2026-04-26T08:06:19.526Z</time></trkpt><trkpt lat="39.4552833" lon="9.15729"><ele>286.33333333333337</ele><time>2026-04-26T08:06:20.526Z</time></trkpt><trkpt lat="39.455135" lon="9.1573517"><ele>288.6666666666667</ele><time>2026-04-26T08:06:21.527Z</time></trkpt><trkpt lat="39.4549867" lon="9.1574383"><ele>291.0</ele><time>2026-04-26T08:06:22.527Z</time></trkpt><trkpt lat="39.4548483" lon="9.1575483"><ele>294.6666666666667</ele><time>2026-04-26T08:06:23.527Z</time></trkpt><trkpt lat="39.4547333" lon="9.1577017"><ele>298.33333333333337</ele><time>2026-04-26T08:06:24.526Z</time></trkpt><trkpt lat="39.4546467" lon="9.1578767"><ele>302.0</ele><time>2026-04-26T08:06:25.526Z</time></trkpt><trkpt lat="39.454595" lon="9.15807"><ele>303.33333333333337</ele><time>2026-04-26T08:06:26.527Z</time></trkpt><trkpt lat="39.4545783" lon="9.1582783"><ele>304.6666666666667</ele><time>2026-04-26T08:06:27.527Z</time></trkpt><trkpt lat="39.4545833" lon="9.1584767"><ele>306.0</ele><time>2026-04-26T08:06:28.527Z</time></trkpt><trkpt lat="39.454625" lon="9.1586717"><ele>309.6666666666667</ele><time>2026-04-26T08:06:29.527Z</time></trkpt><trkpt lat="39.4546967" lon="9.1588533"><ele>313.33333333333337</ele><time>2026-04-26T08:06:30.526Z</time></trkpt><trkpt lat="39.4547933" lon="9.159015"><ele>317.0</ele><time>2026-04-26T08:06:31.526Z</time></trkpt><trkpt lat="39.45492" lon="9.15915"><ele>318.0</ele><time>2026-04-26T08:06:32.526Z</time></trkpt><trkpt lat="39.455065" lon="9.1592633"><ele>319.0</ele><time>2026-04-26T08:06:33.527Z</time></trkpt><trkpt lat="39.4552283" lon="9.1593333"><ele>320.0</ele><time>2026-04-26T08:06:34.527Z</time></trkpt><trkpt lat="39.455415" lon="9.1593583"><ele>320.6666666666667</ele><time>2026-04-26T08:06:35.527Z</time></trkpt><trkpt lat="39.4556133" lon="9.1593433"><ele>321.3333333333333</ele><time>2026-04-26T08:06:36.526Z</time></trkpt><trkpt lat="39.45584" lon="9.15933"><ele>322.0</ele><time>2026-04-26T08:06:37.526Z</time></trkpt><trkpt lat="39.4560833" lon="9.159305"><ele>324.5</ele><time>2026-04-26T08:06:38.527Z</time></trkpt><trkpt lat="39.456325" lon="9.159295"><ele>327.0</ele><time>2026-04-26T08:06:39.527Z</time></trkpt><trkpt lat="39.4565717" lon="9.1592883"><ele>327.0</ele><time>2026-04-26T08:06:40.526Z</time></trkpt><trkpt lat="39.456835" lon="9.1592633"><ele>327.0</ele><time>2026-04-26T08:06:41.526Z</time></trkpt><trkpt lat="39.4571033" lon="9.1592417"><ele>330.0</ele><time>2026-04-26T08:06:42.526Z</time></trkpt><trkpt lat="39.4573617" lon="9.15923"><ele>333.0</ele><time>2026-04-26T08:06:43.527Z</time></trkpt><trkpt lat="39.4575983" lon="9.1592133"><ele>333.0</ele><time>2026-04-26T08:06:44.527Z</time></trkpt><trkpt lat="39.4578117" lon="9.1592083"><ele>333.0</ele><time>2026-04-26T08:06:45.527Z</time></trkpt><trkpt lat="39.45802" lon="9.1591883"><ele>333.0</ele><time>2026-04-26T08:06:46.526Z</time></trkpt><trkpt lat="39.4582283" lon="9.1591433"><ele>333.0</ele><time>2026-04-26T08:06:47.526Z</time></trkpt><trkpt lat="39.4584383" lon="9.15906"><ele>333.0</ele><time>2026-04-26T08:06:48.527Z</time></trkpt><trkpt lat="39.45865" lon="9.158945"><ele>333.0</ele><time>2026-04-26T08:06:49.527Z</time></trkpt><trkpt lat="39.4588533" lon="9.1588033"><ele>334.6666666666667</ele><time>2026-04-26T08:06:50.527Z</time></trkpt><trkpt lat="39.4590333" lon="9.1586617"><ele>336.33333333333337</ele><time>2026-04-26T08:06:51.527Z</time></trkpt><trkpt lat="39.4592" lon="9.1585367"><ele>338.0</ele><time>2026-04-26T08:06:52.526Z</time></trkpt><trkpt lat="39.459375" lon="9.158445"><ele>338.0</ele><time>2026-04-26T08:06:53.526Z</time></trkpt><trkpt lat="39.4595533" lon="9.1584233"><ele>338.0</ele><time>2026-04-26T08:06:54.527Z</time></trkpt><trkpt lat="39.4597517" lon="9.1584483"><ele>338.0</ele><time>2026-04-26T08:06:55.526Z</time></trkpt><trkpt lat="39.45997" lon="9.1584833"><ele>338.0</ele><time>2026-04-26T08:06:56.527Z</time></trkpt><trkpt lat="39.4601983" lon="9.1585283"><ele>338.0</ele><time>2026-04-26T08:06:57.526Z</time></trkpt><trkpt lat="39.4604267" lon="9.1585867"><ele>338.6666666666667</ele><time>2026-04-26T08:06:58.526Z</time></trkpt><trkpt lat="39.46065" lon="9.1586267"><ele>339.3333333333333</ele><time>2026-04-26T08:06:59.527Z</time></trkpt><trkpt lat="39.46087" lon="9.1586667"><ele>340.0</ele><time>2026-04-26T08:07:00.526Z</time></trkpt><trkpt lat="39.4610817" lon="9.1587067"><ele>340.0</ele><time>2026-04-26T08:07:01.527Z</time></trkpt><trkpt lat="39.4612767" lon="9.1587533"><ele>340.0</ele><time>2026-04-26T08:07:02.527Z</time></trkpt><trkpt lat="39.4614683" lon="9.1588183"><ele>340.0</ele><time>2026-04-26T08:07:03.527Z</time></trkpt><trkpt lat="39.46164" lon="9.15889"><ele>340.66666666666663</ele><time>2026-04-26T08:07:04.527Z</time></trkpt><trkpt lat="39.4618017" lon="9.1589783"><ele>341.3333333333333</ele><time>2026-04-26T08:07:05.526Z</time></trkpt><trkpt lat="39.4619767" lon="9.1590817"><ele>342.0</ele><time>2026-04-26T08:07:06.526Z</time></trkpt><trkpt lat="39.462135" lon="9.1592"><ele>339.0</ele><time>2026-04-26T08:07:07.527Z</time></trkpt><trkpt lat="39.4622917" lon="9.15934"><ele>336.0</ele><time>2026-04-26T08:07:08.526Z</time></trkpt><trkpt lat="39.46244" lon="9.15948"><ele>333.0</ele><time>2026-04-26T08:07:09.527Z</time></trkpt><trkpt lat="39.4625783" lon="9.1596283"><ele>333.0</ele><time>2026-04-26T08:07:10.527Z</time></trkpt><trkpt lat="39.4627067" lon="9.159795"><ele>333.0</ele><time>2026-04-26T08:07:11.527Z</time></trkpt><trkpt lat="39.4628267" lon="9.1599717"><ele>333.0</ele><time>2026-04-26T08:07:12.527Z</time></trkpt><trkpt lat="39.4629583" lon="9.1601883"><ele>328.0</ele><time>2026-04-26T08:07:13.527Z</time></trkpt><trkpt lat="39.4630967" lon="9.160445"><ele>323.0</ele><time>2026-04-26T08:07:14.527Z</time></trkpt><trkpt lat="39.4632367" lon="9.1607383"><ele>323.0</ele><time>2026-04-26T08:07:15.527Z</time></trkpt><trkpt lat="39.4633833" lon="9.1610567"><ele>323.0</ele><time>2026-04-26T08:07:16.526Z</time></trkpt><trkpt lat="39.4635367" lon="9.1613633"><ele>323.5</ele><time>2026-04-26T08:07:17.526Z</time></trkpt><trkpt lat="39.4636917" lon="9.1616833"><ele>324.0</ele><time>2026-04-26T08:07:18.527Z</time></trkpt><trkpt lat="39.4638517" lon="9.1620133"><ele>318.0</ele><time>2026-04-26T08:07:19.526Z</time></trkpt><trkpt lat="39.4640117" lon="9.1623433"><ele>312.0</ele><time>2026-04-26T08:07:20.526Z</time></trkpt><trkpt lat="39.4641633" lon="9.1626667"><ele>312.0</ele><time>2026-04-26T08:07:21.527Z</time></trkpt><trkpt lat="39.4643167" lon="9.16298"><ele>312.0</ele><time>2026-04-26T08:07:22.526Z</time></trkpt><trkpt lat="39.4644617" lon="9.1632933"><ele>309.5</ele><time>2026-04-26T08:07:23.526Z</time></trkpt><trkpt lat="39.4646133" lon="9.1636017"><ele>307.0</ele><time>2026-04-26T08:07:24.526Z</time></trkpt><trkpt lat="39.4647617" lon="9.163915"><ele>307.5</ele><time>2026-04-26T08:07:25.526Z</time></trkpt><trkpt lat="39.46492" lon="9.1642283"><ele>308.0</ele><time>2026-04-26T08:07:26.527Z</time></trkpt><trkpt lat="39.4650733" lon="9.1645433"><ele>308.0</ele><time>2026-04-26T08:07:27.526Z</time></trkpt><trkpt lat="39.4652217" lon="9.1648583"><ele>308.0</ele><time>2026-04-26T08:07:28.526Z</time></trkpt><trkpt lat="39.465365" lon="9.1651667"><ele>303.5</ele><time>2026-04-26T08:07:29.527Z</time></trkpt><trkpt lat="39.4655" lon="9.16546"><ele>299.0</ele><time>2026-04-26T08:07:30.526Z</time></trkpt><trkpt lat="39.4656267" lon="9.1657383"><ele>298.5</ele><time>2026-04-26T08:07:31.526Z</time></trkpt><trkpt lat="39.46575" lon="9.1660067"><ele>298.0</ele><time>2026-04-26T08:07:32.526Z</time></trkpt><trkpt lat="39.46588" lon="9.1662767"><ele>296.5</ele><time>2026-04-26T08:07:33.527Z</time></trkpt><trkpt lat="39.4660167" lon="9.16654"><ele>295.0</ele><time>2026-04-26T08:07:34.526Z</time></trkpt><trkpt lat="39.4661667" lon="9.16679"><ele>293.0</ele><time>2026-04-26T08:07:35.527Z</time></trkpt><trkpt lat="39.4663367" lon="9.1670117"><ele>291.0</ele><time>2026-04-26T08:07:36.526Z</time></trkpt><trkpt lat="39.4665217" lon="9.1672083"><ele>290.5</ele><time>2026-04-26T08:07:37.527Z</time></trkpt><trkpt lat="39.4667283" lon="9.167365"><ele>290.0</ele><time>2026-04-26T08:07:38.526Z</time></trkpt><trkpt lat="39.466935" lon="9.1675017"><ele>288.0</ele><time>2026-04-26T08:07:39.526Z</time></trkpt><trkpt lat="39.4671667" lon="9.1676233"><ele>286.0</ele><time>2026-04-26T08:07:40.527Z</time></trkpt><trkpt lat="39.4674033" lon="9.1677467"><ele>286.0</ele><time>2026-04-26T08:07:41.526Z</time></trkpt><trkpt lat="39.46764" lon="9.1678783"><ele>286.0</ele><time>2026-04-26T08:07:42.527Z</time></trkpt><trkpt lat="39.4678817" lon="9.1680083"><ele>282.5</ele><time>2026-04-26T08:07:43.526Z</time></trkpt><trkpt lat="39.4681167" lon="9.16813"><ele>279.0</ele><time>2026-04-26T08:07:44.527Z</time></trkpt><trkpt lat="39.46835" lon="9.16825"><ele>277.0</ele><time>2026-04-26T08:07:45.526Z</time></trkpt><trkpt lat="39.4685733" lon="9.1683633"><ele>275.0</ele><time>2026-04-26T08:07:46.527Z</time></trkpt><trkpt lat="39.4687867" lon="9.1684633"><ele>274.0</ele><time>2026-04-26T08:07:47.527Z</time></trkpt><trkpt lat="39.4689817" lon="9.168555"><ele>273.0</ele><time>2026-04-26T08:07:48.526Z</time></trkpt><trkpt lat="39.4691767" lon="9.16865"><ele>272.0</ele><time>2026-04-26T08:07:49.526Z</time></trkpt><trkpt lat="39.469365" lon="9.1687383"><ele>272.0</ele><time>2026-04-26T08:07:50.527Z</time></trkpt><trkpt lat="39.46955" lon="9.16883"><ele>272.0</ele><time>2026-04-26T08:07:51.526Z</time></trkpt><trkpt lat="39.469715" lon="9.1689117"><ele>272.0</ele><time>2026-04-26T08:07:52.527Z</time></trkpt><trkpt lat="39.46988" lon="9.1690133"><ele>273.33333333333337</ele><time>2026-04-26T08:07:53.527Z</time></trkpt><trkpt lat="39.4700483" lon="9.1691"><ele>274.6666666666667</ele><time>2026-04-26T08:07:54.526Z</time></trkpt><trkpt lat="39.4702167" lon="9.1691917"><ele>276.0</ele><time>2026-04-26T08:07:55.526Z</time></trkpt><trkpt lat="39.47039" lon="9.16928"><ele>277.6666666666667</ele><time>2026-04-26T08:07:56.526Z</time></trkpt><trkpt lat="39.4705733" lon="9.169375"><ele>279.33333333333337</ele><time>2026-04-26T08:07:57.526Z</time></trkpt><trkpt lat="39.4707567" lon="9.1694567"><ele>281.0</ele><time>2026-04-26T08:07:58.527Z</time></trkpt><trkpt lat="39.47093" lon="9.169545"><ele>281.0</ele><time>2026-04-26T08:07:59.526Z</time></trkpt><trkpt lat="39.4711033" lon="9.1696567"><ele>281.0</ele><time>2026-04-26T08:08:00.527Z</time></trkpt><trkpt lat="39.4712633" lon="9.1697667"><ele>281.0</ele><time>2026-04-26T08:08:01.527Z</time></trkpt><trkpt lat="39.4713983" lon="9.1698933"><ele>281.33333333333337</ele><time>2026-04-26T08:08:02.526Z</time></trkpt><trkpt lat="39.471525" lon="9.17006"><ele>281.6666666666667</ele><time>2026-04-26T08:08:03.526Z</time></trkpt><trkpt lat="39.4716367" lon="9.17024"><ele>282.0</ele><time>2026-04-26T08:08:04.526Z</time></trkpt><trkpt lat="39.47175" lon="9.1704333"><ele>282.0</ele><time>2026-04-26T08:08:05.526Z</time></trkpt><trkpt lat="39.4718467" lon="9.1706467"><ele>282.0</ele><time>2026-04-26T08:08:06.527Z</time></trkpt><trkpt lat="39.4719483" lon="9.1708383"><ele>282.0</ele><time>2026-04-26T08:08:07.527Z</time></trkpt><trkpt lat="39.4720533" lon="9.1710467"><ele>281.3333333333333</ele><time>2026-04-26T08:08:08.527Z</time></trkpt><trkpt lat="39.472165" lon="9.17125"><ele>280.66666666666663</ele><time>2026-04-26T08:08:09.527Z</time></trkpt><trkpt lat="39.4722967" lon="9.1714283"><ele>280.0</ele><time>2026-04-26T08:08:10.527Z</time></trkpt><trkpt lat="39.4724383" lon="9.1715783"><ele>282.0</ele><time>2026-04-26T08:08:11.526Z</time></trkpt><trkpt lat="39.4725933" lon="9.17169"><ele>284.0</ele><time>2026-04-26T08:08:12.526Z</time></trkpt><trkpt lat="39.472745" lon="9.1717533"><ele>286.0</ele><time>2026-04-26T08:08:13.527Z</time></trkpt><trkpt lat="39.472915" lon="9.1717933"><ele>287.0</ele><time>2026-04-26T08:08:14.527Z</time></trkpt><trkpt lat="39.47308" lon="9.171805"><ele>288.0</ele><time>2026-04-26T08:08:15.526Z</time></trkpt><trkpt lat="39.4732317" lon="9.1717833"><ele>289.0</ele><time>2026-04-26T08:08:16.526Z</time></trkpt><trkpt lat="39.47338" lon="9.1717333"><ele>289.0</ele><time>2026-04-26T08:08:17.527Z</time></trkpt><trkpt lat="39.4735133" lon="9.17166"><ele>289.0</ele><time>2026-04-26T08:08:18.527Z</time></trkpt><trkpt lat="39.4736367" lon="9.1715617"><ele>289.0</ele><time>2026-04-26T08:08:19.526Z</time></trkpt><trkpt lat="39.473755" lon="9.171465"><ele>289.0</ele><time>2026-04-26T08:08:20.526Z</time></trkpt><trkpt lat="39.4738717" lon="9.17136"><ele>290.66666666666663</ele><time>2026-04-26T08:08:21.526Z</time></trkpt><trkpt lat="39.4739967" lon="9.1712533"><ele>292.3333333333333</ele><time>2026-04-26T08:08:22.527Z</time></trkpt><trkpt lat="39.47412" lon="9.1711333"><ele>294.0</ele><time>2026-04-26T08:08:23.526Z</time></trkpt><trkpt lat="39.474245" lon="9.17102"><ele>294.0</ele><time>2026-04-26T08:08:24.527Z</time></trkpt><trkpt lat="39.4743733" lon="9.1708983"><ele>294.0</ele><time>2026-04-26T08:08:25.526Z</time></trkpt><trkpt lat="39.4745183" lon="9.1707917"><ele>294.0</ele><time>2026-04-26T08:08:26.526Z</time></trkpt><trkpt lat="39.4746517" lon="9.1707117"><ele>293.59999999999997</ele><time>2026-04-26T08:08:27.526Z</time></trkpt><trkpt lat="39.4747617" lon="9.1706567"><ele>293.2</ele><time>2026-04-26T08:08:28.527Z</time></trkpt><trkpt lat="39.4748617" lon="9.17061"><ele>292.79999999999995</ele><time>2026-04-26T08:08:29.527Z</time></trkpt><trkpt lat="39.4749533" lon="9.170575"><ele>292.4</ele><time>2026-04-26T08:08:30.527Z</time></trkpt><trkpt lat="39.4750317" lon="9.1705433"><ele>292.0</ele><time>2026-04-26T08:08:31.527Z</time></trkpt><trkpt lat="39.47511" lon="9.1705033"><ele>292.0</ele><time>2026-04-26T08:08:32.526Z</time></trkpt><trkpt lat="39.47519" lon="9.1704683"><ele>292.0</ele><time>2026-04-26T08:08:33.527Z</time></trkpt><trkpt lat="39.4752717" lon="9.1704283"><ele>292.0</ele><time>2026-04-26T08:08:34.526Z</time></trkpt><trkpt lat="39.4753717" lon="9.1703733"><ele>292.0</ele><time>2026-04-26T08:08:35.526Z</time></trkpt><trkpt lat="39.4755033" lon="9.1703267"><ele>292.0</ele><time>2026-04-26T08:08:36.527Z</time></trkpt><trkpt lat="39.4756467" lon="9.170265"><ele>292.0</ele><time>2026-04-26T08:08:37.527Z</time></trkpt><trkpt lat="39.475795" lon="9.1701967"><ele>292.0</ele><time>2026-04-26T08:08:38.526Z</time></trkpt><trkpt lat="39.475945" lon="9.1701117"><ele>292.0</ele><time>2026-04-26T08:08:39.527Z</time></trkpt><trkpt lat="39.476095" lon="9.1700367"><ele>292.0</ele><time>2026-04-26T08:08:40.526Z</time></trkpt><trkpt lat="39.4762317" lon="9.1699667"><ele>292.0</ele><time>2026-04-26T08:08:41.527Z</time></trkpt><trkpt lat="39.47636" lon="9.1699133"><ele>292.0</ele><time>2026-04-26T08:08:42.526Z</time></trkpt><trkpt lat="39.4764833" lon="9.1698833"><ele>292.0</ele><time>2026-04-26T08:08:43.527Z</time></trkpt><trkpt lat="39.4766" lon="9.1698317"><ele>292.2</ele><time>2026-04-26T08:08:44.526Z</time></trkpt><trkpt lat="39.4767" lon="9.1697883"><ele>292.4</ele><time>2026-04-26T08:08:45.526Z</time></trkpt><trkpt lat="39.4767933" lon="9.169795"><ele>292.6</ele><time>2026-04-26T08:08:46.526Z</time></trkpt><trkpt lat="39.4768783" lon="9.1698317"><ele>292.8</ele><time>2026-04-26T08:08:47.527Z</time></trkpt><trkpt lat="39.4769567" lon="9.169885"><ele>293.0</ele><time>2026-04-26T08:08:48.527Z</time></trkpt><trkpt lat="39.4770267" lon="9.1699683"><ele>293.0</ele><time>2026-04-26T08:08:49.526Z</time></trkpt><trkpt lat="39.4770967" lon="9.170045"><ele>293.0</ele><time>2026-04-26T08:08:50.526Z</time></trkpt><trkpt lat="39.477165" lon="9.1701333"><ele>293.0</ele><time>2026-04-26T08:08:51.527Z</time></trkpt><trkpt lat="39.4772367" lon="9.1702367"><ele>293.0</ele><time>2026-04-26T08:08:52.527Z</time></trkpt><trkpt lat="39.4773167" lon="9.1703433"><ele>293.0</ele><time>2026-04-26T08:08:53.527Z</time></trkpt><trkpt lat="39.47741" lon="9.1704583"><ele>293.25</ele><time>2026-04-26T08:08:54.527Z</time></trkpt><trkpt lat="39.477505" lon="9.1705583"><ele>293.5</ele><time>2026-04-26T08:08:55.527Z</time></trkpt><trkpt lat="39.4775867" lon="9.170645"><ele>293.75</ele><time>2026-04-26T08:08:56.527Z</time></trkpt><trkpt lat="39.4776733" lon="9.1707333"><ele>294.0</ele><time>2026-04-26T08:08:57.527Z</time></trkpt><trkpt lat="39.4777633" lon="9.17084"><ele>294.0</ele><time>2026-04-26T08:08:58.526Z</time></trkpt><trkpt lat="39.477855" lon="9.1709533"><ele>294.0</ele><time>2026-04-26T08:08:59.526Z</time></trkpt><trkpt lat="39.477955" lon="9.1710783"><ele>294.0</ele><time>2026-04-26T08:09:00.526Z</time></trkpt><trkpt lat="39.4780733" lon="9.17119"><ele>294.0</ele><time>2026-04-26T08:09:01.527Z</time></trkpt><trkpt lat="39.4781933" lon="9.1713083"><ele>294.0</ele><time>2026-04-26T08:09:02.526Z</time></trkpt><trkpt lat="39.478305" lon="9.1714133"><ele>294.0</ele><time>2026-04-26T08:09:03.526Z</time></trkpt><trkpt lat="39.4784033" lon="9.17151"><ele>294.0</ele><time>2026-04-26T08:09:04.527Z</time></trkpt><trkpt lat="39.4784917" lon="9.1715967"><ele>294.0</ele><time>2026-04-26T08:09:05.526Z</time></trkpt><trkpt lat="39.4785917" lon="9.1716867"><ele>294.5</ele><time>2026-04-26T08:09:06.526Z</time></trkpt><trkpt lat="39.4786917" lon="9.1717833"><ele>295.0</ele><time>2026-04-26T08:09:07.526Z</time></trkpt><trkpt lat="39.4788117" lon="9.1718983"><ele>295.5</ele><time>2026-04-26T08:09:08.527Z</time></trkpt><trkpt lat="39.4789283" lon="9.172015"><ele>296.0</ele><time>2026-04-26T08:09:09.526Z</time></trkpt><trkpt lat="39.47903" lon="9.17211"><ele>296.25</ele><time>2026-04-26T08:09:10.526Z</time></trkpt><trkpt lat="39.4791367" lon="9.1722117"><ele>296.5</ele><time>2026-04-26T08:09:11.527Z</time></trkpt><trkpt lat="39.4792417" lon="9.1723133"><ele>296.75</ele><time>2026-04-26T08:09:12.527Z</time></trkpt><trkpt lat="39.4793583" lon="9.1724333"><ele>297.0</ele><time>2026-04-26T08:09:13.527Z</time></trkpt><trkpt lat="39.4794717" lon="9.1725417"><ele>298.0</ele><time>2026-04-26T08:09:14.527Z</time></trkpt><trkpt lat="39.4795817" lon="9.172655"><ele>299.0</ele><time>2026-04-26T08:09:15.526Z</time></trkpt><trkpt lat="39.4796917" lon="9.17277"><ele>300.0</ele><time>2026-04-26T08:09:16.526Z</time></trkpt><trkpt lat="39.4797817" lon="9.1729"><ele>301.0</ele><time>2026-04-26T08:09:17.527Z</time></trkpt><trkpt lat="39.4798833" lon="9.1730333"><ele>301.66666666666663</ele><time>2026-04-26T08:09:18.526Z</time></trkpt><trkpt lat="39.4799883" lon="9.1731883"><ele>302.3333333333333</ele><time>2026-04-26T08:09:19.527Z</time></trkpt><trkpt lat="39.4800917" lon="9.1733517"><ele>303.0</ele><time>2026-04-26T08:09:20.527Z</time></trkpt><trkpt lat="39.4801917" lon="9.1735267"><ele>303.0</ele><time>2026-04-26T08:09:21.527Z</time></trkpt><trkpt lat="39.48028" lon="9.17372"><ele>303.0</ele><time>2026-04-26T08:09:22.527Z</time></trkpt><trkpt lat="39.4803583" lon="9.1739"><ele>303.0</ele><time>2026-04-26T08:09:23.527Z</time></trkpt><trkpt lat="39.4804067" lon="9.1740783"><ele>303.0</ele><time>2026-04-26T08:09:24.527Z</time></trkpt><trkpt lat="39.48043" lon="9.17425"><ele>303.0</ele><time>2026-04-26T08:09:25.526Z</time></trkpt><trkpt lat="39.4804417" lon="9.1744317"><ele>303.0</ele><time>2026-04-26T08:09:26.526Z</time></trkpt><trkpt lat="39.480445" lon="9.17459"><ele>303.0</ele><time>2026-04-26T08:09:27.527Z</time></trkpt><trkpt lat="39.4804483" lon="9.1747183"><ele>303.8</ele><time>2026-04-26T08:09:28.526Z</time></trkpt><trkpt lat="39.48046" lon="9.1748367"><ele>304.6</ele><time>2026-04-26T08:09:29.526Z</time></trkpt><trkpt lat="39.48046" lon="9.1749567"><ele>305.4</ele><time>2026-04-26T08:09:30.526Z</time></trkpt><trkpt lat="39.4804533" lon="9.1750983"><ele>306.2</ele><time>2026-04-26T08:09:31.526Z</time></trkpt><trkpt lat="39.4804317" lon="9.1752783"><ele>307.0</ele><time>2026-04-26T08:09:32.526Z</time></trkpt><trkpt lat="39.4803933" lon="9.17548"><ele>308.0</ele><time>2026-04-26T08:09:33.527Z</time></trkpt><trkpt lat="39.4803467" lon="9.1757233"><ele>309.0</ele><time>2026-04-26T08:09:34.527Z</time></trkpt><trkpt lat="39.4803217" lon="9.17595"><ele>310.0</ele><time>2026-04-26T08:09:35.527Z</time></trkpt><trkpt lat="39.4803383" lon="9.1761867"><ele>310.0</ele><time>2026-04-26T08:09:36.526Z</time></trkpt><trkpt lat="39.4803933" lon="9.17645"><ele>310.0</ele><time>2026-04-26T08:09:37.526Z</time></trkpt><trkpt lat="39.480475" lon="9.1767067"><ele>310.0</ele><time>2026-04-26T08:09:38.526Z</time></trkpt><trkpt lat="39.48058" lon="9.1769583"><ele>314.3333333333333</ele><time>2026-04-26T08:09:39.526Z</time></trkpt><trkpt lat="39.4806717" lon="9.1772217"><ele>318.6666666666667</ele><time>2026-04-26T08:09:40.527Z</time></trkpt><trkpt lat="39.4807667" lon="9.1774767"><ele>323.0</ele><time>2026-04-26T08:09:41.526Z</time></trkpt><trkpt lat="39.4808767" lon="9.1776983"><ele>323.6666666666667</ele><time>2026-04-26T08:09:42.527Z</time></trkpt><trkpt lat="39.4810117" lon="9.1778917"><ele>324.3333333333333</ele><time>2026-04-26T08:09:43.527Z</time></trkpt><trkpt lat="39.4811683" lon="9.1780767"><ele>325.0</ele><time>2026-04-26T08:09:44.527Z</time></trkpt><trkpt lat="39.481345" lon="9.17826"><ele>326.0</ele><time>2026-04-26T08:09:45.527Z</time></trkpt><trkpt lat="39.48152" lon="9.17843"><ele>327.0</ele><time>2026-04-26T08:09:46.527Z</time></trkpt><trkpt lat="39.481695" lon="9.1786017"><ele>328.0</ele><time>2026-04-26T08:09:47.526Z</time></trkpt><trkpt lat="39.4818683" lon="9.178775"><ele>328.0</ele><time>2026-04-26T08:09:48.527Z</time></trkpt><trkpt lat="39.482045" lon="9.1789583"><ele>328.0</ele><time>2026-04-26T08:09:49.526Z</time></trkpt><trkpt lat="39.48222" lon="9.179155"><ele>328.5</ele><time>2026-04-26T08:09:50.526Z</time></trkpt><trkpt lat="39.482405" lon="9.1793817"><ele>329.0</ele><time>2026-04-26T08:09:51.526Z</time></trkpt><trkpt lat="39.482595" lon="9.1796267"><ele>328.5</ele><time>2026-04-26T08:09:52.527Z</time></trkpt><trkpt lat="39.4827967" lon="9.1798883"><ele>328.0</ele><time>2026-04-26T08:09:53.526Z</time></trkpt><trkpt lat="39.48301" lon="9.18016"><ele>328.0</ele><time>2026-04-26T08:09:54.526Z</time></trkpt><trkpt lat="39.48322" lon="9.1804283"><ele>328.0</ele><time>2026-04-26T08:09:55.526Z</time></trkpt><trkpt lat="39.48343" lon="9.1806933"><ele>327.0</ele><time>2026-04-26T08:09:56.526Z</time></trkpt><trkpt lat="39.4836317" lon="9.1809583"><ele>326.0</ele><time>2026-04-26T08:09:57.526Z</time></trkpt><trkpt lat="39.483835" lon="9.1812233"><ele>326.0</ele><time>2026-04-26T08:09:58.527Z</time></trkpt><trkpt lat="39.48404" lon="9.181485"><ele>326.0</ele><time>2026-04-26T08:09:59.527Z</time></trkpt><trkpt lat="39.4842483" lon="9.1817483"><ele>326.0</ele><time>2026-04-26T08:10:00.526Z</time></trkpt><trkpt lat="39.4844567" lon="9.1820117"><ele>326.0</ele><time>2026-04-26T08:10:01.527Z</time></trkpt><trkpt lat="39.484675" lon="9.1822783"><ele>326.5</ele><time>2026-04-26T08:10:02.527Z</time></trkpt><trkpt lat="39.4848983" lon="9.1825483"><ele>327.0</ele><time>2026-04-26T08:10:03.526Z</time></trkpt><trkpt lat="39.485115" lon="9.182815"><ele>327.0</ele><time>2026-04-26T08:10:04.526Z</time></trkpt><trkpt lat="39.4853367" lon="9.1830783"><ele>327.0</ele><time>2026-04-26T08:10:05.527Z</time></trkpt><trkpt lat="39.4855483" lon="9.1833533"><ele>327.0</ele><time>2026-04-26T08:10:06.526Z</time></trkpt><trkpt lat="39.4857633" lon="9.1836267"><ele>327.0</ele><time>2026-04-26T08:10:07.527Z</time></trkpt><trkpt lat="39.485975" lon="9.1839033"><ele>328.0</ele><time>2026-04-26T08:10:08.526Z</time></trkpt><trkpt lat="39.4861917" lon="9.1841817"><ele>329.0</ele><time>2026-04-26T08:10:09.527Z</time></trkpt><trkpt lat="39.486405" lon="9.184465"><ele>329.0</ele><time>2026-04-26T08:10:10.527Z</time></trkpt><trkpt lat="39.486625" lon="9.1847417"><ele>329.0</ele><time>2026-04-26T08:10:11.527Z</time></trkpt><trkpt lat="39.486835" lon="9.1850133"><ele>331.0</ele><time>2026-04-26T08:10:12.526Z</time></trkpt><trkpt lat="39.487045" lon="9.1852733"><ele>333.0</ele><time>2026-04-26T08:10:13.527Z</time></trkpt><trkpt lat="39.4872533" lon="9.1855283"><ele>334.5</ele><time>2026-04-26T08:10:14.527Z</time></trkpt><trkpt lat="39.4874517" lon="9.1857867"><ele>336.0</ele><time>2026-04-26T08:10:15.527Z</time></trkpt><trkpt lat="39.4876483" lon="9.18604"><ele>336.0</ele><time>2026-04-26T08:10:16.526Z</time></trkpt><trkpt lat="39.48785" lon="9.1862983"><ele>336.0</ele><time>2026-04-26T08:10:17.527Z</time></trkpt><trkpt lat="39.4880583" lon="9.1865517"><ele>339.5</ele><time>2026-04-26T08:10:18.526Z</time></trkpt><trkpt lat="39.488255" lon="9.1868167"><ele>343.0</ele><time>2026-04-26T08:10:19.526Z</time></trkpt><trkpt lat="39.48845" lon="9.18707"><ele>343.0</ele><time>2026-04-26T08:10:20.527Z</time></trkpt><trkpt lat="39.4886433" lon="9.1873167"><ele>343.0</ele><time>2026-04-26T08:10:21.526Z</time></trkpt><trkpt lat="39.4888283" lon="9.1875483"><ele>345.0</ele><time>2026-04-26T08:10:22.526Z</time></trkpt><trkpt lat="39.4889983" lon="9.1877567"><ele>347.0</ele><time>2026-04-26T08:10:23.526Z</time></trkpt><trkpt lat="39.4891433" lon="9.1879583"><ele>349.0</ele><time>2026-04-26T08:10:24.527Z</time></trkpt><trkpt lat="39.4892667" lon="9.18817"><ele>349.66666666666663</ele><time>2026-04-26T08:10:25.526Z</time></trkpt><trkpt lat="39.48938" lon="9.18841"><ele>350.3333333333333</ele><time>2026-04-26T08:10:26.527Z</time></trkpt><trkpt lat="39.4894683" lon="9.1886883"><ele>351.0</ele><time>2026-04-26T08:10:27.527Z</time></trkpt><trkpt lat="39.489545" lon="9.1889883"><ele>357.0</ele><time>2026-04-26T08:10:28.527Z</time></trkpt><trkpt lat="39.4896167" lon="9.189305"><ele>363.0</ele><time>2026-04-26T08:10:29.527Z</time></trkpt><trkpt lat="39.4896817" lon="9.1896017"><ele>363.6666666666667</ele><time>2026-04-26T08:10:30.527Z</time></trkpt><trkpt lat="39.48975" lon="9.1898767"><ele>364.33333333333337</ele><time>2026-04-26T08:10:31.526Z</time></trkpt><trkpt lat="39.4898167" lon="9.1901383"><ele>365.0</ele><time>2026-04-26T08:10:32.527Z</time></trkpt><trkpt lat="39.4899017" lon="9.1903717"><ele>365.0</ele><time>2026-04-26T08:10:33.527Z</time></trkpt><trkpt lat="39.4900233" lon="9.1905717"><ele>365.0</ele><time>2026-04-26T08:10:34.527Z</time></trkpt><trkpt lat="39.4901733" lon="9.1907367"><ele>365.0</ele><time>2026-04-26T08:10:35.527Z</time></trkpt><trkpt lat="39.490355" lon="9.1908667"><ele>367.6666666666667</ele><time>2026-04-26T08:10:36.527Z</time></trkpt><trkpt lat="39.490545" lon="9.1909483"><ele>370.3333333333333</ele><time>2026-04-26T08:10:37.526Z</time></trkpt><trkpt lat="39.4907267" lon="9.191025"><ele>373.0</ele><time>2026-04-26T08:10:38.527Z</time></trkpt><trkpt lat="39.490865" lon="9.1911283"><ele>373.0</ele><time>2026-04-26T08:10:39.527Z</time></trkpt><trkpt lat="39.4909783" lon="9.19128"><ele>373.0</ele><time>2026-04-26T08:10:40.526Z</time></trkpt><trkpt lat="39.4910617" lon="9.1914733"><ele>373.0</ele><time>2026-04-26T08:10:41.527Z</time></trkpt><trkpt lat="39.4911117" lon="9.19169"><ele>373.66666666666663</ele><time>2026-04-26T08:10:42.526Z</time></trkpt><trkpt lat="39.4911483" lon="9.19194"><ele>374.3333333333333</ele><time>2026-04-26T08:10:43.527Z</time></trkpt><trkpt lat="39.4911767" lon="9.1922033"><ele>375.0</ele><time>2026-04-26T08:10:44.526Z</time></trkpt><trkpt lat="39.491205" lon="9.1924567"><ele>375.25</ele><time>2026-04-26T08:10:45.527Z</time></trkpt><trkpt lat="39.49123" lon="9.1926833"><ele>375.5</ele><time>2026-04-26T08:10:46.526Z</time></trkpt><trkpt lat="39.4912817" lon="9.1928333"><ele>375.75</ele><time>2026-04-26T08:10:47.527Z</time></trkpt><trkpt lat="39.49138" lon="9.1929567"><ele>376.0</ele><time>2026-04-26T08:10:48.527Z</time></trkpt><trkpt lat="39.491525" lon="9.1930483"><ele>376.0</ele><time>2026-04-26T08:10:49.527Z</time></trkpt><trkpt lat="39.4916833" lon="9.1931383"><ele>376.0</ele><time>2026-04-26T08:10:50.527Z</time></trkpt><trkpt lat="39.4918517" lon="9.1932383"><ele>376.0</ele><time>2026-04-26T08:10:51.526Z</time></trkpt><trkpt lat="39.49202" lon="9.1933417"><ele>377.0</ele><time>2026-04-26T08:10:52.527Z</time></trkpt><trkpt lat="39.4921667" lon="9.1934133"><ele>378.0</ele><time>2026-04-26T08:10:53.526Z</time></trkpt><trkpt lat="39.492295" lon="9.19344"><ele>379.0</ele><time>2026-04-26T08:10:54.526Z</time></trkpt><trkpt lat="39.4923917" lon="9.1934367"><ele>380.0</ele><time>2026-04-26T08:10:55.526Z</time></trkpt><trkpt lat="39.4924667" lon="9.1934617"><ele>380.0</ele><time>2026-04-26T08:10:56.526Z</time></trkpt><trkpt lat="39.49251" lon="9.1935217"><ele>380.0</ele><time>2026-04-26T08:10:57.526Z</time></trkpt><trkpt lat="39.4925067" lon="9.1936067"><ele>380.0</ele><time>2026-04-26T08:10:58.526Z</time></trkpt><trkpt lat="39.492465" lon="9.19368"><ele>380.0</ele><time>2026-04-26T08:10:59.526Z</time></trkpt><trkpt lat="39.492375" lon="9.1937017"><ele>380.0</ele><time>2026-04-26T08:11:00.526Z</time></trkpt><trkpt lat="39.492255" lon="9.1936683"><ele>380.0</ele><time>2026-04-26T08:11:01.526Z</time></trkpt><trkpt lat="39.492105" lon="9.1936117"><ele>383.0</ele><time>2026-04-26T08:11:02.526Z</time></trkpt><trkpt lat="39.49193" lon="9.1935583"><ele>386.0</ele><time>2026-04-26T08:11:03.527Z</time></trkpt><trkpt lat="39.4917367" lon="9.193515"><ele>389.0</ele><time>2026-04-26T08:11:04.527Z</time></trkpt><trkpt lat="39.49157" lon="9.1934817"><ele>389.0</ele><time>2026-04-26T08:11:05.527Z</time></trkpt><trkpt lat="39.49142" lon="9.19347"><ele>389.0</ele><time>2026-04-26T08:11:06.527Z</time></trkpt><trkpt lat="39.49128" lon="9.193505"><ele>389.0</ele><time>2026-04-26T08:11:07.527Z</time></trkpt><trkpt lat="39.49114" lon="9.1936083"><ele>389.3333333333333</ele><time>2026-04-26T08:11:08.527Z</time></trkpt><trkpt lat="39.4910083" lon="9.1937583"><ele>389.66666666666663</ele><time>2026-04-26T08:11:09.526Z</time></trkpt><trkpt lat="39.4908817" lon="9.1939233"><ele>390.0</ele><time>2026-04-26T08:11:10.526Z</time></trkpt><trkpt lat="39.4907683" lon="9.194095"><ele>394.0</ele><time>2026-04-26T08:11:11.526Z</time></trkpt><trkpt lat="39.4906733" lon="9.19427"><ele>398.0</ele><time>2026-04-26T08:11:12.527Z</time></trkpt><trkpt lat="39.4906083" lon="9.1944917"><ele>402.0</ele><time>2026-04-26T08:11:13.526Z</time></trkpt><trkpt lat="39.490565" lon="9.1947517"><ele>405.0</ele><time>2026-04-26T08:11:14.527Z</time></trkpt><trkpt lat="39.490545" lon="9.1950167"><ele>408.0</ele><time>2026-04-26T08:11:15.527Z</time></trkpt><trkpt lat="39.490555" lon="9.1952917"><ele>411.0</ele><time>2026-04-26T08:11:16.527Z</time></trkpt><trkpt lat="39.49059" lon="9.19556"><ele>412.0</ele><time>2026-04-26T08:11:17.527Z</time></trkpt><trkpt lat="39.4906283" lon="9.19582"><ele>413.0</ele><time>2026-04-26T08:11:18.527Z</time></trkpt><trkpt lat="39.4906833" lon="9.1960683"><ele>414.0</ele><time>2026-04-26T08:11:19.526Z</time></trkpt><trkpt lat="39.490745" lon="9.1962933"><ele>414.0</ele><time>2026-04-26T08:11:20.526Z</time></trkpt><trkpt lat="39.4907883" lon="9.196495"><ele>414.0</ele><time>2026-04-26T08:11:21.527Z</time></trkpt><trkpt lat="39.490805" lon="9.196705"><ele>414.0</ele><time>2026-04-26T08:11:22.527Z</time></trkpt><trkpt lat="39.4907783" lon="9.1969017"><ele>414.5</ele><time>2026-04-26T08:11:23.526Z</time></trkpt><trkpt lat="39.4907" lon="9.1970667"><ele>415.0</ele><time>2026-04-26T08:11:24.526Z</time></trkpt><trkpt lat="39.4905917" lon="9.19719"><ele>415.5</ele><time>2026-04-26T08:11:25.526Z</time></trkpt><trkpt lat="39.4905033" lon="9.197335"><ele>416.0</ele><time>2026-04-26T08:11:26.527Z</time></trkpt><trkpt lat="39.490435" lon="9.1975517"><ele>415.3333333333333</ele><time>2026-04-26T08:11:27.527Z</time></trkpt><trkpt lat="39.4903717" lon="9.1978267"><ele>414.66666666666663</ele><time>2026-04-26T08:11:28.527Z</time></trkpt><trkpt lat="39.4903367" lon="9.1980833"><ele>414.0</ele><time>2026-04-26T08:11:29.527Z</time></trkpt><trkpt lat="39.4903267" lon="9.19831"><ele>414.0</ele><time>2026-04-26T08:11:30.526Z</time></trkpt><trkpt lat="39.4903583" lon="9.1985467"><ele>414.0</ele><time>2026-04-26T08:11:31.527Z</time></trkpt><trkpt lat="39.4904283" lon="9.1988083"><ele>414.0</ele><time>2026-04-26T08:11:32.527Z</time></trkpt><trkpt lat="39.49051" lon="9.1990633"><ele>419.66666666666663</ele><time>2026-04-26T08:11:33.527Z</time></trkpt><trkpt lat="39.4905883" lon="9.199315"><ele>425.3333333333333</ele><time>2026-04-26T08:11:34.527Z</time></trkpt><trkpt lat="39.4906433" lon="9.1995783"><ele>431.0</ele><time>2026-04-26T08:11:35.527Z</time></trkpt><trkpt lat="39.4906683" lon="9.19988"><ele>432.5</ele><time>2026-04-26T08:11:36.526Z</time></trkpt><trkpt lat="39.4906733" lon="9.2001967"><ele>434.0</ele><time>2026-04-26T08:11:37.526Z</time></trkpt><trkpt lat="39.490665" lon="9.200515"><ele>435.66666666666663</ele><time>2026-04-26T08:11:38.527Z</time></trkpt><trkpt lat="39.4906533" lon="9.200785"><ele>437.33333333333337</ele><time>2026-04-26T08:11:39.526Z</time></trkpt><trkpt lat="39.4906133" lon="9.2010433"><ele>439.0</ele><time>2026-04-26T08:11:40.526Z</time></trkpt><trkpt lat="39.4905533" lon="9.2012883"><ele>441.33333333333337</ele><time>2026-04-26T08:11:41.526Z</time></trkpt><trkpt lat="39.4904883" lon="9.201535"><ele>443.66666666666663</ele><time>2026-04-26T08:11:42.526Z</time></trkpt><trkpt lat="39.4904467" lon="9.2017783"><ele>446.0</ele><time>2026-04-26T08:11:43.527Z</time></trkpt><trkpt lat="39.49045" lon="9.2020467"><ele>446.0</ele><time>2026-04-26T08:11:44.526Z</time></trkpt><trkpt lat="39.4904733" lon="9.202305"><ele>446.0</ele><time>2026-04-26T08:11:45.527Z</time></trkpt><trkpt lat="39.4904867" lon="9.20255"><ele>446.0</ele><time>2026-04-26T08:11:46.526Z</time></trkpt><trkpt lat="39.4904717" lon="9.2028033"><ele>446.3333333333333</ele><time>2026-04-26T08:11:47.526Z</time></trkpt><trkpt lat="39.4904083" lon="9.2030583"><ele>446.66666666666663</ele><time>2026-04-26T08:11:48.527Z</time></trkpt><trkpt lat="39.49033" lon="9.2032967"><ele>447.0</ele><time>2026-04-26T08:11:49.526Z</time></trkpt><trkpt lat="39.490265" lon="9.20352"><ele>447.0</ele><time>2026-04-26T08:11:50.527Z</time></trkpt><trkpt lat="39.4902083" lon="9.203715"><ele>447.0</ele><time>2026-04-26T08:11:51.526Z</time></trkpt><trkpt lat="39.49015" lon="9.203895"><ele>447.0</ele><time>2026-04-26T08:11:52.526Z</time></trkpt><trkpt lat="39.490075" lon="9.2040683"><ele>449.25</ele><time>2026-04-26T08:11:53.527Z</time></trkpt><trkpt lat="39.4899917" lon="9.2042117"><ele>451.5</ele><time>2026-04-26T08:11:54.526Z</time></trkpt><trkpt lat="39.48987" lon="9.2043133"><ele>453.75</ele><time>2026-04-26T08:11:55.526Z</time></trkpt><trkpt lat="39.489735" lon="9.2043883"><ele>456.0</ele><time>2026-04-26T08:11:56.526Z</time></trkpt><trkpt lat="39.4896033" lon="9.2044533"><ele>454.66666666666663</ele><time>2026-04-26T08:11:57.527Z</time></trkpt><trkpt lat="39.489465" lon="9.2045433"><ele>453.3333333333333</ele><time>2026-04-26T08:11:58.527Z</time></trkpt><trkpt lat="39.4893383" lon="9.20467"><ele>452.0</ele><time>2026-04-26T08:11:59.526Z</time></trkpt><trkpt lat="39.489235" lon="9.2048233"><ele>455.66666666666663</ele><time>2026-04-26T08:12:00.526Z</time></trkpt><trkpt lat="39.4891383" lon="9.20503"><ele>459.33333333333337</ele><time>2026-04-26T08:12:01.527Z</time></trkpt><trkpt lat="39.4890467" lon="9.2052883"><ele>463.0</ele><time>2026-04-26T08:12:02.527Z</time></trkpt><trkpt lat="39.488945" lon="9.2055517"><ele>463.0</ele><time>2026-04-26T08:12:03.527Z</time></trkpt><trkpt lat="39.488835" lon="9.2057867"><ele>463.0</ele><time>2026-04-26T08:12:04.527Z</time></trkpt><trkpt lat="39.48872" lon="9.206"><ele>463.0</ele><time>2026-04-26T08:12:05.526Z</time></trkpt><trkpt lat="39.4885817" lon="9.20619"><ele>463.0</ele><time>2026-04-26T08:12:06.527Z</time></trkpt><trkpt lat="39.4884117" lon="9.2063617"><ele>463.0</ele><time>2026-04-26T08:12:07.527Z</time></trkpt><trkpt lat="39.4882633" lon="9.2065217"><ele>463.0</ele><time>2026-04-26T08:12:08.526Z</time></trkpt><trkpt lat="39.48817" lon="9.2066833"><ele>465.6666666666667</ele><time>2026-04-26T08:12:09.526Z</time></trkpt><trkpt lat="39.4881167" lon="9.20688"><ele>468.33333333333337</ele><time>2026-04-26T08:12:10.527Z</time></trkpt><trkpt lat="39.4881" lon="9.2071"><ele>471.0</ele><time>2026-04-26T08:12:11.527Z</time></trkpt><trkpt lat="39.4880983" lon="9.2073417"><ele>474.0</ele><time>2026-04-26T08:12:12.527Z</time></trkpt><trkpt lat="39.4880833" lon="9.2076233"><ele>477.0</ele><time>2026-04-26T08:12:13.527Z</time></trkpt><trkpt lat="39.4880617" lon="9.2079033"><ele>480.0</ele><time>2026-04-26T08:12:14.526Z</time></trkpt><trkpt lat="39.488035" lon="9.208195"><ele>479.66666666666663</ele><time>2026-04-26T08:12:15.527Z</time></trkpt><trkpt lat="39.4880017" lon="9.20846"><ele>479.3333333333333</ele><time>2026-04-26T08:12:16.526Z</time></trkpt><trkpt lat="39.4879617" lon="9.2086817"><ele>479.0</ele><time>2026-04-26T08:12:17.526Z</time></trkpt><trkpt lat="39.48791" lon="9.2088733"><ele>482.25</ele><time>2026-04-26T08:12:18.526Z</time></trkpt><trkpt lat="39.4878383" lon="9.2090267"><ele>485.5</ele><time>2026-04-26T08:12:19.527Z</time></trkpt><trkpt lat="39.487735" lon="9.2091167"><ele>488.75</ele><time>2026-04-26T08:12:20.527Z</time></trkpt><trkpt lat="39.4876167" lon="9.2091483"><ele>492.0</ele><time>2026-04-26T08:12:21.527Z</time></trkpt><trkpt lat="39.4874833" lon="9.20911"><ele>492.0</ele><time>2026-04-26T08:12:22.527Z</time></trkpt><trkpt lat="39.4873333" lon="9.2090333"><ele>492.0</ele><time>2026-04-26T08:12:23.527Z</time></trkpt><trkpt lat="39.4871767" lon="9.2089467"><ele>492.0</ele><time>2026-04-26T08:12:24.526Z</time></trkpt><trkpt lat="39.4870283" lon="9.20888"><ele>492.25</ele><time>2026-04-26T08:12:25.527Z</time></trkpt><trkpt lat="39.486895" lon="9.208865"><ele>492.5</ele><time>2026-04-26T08:12:26.527Z</time></trkpt><trkpt lat="39.48678" lon="9.20892"><ele>492.75</ele><time>2026-04-26T08:12:27.526Z</time></trkpt><trkpt lat="39.4866933" lon="9.20904"><ele>493.0</ele><time>2026-04-26T08:12:28.526Z</time></trkpt><trkpt lat="39.486635" lon="9.209215"><ele>493.0</ele><time>2026-04-26T08:12:29.526Z</time></trkpt><trkpt lat="39.486595" lon="9.209425"><ele>493.0</ele><time>2026-04-26T08:12:30.526Z</time></trkpt><trkpt lat="39.4865667" lon="9.209675"><ele>493.0</ele><time>2026-04-26T08:12:31.527Z</time></trkpt><trkpt lat="39.486525" lon="9.2099167"><ele>496.0</ele><time>2026-04-26T08:12:32.527Z</time></trkpt><trkpt lat="39.4864833" lon="9.2101817"><ele>499.0</ele><time>2026-04-26T08:12:33.526Z</time></trkpt><trkpt lat="39.4864417" lon="9.2104517"><ele>502.0</ele><time>2026-04-26T08:12:34.526Z</time></trkpt><trkpt lat="39.4864183" lon="9.2107217"><ele>503.33333333333337</ele><time>2026-04-26T08:12:35.526Z</time></trkpt><trkpt lat="39.486445" lon="9.2110017"><ele>504.66666666666663</ele><time>2026-04-26T08:12:36.527Z</time></trkpt><trkpt lat="39.4865217" lon="9.2112817"><ele>506.0</ele><time>2026-04-26T08:12:37.527Z</time></trkpt><trkpt lat="39.48661" lon="9.211525"><ele>507.66666666666663</ele><time>2026-04-26T08:12:38.526Z</time></trkpt><trkpt lat="39.4866933" lon="9.21176"><ele>509.33333333333337</ele><time>2026-04-26T08:12:39.527Z</time></trkpt><trkpt lat="39.48675" lon="9.2119983"><ele>511.0</ele><time>2026-04-26T08:12:40.527Z</time></trkpt><trkpt lat="39.4867767" lon="9.21229"><ele>513.5</ele><time>2026-04-26T08:12:41.526Z</time></trkpt><trkpt lat="39.486785" lon="9.2125967"><ele>516.0</ele><time>2026-04-26T08:12:42.526Z</time></trkpt><trkpt lat="39.4867883" lon="9.2128917"><ele>517.6666666666666</ele><time>2026-04-26T08:12:43.527Z</time></trkpt><trkpt lat="39.48679" lon="9.2131667"><ele>519.3333333333333</ele><time>2026-04-26T08:12:44.526Z</time></trkpt><trkpt lat="39.4867983" lon="9.2134283"><ele>521.0</ele><time>2026-04-26T08:12:45.527Z</time></trkpt><trkpt lat="39.4868383" lon="9.2136867"><ele>521.0</ele><time>2026-04-26T08:12:46.527Z</time></trkpt><trkpt lat="39.48692" lon="9.2139167"><ele>521.0</ele><time>2026-04-26T08:12:47.526Z</time></trkpt><trkpt lat="39.48702" lon="9.214115"><ele>521.0</ele><time>2026-04-26T08:12:48.526Z</time></trkpt><trkpt lat="39.4870967" lon="9.2143083"><ele>523.0</ele><time>2026-04-26T08:12:49.527Z</time></trkpt><trkpt lat="39.4871417" lon="9.2145317"><ele>525.0</ele><time>2026-04-26T08:12:50.527Z</time></trkpt><trkpt lat="39.4871517" lon="9.2147967"><ele>527.0</ele><time>2026-04-26T08:12:51.527Z</time></trkpt><trkpt lat="39.4871467" lon="9.2150817"><ele>529.5</ele><time>2026-04-26T08:12:52.527Z</time></trkpt><trkpt lat="39.4871867" lon="9.2153967"><ele>532.0</ele><time>2026-04-26T08:12:53.527Z</time></trkpt><trkpt lat="39.48726" lon="9.2157117"><ele>533.5</ele><time>2026-04-26T08:12:54.526Z</time></trkpt><trkpt lat="39.48734" lon="9.2160267"><ele>535.0</ele><time>2026-04-26T08:12:55.526Z</time></trkpt><trkpt lat="39.48741" lon="9.2163217"><ele>536.5</ele><time>2026-04-26T08:12:56.526Z</time></trkpt><trkpt lat="39.4874717" lon="9.2166133"><ele>538.0</ele><time>2026-04-26T08:12:57.527Z</time></trkpt><trkpt lat="39.4875233" lon="9.2169033"><ele>538.0</ele><time>2026-04-26T08:12:58.527Z</time></trkpt><trkpt lat="39.4875733" lon="9.2171567"><ele>538.0</ele><time>2026-04-26T08:12:59.527Z</time></trkpt><trkpt lat="39.4876067" lon="9.2173967"><ele>538.0</ele><time>2026-04-26T08:13:00.527Z</time></trkpt><trkpt lat="39.4876317" lon="9.2176083"><ele>538.75</ele><time>2026-04-26T08:13:01.527Z</time></trkpt><trkpt lat="39.487655" lon="9.217795"><ele>539.5</ele><time>2026-04-26T08:13:02.526Z</time></trkpt><trkpt lat="39.4876633" lon="9.21796"><ele>540.25</ele><time>2026-04-26T08:13:03.526Z</time></trkpt><trkpt lat="39.48765" lon="9.21812"><ele>541.0</ele><time>2026-04-26T08:13:04.527Z</time></trkpt><trkpt lat="39.4875867" lon="9.21828"><ele>541.0</ele><time>2026-04-26T08:13:05.526Z</time></trkpt><trkpt lat="39.4874967" lon="9.2184217"><ele>541.0</ele><time>2026-04-26T08:13:06.527Z</time></trkpt><trkpt lat="39.4874033" lon="9.2185617"><ele>541.0</ele><time>2026-04-26T08:13:07.526Z</time></trkpt><trkpt lat="39.4873117" lon="9.2187033"><ele>541.0</ele><time>2026-04-26T08:13:08.526Z</time></trkpt><trkpt lat="39.4872067" lon="9.2188567"><ele>541.6666666666667</ele><time>2026-04-26T08:13:09.526Z</time></trkpt><trkpt lat="39.4870583" lon="9.2189883"><ele>542.3333333333334</ele><time>2026-04-26T08:13:10.526Z</time></trkpt><trkpt lat="39.4868783" lon="9.2190967"><ele>543.0</ele><time>2026-04-26T08:13:11.527Z</time></trkpt><trkpt lat="39.4866967" lon="9.219185"><ele>543.0</ele><time>2026-04-26T08:13:12.526Z</time></trkpt><trkpt lat="39.486525" lon="9.2193117"><ele>543.0</ele><time>2026-04-26T08:13:13.526Z</time></trkpt><trkpt lat="39.4863867" lon="9.2194933"><ele>543.0</ele><time>2026-04-26T08:13:14.526Z</time></trkpt><trkpt lat="39.48628" lon="9.2197367"><ele>545.3333333333334</ele><time>2026-04-26T08:13:15.527Z</time></trkpt><trkpt lat="39.4861917" lon="9.2199883"><ele>547.6666666666667</ele><time>2026-04-26T08:13:16.527Z</time></trkpt><trkpt lat="39.4861083" lon="9.220235"><ele>550.0</ele><time>2026-04-26T08:13:17.527Z</time></trkpt><trkpt lat="39.4860283" lon="9.2204633"><ele>545.0</ele><time>2026-04-26T08:13:18.527Z</time></trkpt><trkpt lat="39.4859317" lon="9.2206767"><ele>540.0</ele><time>2026-04-26T08:13:19.526Z</time></trkpt><trkpt lat="39.4858067" lon="9.2208567"><ele>535.0</ele><time>2026-04-26T08:13:20.527Z</time></trkpt><trkpt lat="39.4856683" lon="9.221015"><ele>535.0</ele><time>2026-04-26T08:13:21.527Z</time></trkpt><trkpt lat="39.4855367" lon="9.22117"><ele>535.0</ele><time>2026-04-26T08:13:22.527Z</time></trkpt><trkpt lat="39.48542" lon="9.22133"><ele>535.0</ele><time>2026-04-26T08:13:23.527Z</time></trkpt><trkpt lat="39.4853283" lon="9.2215233"><ele>534.6666666666667</ele><time>2026-04-26T08:13:24.526Z</time></trkpt><trkpt lat="39.4852833" lon="9.22173"><ele>534.3333333333334</ele><time>2026-04-26T08:13:25.527Z</time></trkpt><trkpt lat="39.4852867" lon="9.2219583"><ele>534.0</ele><time>2026-04-26T08:13:26.527Z</time></trkpt><trkpt lat="39.4853367" lon="9.22215"><ele>535.3333333333334</ele><time>2026-04-26T08:13:27.526Z</time></trkpt><trkpt lat="39.48544" lon="9.22229"><ele>536.6666666666667</ele><time>2026-04-26T08:13:28.526Z</time></trkpt><trkpt lat="39.4855833" lon="9.2223967"><ele>538.0</ele><time>2026-04-26T08:13:29.527Z</time></trkpt><trkpt lat="39.4857467" lon="9.2224633"><ele>538.0</ele><time>2026-04-26T08:13:30.526Z</time></trkpt><trkpt lat="39.485915" lon="9.2225"><ele>538.0</ele><time>2026-04-26T08:13:31.527Z</time></trkpt><trkpt lat="39.4860633" lon="9.2225683"><ele>538.0</ele><time>2026-04-26T08:13:32.527Z</time></trkpt><trkpt lat="39.4861783" lon="9.222695"><ele>535.3333333333334</ele><time>2026-04-26T08:13:33.526Z</time></trkpt><trkpt lat="39.4862633" lon="9.2228667"><ele>532.6666666666666</ele><time>2026-04-26T08:13:34.526Z</time></trkpt><trkpt lat="39.486315" lon="9.2230833"><ele>530.0</ele><time>2026-04-26T08:13:35.527Z</time></trkpt><trkpt lat="39.4863233" lon="9.22333"><ele>530.0</ele><time>2026-04-26T08:13:36.527Z</time></trkpt><trkpt lat="39.4863033" lon="9.223575"><ele>530.0</ele><time>2026-04-26T08:13:37.527Z</time></trkpt><trkpt lat="39.4862617" lon="9.2238183"><ele>530.0</ele><time>2026-04-26T08:13:38.527Z</time></trkpt><trkpt lat="39.486225" lon="9.224055"><ele>536.6666666666666</ele><time>2026-04-26T08:13:39.526Z</time></trkpt><trkpt lat="39.48619" lon="9.2242833"><ele>543.3333333333334</ele><time>2026-04-26T08:13:40.527Z</time></trkpt><trkpt lat="39.4861467" lon="9.2244933"><ele>550.0</ele><time>2026-04-26T08:13:41.526Z</time></trkpt><trkpt lat="39.4860933" lon="9.2246783"><ele>550.25</ele><time>2026-04-26T08:13:42.526Z</time></trkpt><trkpt lat="39.4860233" lon="9.2248283"><ele>550.5</ele><time>2026-04-26T08:13:43.526Z</time></trkpt><trkpt lat="39.48593" lon="9.2249767"><ele>550.75</ele><time>2026-04-26T08:13:44.527Z</time></trkpt><trkpt lat="39.485845" lon="9.225125"><ele>551.0</ele><time>2026-04-26T08:13:45.526Z</time></trkpt><trkpt lat="39.4857717" lon="9.225305"><ele>551.0</ele><time>2026-04-26T08:13:46.526Z</time></trkpt><trkpt lat="39.4857317" lon="9.2255267"><ele>551.0</ele><time>2026-04-26T08:13:47.527Z</time></trkpt><trkpt lat="39.4857" lon="9.2257667"><ele>551.0</ele><time>2026-04-26T08:13:48.527Z</time></trkpt><trkpt lat="39.48565" lon="9.2260217"><ele>552.0</ele><time>2026-04-26T08:13:49.526Z</time></trkpt><trkpt lat="39.48556" lon="9.2262717"><ele>553.0</ele><time>2026-04-26T08:13:50.527Z</time></trkpt><trkpt lat="39.4854417" lon="9.226505"><ele>554.0</ele><time>2026-04-26T08:13:51.526Z</time></trkpt><trkpt lat="39.4852783" lon="9.226725"><ele>551.0</ele><time>2026-04-26T08:13:52.526Z</time></trkpt><trkpt lat="39.4851267" lon="9.2269467"><ele>548.0</ele><time>2026-04-26T08:13:53.526Z</time></trkpt><trkpt lat="39.4849733" lon="9.2271817"><ele>560.0</ele><time>2026-04-26T08:13:54.526Z</time></trkpt><trkpt lat="39.484815" lon="9.227405"><ele>572.0</ele><time>2026-04-26T08:13:55.527Z</time></trkpt><trkpt lat="39.4846367" lon="9.2275983"><ele>564.3333333333333</ele><time>2026-04-26T08:13:56.526Z</time></trkpt><trkpt lat="39.4844667" lon="9.22777"><ele>556.6666666666666</ele><time>2026-04-26T08:13:57.526Z</time></trkpt><trkpt lat="39.48431" lon="9.2279033"><ele>549.0</ele><time>2026-04-26T08:13:58.526Z</time></trkpt><trkpt lat="39.4841717" lon="9.2280267"><ele>557.3333333333334</ele><time>2026-04-26T08:13:59.527Z</time></trkpt><trkpt lat="39.484065" lon="9.228175"><ele>565.6666666666667</ele><time>2026-04-26T08:14:00.527Z</time></trkpt><trkpt lat="39.4839967" lon="9.228365"><ele>574.0</ele><time>2026-04-26T08:14:01.527Z</time></trkpt><trkpt lat="39.48397" lon="9.2285867"><ele>574.0</ele><time>2026-04-26T08:14:02.526Z</time></trkpt><trkpt lat="39.4839967" lon="9.228815"><ele>574.0</ele><time>2026-04-26T08:14:03.526Z</time></trkpt><trkpt lat="39.4840417" lon="9.229085"><ele>574.0</ele><time>2026-04-26T08:14:04.526Z</time></trkpt><trkpt lat="39.484085" lon="9.2293567"><ele>575.6666666666667</ele><time>2026-04-26T08:14:05.526Z</time></trkpt><trkpt lat="39.4841033" lon="9.2296167"><ele>577.3333333333334</ele><time>2026-04-26T08:14:06.526Z</time></trkpt><trkpt lat="39.4841583" lon="9.2298617"><ele>579.0</ele><time>2026-04-26T08:14:07.526Z</time></trkpt><trkpt lat="39.4842217" lon="9.2300783"><ele>579.0</ele><time>2026-04-26T08:14:08.526Z</time></trkpt><trkpt lat="39.4842967" lon="9.2302567"><ele>579.0</ele><time>2026-04-26T08:14:09.526Z</time></trkpt><trkpt lat="39.4844233" lon="9.2304133"><ele>579.0</ele><time>2026-04-26T08:14:10.527Z</time></trkpt><trkpt lat="39.4845783" lon="9.2305683"><ele>583.3333333333334</ele><time>2026-04-26T08:14:11.527Z</time></trkpt><trkpt lat="39.484735" lon="9.23075"><ele>587.6666666666667</ele><time>2026-04-26T08:14:12.526Z</time></trkpt><trkpt lat="39.48489" lon="9.2309833"><ele>592.0</ele><time>2026-04-26T08:14:13.527Z</time></trkpt><trkpt lat="39.485035" lon="9.2312317"><ele>592.0</ele><time>2026-04-26T08:14:14.526Z</time></trkpt><trkpt lat="39.4851867" lon="9.231455"><ele>592.0</ele><time>2026-04-26T08:14:15.526Z</time></trkpt><trkpt lat="39.4853183" lon="9.23164"><ele>592.0</ele><time>2026-04-26T08:14:16.526Z</time></trkpt><trkpt lat="39.48542" lon="9.231845"><ele>595.3333333333334</ele><time>2026-04-26T08:14:17.527Z</time></trkpt><trkpt lat="39.4854767" lon="9.232055"><ele>598.6666666666666</ele><time>2026-04-26T08:14:18.527Z</time></trkpt><trkpt lat="39.48548" lon="9.2322933"><ele>602.0</ele><time>2026-04-26T08:14:19.526Z</time></trkpt><trkpt lat="39.4854567" lon="9.2325283"><ele>603.0</ele><time>2026-04-26T08:14:20.527Z</time></trkpt><trkpt lat="39.48542" lon="9.2327867"><ele>604.0</ele><time>2026-04-26T08:14:21.526Z</time></trkpt><trkpt lat="39.4854283" lon="9.23306"><ele>605.0</ele><time>2026-04-26T08:14:22.526Z</time></trkpt><trkpt lat="39.4854867" lon="9.233335"><ele>605.0</ele><time>2026-04-26T08:14:23.526Z</time></trkpt><trkpt lat="39.4856" lon="9.233595"><ele>605.0</ele><time>2026-04-26T08:14:24.526Z</time></trkpt><trkpt lat="39.48572" lon="9.2338217"><ele>605.0</ele><time>2026-04-26T08:14:25.527Z</time></trkpt><trkpt lat="39.4858267" lon="9.2340433"><ele>604.6666666666666</ele><time>2026-04-26T08:14:26.527Z</time></trkpt><trkpt lat="39.4859067" lon="9.23426"><ele>604.3333333333334</ele><time>2026-04-26T08:14:27.527Z</time></trkpt><trkpt lat="39.4859483" lon="9.2345183"><ele>604.0</ele><time>2026-04-26T08:14:28.526Z</time></trkpt><trkpt lat="39.4859467" lon="9.234795"><ele>604.3333333333334</ele><time>2026-04-26T08:14:29.526Z</time></trkpt><trkpt lat="39.4859033" lon="9.2350567"><ele>604.6666666666666</ele><time>2026-04-26T08:14:30.527Z</time></trkpt><trkpt lat="39.4858417" lon="9.2353067"><ele>605.0</ele><time>2026-04-26T08:14:31.526Z</time></trkpt><trkpt lat="39.4857667" lon="9.2355517"><ele>606.6666666666666</ele><time>2026-04-26T08:14:32.526Z</time></trkpt><trkpt lat="39.4856967" lon="9.2358"><ele>608.3333333333334</ele><time>2026-04-26T08:14:33.526Z</time></trkpt><trkpt lat="39.4856183" lon="9.2360683"><ele>610.0</ele><time>2026-04-26T08:14:34.527Z</time></trkpt><trkpt lat="39.4855433" lon="9.2363333"><ele>610.3333333333334</ele><time>2026-04-26T08:14:35.526Z</time></trkpt><trkpt lat="39.485475" lon="9.2365983"><ele>610.6666666666666</ele><time>2026-04-26T08:14:36.527Z</time></trkpt><trkpt lat="39.4854" lon="9.2368717"><ele>611.0</ele><time>2026-04-26T08:14:37.526Z</time></trkpt><trkpt lat="39.485325" lon="9.237135"><ele>612.0</ele><time>2026-04-26T08:14:38.526Z</time></trkpt><trkpt lat="39.4852467" lon="9.2374017"><ele>613.0</ele><time>2026-04-26T08:14:39.526Z</time></trkpt><trkpt lat="39.48517" lon="9.237665"><ele>614.0</ele><time>2026-04-26T08:14:40.526Z</time></trkpt><trkpt lat="39.4850967" lon="9.2379267"><ele>615.0</ele><time>2026-04-26T08:14:41.527Z</time></trkpt><trkpt lat="39.4850267" lon="9.23818"><ele>616.0</ele><time>2026-04-26T08:14:42.527Z</time></trkpt><trkpt lat="39.4849533" lon="9.238435"><ele>617.0</ele><time>2026-04-26T08:14:43.527Z</time></trkpt><trkpt lat="39.4848783" lon="9.2386917"><ele>617.0</ele><time>2026-04-26T08:14:44.526Z</time></trkpt><trkpt lat="39.4848033" lon="9.23895"><ele>617.0</ele><time>2026-04-26T08:14:45.526Z</time></trkpt><trkpt lat="39.48473" lon="9.2392033"><ele>617.0</ele><time>2026-04-26T08:14:46.526Z</time></trkpt><trkpt lat="39.4846567" lon="9.23946"><ele>620.0</ele><time>2026-04-26T08:14:47.527Z</time></trkpt><trkpt lat="39.4845817" lon="9.2397183"><ele>623.0</ele><time>2026-04-26T08:14:48.526Z</time></trkpt><trkpt lat="39.4845033" lon="9.239975"><ele>626.0</ele><time>2026-04-26T08:14:49.526Z</time></trkpt><trkpt lat="39.48443" lon="9.2402333"><ele>626.0</ele><time>2026-04-26T08:14:50.526Z</time></trkpt><trkpt lat="39.4843567" lon="9.2404833"><ele>626.0</ele><time>2026-04-26T08:14:51.527Z</time></trkpt><trkpt lat="39.4842833" lon="9.2407367"><ele>626.0</ele><time>2026-04-26T08:14:52.527Z</time></trkpt><trkpt lat="39.4842183" lon="9.24098"><ele>626.3333333333333</ele><time>2026-04-26T08:14:53.526Z</time></trkpt><trkpt lat="39.48415" lon="9.2412283"><ele>626.6666666666666</ele><time>2026-04-26T08:14:54.527Z</time></trkpt><trkpt lat="39.4840833" lon="9.2414733"><ele>627.0</ele><time>2026-04-26T08:14:55.526Z</time></trkpt><trkpt lat="39.4840133" lon="9.24172"><ele>628.0</ele><time>2026-04-26T08:14:56.527Z</time></trkpt><trkpt lat="39.48396" lon="9.2419567"><ele>629.0</ele><time>2026-04-26T08:14:57.526Z</time></trkpt><trkpt lat="39.4838983" lon="9.242185"><ele>630.0</ele><time>2026-04-26T08:14:58.527Z</time></trkpt><trkpt lat="39.4838283" lon="9.2424117"><ele>629.0</ele><time>2026-04-26T08:14:59.527Z</time></trkpt><trkpt lat="39.4837617" lon="9.2426333"><ele>628.0</ele><time>2026-04-26T08:15:00.527Z</time></trkpt><trkpt lat="39.4837" lon="9.242855"><ele>627.0</ele><time>2026-04-26T08:15:01.526Z</time></trkpt><trkpt lat="39.48364" lon="9.2430783"><ele>627.6666666666666</ele><time>2026-04-26T08:15:02.526Z</time></trkpt><trkpt lat="39.4835767" lon="9.2433067"><ele>628.3333333333333</ele><time>2026-04-26T08:15:03.526Z</time></trkpt><trkpt lat="39.483515" lon="9.243545"><ele>629.0</ele><time>2026-04-26T08:15:04.526Z</time></trkpt><trkpt lat="39.4834533" lon="9.2437817"><ele>629.0</ele><time>2026-04-26T08:15:05.526Z</time></trkpt><trkpt lat="39.4833983" lon="9.2440233"><ele>629.0</ele><time>2026-04-26T08:15:06.526Z</time></trkpt><trkpt lat="39.483375" lon="9.2442483"><ele>629.0</ele><time>2026-04-26T08:15:07.526Z</time></trkpt><trkpt lat="39.4833983" lon="9.24449"><ele>629.0</ele><time>2026-04-26T08:15:08.526Z</time></trkpt><trkpt lat="39.4834533" lon="9.2447167"><ele>629.0</ele><time>2026-04-26T08:15:09.526Z</time></trkpt><trkpt lat="39.4835533" lon="9.24492"><ele>629.0</ele><time>2026-04-26T08:15:10.527Z</time></trkpt><trkpt lat="39.48367" lon="9.24511"><ele>627.6666666666666</ele><time>2026-04-26T08:15:11.527Z</time></trkpt><trkpt lat="39.4837933" lon="9.24529"><ele>626.3333333333334</ele><time>2026-04-26T08:15:12.527Z</time></trkpt><trkpt lat="39.483915" lon="9.245465"><ele>625.0</ele><time>2026-04-26T08:15:13.526Z</time></trkpt><trkpt lat="39.4840233" lon="9.2456333"><ele>625.0</ele><time>2026-04-26T08:15:14.526Z</time></trkpt><trkpt lat="39.4841283" lon="9.24578"><ele>625.0</ele><time>2026-04-26T08:15:15.526Z</time></trkpt><trkpt lat="39.484215" lon="9.2459283"><ele>625.0</ele><time>2026-04-26T08:15:16.527Z</time></trkpt><trkpt lat="39.4842983" lon="9.2460633"><ele>625.0</ele><time>2026-04-26T08:15:17.527Z</time></trkpt><trkpt lat="39.48437" lon="9.24619"><ele>625.0</ele><time>2026-04-26T08:15:18.527Z</time></trkpt><trkpt lat="39.4844467" lon="9.2463"><ele>625.0</ele><time>2026-04-26T08:15:19.527Z</time></trkpt><trkpt lat="39.48451" lon="9.2463983"><ele>625.0</ele><time>2026-04-26T08:15:20.526Z</time></trkpt><trkpt lat="39.4845633" lon="9.246485"><ele>625.0</ele><time>2026-04-26T08:15:21.526Z</time></trkpt><trkpt lat="39.4846117" lon="9.2465533"><ele>625.0</ele><time>2026-04-26T08:15:22.526Z</time></trkpt><trkpt lat="39.4846617" lon="9.24663"><ele>625.0</ele><time>2026-04-26T08:15:24.527Z</time></trkpt><trkpt lat="39.4847167" lon="9.24672"><ele>624.25</ele><time>2026-04-26T08:15:37.527Z</time></trkpt><trkpt lat="39.4848183" lon="9.2468567"><ele>623.5</ele><time>2026-04-26T08:15:39.526Z</time></trkpt><trkpt lat="39.48489" lon="9.246955"><ele>622.75</ele><time>2026-04-26T08:15:40.527Z</time></trkpt><trkpt lat="39.4849583" lon="9.2470633"><ele>622.0</ele><time>2026-04-26T08:15:41.527Z</time></trkpt><trkpt lat="39.485035" lon="9.2471783"><ele>622.75</ele><time>2026-04-26T08:15:42.527Z</time></trkpt><trkpt lat="39.4851233" lon="9.2472983"><ele>623.5</ele><time>2026-04-26T08:15:43.526Z</time></trkpt><trkpt lat="39.4852083" lon="9.24742"><ele>624.25</ele><time>2026-04-26T08:15:44.527Z</time></trkpt><trkpt lat="39.48529" lon="9.247555"><ele>625.0</ele><time>2026-04-26T08:15:45.526Z</time></trkpt><trkpt lat="39.485365" lon="9.24771"><ele>624.6666666666667</ele><time>2026-04-26T08:15:46.526Z</time></trkpt><trkpt lat="39.4854417" lon="9.2478783"><ele>624.3333333333334</ele><time>2026-04-26T08:15:47.526Z</time></trkpt><trkpt lat="39.485505" lon="9.248075"><ele>624.0</ele><time>2026-04-26T08:15:48.526Z</time></trkpt><trkpt lat="39.48557" lon="9.2482867"><ele>624.0</ele><time>2026-04-26T08:15:49.526Z</time></trkpt><trkpt lat="39.4856283" lon="9.2485183"><ele>624.0</ele><time>2026-04-26T08:15:50.526Z</time></trkpt><trkpt lat="39.4856933" lon="9.248765"><ele>624.0</ele><time>2026-04-26T08:15:51.527Z</time></trkpt><trkpt lat="39.48573" lon="9.2490167"><ele>623.3333333333334</ele><time>2026-04-26T08:15:52.526Z</time></trkpt><trkpt lat="39.4857717" lon="9.2492533"><ele>622.6666666666667</ele><time>2026-04-26T08:15:53.526Z</time></trkpt><trkpt lat="39.485815" lon="9.2494717"><ele>622.0</ele><time>2026-04-26T08:15:54.527Z</time></trkpt><trkpt lat="39.48585" lon="9.24968"><ele>620.0</ele><time>2026-04-26T08:15:55.526Z</time></trkpt><trkpt lat="39.48591" lon="9.2498533"><ele>618.0</ele><time>2026-04-26T08:15:56.527Z</time></trkpt><trkpt lat="39.4860333" lon="9.24998"><ele>616.0</ele><time>2026-04-26T08:15:57.527Z</time></trkpt><trkpt lat="39.4861583" lon="9.2500883"><ele>617.5</ele><time>2026-04-26T08:15:58.527Z</time></trkpt><trkpt lat="39.4862817" lon="9.2501783"><ele>619.0</ele><time>2026-04-26T08:15:59.526Z</time></trkpt><trkpt lat="39.486385" lon="9.2503083"><ele>620.5</ele><time>2026-04-26T08:16:00.526Z</time></trkpt><trkpt lat="39.48645" lon="9.2504517"><ele>622.0</ele><time>2026-04-26T08:16:01.526Z</time></trkpt><trkpt lat="39.4864767" lon="9.250635"><ele>622.0</ele><time>2026-04-26T08:16:02.527Z</time></trkpt><trkpt lat="39.4864733" lon="9.2508283"><ele>622.0</ele><time>2026-04-26T08:16:03.526Z</time></trkpt><trkpt lat="39.4864683" lon="9.251045"><ele>622.0</ele><time>2026-04-26T08:16:04.527Z</time></trkpt><trkpt lat="39.4864633" lon="9.2512867"><ele>621.3333333333334</ele><time>2026-04-26T08:16:05.527Z</time></trkpt><trkpt lat="39.48646" lon="9.251545"><ele>620.6666666666666</ele><time>2026-04-26T08:16:06.526Z</time></trkpt><trkpt lat="39.4864583" lon="9.2517967"><ele>620.0</ele><time>2026-04-26T08:16:07.526Z</time></trkpt><trkpt lat="39.48645" lon="9.25205"><ele>620.0</ele><time>2026-04-26T08:16:08.526Z</time></trkpt><trkpt lat="39.4864333" lon="9.2522817"><ele>620.0</ele><time>2026-04-26T08:16:09.526Z</time></trkpt><trkpt lat="39.4863933" lon="9.2525"><ele>620.0</ele><time>2026-04-26T08:16:10.526Z</time></trkpt><trkpt lat="39.4863133" lon="9.2527133"><ele>619.3333333333333</ele><time>2026-04-26T08:16:11.527Z</time></trkpt><trkpt lat="39.4862717" lon="9.2529267"><ele>618.6666666666666</ele><time>2026-04-26T08:16:12.527Z</time></trkpt><trkpt lat="39.4862517" lon="9.2531233"><ele>618.0</ele><time>2026-04-26T08:16:13.527Z</time></trkpt><trkpt lat="39.4862767" lon="9.2533067"><ele>617.5</ele><time>2026-04-26T08:16:14.526Z</time></trkpt><trkpt lat="39.486345" lon="9.2534617"><ele>617.0</ele><time>2026-04-26T08:16:15.527Z</time></trkpt><trkpt lat="39.48644" lon="9.253585"><ele>616.5</ele><time>2026-04-26T08:16:16.527Z</time></trkpt><trkpt lat="39.48651" lon="9.2537117"><ele>616.0</ele><time>2026-04-26T08:16:17.527Z</time></trkpt><trkpt lat="39.48654" lon="9.253845"><ele>615.0</ele><time>2026-04-26T08:16:18.526Z</time></trkpt><trkpt lat="39.4865183" lon="9.2539833"><ele>614.0</ele><time>2026-04-26T08:16:19.527Z</time></trkpt><trkpt lat="39.486465" lon="9.2541533"><ele>613.0</ele><time>2026-04-26T08:16:20.526Z</time></trkpt><trkpt lat="39.4864083" lon="9.2543383"><ele>612.0</ele><time>2026-04-26T08:16:21.526Z</time></trkpt><trkpt lat="39.4863883" lon="9.25457"><ele>611.3333333333334</ele><time>2026-04-26T08:16:22.526Z</time></trkpt><trkpt lat="39.4863883" lon="9.2548083"><ele>610.6666666666667</ele><time>2026-04-26T08:16:23.527Z</time></trkpt><trkpt lat="39.486405" lon="9.255045"><ele>610.0</ele><time>2026-04-26T08:16:24.526Z</time></trkpt><trkpt lat="39.4864183" lon="9.2552733"><ele>610.0</ele><time>2026-04-26T08:16:25.526Z</time></trkpt><trkpt lat="39.48646" lon="9.2555"><ele>610.0</ele><time>2026-04-26T08:16:26.526Z</time></trkpt><trkpt lat="39.48654" lon="9.2556983"><ele>610.0</ele><time>2026-04-26T08:16:27.527Z</time></trkpt><trkpt lat="39.48664" lon="9.2559033"><ele>606.3333333333334</ele><time>2026-04-26T08:16:28.526Z</time></trkpt><trkpt lat="39.486705" lon="9.2561083"><ele>602.6666666666666</ele><time>2026-04-26T08:16:29.527Z</time></trkpt><trkpt lat="39.4867417" lon="9.2563133"><ele>599.0</ele><time>2026-04-26T08:16:30.527Z</time></trkpt><trkpt lat="39.4867617" lon="9.2564967"><ele>600.25</ele><time>2026-04-26T08:16:31.526Z</time></trkpt><trkpt lat="39.4868117" lon="9.2566833"><ele>601.5</ele><time>2026-04-26T08:16:32.527Z</time></trkpt><trkpt lat="39.4868917" lon="9.2568317"><ele>602.75</ele><time>2026-04-26T08:16:33.526Z</time></trkpt><trkpt lat="39.4869983" lon="9.2569567"><ele>604.0</ele><time>2026-04-26T08:16:34.526Z</time></trkpt><trkpt lat="39.4871367" lon="9.2570417"><ele>604.0</ele><time>2026-04-26T08:16:35.526Z</time></trkpt><trkpt lat="39.487295" lon="9.257085"><ele>604.0</ele><time>2026-04-26T08:16:36.526Z</time></trkpt><trkpt lat="39.48746" lon="9.2570917"><ele>604.0</ele><time>2026-04-26T08:16:37.527Z</time></trkpt><trkpt lat="39.48762" lon="9.2570883"><ele>604.0</ele><time>2026-04-26T08:16:38.527Z</time></trkpt><trkpt lat="39.487765" lon="9.2571083"><ele>604.0</ele><time>2026-04-26T08:16:39.527Z</time></trkpt><trkpt lat="39.4878967" lon="9.2571717"><ele>604.0</ele><time>2026-04-26T08:16:40.527Z</time></trkpt><trkpt lat="39.4880083" lon="9.2572583"><ele>604.0</ele><time>2026-04-26T08:16:41.526Z</time></trkpt><trkpt lat="39.4880933" lon="9.2573617"><ele>600.25</ele><time>2026-04-26T08:16:42.527Z</time></trkpt><trkpt lat="39.48816" lon="9.2574867"><ele>596.5</ele><time>2026-04-26T08:16:43.527Z</time></trkpt><trkpt lat="39.4881783" lon="9.2576267"><ele>592.75</ele><time>2026-04-26T08:16:44.526Z</time></trkpt><trkpt lat="39.4881567" lon="9.2577867"><ele>589.0</ele><time>2026-04-26T08:16:45.526Z</time></trkpt><trkpt lat="39.4881083" lon="9.257945"><ele>589.0</ele><time>2026-04-26T08:16:46.527Z</time></trkpt><trkpt lat="39.48802" lon="9.2580683"><ele>589.0</ele><time>2026-04-26T08:16:47.526Z</time></trkpt><trkpt lat="39.487915" lon="9.2581967"><ele>589.0</ele><time>2026-04-26T08:16:48.527Z</time></trkpt><trkpt lat="39.48782" lon="9.2583767"><ele>589.0</ele><time>2026-04-26T08:16:49.527Z</time></trkpt><trkpt lat="39.48774" lon="9.25861"><ele>584.3333333333334</ele><time>2026-04-26T08:16:50.526Z</time></trkpt><trkpt lat="39.487665" lon="9.2588733"><ele>579.6666666666666</ele><time>2026-04-26T08:16:51.527Z</time></trkpt><trkpt lat="39.4875983" lon="9.2591383"><ele>575.0</ele><time>2026-04-26T08:16:52.526Z</time></trkpt><trkpt lat="39.4875417" lon="9.2593917"><ele>575.0</ele><time>2026-04-26T08:16:53.527Z</time></trkpt><trkpt lat="39.4875033" lon="9.2596583"><ele>575.0</ele><time>2026-04-26T08:16:54.526Z</time></trkpt><trkpt lat="39.4874883" lon="9.2599267"><ele>575.0</ele><time>2026-04-26T08:16:55.526Z</time></trkpt><trkpt lat="39.4875033" lon="9.2601983"><ele>574.6666666666666</ele><time>2026-04-26T08:16:56.526Z</time></trkpt><trkpt lat="39.4875167" lon="9.2604567"><ele>574.3333333333334</ele><time>2026-04-26T08:16:57.526Z</time></trkpt><trkpt lat="39.487515" lon="9.260705"><ele>574.0</ele><time>2026-04-26T08:16:58.526Z</time></trkpt><trkpt lat="39.4874833" lon="9.2609483"><ele>573.0</ele><time>2026-04-26T08:16:59.526Z</time></trkpt><trkpt lat="39.4874217" lon="9.2611717"><ele>572.0</ele><time>2026-04-26T08:17:00.526Z</time></trkpt><trkpt lat="39.4873483" lon="9.2613783"><ele>571.0</ele><time>2026-04-26T08:17:01.526Z</time></trkpt><trkpt lat="39.487285" lon="9.261555"><ele>570.75</ele><time>2026-04-26T08:17:02.526Z</time></trkpt><trkpt lat="39.4872383" lon="9.2617083"><ele>570.5</ele><time>2026-04-26T08:17:03.526Z</time></trkpt><trkpt lat="39.4872333" lon="9.2618567"><ele>570.25</ele><time>2026-04-26T08:17:04.526Z</time></trkpt><trkpt lat="39.4872817" lon="9.262005"><ele>570.0</ele><time>2026-04-26T08:17:05.527Z</time></trkpt><trkpt lat="39.48736" lon="9.2621433"><ele>567.3333333333334</ele><time>2026-04-26T08:17:06.526Z</time></trkpt><trkpt lat="39.4874517" lon="9.2622967"><ele>564.6666666666667</ele><time>2026-04-26T08:17:07.527Z</time></trkpt><trkpt lat="39.48754" lon="9.2624783"><ele>562.0</ele><time>2026-04-26T08:17:08.526Z</time></trkpt><trkpt lat="39.4875867" lon="9.26271"><ele>562.0</ele><time>2026-04-26T08:17:09.526Z</time></trkpt><trkpt lat="39.4876067" lon="9.2629467"><ele>562.0</ele><time>2026-04-26T08:17:10.528Z</time></trkpt><trkpt lat="39.4876267" lon="9.26319"><ele>562.0</ele><time>2026-04-26T08:17:11.528Z</time></trkpt><trkpt lat="39.4876333" lon="9.26342"><ele>559.6666666666667</ele><time>2026-04-26T08:17:12.528Z</time></trkpt><trkpt lat="39.4876267" lon="9.2636517"><ele>557.3333333333334</ele><time>2026-04-26T08:17:13.528Z</time></trkpt><trkpt lat="39.4875867" lon="9.26388"><ele>555.0</ele><time>2026-04-26T08:17:14.528Z</time></trkpt><trkpt lat="39.48752" lon="9.2641067"><ele>555.0</ele><time>2026-04-26T08:17:15.527Z</time></trkpt><trkpt lat="39.48742" lon="9.2642983"><ele>555.0</ele><time>2026-04-26T08:17:16.527Z</time></trkpt><trkpt lat="39.487285" lon="9.2644833"><ele>555.0</ele><time>2026-04-26T08:17:17.527Z</time></trkpt><trkpt lat="39.4871333" lon="9.264655"><ele>550.3333333333334</ele><time>2026-04-26T08:17:18.527Z</time></trkpt><trkpt lat="39.4870017" lon="9.2648133"><ele>545.6666666666667</ele><time>2026-04-26T08:17:19.527Z</time></trkpt><trkpt lat="39.4868983" lon="9.26496"><ele>541.0</ele><time>2026-04-26T08:17:20.528Z</time></trkpt><trkpt lat="39.4868167" lon="9.2651233"><ele>541.0</ele><time>2026-04-26T08:17:21.528Z</time></trkpt><trkpt lat="39.4867567" lon="9.2653133"><ele>541.0</ele><time>2026-04-26T08:17:22.528Z</time></trkpt><trkpt lat="39.48674" lon="9.265535"><ele>541.0</ele><time>2026-04-26T08:17:23.527Z</time></trkpt><trkpt lat="39.4867367" lon="9.2657667"><ele>541.6666666666667</ele><time>2026-04-26T08:17:24.528Z</time></trkpt><trkpt lat="39.48674" lon="9.266005"><ele>542.3333333333334</ele><time>2026-04-26T08:17:25.528Z</time></trkpt><trkpt lat="39.4867883" lon="9.2662483"><ele>543.0</ele><time>2026-04-26T08:17:26.527Z</time></trkpt><trkpt lat="39.486865" lon="9.2664617"><ele>540.0</ele><time>2026-04-26T08:17:27.528Z</time></trkpt><trkpt lat="39.48695" lon="9.266645"><ele>537.0</ele><time>2026-04-26T08:17:28.527Z</time></trkpt><trkpt lat="39.48702" lon="9.2668167"><ele>534.0</ele><time>2026-04-26T08:17:29.528Z</time></trkpt><trkpt lat="39.4870417" lon="9.2669883"><ele>531.0</ele><time>2026-04-26T08:17:30.528Z</time></trkpt><trkpt lat="39.4870467" lon="9.2671517"><ele>533.0</ele><time>2026-04-26T08:17:31.527Z</time></trkpt><trkpt lat="39.48704" lon="9.2673083"><ele>535.0</ele><time>2026-04-26T08:17:32.528Z</time></trkpt><trkpt lat="39.48708" lon="9.2674517"><ele>537.0</ele><time>2026-04-26T08:17:33.528Z</time></trkpt><trkpt lat="39.487145" lon="9.2675683"><ele>539.0</ele><time>2026-04-26T08:17:34.528Z</time></trkpt><trkpt lat="39.4872417" lon="9.2676433"><ele>539.0</ele><time>2026-04-26T08:17:35.527Z</time></trkpt><trkpt lat="39.4873517" lon="9.2676633"><ele>539.0</ele><time>2026-04-26T08:17:36.528Z</time></trkpt><trkpt lat="39.4874633" lon="9.2676417"><ele>539.0</ele><time>2026-04-26T08:17:37.527Z</time></trkpt><trkpt lat="39.4875933" lon="9.2675983"><ele>539.0</ele><time>2026-04-26T08:17:38.527Z</time></trkpt><trkpt lat="39.4877233" lon="9.267545"><ele>539.0</ele><time>2026-04-26T08:17:39.527Z</time></trkpt><trkpt lat="39.4878667" lon="9.2674817"><ele>539.0</ele><time>2026-04-26T08:17:40.527Z</time></trkpt><trkpt lat="39.4880067" lon="9.2674033"><ele>539.0</ele><time>2026-04-26T08:17:41.527Z</time></trkpt><trkpt lat="39.4881217" lon="9.2673"><ele>539.0</ele><time>2026-04-26T08:17:42.527Z</time></trkpt><trkpt lat="39.48821" lon="9.267165"><ele>540.0</ele><time>2026-04-26T08:17:43.527Z</time></trkpt><trkpt lat="39.488275" lon="9.2670333"><ele>541.0</ele><time>2026-04-26T08:17:44.527Z</time></trkpt><trkpt lat="39.4883183" lon="9.2669283"><ele>542.0</ele><time>2026-04-26T08:17:45.528Z</time></trkpt><trkpt lat="39.4883783" lon="9.2668417"><ele>543.0</ele><time>2026-04-26T08:17:46.528Z</time></trkpt><trkpt lat="39.48845" lon="9.2668133"><ele>544.0</ele><time>2026-04-26T08:17:47.527Z</time></trkpt><trkpt lat="39.48855" lon="9.2669167"><ele>544.0</ele><time>2026-04-26T08:17:49.528Z</time></trkpt><trkpt lat="39.4885617" lon="9.2670183"><ele>544.0</ele><time>2026-04-26T08:17:50.527Z</time></trkpt><trkpt lat="39.488565" lon="9.2671417"><ele>544.0</ele><time>2026-04-26T08:17:51.528Z</time></trkpt><trkpt lat="39.4885633" lon="9.267325"><ele>544.0</ele><time>2026-04-26T08:17:52.527Z</time></trkpt><trkpt lat="39.4885633" lon="9.26755"><ele>540.0</ele><time>2026-04-26T08:17:53.527Z</time></trkpt><trkpt lat="39.48858" lon="9.2677767"><ele>536.0</ele><time>2026-04-26T08:17:54.528Z</time></trkpt><trkpt lat="39.4885883" lon="9.2679883"><ele>532.0</ele><time>2026-04-26T08:17:55.528Z</time></trkpt><trkpt lat="39.4885733" lon="9.26818"><ele>529.3333333333334</ele><time>2026-04-26T08:17:56.528Z</time></trkpt><trkpt lat="39.488525" lon="9.2683583"><ele>526.6666666666666</ele><time>2026-04-26T08:17:57.528Z</time></trkpt><trkpt lat="39.488425" lon="9.2685117"><ele>524.0</ele><time>2026-04-26T08:17:58.527Z</time></trkpt><trkpt lat="39.4882983" lon="9.2686717"><ele>524.0</ele><time>2026-04-26T08:17:59.527Z</time></trkpt><trkpt lat="39.4881667" lon="9.268845"><ele>524.0</ele><time>2026-04-26T08:18:00.528Z</time></trkpt><trkpt lat="39.4880333" lon="9.269035"><ele>524.0</ele><time>2026-04-26T08:18:01.527Z</time></trkpt><trkpt lat="39.4878967" lon="9.2692217"><ele>520.3333333333333</ele><time>2026-04-26T08:18:02.528Z</time></trkpt><trkpt lat="39.4877717" lon="9.2694117"><ele>516.6666666666666</ele><time>2026-04-26T08:18:03.528Z</time></trkpt><trkpt lat="39.48766" lon="9.26961"><ele>513.0</ele><time>2026-04-26T08:18:04.527Z</time></trkpt><trkpt lat="39.48757" lon="9.2698417"><ele>513.0</ele><time>2026-04-26T08:18:05.527Z</time></trkpt><trkpt lat="39.4874983" lon="9.2700883"><ele>513.0</ele><time>2026-04-26T08:18:06.528Z</time></trkpt><trkpt lat="39.4874517" lon="9.2703517"><ele>513.0</ele><time>2026-04-26T08:18:07.527Z</time></trkpt><trkpt lat="39.48745" lon="9.2706383"><ele>513.6666666666666</ele><time>2026-04-26T08:18:08.528Z</time></trkpt><trkpt lat="39.487455" lon="9.2708767"><ele>514.3333333333333</ele><time>2026-04-26T08:18:09.528Z</time></trkpt><trkpt lat="39.4874533" lon="9.2711067"><ele>515.0</ele><time>2026-04-26T08:18:10.527Z</time></trkpt><trkpt lat="39.48741" lon="9.2713267"><ele>517.0</ele><time>2026-04-26T08:18:11.527Z</time></trkpt><trkpt lat="39.4873317" lon="9.27154"><ele>519.0</ele><time>2026-04-26T08:18:12.527Z</time></trkpt><trkpt lat="39.4872133" lon="9.2717467"><ele>521.0</ele><time>2026-04-26T08:18:13.528Z</time></trkpt><trkpt lat="39.487085" lon="9.271945"><ele>512.0</ele><time>2026-04-26T08:18:14.528Z</time></trkpt><trkpt lat="39.486975" lon="9.2721733"><ele>503.0</ele><time>2026-04-26T08:18:15.528Z</time></trkpt><trkpt lat="39.48687" lon="9.27241"><ele>494.0</ele><time>2026-04-26T08:18:16.528Z</time></trkpt><trkpt lat="39.4867817" lon="9.2726367"><ele>494.0</ele><time>2026-04-26T08:18:17.527Z</time></trkpt><trkpt lat="39.4867083" lon="9.27284"><ele>494.0</ele><time>2026-04-26T08:18:18.528Z</time></trkpt><trkpt lat="39.4866467" lon="9.2730233"><ele>494.0</ele><time>2026-04-26T08:18:19.527Z</time></trkpt><trkpt lat="39.4866117" lon="9.2731933"><ele>495.75</ele><time>2026-04-26T08:18:20.528Z</time></trkpt><trkpt lat="39.4866133" lon="9.2733667"><ele>497.5</ele><time>2026-04-26T08:18:21.528Z</time></trkpt><trkpt lat="39.4866633" lon="9.2735417"><ele>499.25</ele><time>2026-04-26T08:18:22.527Z</time></trkpt><trkpt lat="39.4867383" lon="9.2736933"><ele>501.0</ele><time>2026-04-26T08:18:23.527Z</time></trkpt><trkpt lat="39.486795" lon="9.27385"><ele>499.33333333333337</ele><time>2026-04-26T08:18:24.527Z</time></trkpt><trkpt lat="39.4868183" lon="9.2740283"><ele>497.6666666666667</ele><time>2026-04-26T08:18:25.527Z</time></trkpt><trkpt lat="39.486795" lon="9.2742333"><ele>496.0</ele><time>2026-04-26T08:18:26.528Z</time></trkpt><trkpt lat="39.4867567" lon="9.2744517"><ele>496.0</ele><time>2026-04-26T08:18:27.528Z</time></trkpt><trkpt lat="39.4866983" lon="9.27467"><ele>496.0</ele><time>2026-04-26T08:18:28.528Z</time></trkpt><trkpt lat="39.486645" lon="9.2748817"><ele>496.0</ele><time>2026-04-26T08:18:29.528Z</time></trkpt><trkpt lat="39.4865367" lon="9.2750833"><ele>497.0</ele><time>2026-04-26T08:18:30.527Z</time></trkpt><trkpt lat="39.48639" lon="9.2752733"><ele>498.0</ele><time>2026-04-26T08:18:31.527Z</time></trkpt><trkpt lat="39.4862633" lon="9.2754583"><ele>499.0</ele><time>2026-04-26T08:18:32.528Z</time></trkpt><trkpt lat="39.4861483" lon="9.275625"><ele>492.33333333333337</ele><time>2026-04-26T08:18:33.528Z</time></trkpt><trkpt lat="39.4860733" lon="9.275795"><ele>485.66666666666663</ele><time>2026-04-26T08:18:34.528Z</time></trkpt><trkpt lat="39.48601" lon="9.276005"><ele>479.0</ele><time>2026-04-26T08:18:35.527Z</time></trkpt><trkpt lat="39.48602" lon="9.27621"><ele>479.0</ele><time>2026-04-26T08:18:36.528Z</time></trkpt><trkpt lat="39.4860533" lon="9.27643"><ele>479.0</ele><time>2026-04-26T08:18:37.527Z</time></trkpt><trkpt lat="39.4860633" lon="9.27667"><ele>479.0</ele><time>2026-04-26T08:18:38.527Z</time></trkpt><trkpt lat="39.486065" lon="9.2769083"><ele>478.66666666666663</ele><time>2026-04-26T08:18:39.528Z</time></trkpt><trkpt lat="39.4860517" lon="9.2771017"><ele>478.33333333333337</ele><time>2026-04-26T08:18:40.528Z</time></trkpt><trkpt lat="39.486055" lon="9.2772933"><ele>478.0</ele><time>2026-04-26T08:18:41.527Z</time></trkpt><trkpt lat="39.486115" lon="9.27749"><ele>475.6666666666667</ele><time>2026-04-26T08:18:42.528Z</time></trkpt><trkpt lat="39.486205" lon="9.2776517"><ele>473.33333333333337</ele><time>2026-04-26T08:18:43.528Z</time></trkpt><trkpt lat="39.4863317" lon="9.2777867"><ele>471.0</ele><time>2026-04-26T08:18:44.528Z</time></trkpt><trkpt lat="39.4864533" lon="9.2779333"><ele>475.0</ele><time>2026-04-26T08:18:45.527Z</time></trkpt><trkpt lat="39.48656" lon="9.2780983"><ele>479.0</ele><time>2026-04-26T08:18:46.528Z</time></trkpt><trkpt lat="39.486625" lon="9.2782817"><ele>483.0</ele><time>2026-04-26T08:18:47.528Z</time></trkpt><trkpt lat="39.486655" lon="9.27848"><ele>483.0</ele><time>2026-04-26T08:18:48.527Z</time></trkpt><trkpt lat="39.4866767" lon="9.2786933"><ele>483.0</ele><time>2026-04-26T08:18:49.527Z</time></trkpt><trkpt lat="39.4866883" lon="9.278905"><ele>483.0</ele><time>2026-04-26T08:18:50.527Z</time></trkpt><trkpt lat="39.4866867" lon="9.2791117"><ele>480.0</ele><time>2026-04-26T08:18:51.527Z</time></trkpt><trkpt lat="39.4866633" lon="9.279315"><ele>477.0</ele><time>2026-04-26T08:18:52.528Z</time></trkpt><trkpt lat="39.486665" lon="9.2794767"><ele>474.0</ele><time>2026-04-26T08:18:53.527Z</time></trkpt><trkpt lat="39.48673" lon="9.2796333"><ele>471.0</ele><time>2026-04-26T08:18:54.527Z</time></trkpt><trkpt lat="39.486815" lon="9.27977"><ele>468.5</ele><time>2026-04-26T08:18:55.528Z</time></trkpt><trkpt lat="39.4869333" lon="9.2798817"><ele>466.0</ele><time>2026-04-26T08:18:56.527Z</time></trkpt><trkpt lat="39.4870533" lon="9.2799517"><ele>463.5</ele><time>2026-04-26T08:18:57.528Z</time></trkpt><trkpt lat="39.4871767" lon="9.2799533"><ele>461.0</ele><time>2026-04-26T08:18:58.527Z</time></trkpt><trkpt lat="39.4872917" lon="9.2799233"><ele>460.5</ele><time>2026-04-26T08:18:59.528Z</time></trkpt><trkpt lat="39.4873883" lon="9.2798533"><ele>460.0</ele><time>2026-04-26T08:19:00.527Z</time></trkpt><trkpt lat="39.4874483" lon="9.2797383"><ele>459.5</ele><time>2026-04-26T08:19:01.527Z</time></trkpt><trkpt lat="39.4874783" lon="9.2795683"><ele>459.0</ele><time>2026-04-26T08:19:02.527Z</time></trkpt><trkpt lat="39.4874683" lon="9.27938"><ele>462.0</ele><time>2026-04-26T08:19:03.528Z</time></trkpt><trkpt lat="39.4874683" lon="9.2792183"><ele>465.0</ele><time>2026-04-26T08:19:04.527Z</time></trkpt><trkpt lat="39.4874867" lon="9.27907"><ele>468.0</ele><time>2026-04-26T08:19:05.528Z</time></trkpt><trkpt lat="39.4875367" lon="9.2789317"><ele>471.0</ele><time>2026-04-26T08:19:06.528Z</time></trkpt><trkpt lat="39.48762" lon="9.27883"><ele>471.6666666666667</ele><time>2026-04-26T08:19:07.528Z</time></trkpt><trkpt lat="39.48772" lon="9.2787633"><ele>472.33333333333337</ele><time>2026-04-26T08:19:08.527Z</time></trkpt><trkpt lat="39.48781" lon="9.2787217"><ele>473.0</ele><time>2026-04-26T08:19:09.528Z</time></trkpt><trkpt lat="39.4878917" lon="9.2786833"><ele>473.6666666666667</ele><time>2026-04-26T08:19:10.527Z</time></trkpt><trkpt lat="39.4879667" lon="9.2786883"><ele>474.33333333333337</ele><time>2026-04-26T08:19:11.527Z</time></trkpt><trkpt lat="39.488015" lon="9.2787583"><ele>475.0</ele><time>2026-04-26T08:19:12.527Z</time></trkpt><trkpt lat="39.4880417" lon="9.2788617"><ele>474.25</ele><time>2026-04-26T08:19:13.527Z</time></trkpt><trkpt lat="39.48806" lon="9.2789933"><ele>473.5</ele><time>2026-04-26T08:19:14.528Z</time></trkpt><trkpt lat="39.4881083" lon="9.2791633"><ele>472.75</ele><time>2026-04-26T08:19:15.527Z</time></trkpt><trkpt lat="39.488205" lon="9.2793667"><ele>472.0</ele><time>2026-04-26T08:19:16.527Z</time></trkpt><trkpt lat="39.4882933" lon="9.2795517"><ele>472.0</ele><time>2026-04-26T08:19:17.528Z</time></trkpt><trkpt lat="39.4883617" lon="9.27973"><ele>472.0</ele><time>2026-04-26T08:19:18.527Z</time></trkpt><trkpt lat="39.488415" lon="9.2799017"><ele>472.0</ele><time>2026-04-26T08:19:19.527Z</time></trkpt><trkpt lat="39.4884433" lon="9.2800833"><ele>472.0</ele><time>2026-04-26T08:19:20.528Z</time></trkpt><trkpt lat="39.48845" lon="9.28027"><ele>471.5</ele><time>2026-04-26T08:19:21.528Z</time></trkpt><trkpt lat="39.4884433" lon="9.2804433"><ele>471.0</ele><time>2026-04-26T08:19:22.528Z</time></trkpt><trkpt lat="39.4884117" lon="9.280635"><ele>470.5</ele><time>2026-04-26T08:19:23.527Z</time></trkpt><trkpt lat="39.4883483" lon="9.28082"><ele>470.0</ele><time>2026-04-26T08:19:24.528Z</time></trkpt><trkpt lat="39.48825" lon="9.2809883"><ele>470.0</ele><time>2026-04-26T08:19:25.527Z</time></trkpt><trkpt lat="39.4881133" lon="9.2811917"><ele>470.0</ele><time>2026-04-26T08:19:26.527Z</time></trkpt><trkpt lat="39.487965" lon="9.2814133"><ele>470.0</ele><time>2026-04-26T08:19:27.528Z</time></trkpt><trkpt lat="39.487815" lon="9.2816483"><ele>471.66666666666663</ele><time>2026-04-26T08:19:28.528Z</time></trkpt><trkpt lat="39.4876717" lon="9.2818817"><ele>473.33333333333337</ele><time>2026-04-26T08:19:29.528Z</time></trkpt><trkpt lat="39.4875433" lon="9.2821"><ele>475.0</ele><time>2026-04-26T08:19:30.528Z</time></trkpt><trkpt lat="39.4874317" lon="9.2823017"><ele>475.0</ele><time>2026-04-26T08:19:31.527Z</time></trkpt><trkpt lat="39.4873033" lon="9.2824667"><ele>475.0</ele><time>2026-04-26T08:19:32.528Z</time></trkpt><trkpt lat="39.4871917" lon="9.2826033"><ele>475.0</ele><time>2026-04-26T08:19:33.527Z</time></trkpt><trkpt lat="39.4871017" lon="9.28274"><ele>469.75</ele><time>2026-04-26T08:19:34.527Z</time></trkpt><trkpt lat="39.48703" lon="9.2828867"><ele>464.5</ele><time>2026-04-26T08:19:35.527Z</time></trkpt><trkpt lat="39.4869867" lon="9.283065"><ele>459.25</ele><time>2026-04-26T08:19:36.527Z</time></trkpt><trkpt lat="39.4869983" lon="9.2832767"><ele>454.0</ele><time>2026-04-26T08:19:37.528Z</time></trkpt><trkpt lat="39.4870133" lon="9.2835183"><ele>454.0</ele><time>2026-04-26T08:19:38.528Z</time></trkpt><trkpt lat="39.4870167" lon="9.2837917"><ele>454.0</ele><time>2026-04-26T08:19:39.528Z</time></trkpt><trkpt lat="39.4870267" lon="9.284085"><ele>454.0</ele><time>2026-04-26T08:19:40.527Z</time></trkpt><trkpt lat="39.4870633" lon="9.2843717"><ele>462.6666666666667</ele><time>2026-04-26T08:19:41.528Z</time></trkpt><trkpt lat="39.48711" lon="9.28463"><ele>471.33333333333337</ele><time>2026-04-26T08:19:42.527Z</time></trkpt><trkpt lat="39.4871433" lon="9.2848783"><ele>480.0</ele><time>2026-04-26T08:19:43.528Z</time></trkpt><trkpt lat="39.4871417" lon="9.285145"><ele>480.0</ele><time>2026-04-26T08:19:44.527Z</time></trkpt><trkpt lat="39.487115" lon="9.2854"><ele>480.0</ele><time>2026-04-26T08:19:45.528Z</time></trkpt><trkpt lat="39.4870833" lon="9.2856467"><ele>480.0</ele><time>2026-04-26T08:19:46.527Z</time></trkpt><trkpt lat="39.48706" lon="9.2858733"><ele>477.5</ele><time>2026-04-26T08:19:47.528Z</time></trkpt><trkpt lat="39.4870433" lon="9.286065"><ele>475.0</ele><time>2026-04-26T08:19:48.527Z</time></trkpt><trkpt lat="39.4870633" lon="9.2862667"><ele>472.5</ele><time>2026-04-26T08:19:49.528Z</time></trkpt><trkpt lat="39.48712" lon="9.2864367"><ele>470.0</ele><time>2026-04-26T08:19:50.528Z</time></trkpt><trkpt lat="39.4872233" lon="9.2865717"><ele>470.0</ele><time>2026-04-26T08:19:51.527Z</time></trkpt><trkpt lat="39.4873483" lon="9.2866717"><ele>470.0</ele><time>2026-04-26T08:19:52.527Z</time></trkpt><trkpt lat="39.48748" lon="9.2867233"><ele>470.0</ele><time>2026-04-26T08:19:53.528Z</time></trkpt><trkpt lat="39.4876217" lon="9.28671"><ele>470.0</ele><time>2026-04-26T08:19:54.527Z</time></trkpt><trkpt lat="39.4877683" lon="9.2866367"><ele>470.0</ele><time>2026-04-26T08:19:55.528Z</time></trkpt><trkpt lat="39.4879217" lon="9.286535"><ele>470.0</ele><time>2026-04-26T08:19:56.527Z</time></trkpt><trkpt lat="39.4880667" lon="9.2864"><ele>470.0</ele><time>2026-04-26T08:19:57.527Z</time></trkpt><trkpt lat="39.4881767" lon="9.28624"><ele>470.3333333333333</ele><time>2026-04-26T08:19:58.527Z</time></trkpt><trkpt lat="39.4882617" lon="9.2860433"><ele>470.66666666666663</ele><time>2026-04-26T08:19:59.527Z</time></trkpt><trkpt lat="39.4883233" lon="9.28582"><ele>471.0</ele><time>2026-04-26T08:20:00.528Z</time></trkpt><trkpt lat="39.488375" lon="9.2855917"><ele>471.0</ele><time>2026-04-26T08:20:01.528Z</time></trkpt><trkpt lat="39.48843" lon="9.285365"><ele>471.0</ele><time>2026-04-26T08:20:02.527Z</time></trkpt><trkpt lat="39.4884933" lon="9.28517"><ele>471.0</ele><time>2026-04-26T08:20:03.528Z</time></trkpt><trkpt lat="39.4885717" lon="9.2849933"><ele>471.0</ele><time>2026-04-26T08:20:04.527Z</time></trkpt><trkpt lat="39.4886933" lon="9.2848383"><ele>471.0</ele><time>2026-04-26T08:20:05.528Z</time></trkpt><trkpt lat="39.4888317" lon="9.2847017"><ele>471.0</ele><time>2026-04-26T08:20:06.527Z</time></trkpt><trkpt lat="39.4889817" lon="9.28456"><ele>470.33333333333337</ele><time>2026-04-26T08:20:07.527Z</time></trkpt><trkpt lat="39.4891167" lon="9.28442"><ele>469.6666666666667</ele><time>2026-04-26T08:20:08.528Z</time></trkpt><trkpt lat="39.4892567" lon="9.2843083"><ele>469.0</ele><time>2026-04-26T08:20:09.528Z</time></trkpt><trkpt lat="39.4894033" lon="9.28423"><ele>469.0</ele><time>2026-04-26T08:20:10.528Z</time></trkpt><trkpt lat="39.48953" lon="9.2841833"><ele>469.0</ele><time>2026-04-26T08:20:11.527Z</time></trkpt><trkpt lat="39.4896383" lon="9.28416"><ele>469.0</ele><time>2026-04-26T08:20:12.528Z</time></trkpt><trkpt lat="39.4897383" lon="9.284185"><ele>469.0</ele><time>2026-04-26T08:20:13.527Z</time></trkpt><trkpt lat="39.48981" lon="9.2842583"><ele>469.0</ele><time>2026-04-26T08:20:14.527Z</time></trkpt><trkpt lat="39.48985" lon="9.28438"><ele>468.5</ele><time>2026-04-26T08:20:15.527Z</time></trkpt><trkpt lat="39.4898417" lon="9.28451"><ele>468.0</ele><time>2026-04-26T08:20:16.527Z</time></trkpt><trkpt lat="39.4898" lon="9.2846683"><ele>467.5</ele><time>2026-04-26T08:20:17.528Z</time></trkpt><trkpt lat="39.4897217" lon="9.2848483"><ele>467.0</ele><time>2026-04-26T08:20:18.528Z</time></trkpt><trkpt lat="39.4896333" lon="9.28505"><ele>462.3333333333333</ele><time>2026-04-26T08:20:19.528Z</time></trkpt><trkpt lat="39.489565" lon="9.2852633"><ele>457.66666666666663</ele><time>2026-04-26T08:20:20.528Z</time></trkpt><trkpt lat="39.4895133" lon="9.2855067"><ele>453.0</ele><time>2026-04-26T08:20:21.527Z</time></trkpt><trkpt lat="39.4895133" lon="9.285805"><ele>450.0</ele><time>2026-04-26T08:20:22.527Z</time></trkpt><trkpt lat="39.4895333" lon="9.286105"><ele>447.0</ele><time>2026-04-26T08:20:23.527Z</time></trkpt><trkpt lat="39.4895367" lon="9.28641"><ele>444.5</ele><time>2026-04-26T08:20:24.528Z</time></trkpt><trkpt lat="39.4895217" lon="9.2867083"><ele>442.0</ele><time>2026-04-26T08:20:25.528Z</time></trkpt><trkpt lat="39.4894833" lon="9.2869983"><ele>441.0</ele><time>2026-04-26T08:20:26.528Z</time></trkpt><trkpt lat="39.4894367" lon="9.287275"><ele>440.0</ele><time>2026-04-26T08:20:27.528Z</time></trkpt><trkpt lat="39.4893967" lon="9.287505"><ele>439.0</ele><time>2026-04-26T08:20:28.527Z</time></trkpt><trkpt lat="39.4893667" lon="9.2877117"><ele>439.0</ele><time>2026-04-26T08:20:29.527Z</time></trkpt><trkpt lat="39.489365" lon="9.2879017"><ele>439.0</ele><time>2026-04-26T08:20:30.527Z</time></trkpt><trkpt lat="39.4894033" lon="9.2881033"><ele>439.0</ele><time>2026-04-26T08:20:31.527Z</time></trkpt><trkpt lat="39.489485" lon="9.2882483"><ele>439.0</ele><time>2026-04-26T08:20:32.527Z</time></trkpt><trkpt lat="39.4896017" lon="9.288365"><ele>443.33333333333337</ele><time>2026-04-26T08:20:33.527Z</time></trkpt><trkpt lat="39.489755" lon="9.288465"><ele>447.66666666666663</ele><time>2026-04-26T08:20:34.527Z</time></trkpt><trkpt lat="39.4899" lon="9.2885633"><ele>452.0</ele><time>2026-04-26T08:20:35.528Z</time></trkpt><trkpt lat="39.4900317" lon="9.2886683"><ele>452.0</ele><time>2026-04-26T08:20:36.527Z</time></trkpt><trkpt lat="39.4901533" lon="9.2888117"><ele>452.0</ele><time>2026-04-26T08:20:37.528Z</time></trkpt><trkpt lat="39.490265" lon="9.28899"><ele>452.0</ele><time>2026-04-26T08:20:38.528Z</time></trkpt><trkpt lat="39.4903567" lon="9.28919"><ele>448.3333333333333</ele><time>2026-04-26T08:20:39.528Z</time></trkpt><trkpt lat="39.49048" lon="9.2893583"><ele>444.66666666666663</ele><time>2026-04-26T08:20:40.527Z</time></trkpt><trkpt lat="39.49062" lon="9.2895083"><ele>441.0</ele><time>2026-04-26T08:20:41.528Z</time></trkpt><trkpt lat="39.4907617" lon="9.289605"><ele>441.0</ele><time>2026-04-26T08:20:42.527Z</time></trkpt><trkpt lat="39.4909033" lon="9.28966"><ele>441.0</ele><time>2026-04-26T08:20:43.528Z</time></trkpt><trkpt lat="39.491055" lon="9.2896617"><ele>441.0</ele><time>2026-04-26T08:20:44.527Z</time></trkpt><trkpt lat="39.4911833" lon="9.2895933"><ele>441.0</ele><time>2026-04-26T08:20:45.528Z</time></trkpt><trkpt lat="39.4912967" lon="9.2894567"><ele>437.33333333333337</ele><time>2026-04-26T08:20:46.528Z</time></trkpt><trkpt lat="39.4914033" lon="9.289305"><ele>433.6666666666667</ele><time>2026-04-26T08:20:47.527Z</time></trkpt><trkpt lat="39.4915167" lon="9.2891517"><ele>430.0</ele><time>2026-04-26T08:20:48.527Z</time></trkpt><trkpt lat="39.4916183" lon="9.2890167"><ele>430.0</ele><time>2026-04-26T08:20:49.528Z</time></trkpt><trkpt lat="39.4917067" lon="9.28891"><ele>430.0</ele><time>2026-04-26T08:20:50.528Z</time></trkpt><trkpt lat="39.4918067" lon="9.2888517"><ele>430.0</ele><time>2026-04-26T08:20:51.527Z</time></trkpt><trkpt lat="39.4919167" lon="9.2888483"><ele>430.0</ele><time>2026-04-26T08:20:52.527Z</time></trkpt><trkpt lat="39.4920083" lon="9.28892"><ele>430.0</ele><time>2026-04-26T08:20:53.528Z</time></trkpt><trkpt lat="39.4920633" lon="9.2890483"><ele>436.33333333333337</ele><time>2026-04-26T08:20:54.528Z</time></trkpt><trkpt lat="39.492095" lon="9.2892183"><ele>442.66666666666663</ele><time>2026-04-26T08:20:55.528Z</time></trkpt><trkpt lat="39.4921083" lon="9.289435"><ele>449.0</ele><time>2026-04-26T08:20:56.528Z</time></trkpt><trkpt lat="39.4921317" lon="9.289685"><ele>444.66666666666663</ele><time>2026-04-26T08:20:57.527Z</time></trkpt><trkpt lat="39.4921817" lon="9.2899517"><ele>440.33333333333337</ele><time>2026-04-26T08:20:58.527Z</time></trkpt><trkpt lat="39.49225" lon="9.290195"><ele>436.0</ele><time>2026-04-26T08:20:59.528Z</time></trkpt><trkpt lat="39.4923217" lon="9.2904183"><ele>430.0</ele><time>2026-04-26T08:21:00.527Z</time></trkpt><trkpt lat="39.4924183" lon="9.2906083"><ele>424.0</ele><time>2026-04-26T08:21:01.527Z</time></trkpt><trkpt lat="39.4925533" lon="9.29075"><ele>418.0</ele><time>2026-04-26T08:21:02.528Z</time></trkpt><trkpt lat="39.4927167" lon="9.2908633"><ele>418.0</ele><time>2026-04-26T08:21:03.528Z</time></trkpt><trkpt lat="39.492885" lon="9.290945"><ele>418.0</ele><time>2026-04-26T08:21:04.527Z</time></trkpt><trkpt lat="39.4930717" lon="9.290995"><ele>418.0</ele><time>2026-04-26T08:21:05.527Z</time></trkpt><trkpt lat="39.49326" lon="9.2910383"><ele>419.6666666666667</ele><time>2026-04-26T08:21:06.528Z</time></trkpt><trkpt lat="39.4934533" lon="9.2910833"><ele>421.33333333333337</ele><time>2026-04-26T08:21:07.527Z</time></trkpt><trkpt lat="39.4936267" lon="9.2911317"><ele>423.0</ele><time>2026-04-26T08:21:08.528Z</time></trkpt><trkpt lat="39.49378" lon="9.2911667"><ele>423.0</ele><time>2026-04-26T08:21:09.527Z</time></trkpt><trkpt lat="39.49391" lon="9.2911917"><ele>423.0</ele><time>2026-04-26T08:21:10.527Z</time></trkpt><trkpt lat="39.4940067" lon="9.2912383"><ele>423.0</ele><time>2026-04-26T08:21:11.528Z</time></trkpt><trkpt lat="39.4940583" lon="9.291335"><ele>423.0</ele><time>2026-04-26T08:21:12.528Z</time></trkpt><trkpt lat="39.4940633" lon="9.2914583"><ele>423.0</ele><time>2026-04-26T08:21:13.528Z</time></trkpt><trkpt lat="39.4940183" lon="9.29157"><ele>422.5</ele><time>2026-04-26T08:21:14.527Z</time></trkpt><trkpt lat="39.4939217" lon="9.29167"><ele>422.0</ele><time>2026-04-26T08:21:15.528Z</time></trkpt><trkpt lat="39.4937983" lon="9.291745"><ele>421.5</ele><time>2026-04-26T08:21:16.528Z</time></trkpt><trkpt lat="39.4936533" lon="9.2918317"><ele>421.0</ele><time>2026-04-26T08:21:17.527Z</time></trkpt><trkpt lat="39.4934783" lon="9.2919667"><ele>420.6666666666667</ele><time>2026-04-26T08:21:18.528Z</time></trkpt><trkpt lat="39.4932917" lon="9.2921233"><ele>420.33333333333337</ele><time>2026-04-26T08:21:19.528Z</time></trkpt><trkpt lat="39.4931233" lon="9.2922783"><ele>420.0</ele><time>2026-04-26T08:21:20.528Z</time></trkpt><trkpt lat="39.492985" lon="9.2924283"><ele>412.66666666666663</ele><time>2026-04-26T08:21:21.528Z</time></trkpt><trkpt lat="39.4928483" lon="9.2925883"><ele>405.3333333333333</ele><time>2026-04-26T08:21:22.527Z</time></trkpt><trkpt lat="39.4927333" lon="9.2927633"><ele>398.0</ele><time>2026-04-26T08:21:23.528Z</time></trkpt><trkpt lat="39.4926433" lon="9.2929583"><ele>400.3333333333333</ele><time>2026-04-26T08:21:24.528Z</time></trkpt><trkpt lat="39.4925883" lon="9.2931833"><ele>402.66666666666663</ele><time>2026-04-26T08:21:25.527Z</time></trkpt><trkpt lat="39.4925717" lon="9.2934117"><ele>405.0</ele><time>2026-04-26T08:21:26.528Z</time></trkpt><trkpt lat="39.4925683" lon="9.2936283"><ele>405.0</ele><time>2026-04-26T08:21:27.528Z</time></trkpt><trkpt lat="39.4925833" lon="9.2938233"><ele>405.0</ele><time>2026-04-26T08:21:28.528Z</time></trkpt><trkpt lat="39.4926417" lon="9.294005"><ele>405.0</ele><time>2026-04-26T08:21:29.528Z</time></trkpt><trkpt lat="39.4927467" lon="9.294155"><ele>406.0</ele><time>2026-04-26T08:21:30.527Z</time></trkpt><trkpt lat="39.492875" lon="9.294305"><ele>407.0</ele><time>2026-04-26T08:21:31.528Z</time></trkpt><trkpt lat="39.4930183" lon="9.2944617"><ele>408.0</ele><time>2026-04-26T08:21:32.527Z</time></trkpt><trkpt lat="39.493165" lon="9.29462"><ele>407.66666666666663</ele><time>2026-04-26T08:21:33.527Z</time></trkpt><trkpt lat="39.49332" lon="9.294785"><ele>407.3333333333333</ele><time>2026-04-26T08:21:34.527Z</time></trkpt><trkpt lat="39.4934817" lon="9.2949517"><ele>407.0</ele><time>2026-04-26T08:21:35.527Z</time></trkpt><trkpt lat="39.4936317" lon="9.29509"><ele>411.66666666666663</ele><time>2026-04-26T08:21:36.527Z</time></trkpt><trkpt lat="39.4937867" lon="9.2952217"><ele>416.33333333333337</ele><time>2026-04-26T08:21:37.527Z</time></trkpt><trkpt lat="39.493945" lon="9.2953167"><ele>421.0</ele><time>2026-04-26T08:21:38.528Z</time></trkpt><trkpt lat="39.4941017" lon="9.2953883"><ele>421.0</ele><time>2026-04-26T08:21:39.528Z</time></trkpt><trkpt lat="39.4942467" lon="9.29544"><ele>421.0</ele><time>2026-04-26T08:21:40.527Z</time></trkpt><trkpt lat="39.4943533" lon="9.2955067"><ele>421.0</ele><time>2026-04-26T08:21:41.527Z</time></trkpt><trkpt lat="39.4944267" lon="9.2956183"><ele>421.0</ele><time>2026-04-26T08:21:42.527Z</time></trkpt><trkpt lat="39.4944683" lon="9.2957567"><ele>417.25</ele><time>2026-04-26T08:21:43.528Z</time></trkpt><trkpt lat="39.4944683" lon="9.2959067"><ele>413.5</ele><time>2026-04-26T08:21:44.528Z</time></trkpt><trkpt lat="39.4944217" lon="9.2960733"><ele>409.75</ele><time>2026-04-26T08:21:45.528Z</time></trkpt><trkpt lat="39.49435" lon="9.2962617"><ele>406.0</ele><time>2026-04-26T08:21:46.528Z</time></trkpt><trkpt lat="39.49428" lon="9.2964667"><ele>406.0</ele><time>2026-04-26T08:21:47.528Z</time></trkpt><trkpt lat="39.49421" lon="9.2966917"><ele>406.0</ele><time>2026-04-26T08:21:48.527Z</time></trkpt><trkpt lat="39.4941333" lon="9.2969133"><ele>406.0</ele><time>2026-04-26T08:21:49.527Z</time></trkpt><trkpt lat="39.4940617" lon="9.2971367"><ele>407.6666666666667</ele><time>2026-04-26T08:21:50.527Z</time></trkpt><trkpt lat="39.4939967" lon="9.2973367"><ele>409.33333333333337</ele><time>2026-04-26T08:21:51.528Z</time></trkpt><trkpt lat="39.49396" lon="9.2975383"><ele>411.0</ele><time>2026-04-26T08:21:52.528Z</time></trkpt><trkpt lat="39.4939667" lon="9.29774"><ele>411.0</ele><time>2026-04-26T08:21:53.528Z</time></trkpt><trkpt lat="39.4940183" lon="9.2979233"><ele>411.0</ele><time>2026-04-26T08:21:54.527Z</time></trkpt><trkpt lat="39.4941033" lon="9.2980883"><ele>411.0</ele><time>2026-04-26T08:21:55.527Z</time></trkpt><trkpt lat="39.4942117" lon="9.29824"><ele>410.0</ele><time>2026-04-26T08:21:56.527Z</time></trkpt><trkpt lat="39.494335" lon="9.2983783"><ele>409.0</ele><time>2026-04-26T08:21:57.527Z</time></trkpt><trkpt lat="39.494475" lon="9.2984883"><ele>408.0</ele><time>2026-04-26T08:21:58.527Z</time></trkpt><trkpt lat="39.4946217" lon="9.2985683"><ele>408.0</ele><time>2026-04-26T08:21:59.527Z</time></trkpt><trkpt lat="39.4947767" lon="9.2986017"><ele>408.0</ele><time>2026-04-26T08:22:00.528Z</time></trkpt><trkpt lat="39.4949417" lon="9.298595"><ele>408.0</ele><time>2026-04-26T08:22:01.527Z</time></trkpt><trkpt lat="39.4951033" lon="9.2985517"><ele>408.0</ele><time>2026-04-26T08:22:02.527Z</time></trkpt><trkpt lat="39.4952567" lon="9.29849"><ele>408.0</ele><time>2026-04-26T08:22:03.528Z</time></trkpt><trkpt lat="39.4953883" lon="9.2984133"><ele>408.0</ele><time>2026-04-26T08:22:04.528Z</time></trkpt><trkpt lat="39.4955167" lon="9.29833"><ele>408.0</ele><time>2026-04-26T08:22:05.528Z</time></trkpt><trkpt lat="39.49562" lon="9.2982283"><ele>408.5</ele><time>2026-04-26T08:22:06.527Z</time></trkpt><trkpt lat="39.4957217" lon="9.2981083"><ele>409.0</ele><time>2026-04-26T08:22:07.528Z</time></trkpt><trkpt lat="39.495805" lon="9.2979883"><ele>409.5</ele><time>2026-04-26T08:22:08.527Z</time></trkpt><trkpt lat="39.4958733" lon="9.2978767"><ele>410.0</ele><time>2026-04-26T08:22:09.527Z</time></trkpt><trkpt lat="39.4959583" lon="9.2977883"><ele>410.0</ele><time>2026-04-26T08:22:10.527Z</time></trkpt><trkpt lat="39.4960583" lon="9.2977483"><ele>410.0</ele><time>2026-04-26T08:22:11.528Z</time></trkpt><trkpt lat="39.4961567" lon="9.2977617"><ele>410.0</ele><time>2026-04-26T08:22:12.528Z</time></trkpt><trkpt lat="39.496235" lon="9.2978317"><ele>410.0</ele><time>2026-04-26T08:22:13.528Z</time></trkpt><trkpt lat="39.496295" lon="9.2979333"><ele>410.0</ele><time>2026-04-26T08:22:14.527Z</time></trkpt><trkpt lat="39.4963417" lon="9.298055"><ele>408.5</ele><time>2026-04-26T08:22:15.527Z</time></trkpt><trkpt lat="39.4963783" lon="9.2981917"><ele>407.0</ele><time>2026-04-26T08:22:16.528Z</time></trkpt><trkpt lat="39.4964067" lon="9.2983333"><ele>405.5</ele><time>2026-04-26T08:22:17.527Z</time></trkpt><trkpt lat="39.4964233" lon="9.2984833"><ele>404.0</ele><time>2026-04-26T08:22:18.527Z</time></trkpt><trkpt lat="39.4964117" lon="9.2986433"><ele>404.0</ele><time>2026-04-26T08:22:19.528Z</time></trkpt><trkpt lat="39.496385" lon="9.2988083"><ele>404.0</ele><time>2026-04-26T08:22:20.527Z</time></trkpt><trkpt lat="39.4963433" lon="9.2989733"><ele>404.0</ele><time>2026-04-26T08:22:21.527Z</time></trkpt><trkpt lat="39.4962817" lon="9.2991317"><ele>404.0</ele><time>2026-04-26T08:22:22.528Z</time></trkpt><trkpt lat="39.4962183" lon="9.2992867"><ele>400.5</ele><time>2026-04-26T08:22:23.527Z</time></trkpt><trkpt lat="39.4961583" lon="9.2994283"><ele>397.0</ele><time>2026-04-26T08:22:24.527Z</time></trkpt><trkpt lat="39.49611" lon="9.2995683"><ele>393.5</ele><time>2026-04-26T08:22:25.527Z</time></trkpt><trkpt lat="39.49606" lon="9.2997033"><ele>390.0</ele><time>2026-04-26T08:22:26.528Z</time></trkpt><trkpt lat="39.49601" lon="9.29985"><ele>389.66666666666663</ele><time>2026-04-26T08:22:27.528Z</time></trkpt><trkpt lat="39.49596" lon="9.300015"><ele>389.3333333333333</ele><time>2026-04-26T08:22:28.528Z</time></trkpt><trkpt lat="39.49593" lon="9.30022"><ele>389.0</ele><time>2026-04-26T08:22:29.528Z</time></trkpt><trkpt lat="39.49591" lon="9.3004467"><ele>388.0</ele><time>2026-04-26T08:22:30.527Z</time></trkpt><trkpt lat="39.4959017" lon="9.30069"><ele>387.0</ele><time>2026-04-26T08:22:31.528Z</time></trkpt><trkpt lat="39.4958883" lon="9.3009217"><ele>386.0</ele><time>2026-04-26T08:22:32.528Z</time></trkpt><trkpt lat="39.4958733" lon="9.3011483"><ele>386.0</ele><time>2026-04-26T08:22:33.528Z</time></trkpt><trkpt lat="39.4958633" lon="9.3013733"><ele>386.0</ele><time>2026-04-26T08:22:34.528Z</time></trkpt><trkpt lat="39.495855" lon="9.301565"><ele>386.0</ele><time>2026-04-26T08:22:35.527Z</time></trkpt><trkpt lat="39.4958517" lon="9.3017283"><ele>386.0</ele><time>2026-04-26T08:22:36.527Z</time></trkpt><trkpt lat="39.4958633" lon="9.3018833"><ele>386.0</ele><time>2026-04-26T08:22:37.527Z</time></trkpt><trkpt lat="39.4958833" lon="9.3020283"><ele>386.0</ele><time>2026-04-26T08:22:38.528Z</time></trkpt><trkpt lat="39.4959183" lon="9.3021733"><ele>386.0</ele><time>2026-04-26T08:22:39.528Z</time></trkpt><trkpt lat="39.495965" lon="9.3023267"><ele>386.0</ele><time>2026-04-26T08:22:40.527Z</time></trkpt><trkpt lat="39.4960233" lon="9.302485"><ele>386.0</ele><time>2026-04-26T08:22:41.528Z</time></trkpt><trkpt lat="39.4960883" lon="9.3026367"><ele>386.0</ele><time>2026-04-26T08:22:42.527Z</time></trkpt><trkpt lat="39.4961517" lon="9.3028083"><ele>386.0</ele><time>2026-04-26T08:22:43.528Z</time></trkpt><trkpt lat="39.4962183" lon="9.3029783"><ele>386.0</ele><time>2026-04-26T08:22:44.527Z</time></trkpt><trkpt lat="39.496295" lon="9.3031567"><ele>385.0</ele><time>2026-04-26T08:22:45.528Z</time></trkpt><trkpt lat="39.4963667" lon="9.3033317"><ele>384.0</ele><time>2026-04-26T08:22:46.527Z</time></trkpt><trkpt lat="39.4964333" lon="9.3034933"><ele>383.0</ele><time>2026-04-26T08:22:47.528Z</time></trkpt><trkpt lat="39.4964917" lon="9.3036583"><ele>382.0</ele><time>2026-04-26T08:22:48.527Z</time></trkpt><trkpt lat="39.4965583" lon="9.3038333"><ele>380.3333333333333</ele><time>2026-04-26T08:22:49.527Z</time></trkpt><trkpt lat="39.4966" lon="9.3040467"><ele>378.6666666666667</ele><time>2026-04-26T08:22:50.527Z</time></trkpt><trkpt lat="39.4966317" lon="9.3042617"><ele>377.0</ele><time>2026-04-26T08:22:51.527Z</time></trkpt><trkpt lat="39.496665" lon="9.3044867"><ele>377.0</ele><time>2026-04-26T08:22:52.527Z</time></trkpt><trkpt lat="39.4966983" lon="9.3046983"><ele>377.0</ele><time>2026-04-26T08:22:53.528Z</time></trkpt><trkpt lat="39.4967317" lon="9.304895"><ele>377.0</ele><time>2026-04-26T08:22:54.527Z</time></trkpt><trkpt lat="39.496765" lon="9.3050867"><ele>376.25</ele><time>2026-04-26T08:22:55.527Z</time></trkpt><trkpt lat="39.4968117" lon="9.30527"><ele>375.5</ele><time>2026-04-26T08:22:56.528Z</time></trkpt><trkpt lat="39.4968683" lon="9.30542"><ele>374.75</ele><time>2026-04-26T08:22:57.527Z</time></trkpt><trkpt lat="39.4969717" lon="9.3055533"><ele>374.0</ele><time>2026-04-26T08:22:58.528Z</time></trkpt><trkpt lat="39.49708" lon="9.3056833"><ele>374.25</ele><time>2026-04-26T08:22:59.527Z</time></trkpt><trkpt lat="39.497165" lon="9.305835"><ele>374.5</ele><time>2026-04-26T08:23:00.528Z</time></trkpt><trkpt lat="39.4972583" lon="9.3059833"><ele>374.75</ele><time>2026-04-26T08:23:01.528Z</time></trkpt><trkpt lat="39.49734" lon="9.3061133"><ele>375.0</ele><time>2026-04-26T08:23:02.527Z</time></trkpt><trkpt lat="39.497425" lon="9.306235"><ele>375.0</ele><time>2026-04-26T08:23:03.528Z</time></trkpt><trkpt lat="39.4975083" lon="9.30635"><ele>375.0</ele><time>2026-04-26T08:23:04.528Z</time></trkpt><trkpt lat="39.4975783" lon="9.30646"><ele>375.0</ele><time>2026-04-26T08:23:05.528Z</time></trkpt><trkpt lat="39.4976567" lon="9.3065633"><ele>375.0</ele><time>2026-04-26T08:23:06.528Z</time></trkpt><trkpt lat="39.4977167" lon="9.3066833"><ele>374.0</ele><time>2026-04-26T08:23:07.527Z</time></trkpt><trkpt lat="39.49777" lon="9.3067933"><ele>373.0</ele><time>2026-04-26T08:23:08.528Z</time></trkpt><trkpt lat="39.497795" lon="9.306905"><ele>372.0</ele><time>2026-04-26T08:23:09.527Z</time></trkpt><trkpt lat="39.4977833" lon="9.307025"><ele>371.0</ele><time>2026-04-26T08:23:10.527Z</time></trkpt><trkpt lat="39.4977517" lon="9.3071317"><ele>370.0</ele><time>2026-04-26T08:23:11.528Z</time></trkpt><trkpt lat="39.4976867" lon="9.3072267"><ele>369.5</ele><time>2026-04-26T08:23:12.527Z</time></trkpt><trkpt lat="39.4976017" lon="9.30734"><ele>369.0</ele><time>2026-04-26T08:23:13.528Z</time></trkpt><trkpt lat="39.4974883" lon="9.307465"><ele>368.5</ele><time>2026-04-26T08:23:14.528Z</time></trkpt><trkpt lat="39.49737" lon="9.3076"><ele>368.0</ele><time>2026-04-26T08:23:15.527Z</time></trkpt><trkpt lat="39.4972683" lon="9.3077717"><ele>368.0</ele><time>2026-04-26T08:23:16.527Z</time></trkpt><trkpt lat="39.497165" lon="9.3079283"><ele>368.0</ele><time>2026-04-26T08:23:17.528Z</time></trkpt><trkpt lat="39.4970667" lon="9.3080817"><ele>368.0</ele><time>2026-04-26T08:23:18.527Z</time></trkpt><trkpt lat="39.496975" lon="9.3082233"><ele>367.0</ele><time>2026-04-26T08:23:19.528Z</time></trkpt><trkpt lat="39.496895" lon="9.308365"><ele>366.0</ele><time>2026-04-26T08:23:20.528Z</time></trkpt><trkpt lat="39.49684" lon="9.30853"><ele>365.0</ele><time>2026-04-26T08:23:21.528Z</time></trkpt><trkpt lat="39.4967883" lon="9.3087067"><ele>364.0</ele><time>2026-04-26T08:23:22.527Z</time></trkpt><trkpt lat="39.496745" lon="9.3088983"><ele>365.3333333333333</ele><time>2026-04-26T08:23:23.527Z</time></trkpt><trkpt lat="39.4967033" lon="9.3090967"><ele>366.6666666666667</ele><time>2026-04-26T08:23:24.528Z</time></trkpt><trkpt lat="39.4966683" lon="9.3093317"><ele>368.0</ele><time>2026-04-26T08:23:25.528Z</time></trkpt><trkpt lat="39.496645" lon="9.3095833"><ele>368.6666666666667</ele><time>2026-04-26T08:23:26.528Z</time></trkpt><trkpt lat="39.49663" lon="9.309815"><ele>369.3333333333333</ele><time>2026-04-26T08:23:27.528Z</time></trkpt><trkpt lat="39.496635" lon="9.310025"><ele>370.0</ele><time>2026-04-26T08:23:28.528Z</time></trkpt><trkpt lat="39.4966617" lon="9.31021"><ele>370.0</ele><time>2026-04-26T08:23:29.528Z</time></trkpt><trkpt lat="39.4967217" lon="9.3103583"><ele>370.0</ele><time>2026-04-26T08:23:30.528Z</time></trkpt><trkpt lat="39.4968217" lon="9.3104683"><ele>370.0</ele><time>2026-04-26T08:23:31.528Z</time></trkpt><trkpt lat="39.496955" lon="9.3105783"><ele>370.0</ele><time>2026-04-26T08:23:32.527Z</time></trkpt><trkpt lat="39.4971167" lon="9.3106667"><ele>376.0</ele><time>2026-04-26T08:23:33.528Z</time></trkpt><trkpt lat="39.4973133" lon="9.3107767"><ele>382.0</ele><time>2026-04-26T08:23:34.527Z</time></trkpt><trkpt lat="39.49753" lon="9.310915"><ele>382.0</ele><time>2026-04-26T08:23:35.527Z</time></trkpt><trkpt lat="39.497775" lon="9.3110633"><ele>382.0</ele><time>2026-04-26T08:23:36.527Z</time></trkpt><trkpt lat="39.498025" lon="9.3112117"><ele>382.5</ele><time>2026-04-26T08:23:37.527Z</time></trkpt><trkpt lat="39.498295" lon="9.311375"><ele>383.0</ele><time>2026-04-26T08:23:38.528Z</time></trkpt><trkpt lat="39.4985767" lon="9.3115417"><ele>382.5</ele><time>2026-04-26T08:23:39.527Z</time></trkpt><trkpt lat="39.49884" lon="9.311715"><ele>382.0</ele><time>2026-04-26T08:23:40.527Z</time></trkpt><trkpt lat="39.49909" lon="9.3118683"><ele>382.0</ele><time>2026-04-26T08:23:41.527Z</time></trkpt><trkpt lat="39.4993217" lon="9.3119917"><ele>382.0</ele><time>2026-04-26T08:23:42.527Z</time></trkpt><trkpt lat="39.4995317" lon="9.312105"><ele>384.0</ele><time>2026-04-26T08:23:43.528Z</time></trkpt><trkpt lat="39.49974" lon="9.3122167"><ele>386.0</ele><time>2026-04-26T08:23:44.528Z</time></trkpt><trkpt lat="39.4999417" lon="9.3123317"><ele>388.0</ele><time>2026-04-26T08:23:45.528Z</time></trkpt><trkpt lat="39.5001317" lon="9.31246"><ele>388.0</ele><time>2026-04-26T08:23:46.528Z</time></trkpt><trkpt lat="39.5002767" lon="9.3126"><ele>388.0</ele><time>2026-04-26T08:23:47.527Z</time></trkpt><trkpt lat="39.500395" lon="9.312785"><ele>388.0</ele><time>2026-04-26T08:23:48.527Z</time></trkpt><trkpt lat="39.5004933" lon="9.3129733"><ele>389.33333333333337</ele><time>2026-04-26T08:23:49.527Z</time></trkpt><trkpt lat="39.5005667" lon="9.3131617"><ele>390.66666666666663</ele><time>2026-04-26T08:23:50.527Z</time></trkpt><trkpt lat="39.5006667" lon="9.3133067"><ele>392.0</ele><time>2026-04-26T08:23:51.528Z</time></trkpt><trkpt lat="39.5007917" lon="9.313425"><ele>392.0</ele><time>2026-04-26T08:23:52.528Z</time></trkpt><trkpt lat="39.500945" lon="9.31349"><ele>392.0</ele><time>2026-04-26T08:23:53.528Z</time></trkpt><trkpt lat="39.50114" lon="9.3135033"><ele>392.0</ele><time>2026-04-26T08:23:54.528Z</time></trkpt><trkpt lat="39.5013083" lon="9.3134867"><ele>392.66666666666663</ele><time>2026-04-26T08:23:55.527Z</time></trkpt><trkpt lat="39.5014717" lon="9.3134583"><ele>393.33333333333337</ele><time>2026-04-26T08:23:56.528Z</time></trkpt><trkpt lat="39.50162" lon="9.3134133"><ele>394.0</ele><time>2026-04-26T08:23:57.528Z</time></trkpt><trkpt lat="39.5017567" lon="9.31334"><ele>394.0</ele><time>2026-04-26T08:23:58.527Z</time></trkpt><trkpt lat="39.5018733" lon="9.313255"><ele>394.0</ele><time>2026-04-26T08:23:59.527Z</time></trkpt><trkpt lat="39.5019683" lon="9.3131367"><ele>394.0</ele><time>2026-04-26T08:24:00.528Z</time></trkpt><trkpt lat="39.5020317" lon="9.3129783"><ele>394.0</ele><time>2026-04-26T08:24:01.528Z</time></trkpt><trkpt lat="39.5020767" lon="9.31275"><ele>391.6666666666667</ele><time>2026-04-26T08:24:02.528Z</time></trkpt><trkpt lat="39.5021217" lon="9.3124983"><ele>389.33333333333337</ele><time>2026-04-26T08:24:03.527Z</time></trkpt><trkpt lat="39.50217" lon="9.3122383"><ele>387.0</ele><time>2026-04-26T08:24:04.527Z</time></trkpt><trkpt lat="39.5022117" lon="9.3119933"><ele>386.66666666666663</ele><time>2026-04-26T08:24:05.527Z</time></trkpt><trkpt lat="39.502265" lon="9.311775"><ele>386.3333333333333</ele><time>2026-04-26T08:24:06.528Z</time></trkpt><trkpt lat="39.5023283" lon="9.3115733"><ele>386.0</ele><time>2026-04-26T08:24:07.527Z</time></trkpt><trkpt lat="39.502405" lon="9.3113817"><ele>387.66666666666663</ele><time>2026-04-26T08:24:08.527Z</time></trkpt><trkpt lat="39.5024933" lon="9.3112167"><ele>389.33333333333337</ele><time>2026-04-26T08:24:09.527Z</time></trkpt><trkpt lat="39.502615" lon="9.3110883"><ele>391.0</ele><time>2026-04-26T08:24:10.528Z</time></trkpt><trkpt lat="39.5027467" lon="9.311005"><ele>391.0</ele><time>2026-04-26T08:24:11.527Z</time></trkpt><trkpt lat="39.5028717" lon="9.3109317"><ele>391.0</ele><time>2026-04-26T08:24:12.528Z</time></trkpt><trkpt lat="39.5029917" lon="9.3108883"><ele>391.0</ele><time>2026-04-26T08:24:13.528Z</time></trkpt><trkpt lat="39.5031067" lon="9.310885"><ele>391.0</ele><time>2026-04-26T08:24:14.527Z</time></trkpt><trkpt lat="39.503215" lon="9.310955"><ele>389.75</ele><time>2026-04-26T08:24:15.527Z</time></trkpt><trkpt lat="39.5032883" lon="9.31106"><ele>388.5</ele><time>2026-04-26T08:24:16.528Z</time></trkpt><trkpt lat="39.5033333" lon="9.3111917"><ele>387.25</ele><time>2026-04-26T08:24:17.528Z</time></trkpt><trkpt lat="39.503355" lon="9.31136"><ele>386.0</ele><time>2026-04-26T08:24:18.527Z</time></trkpt><trkpt lat="39.5033567" lon="9.31156"><ele>384.3333333333333</ele><time>2026-04-26T08:24:19.528Z</time></trkpt><trkpt lat="39.503365" lon="9.3117817"><ele>382.66666666666663</ele><time>2026-04-26T08:24:20.528Z</time></trkpt><trkpt lat="39.5033767" lon="9.312005"><ele>381.0</ele><time>2026-04-26T08:24:21.527Z</time></trkpt><trkpt lat="39.503415" lon="9.3121967"><ele>380.0</ele><time>2026-04-26T08:24:22.528Z</time></trkpt><trkpt lat="39.503485" lon="9.3123583"><ele>379.0</ele><time>2026-04-26T08:24:23.528Z</time></trkpt><trkpt lat="39.5035917" lon="9.3124817"><ele>378.0</ele><time>2026-04-26T08:24:24.527Z</time></trkpt><trkpt lat="39.50374" lon="9.3125633"><ele>377.0</ele><time>2026-04-26T08:24:25.528Z</time></trkpt><trkpt lat="39.5038967" lon="9.3126"><ele>377.0</ele><time>2026-04-26T08:24:26.527Z</time></trkpt><trkpt lat="39.5040683" lon="9.31261"><ele>377.0</ele><time>2026-04-26T08:24:27.528Z</time></trkpt><trkpt lat="39.5042583" lon="9.312595"><ele>377.0</ele><time>2026-04-26T08:24:28.527Z</time></trkpt><trkpt lat="39.504475" lon="9.3125533"><ele>375.0</ele><time>2026-04-26T08:24:29.527Z</time></trkpt><trkpt lat="39.50469" lon="9.3124933"><ele>373.0</ele><time>2026-04-26T08:24:30.528Z</time></trkpt><trkpt lat="39.5049017" lon="9.312425"><ele>371.0</ele><time>2026-04-26T08:24:31.528Z</time></trkpt><trkpt lat="39.5051283" lon="9.312375"><ele>371.0</ele><time>2026-04-26T08:24:32.527Z</time></trkpt><trkpt lat="39.5053417" lon="9.3123483"><ele>371.0</ele><time>2026-04-26T08:24:33.528Z</time></trkpt><trkpt lat="39.5055317" lon="9.3123317"><ele>371.0</ele><time>2026-04-26T08:24:34.527Z</time></trkpt><trkpt lat="39.5057033" lon="9.312325"><ele>371.75</ele><time>2026-04-26T08:24:35.527Z</time></trkpt><trkpt lat="39.5058533" lon="9.3123217"><ele>372.5</ele><time>2026-04-26T08:24:36.528Z</time></trkpt><trkpt lat="39.5059867" lon="9.3122867"><ele>373.25</ele><time>2026-04-26T08:24:37.528Z</time></trkpt><trkpt lat="39.50609" lon="9.3122033"><ele>374.0</ele><time>2026-04-26T08:24:38.527Z</time></trkpt><trkpt lat="39.50616" lon="9.3120817"><ele>374.0</ele><time>2026-04-26T08:24:39.527Z</time></trkpt><trkpt lat="39.5062017" lon="9.3119217"><ele>374.0</ele><time>2026-04-26T08:24:40.528Z</time></trkpt><trkpt lat="39.5062383" lon="9.311755"><ele>374.0</ele><time>2026-04-26T08:24:41.528Z</time></trkpt><trkpt lat="39.5062833" lon="9.3116267"><ele>374.0</ele><time>2026-04-26T08:24:42.527Z</time></trkpt><trkpt lat="39.5063417" lon="9.31155"><ele>372.4</ele><time>2026-04-26T08:24:43.528Z</time></trkpt><trkpt lat="39.506415" lon="9.3115083"><ele>370.79999999999995</ele><time>2026-04-26T08:24:44.528Z</time></trkpt><trkpt lat="39.5064967" lon="9.3115383"><ele>369.20000000000005</ele><time>2026-04-26T08:24:45.527Z</time></trkpt><trkpt lat="39.5065883" lon="9.3116267"><ele>367.6</ele><time>2026-04-26T08:24:46.527Z</time></trkpt><trkpt lat="39.5067" lon="9.3117467"><ele>366.0</ele><time>2026-04-26T08:24:47.528Z</time></trkpt><trkpt lat="39.5068433" lon="9.311865"><ele>366.0</ele><time>2026-04-26T08:24:48.527Z</time></trkpt><trkpt lat="39.50702" lon="9.31199"><ele>366.0</ele><time>2026-04-26T08:24:49.528Z</time></trkpt><trkpt lat="39.5072017" lon="9.3121233"><ele>366.0</ele><time>2026-04-26T08:24:50.527Z</time></trkpt><trkpt lat="39.507375" lon="9.3122433"><ele>361.6666666666667</ele><time>2026-04-26T08:24:51.528Z</time></trkpt><trkpt lat="39.5075583" lon="9.3123433"><ele>357.33333333333337</ele><time>2026-04-26T08:24:52.528Z</time></trkpt><trkpt lat="39.50775" lon="9.312405"><ele>353.0</ele><time>2026-04-26T08:24:53.528Z</time></trkpt><trkpt lat="39.5079517" lon="9.312425"><ele>353.0</ele><time>2026-04-26T08:24:54.528Z</time></trkpt><trkpt lat="39.5081633" lon="9.312425"><ele>353.0</ele><time>2026-04-26T08:24:55.527Z</time></trkpt><trkpt lat="39.508375" lon="9.3124483"><ele>353.0</ele><time>2026-04-26T08:24:56.527Z</time></trkpt><trkpt lat="39.5085733" lon="9.3124967"><ele>356.0</ele><time>2026-04-26T08:24:57.527Z</time></trkpt><trkpt lat="39.5087617" lon="9.3125867"><ele>359.0</ele><time>2026-04-26T08:24:58.528Z</time></trkpt><trkpt lat="39.5089617" lon="9.3126983"><ele>362.0</ele><time>2026-04-26T08:24:59.527Z</time></trkpt><trkpt lat="39.5091717" lon="9.3128283"><ele>362.0</ele><time>2026-04-26T08:25:00.528Z</time></trkpt><trkpt lat="39.5093817" lon="9.3129483"><ele>362.0</ele><time>2026-04-26T08:25:01.528Z</time></trkpt><trkpt lat="39.5095683" lon="9.3130667"><ele>362.0</ele><time>2026-04-26T08:25:02.528Z</time></trkpt><trkpt lat="39.5097417" lon="9.3131833"><ele>355.0</ele><time>2026-04-26T08:25:03.527Z</time></trkpt><trkpt lat="39.5099117" lon="9.313285"><ele>348.0</ele><time>2026-04-26T08:25:04.528Z</time></trkpt><trkpt lat="39.5100883" lon="9.3133767"><ele>341.0</ele><time>2026-04-26T08:25:05.528Z</time></trkpt><trkpt lat="39.5102733" lon="9.31344"><ele>341.0</ele><time>2026-04-26T08:25:06.528Z</time></trkpt><trkpt lat="39.5104717" lon="9.3134733"><ele>341.0</ele><time>2026-04-26T08:25:07.527Z</time></trkpt><trkpt lat="39.510675" lon="9.3134667"><ele>341.0</ele><time>2026-04-26T08:25:08.528Z</time></trkpt><trkpt lat="39.5108717" lon="9.3134567"><ele>341.0</ele><time>2026-04-26T08:25:09.528Z</time></trkpt><trkpt lat="39.5110483" lon="9.31347"><ele>341.0</ele><time>2026-04-26T08:25:10.527Z</time></trkpt><trkpt lat="39.5112167" lon="9.31351"><ele>341.0</ele><time>2026-04-26T08:25:11.528Z</time></trkpt><trkpt lat="39.51138" lon="9.3135683"><ele>338.25</ele><time>2026-04-26T08:25:12.527Z</time></trkpt><trkpt lat="39.5115083" lon="9.313625"><ele>335.5</ele><time>2026-04-26T08:25:13.527Z</time></trkpt><trkpt lat="39.5116283" lon="9.3136667"><ele>332.75</ele><time>2026-04-26T08:25:14.527Z</time></trkpt><trkpt lat="39.5117467" lon="9.31366"><ele>330.0</ele><time>2026-04-26T08:25:15.527Z</time></trkpt><trkpt lat="39.5118517" lon="9.31361"><ele>330.0</ele><time>2026-04-26T08:25:16.528Z</time></trkpt><trkpt lat="39.51192" lon="9.3135217"><ele>330.0</ele><time>2026-04-26T08:25:17.528Z</time></trkpt><trkpt lat="39.5119567" lon="9.3133783"><ele>330.0</ele><time>2026-04-26T08:25:18.528Z</time></trkpt><trkpt lat="39.511955" lon="9.3131817"><ele>330.0</ele><time>2026-04-26T08:25:19.528Z</time></trkpt><trkpt lat="39.5119317" lon="9.3129383"><ele>329.6666666666667</ele><time>2026-04-26T08:25:20.527Z</time></trkpt><trkpt lat="39.5118883" lon="9.312675"><ele>329.33333333333337</ele><time>2026-04-26T08:25:21.527Z</time></trkpt><trkpt lat="39.5118433" lon="9.3124217"><ele>329.0</ele><time>2026-04-26T08:25:22.527Z</time></trkpt><trkpt lat="39.51181" lon="9.3121817"><ele>327.33333333333337</ele><time>2026-04-26T08:25:23.527Z</time></trkpt><trkpt lat="39.51179" lon="9.3119333"><ele>325.6666666666667</ele><time>2026-04-26T08:25:24.528Z</time></trkpt><trkpt lat="39.5117867" lon="9.3116767"><ele>324.0</ele><time>2026-04-26T08:25:25.527Z</time></trkpt><trkpt lat="39.5117867" lon="9.3114467"><ele>320.3333333333333</ele><time>2026-04-26T08:25:26.527Z</time></trkpt><trkpt lat="39.5117867" lon="9.3112283"><ele>316.66666666666663</ele><time>2026-04-26T08:25:27.527Z</time></trkpt><trkpt lat="39.51177" lon="9.3110283"><ele>313.0</ele><time>2026-04-26T08:25:28.528Z</time></trkpt><trkpt lat="39.5117283" lon="9.3108617"><ele>313.0</ele><time>2026-04-26T08:25:29.527Z</time></trkpt><trkpt lat="39.5116533" lon="9.3107283"><ele>313.0</ele><time>2026-04-26T08:25:30.527Z</time></trkpt><trkpt lat="39.5115733" lon="9.3106117"><ele>313.0</ele><time>2026-04-26T08:25:31.528Z</time></trkpt><trkpt lat="39.5115133" lon="9.3105117"><ele>313.0</ele><time>2026-04-26T08:25:32.527Z</time></trkpt><trkpt lat="39.5114783" lon="9.3104133"><ele>313.0</ele><time>2026-04-26T08:25:33.527Z</time></trkpt><trkpt lat="39.5114617" lon="9.310315"><ele>314.5</ele><time>2026-04-26T08:25:34.527Z</time></trkpt><trkpt lat="39.5114867" lon="9.31022"><ele>316.0</ele><time>2026-04-26T08:25:35.528Z</time></trkpt><trkpt lat="39.5115617" lon="9.3101517"><ele>317.5</ele><time>2026-04-26T08:25:36.528Z</time></trkpt><trkpt lat="39.511685" lon="9.31011"><ele>319.0</ele><time>2026-04-26T08:25:37.527Z</time></trkpt><trkpt lat="39.51185" lon="9.3100467"><ele>319.0</ele><time>2026-04-26T08:25:38.528Z</time></trkpt><trkpt lat="39.5120233" lon="9.3099583"><ele>319.0</ele><time>2026-04-26T08:25:39.528Z</time></trkpt><trkpt lat="39.512175" lon="9.3098717"><ele>319.0</ele><time>2026-04-26T08:25:40.528Z</time></trkpt><trkpt lat="39.5123017" lon="9.3097867"><ele>319.4</ele><time>2026-04-26T08:25:41.527Z</time></trkpt><trkpt lat="39.5124167" lon="9.3097167"><ele>319.79999999999995</ele><time>2026-04-26T08:25:42.528Z</time></trkpt><trkpt lat="39.5125167" lon="9.3096767"><ele>320.20000000000005</ele><time>2026-04-26T08:25:43.527Z</time></trkpt><trkpt lat="39.512615" lon="9.3096783"><ele>320.6</ele><time>2026-04-26T08:25:44.528Z</time></trkpt><trkpt lat="39.5127067" lon="9.3097367"><ele>321.0</ele><time>2026-04-26T08:25:45.528Z</time></trkpt><trkpt lat="39.512765" lon="9.3098417"><ele>318.0</ele><time>2026-04-26T08:25:46.528Z</time></trkpt><trkpt lat="39.51279" lon="9.3099833"><ele>315.0</ele><time>2026-04-26T08:25:47.528Z</time></trkpt><trkpt lat="39.5127683" lon="9.310145"><ele>312.0</ele><time>2026-04-26T08:25:48.528Z</time></trkpt><trkpt lat="39.5127133" lon="9.3103283"><ele>309.0</ele><time>2026-04-26T08:25:49.527Z</time></trkpt><trkpt lat="39.5126417" lon="9.310535"><ele>308.0</ele><time>2026-04-26T08:25:50.528Z</time></trkpt><trkpt lat="39.512585" lon="9.310745"><ele>307.0</ele><time>2026-04-26T08:25:51.527Z</time></trkpt><trkpt lat="39.5125617" lon="9.31098"><ele>306.0</ele><time>2026-04-26T08:25:52.527Z</time></trkpt><trkpt lat="39.5125833" lon="9.3111983"><ele>306.0</ele><time>2026-04-26T08:25:53.527Z</time></trkpt><trkpt lat="39.5126367" lon="9.3114067"><ele>306.0</ele><time>2026-04-26T08:25:54.528Z</time></trkpt><trkpt lat="39.51273" lon="9.3116417"><ele>306.0</ele><time>2026-04-26T08:25:55.527Z</time></trkpt><trkpt lat="39.5128383" lon="9.3118983"><ele>308.0</ele><time>2026-04-26T08:25:56.527Z</time></trkpt><trkpt lat="39.51296" lon="9.3121667"><ele>310.0</ele><time>2026-04-26T08:25:57.527Z</time></trkpt><trkpt lat="39.5130667" lon="9.3124283"><ele>310.0</ele><time>2026-04-26T08:25:58.528Z</time></trkpt><trkpt lat="39.5131533" lon="9.312675"><ele>310.0</ele><time>2026-04-26T08:25:59.527Z</time></trkpt><trkpt lat="39.51324" lon="9.3128683"><ele>310.0</ele><time>2026-04-26T08:26:00.528Z</time></trkpt><trkpt lat="39.5133433" lon="9.3130217"><ele>307.5</ele><time>2026-04-26T08:26:01.527Z</time></trkpt><trkpt lat="39.513455" lon="9.3131333"><ele>305.0</ele><time>2026-04-26T08:26:02.527Z</time></trkpt><trkpt lat="39.5135817" lon="9.31323"><ele>302.5</ele><time>2026-04-26T08:26:03.527Z</time></trkpt><trkpt lat="39.5137283" lon="9.3132833"><ele>300.0</ele><time>2026-04-26T08:26:04.527Z</time></trkpt><trkpt lat="39.51388" lon="9.31329"><ele>300.0</ele><time>2026-04-26T08:26:05.528Z</time></trkpt><trkpt lat="39.513995" lon="9.3132917"><ele>300.0</ele><time>2026-04-26T08:26:06.527Z</time></trkpt><trkpt lat="39.5141083" lon="9.3133133"><ele>300.0</ele><time>2026-04-26T08:26:07.528Z</time></trkpt><trkpt lat="39.5141967" lon="9.3134"><ele>300.0</ele><time>2026-04-26T08:26:08.528Z</time></trkpt><trkpt lat="39.514305" lon="9.3135417"><ele>300.0</ele><time>2026-04-26T08:26:09.527Z</time></trkpt><trkpt lat="39.5144183" lon="9.3137183"><ele>300.0</ele><time>2026-04-26T08:26:10.527Z</time></trkpt><trkpt lat="39.51454" lon="9.3139217"><ele>300.0</ele><time>2026-04-26T08:26:11.527Z</time></trkpt><trkpt lat="39.5146617" lon="9.3141033"><ele>299.3333333333333</ele><time>2026-04-26T08:26:12.527Z</time></trkpt><trkpt lat="39.5148017" lon="9.314265"><ele>298.66666666666663</ele><time>2026-04-26T08:26:13.528Z</time></trkpt><trkpt lat="39.51497" lon="9.3143883"><ele>298.0</ele><time>2026-04-26T08:26:14.528Z</time></trkpt><trkpt lat="39.5151533" lon="9.3145017"><ele>298.0</ele><time>2026-04-26T08:26:15.528Z</time></trkpt><trkpt lat="39.5153217" lon="9.314615"><ele>298.0</ele><time>2026-04-26T08:26:16.528Z</time></trkpt><trkpt lat="39.51551" lon="9.3147"><ele>298.0</ele><time>2026-04-26T08:26:17.527Z</time></trkpt><trkpt lat="39.5157083" lon="9.3147717"><ele>294.3333333333333</ele><time>2026-04-26T08:26:18.528Z</time></trkpt><trkpt lat="39.5158883" lon="9.3148067"><ele>290.6666666666667</ele><time>2026-04-26T08:26:19.527Z</time></trkpt><trkpt lat="39.5160667" lon="9.3148117"><ele>287.0</ele><time>2026-04-26T08:26:20.528Z</time></trkpt><trkpt lat="39.516205" lon="9.3148"><ele>285.5</ele><time>2026-04-26T08:26:21.528Z</time></trkpt><trkpt lat="39.51633" lon="9.3147717"><ele>284.0</ele><time>2026-04-26T08:26:22.528Z</time></trkpt><trkpt lat="39.5164383" lon="9.3147067"><ele>282.5</ele><time>2026-04-26T08:26:23.528Z</time></trkpt><trkpt lat="39.516525" lon="9.3146083"><ele>281.0</ele><time>2026-04-26T08:26:24.527Z</time></trkpt><trkpt lat="39.5165767" lon="9.3144617"><ele>283.6</ele><time>2026-04-26T08:26:25.528Z</time></trkpt><trkpt lat="39.516615" lon="9.314335"><ele>286.20000000000005</ele><time>2026-04-26T08:26:26.527Z</time></trkpt><trkpt lat="39.5166683" lon="9.314235"><ele>288.79999999999995</ele><time>2026-04-26T08:26:27.527Z</time></trkpt><trkpt lat="39.5167483" lon="9.31419"><ele>291.4</ele><time>2026-04-26T08:26:28.527Z</time></trkpt><trkpt lat="39.5168367" lon="9.3142133"><ele>294.0</ele><time>2026-04-26T08:26:29.528Z</time></trkpt><trkpt lat="39.5169167" lon="9.3142767"><ele>294.0</ele><time>2026-04-26T08:26:30.528Z</time></trkpt><trkpt lat="39.516985" lon="9.3143933"><ele>294.0</ele><time>2026-04-26T08:26:31.527Z</time></trkpt><trkpt lat="39.5170317" lon="9.3145733"><ele>294.0</ele><time>2026-04-26T08:26:32.527Z</time></trkpt><trkpt lat="39.5170617" lon="9.31481"><ele>294.0</ele><time>2026-04-26T08:26:33.527Z</time></trkpt><trkpt lat="39.5171333" lon="9.3150233"><ele>293.0</ele><time>2026-04-26T08:26:34.527Z</time></trkpt><trkpt lat="39.5172717" lon="9.31521"><ele>292.0</ele><time>2026-04-26T08:26:35.527Z</time></trkpt><trkpt lat="39.51744" lon="9.3154"><ele>291.0</ele><time>2026-04-26T08:26:36.527Z</time></trkpt><trkpt lat="39.5176283" lon="9.3155933"><ele>291.5</ele><time>2026-04-26T08:26:37.528Z</time></trkpt><trkpt lat="39.5178233" lon="9.3158"><ele>292.0</ele><time>2026-04-26T08:26:38.528Z</time></trkpt><trkpt lat="39.51802" lon="9.3159933"><ele>292.0</ele><time>2026-04-26T08:26:39.527Z</time></trkpt><trkpt lat="39.518215" lon="9.3161767"><ele>292.0</ele><time>2026-04-26T08:26:40.528Z</time></trkpt><trkpt lat="39.5183817" lon="9.316345"><ele>288.0</ele><time>2026-04-26T08:26:41.527Z</time></trkpt><trkpt lat="39.518525" lon="9.3164967"><ele>284.0</ele><time>2026-04-26T08:26:42.527Z</time></trkpt><trkpt lat="39.5186533" lon="9.3166233"><ele>280.0</ele><time>2026-04-26T08:26:43.527Z</time></trkpt><trkpt lat="39.5187883" lon="9.3167317"><ele>280.0</ele><time>2026-04-26T08:26:44.527Z</time></trkpt><trkpt lat="39.51895" lon="9.3168217"><ele>280.0</ele><time>2026-04-26T08:26:45.527Z</time></trkpt><trkpt lat="39.5191367" lon="9.3168617"><ele>280.0</ele><time>2026-04-26T08:26:46.527Z</time></trkpt><trkpt lat="39.5193317" lon="9.3168833"><ele>280.0</ele><time>2026-04-26T08:26:47.527Z</time></trkpt><trkpt lat="39.5195167" lon="9.3169117"><ele>280.0</ele><time>2026-04-26T08:26:48.527Z</time></trkpt><trkpt lat="39.519695" lon="9.316975"><ele>280.0</ele><time>2026-04-26T08:26:49.527Z</time></trkpt><trkpt lat="39.519845" lon="9.3170717"><ele>281.0</ele><time>2026-04-26T08:26:50.528Z</time></trkpt><trkpt lat="39.5199833" lon="9.3171967"><ele>282.0</ele><time>2026-04-26T08:26:51.527Z</time></trkpt><trkpt lat="39.5200917" lon="9.3173383"><ele>283.0</ele><time>2026-04-26T08:26:52.528Z</time></trkpt><trkpt lat="39.5201983" lon="9.3175133"><ele>279.25</ele><time>2026-04-26T08:26:53.528Z</time></trkpt><trkpt lat="39.52027" lon="9.317695"><ele>275.5</ele><time>2026-04-26T08:26:54.528Z</time></trkpt><trkpt lat="39.5203017" lon="9.3178583"><ele>271.75</ele><time>2026-04-26T08:26:55.527Z</time></trkpt><trkpt lat="39.5203267" lon="9.3180283"><ele>268.0</ele><time>2026-04-26T08:26:56.528Z</time></trkpt><trkpt lat="39.5203583" lon="9.3181783"><ele>266.6</ele><time>2026-04-26T08:26:57.527Z</time></trkpt><trkpt lat="39.5204267" lon="9.3182733"><ele>265.20000000000005</ele><time>2026-04-26T08:26:58.527Z</time></trkpt><trkpt lat="39.5205233" lon="9.3183167"><ele>263.8</ele><time>2026-04-26T08:26:59.528Z</time></trkpt><trkpt lat="39.5206217" lon="9.3183017"><ele>262.40000000000003</ele><time>2026-04-26T08:27:00.528Z</time></trkpt><trkpt lat="39.5207183" lon="9.3182517"><ele>261.0</ele><time>2026-04-26T08:27:01.527Z</time></trkpt><trkpt lat="39.5208233" lon="9.3181867"><ele>261.0</ele><time>2026-04-26T08:27:02.528Z</time></trkpt><trkpt lat="39.520915" lon="9.3181817"><ele>261.0</ele><time>2026-04-26T08:27:03.528Z</time></trkpt><trkpt lat="39.52099" lon="9.3182183"><ele>261.0</ele><time>2026-04-26T08:27:04.527Z</time></trkpt><trkpt lat="39.5210667" lon="9.318335"><ele>261.0</ele><time>2026-04-26T08:27:05.528Z</time></trkpt><trkpt lat="39.5211367" lon="9.3185167"><ele>261.0</ele><time>2026-04-26T08:27:06.528Z</time></trkpt><trkpt lat="39.5212083" lon="9.3187333"><ele>265.5</ele><time>2026-04-26T08:27:07.528Z</time></trkpt><trkpt lat="39.5213117" lon="9.318985"><ele>270.0</ele><time>2026-04-26T08:27:08.527Z</time></trkpt><trkpt lat="39.5214367" lon="9.3192583"><ele>270.0</ele><time>2026-04-26T08:27:09.528Z</time></trkpt><trkpt lat="39.5215717" lon="9.3195267"><ele>270.0</ele><time>2026-04-26T08:27:10.528Z</time></trkpt><trkpt lat="39.5216983" lon="9.3197917"><ele>266.6666666666667</ele><time>2026-04-26T08:27:11.528Z</time></trkpt><trkpt lat="39.5218117" lon="9.3200317"><ele>263.33333333333337</ele><time>2026-04-26T08:27:12.527Z</time></trkpt><trkpt lat="39.521915" lon="9.3202417"><ele>260.0</ele><time>2026-04-26T08:27:13.527Z</time></trkpt><trkpt lat="39.5220017" lon="9.3204467"><ele>257.6666666666667</ele><time>2026-04-26T08:27:14.527Z</time></trkpt><trkpt lat="39.52206" lon="9.3206517"><ele>255.33333333333331</ele><time>2026-04-26T08:27:15.527Z</time></trkpt><trkpt lat="39.522085" lon="9.32086"><ele>253.0</ele><time>2026-04-26T08:27:16.527Z</time></trkpt><trkpt lat="39.5220633" lon="9.3210717"><ele>253.0</ele><time>2026-04-26T08:27:17.527Z</time></trkpt><trkpt lat="39.52202" lon="9.3212967"><ele>253.0</ele><time>2026-04-26T08:27:18.528Z</time></trkpt><trkpt lat="39.521985" lon="9.32153"><ele>253.0</ele><time>2026-04-26T08:27:19.527Z</time></trkpt><trkpt lat="39.5219483" lon="9.3217433"><ele>253.0</ele><time>2026-04-26T08:27:20.528Z</time></trkpt><trkpt lat="39.5219017" lon="9.3219367"><ele>253.0</ele><time>2026-04-26T08:27:21.528Z</time></trkpt><trkpt lat="39.521825" lon="9.3221083"><ele>253.0</ele><time>2026-04-26T08:27:22.528Z</time></trkpt><trkpt lat="39.5217217" lon="9.322255"><ele>253.60000000000002</ele><time>2026-04-26T08:27:23.528Z</time></trkpt><trkpt lat="39.521645" lon="9.3223883"><ele>254.20000000000002</ele><time>2026-04-26T08:27:24.528Z</time></trkpt><trkpt lat="39.52159" lon="9.32252"><ele>254.8</ele><time>2026-04-26T08:27:25.527Z</time></trkpt><trkpt lat="39.5215817" lon="9.3226517"><ele>255.4</ele><time>2026-04-26T08:27:26.528Z</time></trkpt><trkpt lat="39.5216217" lon="9.322765"><ele>256.0</ele><time>2026-04-26T08:27:27.527Z</time></trkpt><trkpt lat="39.5216967" lon="9.3228483"><ele>256.0</ele><time>2026-04-26T08:27:28.527Z</time></trkpt><trkpt lat="39.5218333" lon="9.322915"><ele>256.0</ele><time>2026-04-26T08:27:29.528Z</time></trkpt><trkpt lat="39.521995" lon="9.32297"><ele>256.0</ele><time>2026-04-26T08:27:30.528Z</time></trkpt><trkpt lat="39.5221683" lon="9.32303"><ele>255.33333333333331</ele><time>2026-04-26T08:27:31.528Z</time></trkpt><trkpt lat="39.5223467" lon="9.3231033"><ele>254.66666666666669</ele><time>2026-04-26T08:27:32.527Z</time></trkpt><trkpt lat="39.5225133" lon="9.3231967"><ele>254.0</ele><time>2026-04-26T08:27:33.527Z</time></trkpt><trkpt lat="39.5226467" lon="9.3232967"><ele>254.0</ele><time>2026-04-26T08:27:34.528Z</time></trkpt><trkpt lat="39.5227583" lon="9.3233917"><ele>254.0</ele><time>2026-04-26T08:27:35.528Z</time></trkpt><trkpt lat="39.5228483" lon="9.3235117"><ele>254.0</ele><time>2026-04-26T08:27:36.527Z</time></trkpt><trkpt lat="39.5229017" lon="9.3236617"><ele>254.0</ele><time>2026-04-26T08:27:37.528Z</time></trkpt><trkpt lat="39.5229267" lon="9.32383"><ele>260.6666666666667</ele><time>2026-04-26T08:27:38.528Z</time></trkpt><trkpt lat="39.5229233" lon="9.3240533"><ele>267.3333333333333</ele><time>2026-04-26T08:27:39.528Z</time></trkpt><trkpt lat="39.5229483" lon="9.3242783"><ele>274.0</ele><time>2026-04-26T08:27:40.527Z</time></trkpt><trkpt lat="39.5229983" lon="9.324455"><ele>274.0</ele><time>2026-04-26T08:27:41.528Z</time></trkpt><trkpt lat="39.5230483" lon="9.32463"><ele>274.0</ele><time>2026-04-26T08:27:42.527Z</time></trkpt><trkpt lat="39.52307" lon="9.32482"><ele>274.0</ele><time>2026-04-26T08:27:43.528Z</time></trkpt><trkpt lat="39.5230383" lon="9.3250267"><ele>271.66666666666663</ele><time>2026-04-26T08:27:44.527Z</time></trkpt><trkpt lat="39.5229833" lon="9.3252683"><ele>269.3333333333333</ele><time>2026-04-26T08:27:45.528Z</time></trkpt><trkpt lat="39.52292" lon="9.3255317"><ele>267.0</ele><time>2026-04-26T08:27:46.527Z</time></trkpt><trkpt lat="39.5228517" lon="9.3257867"><ele>257.6666666666667</ele><time>2026-04-26T08:27:47.527Z</time></trkpt><trkpt lat="39.522785" lon="9.32602"><ele>248.33333333333334</ele><time>2026-04-26T08:27:48.527Z</time></trkpt><trkpt lat="39.52272" lon="9.326245"><ele>239.0</ele><time>2026-04-26T08:27:49.528Z</time></trkpt><trkpt lat="39.5226633" lon="9.3264733"><ele>239.0</ele><time>2026-04-26T08:27:50.528Z</time></trkpt><trkpt lat="39.5226317" lon="9.3267183"><ele>239.0</ele><time>2026-04-26T08:27:51.528Z</time></trkpt><trkpt lat="39.5226117" lon="9.3269217"><ele>239.0</ele><time>2026-04-26T08:27:52.527Z</time></trkpt><trkpt lat="39.5226033" lon="9.3271133"><ele>238.0</ele><time>2026-04-26T08:27:53.528Z</time></trkpt><trkpt lat="39.522625" lon="9.3272883"><ele>237.0</ele><time>2026-04-26T08:27:54.527Z</time></trkpt><trkpt lat="39.5226883" lon="9.3274483"><ele>236.0</ele><time>2026-04-26T08:27:55.527Z</time></trkpt><trkpt lat="39.5227983" lon="9.327615"><ele>235.0</ele><time>2026-04-26T08:27:56.527Z</time></trkpt><trkpt lat="39.5229533" lon="9.3277917"><ele>236.66666666666666</ele><time>2026-04-26T08:27:57.528Z</time></trkpt><trkpt lat="39.523125" lon="9.3279783"><ele>238.33333333333331</ele><time>2026-04-26T08:27:58.527Z</time></trkpt><trkpt lat="39.5232833" lon="9.3281733"><ele>240.0</ele><time>2026-04-26T08:27:59.528Z</time></trkpt><trkpt lat="39.5234167" lon="9.3283567"><ele>240.0</ele><time>2026-04-26T08:28:00.528Z</time></trkpt><trkpt lat="39.5235483" lon="9.3285033"><ele>240.0</ele><time>2026-04-26T08:28:01.527Z</time></trkpt><trkpt lat="39.52367" lon="9.328625"><ele>240.0</ele><time>2026-04-26T08:28:02.527Z</time></trkpt><trkpt lat="39.5238" lon="9.3287033"><ele>243.0</ele><time>2026-04-26T08:28:03.528Z</time></trkpt><trkpt lat="39.5239367" lon="9.3287283"><ele>246.0</ele><time>2026-04-26T08:28:04.528Z</time></trkpt><trkpt lat="39.52408" lon="9.3286833"><ele>249.0</ele><time>2026-04-26T08:28:05.527Z</time></trkpt><trkpt lat="39.5242067" lon="9.32864"><ele>252.0</ele><time>2026-04-26T08:28:06.528Z</time></trkpt><trkpt lat="39.5243183" lon="9.3285833"><ele>252.0</ele><time>2026-04-26T08:28:07.527Z</time></trkpt><trkpt lat="39.5244217" lon="9.3285567"><ele>252.0</ele><time>2026-04-26T08:28:08.527Z</time></trkpt><trkpt lat="39.5245133" lon="9.3285833"><ele>252.0</ele><time>2026-04-26T08:28:09.528Z</time></trkpt><trkpt lat="39.5245833" lon="9.3286533"><ele>252.0</ele><time>2026-04-26T08:28:10.528Z</time></trkpt><trkpt lat="39.5246033" lon="9.3287717"><ele>252.0</ele><time>2026-04-26T08:28:11.528Z</time></trkpt><trkpt lat="39.5245867" lon="9.32891"><ele>246.75</ele><time>2026-04-26T08:28:12.527Z</time></trkpt><trkpt lat="39.5245267" lon="9.3290367"><ele>241.5</ele><time>2026-04-26T08:28:13.528Z</time></trkpt><trkpt lat="39.5244733" lon="9.3291783"><ele>236.25</ele><time>2026-04-26T08:28:14.527Z</time></trkpt><trkpt lat="39.52443" lon="9.3293417"><ele>231.0</ele><time>2026-04-26T08:28:15.528Z</time></trkpt><trkpt lat="39.5244467" lon="9.3295417"><ele>229.33333333333331</ele><time>2026-04-26T08:28:16.527Z</time></trkpt><trkpt lat="39.5244967" lon="9.3297483"><ele>227.66666666666666</ele><time>2026-04-26T08:28:17.528Z</time></trkpt><trkpt lat="39.5245633" lon="9.329965"><ele>226.0</ele><time>2026-04-26T08:28:18.527Z</time></trkpt><trkpt lat="39.5246267" lon="9.3301833"><ele>232.66666666666666</ele><time>2026-04-26T08:28:19.528Z</time></trkpt><trkpt lat="39.52468" lon="9.3303967"><ele>239.33333333333331</ele><time>2026-04-26T08:28:20.527Z</time></trkpt><trkpt lat="39.5247067" lon="9.3306117"><ele>246.0</ele><time>2026-04-26T08:28:21.528Z</time></trkpt><trkpt lat="39.52471" lon="9.3308167"><ele>246.0</ele><time>2026-04-26T08:28:22.528Z</time></trkpt><trkpt lat="39.5247217" lon="9.3310533"><ele>246.0</ele><time>2026-04-26T08:28:23.528Z</time></trkpt><trkpt lat="39.52476" lon="9.3313033"><ele>246.0</ele><time>2026-04-26T08:28:24.527Z</time></trkpt><trkpt lat="39.524825" lon="9.3315133"><ele>242.33333333333331</ele><time>2026-04-26T08:28:25.527Z</time></trkpt><trkpt lat="39.5249167" lon="9.33169"><ele>238.66666666666666</ele><time>2026-04-26T08:28:26.528Z</time></trkpt><trkpt lat="39.5250417" lon="9.3318433"><ele>235.0</ele><time>2026-04-26T08:28:27.527Z</time></trkpt><trkpt lat="39.5251867" lon="9.3320017"><ele>235.0</ele><time>2026-04-26T08:28:28.528Z</time></trkpt><trkpt lat="39.5253417" lon="9.3321517"><ele>235.0</ele><time>2026-04-26T08:28:29.528Z</time></trkpt><trkpt lat="39.5254833" lon="9.3323017"><ele>235.0</ele><time>2026-04-26T08:28:30.527Z</time></trkpt><trkpt lat="39.5255983" lon="9.33247"><ele>237.66666666666666</ele><time>2026-04-26T08:28:31.527Z</time></trkpt><trkpt lat="39.5257033" lon="9.33265"><ele>240.33333333333331</ele><time>2026-04-26T08:28:32.527Z</time></trkpt><trkpt lat="39.5257783" lon="9.3328333"><ele>243.0</ele><time>2026-04-26T08:28:33.527Z</time></trkpt><trkpt lat="39.525825" lon="9.333025"><ele>238.33333333333331</ele><time>2026-04-26T08:28:34.528Z</time></trkpt><trkpt lat="39.5258467" lon="9.3332217"><ele>233.66666666666666</ele><time>2026-04-26T08:28:35.528Z</time></trkpt><trkpt lat="39.52583" lon="9.33342"><ele>229.0</ele><time>2026-04-26T08:28:36.528Z</time></trkpt><trkpt lat="39.525805" lon="9.333615"><ele>229.0</ele><time>2026-04-26T08:28:37.528Z</time></trkpt><trkpt lat="39.525795" lon="9.33379"><ele>229.0</ele><time>2026-04-26T08:28:38.528Z</time></trkpt><trkpt lat="39.52582" lon="9.3339267"><ele>229.0</ele><time>2026-04-26T08:28:39.528Z</time></trkpt><trkpt lat="39.5258817" lon="9.334025"><ele>229.0</ele><time>2026-04-26T08:28:40.528Z</time></trkpt><trkpt lat="39.5260017" lon="9.33411"><ele>230.66666666666666</ele><time>2026-04-26T08:28:41.528Z</time></trkpt><trkpt lat="39.5261583" lon="9.3341867"><ele>232.33333333333331</ele><time>2026-04-26T08:28:42.528Z</time></trkpt><trkpt lat="39.5263483" lon="9.3342683"><ele>234.0</ele><time>2026-04-26T08:28:43.527Z</time></trkpt><trkpt lat="39.5265583" lon="9.3343583"><ele>234.0</ele><time>2026-04-26T08:28:44.528Z</time></trkpt><trkpt lat="39.5267733" lon="9.3344317"><ele>234.0</ele><time>2026-04-26T08:28:45.527Z</time></trkpt><trkpt lat="39.5269917" lon="9.334505"><ele>234.0</ele><time>2026-04-26T08:28:46.527Z</time></trkpt><trkpt lat="39.5272217" lon="9.3345817"><ele>233.5</ele><time>2026-04-26T08:28:47.527Z</time></trkpt><trkpt lat="39.52745" lon="9.3346533"><ele>233.0</ele><time>2026-04-26T08:28:48.527Z</time></trkpt><trkpt lat="39.5276667" lon="9.3347217"><ele>229.33333333333334</ele><time>2026-04-26T08:28:49.528Z</time></trkpt><trkpt lat="39.5278767" lon="9.3347883"><ele>225.66666666666669</ele><time>2026-04-26T08:28:50.528Z</time></trkpt><trkpt lat="39.5280567" lon="9.3348617"><ele>222.0</ele><time>2026-04-26T08:28:51.528Z</time></trkpt><trkpt lat="39.5282483" lon="9.334925"><ele>220.66666666666669</ele><time>2026-04-26T08:28:52.528Z</time></trkpt><trkpt lat="39.5284283" lon="9.33501"><ele>219.33333333333334</ele><time>2026-04-26T08:28:53.528Z</time></trkpt><trkpt lat="39.52859" lon="9.3351317"><ele>218.0</ele><time>2026-04-26T08:28:54.527Z</time></trkpt><trkpt lat="39.5287467" lon="9.3352633"><ele>215.0</ele><time>2026-04-26T08:28:55.528Z</time></trkpt><trkpt lat="39.5288933" lon="9.3354167"><ele>212.0</ele><time>2026-04-26T08:28:56.527Z</time></trkpt><trkpt lat="39.5290367" lon="9.3355933"><ele>209.0</ele><time>2026-04-26T08:28:57.527Z</time></trkpt><trkpt lat="39.5291533" lon="9.3357783"><ele>209.0</ele><time>2026-04-26T08:28:58.528Z</time></trkpt><trkpt lat="39.5292533" lon="9.335915"><ele>209.0</ele><time>2026-04-26T08:28:59.527Z</time></trkpt><trkpt lat="39.52936" lon="9.3360283"><ele>209.0</ele><time>2026-04-26T08:29:00.527Z</time></trkpt><trkpt lat="39.5294817" lon="9.336125"><ele>209.0</ele><time>2026-04-26T08:29:01.528Z</time></trkpt><trkpt lat="39.5296317" lon="9.336155"><ele>208.25</ele><time>2026-04-26T08:29:02.528Z</time></trkpt><trkpt lat="39.52977" lon="9.3361067"><ele>207.5</ele><time>2026-04-26T08:29:03.528Z</time></trkpt><trkpt lat="39.5298883" lon="9.3360017"><ele>206.75</ele><time>2026-04-26T08:29:04.527Z</time></trkpt><trkpt lat="39.5300017" lon="9.335865"><ele>206.0</ele><time>2026-04-26T08:29:05.528Z</time></trkpt><trkpt lat="39.5301167" lon="9.33572"><ele>206.0</ele><time>2026-04-26T08:29:06.527Z</time></trkpt><trkpt lat="39.530265" lon="9.3356117"><ele>206.0</ele><time>2026-04-26T08:29:07.528Z</time></trkpt><trkpt lat="39.53045" lon="9.3355617"><ele>206.0</ele><time>2026-04-26T08:29:08.527Z</time></trkpt><trkpt lat="39.530635" lon="9.33553"><ele>212.66666666666669</ele><time>2026-04-26T08:29:09.527Z</time></trkpt><trkpt lat="39.5308267" lon="9.3355233"><ele>219.33333333333331</ele><time>2026-04-26T08:29:10.528Z</time></trkpt><trkpt lat="39.53102" lon="9.3355233"><ele>226.0</ele><time>2026-04-26T08:29:11.528Z</time></trkpt><trkpt lat="39.5311983" lon="9.335535"><ele>216.33333333333331</ele><time>2026-04-26T08:29:12.528Z</time></trkpt><trkpt lat="39.53135" lon="9.335565"><ele>206.66666666666669</ele><time>2026-04-26T08:29:13.527Z</time></trkpt><trkpt lat="39.5315" lon="9.335645"><ele>197.0</ele><time>2026-04-26T08:29:14.528Z</time></trkpt><trkpt lat="39.5316567" lon="9.3357833"><ele>197.0</ele><time>2026-04-26T08:29:15.527Z</time></trkpt><trkpt lat="39.53183" lon="9.33595"><ele>197.0</ele><time>2026-04-26T08:29:16.528Z</time></trkpt><trkpt lat="39.532005" lon="9.3361067"><ele>197.0</ele><time>2026-04-26T08:29:17.527Z</time></trkpt><trkpt lat="39.5321617" lon="9.3362683"><ele>195.66666666666669</ele><time>2026-04-26T08:29:18.527Z</time></trkpt><trkpt lat="39.5323083" lon="9.336435"><ele>194.33333333333331</ele><time>2026-04-26T08:29:19.528Z</time></trkpt><trkpt lat="39.5324317" lon="9.3366117"><ele>193.0</ele><time>2026-04-26T08:29:20.527Z</time></trkpt><trkpt lat="39.5325367" lon="9.33678"><ele>193.0</ele><time>2026-04-26T08:29:21.527Z</time></trkpt><trkpt lat="39.5326317" lon="9.3369133"><ele>193.0</ele><time>2026-04-26T08:29:22.527Z</time></trkpt><trkpt lat="39.5327383" lon="9.3370117"><ele>193.0</ele><time>2026-04-26T08:29:23.528Z</time></trkpt><trkpt lat="39.5328467" lon="9.3370733"><ele>193.0</ele><time>2026-04-26T08:29:24.527Z</time></trkpt><trkpt lat="39.5329567" lon="9.3370633"><ele>191.75</ele><time>2026-04-26T08:29:25.527Z</time></trkpt><trkpt lat="39.533055" lon="9.3369817"><ele>190.5</ele><time>2026-04-26T08:29:26.528Z</time></trkpt><trkpt lat="39.53315" lon="9.3368567"><ele>189.25</ele><time>2026-04-26T08:29:27.527Z</time></trkpt><trkpt lat="39.53327" lon="9.3367217"><ele>188.0</ele><time>2026-04-26T08:29:28.528Z</time></trkpt><trkpt lat="39.5334217" lon="9.33661"><ele>188.0</ele><time>2026-04-26T08:29:29.528Z</time></trkpt><trkpt lat="39.53358" lon="9.3365367"><ele>188.0</ele><time>2026-04-26T08:29:30.527Z</time></trkpt><trkpt lat="39.5337433" lon="9.3365017"><ele>188.0</ele><time>2026-04-26T08:29:31.527Z</time></trkpt><trkpt lat="39.533915" lon="9.3365117"><ele>185.0</ele><time>2026-04-26T08:29:32.528Z</time></trkpt><trkpt lat="39.53408" lon="9.3365467"><ele>182.0</ele><time>2026-04-26T08:29:33.528Z</time></trkpt><trkpt lat="39.5342067" lon="9.3365683"><ele>179.0</ele><time>2026-04-26T08:29:34.528Z</time></trkpt><trkpt lat="39.53431" lon="9.3365617"><ele>176.0</ele><time>2026-04-26T08:29:35.527Z</time></trkpt><trkpt lat="39.5344" lon="9.336485"><ele>175.66666666666666</ele><time>2026-04-26T08:29:36.528Z</time></trkpt><trkpt lat="39.5344883" lon="9.3363417"><ele>175.33333333333334</ele><time>2026-04-26T08:29:37.527Z</time></trkpt><trkpt lat="39.5345667" lon="9.336165"><ele>175.0</ele><time>2026-04-26T08:29:38.528Z</time></trkpt><trkpt lat="39.5346467" lon="9.33599"><ele>175.0</ele><time>2026-04-26T08:29:39.528Z</time></trkpt><trkpt lat="39.534755" lon="9.3358433"><ele>175.0</ele><time>2026-04-26T08:29:40.528Z</time></trkpt><trkpt lat="39.5348783" lon="9.3357133"><ele>175.0</ele><time>2026-04-26T08:29:41.528Z</time></trkpt><trkpt lat="39.5350117" lon="9.335595"><ele>172.66666666666669</ele><time>2026-04-26T08:29:42.527Z</time></trkpt><trkpt lat="39.53517" lon="9.3354867"><ele>170.33333333333334</ele><time>2026-04-26T08:29:43.527Z</time></trkpt><trkpt lat="39.535355" lon="9.335405"><ele>168.0</ele><time>2026-04-26T08:29:44.528Z</time></trkpt><trkpt lat="39.53555" lon="9.33532"><ele>168.0</ele><time>2026-04-26T08:29:45.527Z</time></trkpt><trkpt lat="39.5357233" lon="9.3352317"><ele>168.0</ele><time>2026-04-26T08:29:46.527Z</time></trkpt><trkpt lat="39.5358767" lon="9.335165"><ele>168.0</ele><time>2026-04-26T08:29:47.528Z</time></trkpt><trkpt lat="39.5360167" lon="9.3350983"><ele>168.0</ele><time>2026-04-26T08:29:48.528Z</time></trkpt><trkpt lat="39.5361333" lon="9.335045"><ele>168.0</ele><time>2026-04-26T08:29:49.527Z</time></trkpt><trkpt lat="39.5362433" lon="9.33502"><ele>168.0</ele><time>2026-04-26T08:29:50.528Z</time></trkpt><trkpt lat="39.5363483" lon="9.3350533"><ele>168.0</ele><time>2026-04-26T08:29:51.528Z</time></trkpt><trkpt lat="39.5364433" lon="9.3351467"><ele>167.66666666666666</ele><time>2026-04-26T08:29:52.528Z</time></trkpt><trkpt lat="39.5365433" lon="9.3353"><ele>167.33333333333331</ele><time>2026-04-26T08:29:53.528Z</time></trkpt><trkpt lat="39.5366617" lon="9.3355083"><ele>167.0</ele><time>2026-04-26T08:29:54.528Z</time></trkpt><trkpt lat="39.5367917" lon="9.335755"><ele>167.0</ele><time>2026-04-26T08:29:55.527Z</time></trkpt><trkpt lat="39.5369283" lon="9.33601"><ele>167.0</ele><time>2026-04-26T08:29:56.527Z</time></trkpt><trkpt lat="39.537055" lon="9.33625"><ele>168.33333333333331</ele><time>2026-04-26T08:29:57.527Z</time></trkpt><trkpt lat="39.53717" lon="9.336475"><ele>169.66666666666666</ele><time>2026-04-26T08:29:58.528Z</time></trkpt><trkpt lat="39.537275" lon="9.336675"><ele>171.0</ele><time>2026-04-26T08:29:59.528Z</time></trkpt><trkpt lat="39.5373917" lon="9.3368383"><ele>171.0</ele><time>2026-04-26T08:30:00.528Z</time></trkpt><trkpt lat="39.5375517" lon="9.3369833"><ele>171.0</ele><time>2026-04-26T08:30:01.527Z</time></trkpt><trkpt lat="39.5377117" lon="9.3371367"><ele>171.0</ele><time>2026-04-26T08:30:02.527Z</time></trkpt><trkpt lat="39.537855" lon="9.3372867"><ele>179.33333333333331</ele><time>2026-04-26T08:30:03.528Z</time></trkpt><trkpt lat="39.5379883" lon="9.337475"><ele>187.66666666666666</ele><time>2026-04-26T08:30:04.528Z</time></trkpt><trkpt lat="39.5381033" lon="9.3377017"><ele>196.0</ele><time>2026-04-26T08:30:05.528Z</time></trkpt><trkpt lat="39.5382067" lon="9.3379483"><ele>190.33333333333331</ele><time>2026-04-26T08:30:06.528Z</time></trkpt><trkpt lat="39.5382717" lon="9.3381767"><ele>184.66666666666666</ele><time>2026-04-26T08:30:07.528Z</time></trkpt><trkpt lat="39.5383417" lon="9.338415"><ele>179.0</ele><time>2026-04-26T08:30:08.528Z</time></trkpt><trkpt lat="39.538395" lon="9.3386767"><ele>174.66666666666666</ele><time>2026-04-26T08:30:09.528Z</time></trkpt><trkpt lat="39.5384533" lon="9.3389417"><ele>170.33333333333334</ele><time>2026-04-26T08:30:10.528Z</time></trkpt><trkpt lat="39.5384983" lon="9.339185"><ele>166.0</ele><time>2026-04-26T08:30:11.527Z</time></trkpt><trkpt lat="39.5385367" lon="9.33942"><ele>166.0</ele><time>2026-04-26T08:30:12.528Z</time></trkpt><trkpt lat="39.5385917" lon="9.3396483"><ele>166.0</ele><time>2026-04-26T08:30:13.527Z</time></trkpt><trkpt lat="39.5386667" lon="9.3398833"><ele>166.0</ele><time>2026-04-26T08:30:14.528Z</time></trkpt><trkpt lat="39.5387667" lon="9.3401183"><ele>166.0</ele><time>2026-04-26T08:30:15.528Z</time></trkpt><trkpt lat="39.5388833" lon="9.3403617"><ele>166.0</ele><time>2026-04-26T08:30:16.527Z</time></trkpt><trkpt lat="39.5390033" lon="9.34059"><ele>166.0</ele><time>2026-04-26T08:30:17.527Z</time></trkpt><trkpt lat="39.5391183" lon="9.3407933"><ele>166.0</ele><time>2026-04-26T08:30:18.527Z</time></trkpt><trkpt lat="39.53925" lon="9.3409633"><ele>166.0</ele><time>2026-04-26T08:30:19.527Z</time></trkpt><trkpt lat="39.5393983" lon="9.3411117"><ele>166.0</ele><time>2026-04-26T08:30:20.527Z</time></trkpt><trkpt lat="39.5395617" lon="9.34129"><ele>166.66666666666669</ele><time>2026-04-26T08:30:21.528Z</time></trkpt><trkpt lat="39.5397317" lon="9.341455"><ele>167.33333333333334</ele><time>2026-04-26T08:30:22.527Z</time></trkpt><trkpt lat="39.5399033" lon="9.341605"><ele>168.0</ele><time>2026-04-26T08:30:23.528Z</time></trkpt><trkpt lat="39.54005" lon="9.34173"><ele>168.0</ele><time>2026-04-26T08:30:24.527Z</time></trkpt><trkpt lat="39.54019" lon="9.341875"><ele>168.0</ele><time>2026-04-26T08:30:25.527Z</time></trkpt><trkpt lat="39.5402967" lon="9.3420433"><ele>168.0</ele><time>2026-04-26T08:30:26.527Z</time></trkpt><trkpt lat="39.54039" lon="9.34223"><ele>164.66666666666666</ele><time>2026-04-26T08:30:27.528Z</time></trkpt><trkpt lat="39.540445" lon="9.3424383"><ele>161.33333333333331</ele><time>2026-04-26T08:30:28.528Z</time></trkpt><trkpt lat="39.5404683" lon="9.3426483"><ele>158.0</ele><time>2026-04-26T08:30:29.528Z</time></trkpt><trkpt lat="39.540485" lon="9.3428583"><ele>158.0</ele><time>2026-04-26T08:30:30.527Z</time></trkpt><trkpt lat="39.5405417" lon="9.3430333"><ele>158.0</ele><time>2026-04-26T08:30:31.527Z</time></trkpt><trkpt lat="39.5406083" lon="9.3431583"><ele>158.0</ele><time>2026-04-26T08:30:32.528Z</time></trkpt><trkpt lat="39.5406817" lon="9.3432583"><ele>158.0</ele><time>2026-04-26T08:30:33.527Z</time></trkpt><trkpt lat="39.540765" lon="9.3433383"><ele>156.4</ele><time>2026-04-26T08:30:34.528Z</time></trkpt><trkpt lat="39.540855" lon="9.3433667"><ele>154.8</ele><time>2026-04-26T08:30:35.528Z</time></trkpt><trkpt lat="39.5409417" lon="9.3433517"><ele>153.2</ele><time>2026-04-26T08:30:36.528Z</time></trkpt><trkpt lat="39.54103" lon="9.3432983"><ele>151.6</ele><time>2026-04-26T08:30:37.527Z</time></trkpt><trkpt lat="39.5411333" lon="9.3432283"><ele>150.0</ele><time>2026-04-26T08:30:38.527Z</time></trkpt><trkpt lat="39.5412467" lon="9.3431767"><ele>149.0</ele><time>2026-04-26T08:30:39.528Z</time></trkpt><trkpt lat="39.5413783" lon="9.3431467"><ele>148.0</ele><time>2026-04-26T08:30:40.527Z</time></trkpt><trkpt lat="39.5415233" lon="9.3431367"><ele>147.0</ele><time>2026-04-26T08:30:41.527Z</time></trkpt><trkpt lat="39.5416583" lon="9.343155"><ele>146.0</ele><time>2026-04-26T08:30:42.528Z</time></trkpt><trkpt lat="39.541755" lon="9.3432083"><ele>146.0</ele><time>2026-04-26T08:30:43.527Z</time></trkpt><trkpt lat="39.54182" lon="9.3433017"><ele>146.0</ele><time>2026-04-26T08:30:44.527Z</time></trkpt><trkpt lat="39.5418533" lon="9.34341"><ele>146.0</ele><time>2026-04-26T08:30:45.528Z</time></trkpt><trkpt lat="39.5418483" lon="9.3435417"><ele>146.0</ele><time>2026-04-26T08:30:46.528Z</time></trkpt><trkpt lat="39.541815" lon="9.343685"><ele>146.0</ele><time>2026-04-26T08:30:47.528Z</time></trkpt><trkpt lat="39.5417783" lon="9.3438567"><ele>147.75</ele><time>2026-04-26T08:30:48.527Z</time></trkpt><trkpt lat="39.5417933" lon="9.34407"><ele>149.5</ele><time>2026-04-26T08:30:49.528Z</time></trkpt><trkpt lat="39.5418267" lon="9.344265"><ele>151.25</ele><time>2026-04-26T08:30:50.527Z</time></trkpt><trkpt lat="39.541865" lon="9.3444217"><ele>153.0</ele><time>2026-04-26T08:30:51.528Z</time></trkpt><trkpt lat="39.5419417" lon="9.344525"><ele>149.25</ele><time>2026-04-26T08:30:52.527Z</time></trkpt><trkpt lat="39.542065" lon="9.3445817"><ele>145.5</ele><time>2026-04-26T08:30:53.527Z</time></trkpt><trkpt lat="39.5422033" lon="9.3445933"><ele>141.75</ele><time>2026-04-26T08:30:54.527Z</time></trkpt><trkpt lat="39.5423467" lon="9.3445767"><ele>138.0</ele><time>2026-04-26T08:30:55.528Z</time></trkpt><trkpt lat="39.5424733" lon="9.34454"><ele>138.0</ele><time>2026-04-26T08:30:56.527Z</time></trkpt><trkpt lat="39.542575" lon="9.3445267"><ele>138.0</ele><time>2026-04-26T08:30:57.527Z</time></trkpt><trkpt lat="39.5426517" lon="9.34457"><ele>138.0</ele><time>2026-04-26T08:30:58.527Z</time></trkpt><trkpt lat="39.5427233" lon="9.3446583"><ele>138.0</ele><time>2026-04-26T08:30:59.528Z</time></trkpt><trkpt lat="39.5427833" lon="9.34479"><ele>138.0</ele><time>2026-04-26T08:31:00.528Z</time></trkpt><trkpt lat="39.5428483" lon="9.3449433"><ele>138.66666666666666</ele><time>2026-04-26T08:31:01.527Z</time></trkpt><trkpt lat="39.542935" lon="9.3451317"><ele>139.33333333333331</ele><time>2026-04-26T08:31:02.528Z</time></trkpt><trkpt lat="39.5430417" lon="9.3453467"><ele>140.0</ele><time>2026-04-26T08:31:03.527Z</time></trkpt><trkpt lat="39.5431867" lon="9.3455567"><ele>140.66666666666666</ele><time>2026-04-26T08:31:04.527Z</time></trkpt><trkpt lat="39.54334" lon="9.34577"><ele>141.33333333333334</ele><time>2026-04-26T08:31:05.528Z</time></trkpt><trkpt lat="39.5434833" lon="9.3459783"><ele>142.0</ele><time>2026-04-26T08:31:06.527Z</time></trkpt><trkpt lat="39.5436183" lon="9.3461717"><ele>140.66666666666669</ele><time>2026-04-26T08:31:07.527Z</time></trkpt><trkpt lat="39.5437567" lon="9.3463533"><ele>139.33333333333334</ele><time>2026-04-26T08:31:08.527Z</time></trkpt><trkpt lat="39.543875" lon="9.3465333"><ele>138.0</ele><time>2026-04-26T08:31:09.527Z</time></trkpt><trkpt lat="39.543975" lon="9.3467217"><ele>137.66666666666666</ele><time>2026-04-26T08:31:10.528Z</time></trkpt><trkpt lat="39.544075" lon="9.34692"><ele>137.33333333333331</ele><time>2026-04-26T08:31:11.527Z</time></trkpt><trkpt lat="39.5441883" lon="9.3470967"><ele>137.0</ele><time>2026-04-26T08:31:12.528Z</time></trkpt><trkpt lat="39.5443383" lon="9.347265"><ele>137.0</ele><time>2026-04-26T08:31:13.527Z</time></trkpt><trkpt lat="39.5444967" lon="9.347435"><ele>137.0</ele><time>2026-04-26T08:31:14.527Z</time></trkpt><trkpt lat="39.5446483" lon="9.3476067"><ele>137.0</ele><time>2026-04-26T08:31:15.527Z</time></trkpt><trkpt lat="39.5447667" lon="9.3477817"><ele>132.66666666666666</ele><time>2026-04-26T08:31:16.527Z</time></trkpt><trkpt lat="39.5448567" lon="9.34795"><ele>128.33333333333334</ele><time>2026-04-26T08:31:17.527Z</time></trkpt><trkpt lat="39.5449317" lon="9.34811"><ele>124.0</ele><time>2026-04-26T08:31:18.528Z</time></trkpt><trkpt lat="39.5449833" lon="9.34831"><ele>123.66666666666667</ele><time>2026-04-26T08:31:19.527Z</time></trkpt><trkpt lat="39.5450267" lon="9.3485367"><ele>123.33333333333334</ele><time>2026-04-26T08:31:20.527Z</time></trkpt><trkpt lat="39.5450633" lon="9.3487983"><ele>123.0</ele><time>2026-04-26T08:31:21.528Z</time></trkpt><trkpt lat="39.545135" lon="9.34907"><ele>125.33333333333334</ele><time>2026-04-26T08:31:22.528Z</time></trkpt><trkpt lat="39.5452283" lon="9.3493267"><ele>127.66666666666667</ele><time>2026-04-26T08:31:23.528Z</time></trkpt><trkpt lat="39.5452933" lon="9.3496"><ele>130.0</ele><time>2026-04-26T08:31:24.527Z</time></trkpt><trkpt lat="39.545345" lon="9.349885"><ele>121.0</ele><time>2026-04-26T08:31:25.528Z</time></trkpt><trkpt lat="39.5454117" lon="9.3501733"><ele>112.0</ele><time>2026-04-26T08:31:26.528Z</time></trkpt><trkpt lat="39.5454883" lon="9.3504517"><ele>113.33333333333334</ele><time>2026-04-26T08:31:27.528Z</time></trkpt><trkpt lat="39.545575" lon="9.3507133"><ele>114.66666666666666</ele><time>2026-04-26T08:31:28.527Z</time></trkpt><trkpt lat="39.5456767" lon="9.35095"><ele>116.0</ele><time>2026-04-26T08:31:29.527Z</time></trkpt><trkpt lat="39.5457733" lon="9.3511667"><ele>117.0</ele><time>2026-04-26T08:31:30.527Z</time></trkpt><trkpt lat="39.5458617" lon="9.351375"><ele>118.0</ele><time>2026-04-26T08:31:31.527Z</time></trkpt><trkpt lat="39.5459317" lon="9.351585"><ele>119.0</ele><time>2026-04-26T08:31:32.528Z</time></trkpt><trkpt lat="39.545985" lon="9.3518"><ele>119.0</ele><time>2026-04-26T08:31:33.527Z</time></trkpt><trkpt lat="39.5460167" lon="9.3520333"><ele>119.0</ele><time>2026-04-26T08:31:34.527Z</time></trkpt><trkpt lat="39.5460283" lon="9.3522583"><ele>119.0</ele><time>2026-04-26T08:31:35.527Z</time></trkpt><trkpt lat="39.54603" lon="9.35251"><ele>119.66666666666666</ele><time>2026-04-26T08:31:36.528Z</time></trkpt><trkpt lat="39.546025" lon="9.3527633"><ele>120.33333333333334</ele><time>2026-04-26T08:31:37.528Z</time></trkpt><trkpt lat="39.5460317" lon="9.35303"><ele>121.0</ele><time>2026-04-26T08:31:38.527Z</time></trkpt><trkpt lat="39.5460517" lon="9.3533"><ele>119.66666666666667</ele><time>2026-04-26T08:31:39.528Z</time></trkpt><trkpt lat="39.5460817" lon="9.3535717"><ele>118.33333333333334</ele><time>2026-04-26T08:31:40.528Z</time></trkpt><trkpt lat="39.5461217" lon="9.3538367"><ele>117.0</ele><time>2026-04-26T08:31:41.528Z</time></trkpt><trkpt lat="39.5461467" lon="9.354115"><ele>116.33333333333334</ele><time>2026-04-26T08:31:42.527Z</time></trkpt><trkpt lat="39.546185" lon="9.3543683"><ele>115.66666666666667</ele><time>2026-04-26T08:31:43.528Z</time></trkpt><trkpt lat="39.54622" lon="9.3546083"><ele>115.0</ele><time>2026-04-26T08:31:44.527Z</time></trkpt><trkpt lat="39.5462567" lon="9.354845"><ele>111.0</ele><time>2026-04-26T08:31:45.528Z</time></trkpt><trkpt lat="39.54627" lon="9.35509"><ele>107.0</ele><time>2026-04-26T08:31:46.528Z</time></trkpt><trkpt lat="39.5462583" lon="9.35534"><ele>103.0</ele><time>2026-04-26T08:31:47.527Z</time></trkpt><trkpt lat="39.5462683" lon="9.355575"><ele>102.66666666666667</ele><time>2026-04-26T08:31:48.527Z</time></trkpt><trkpt lat="39.546265" lon="9.3557967"><ele>102.33333333333334</ele><time>2026-04-26T08:31:49.527Z</time></trkpt><trkpt lat="39.54627" lon="9.3560217"><ele>102.0</ele><time>2026-04-26T08:31:50.528Z</time></trkpt><trkpt lat="39.5463017" lon="9.356255"><ele>102.0</ele><time>2026-04-26T08:31:51.528Z</time></trkpt><trkpt lat="39.5463417" lon="9.3564633"><ele>102.0</ele><time>2026-04-26T08:31:52.528Z</time></trkpt><trkpt lat="39.546395" lon="9.35666"><ele>102.0</ele><time>2026-04-26T08:31:53.527Z</time></trkpt><trkpt lat="39.5464483" lon="9.3568617"><ele>102.0</ele><time>2026-04-26T08:31:54.527Z</time></trkpt><trkpt lat="39.5465" lon="9.357055"><ele>102.0</ele><time>2026-04-26T08:31:55.528Z</time></trkpt><trkpt lat="39.5465583" lon="9.3572533"><ele>102.0</ele><time>2026-04-26T08:31:56.527Z</time></trkpt><trkpt lat="39.546615" lon="9.357455"><ele>102.0</ele><time>2026-04-26T08:31:57.527Z</time></trkpt><trkpt lat="39.5466783" lon="9.3576633"><ele>102.0</ele><time>2026-04-26T08:31:58.527Z</time></trkpt><trkpt lat="39.5467617" lon="9.3578383"><ele>102.0</ele><time>2026-04-26T08:31:59.528Z</time></trkpt><trkpt lat="39.546855" lon="9.3579867"><ele>101.5</ele><time>2026-04-26T08:32:00.528Z</time></trkpt><trkpt lat="39.5469617" lon="9.3581333"><ele>101.0</ele><time>2026-04-26T08:32:01.528Z</time></trkpt><trkpt lat="39.5470633" lon="9.3582633"><ele>100.5</ele><time>2026-04-26T08:32:02.527Z</time></trkpt><trkpt lat="39.5471633" lon="9.3583817"><ele>100.0</ele><time>2026-04-26T08:32:03.528Z</time></trkpt><trkpt lat="39.5472633" lon="9.3584983"><ele>99.0</ele><time>2026-04-26T08:32:04.527Z</time></trkpt><trkpt lat="39.5473583" lon="9.3586033"><ele>98.0</ele><time>2026-04-26T08:32:05.527Z</time></trkpt><trkpt lat="39.5474617" lon="9.3587167"><ele>97.0</ele><time>2026-04-26T08:32:06.528Z</time></trkpt><trkpt lat="39.5475633" lon="9.3588183"><ele>96.0</ele><time>2026-04-26T08:32:07.527Z</time></trkpt><trkpt lat="39.5476517" lon="9.358915"><ele>96.0</ele><time>2026-04-26T08:32:08.527Z</time></trkpt><trkpt lat="39.54774" lon="9.3590167"><ele>96.0</ele><time>2026-04-26T08:32:09.528Z</time></trkpt><trkpt lat="39.5478233" lon="9.3591033"><ele>96.0</ele><time>2026-04-26T08:32:10.527Z</time></trkpt><trkpt lat="39.547895" lon="9.3591883"><ele>96.0</ele><time>2026-04-26T08:32:11.528Z</time></trkpt><trkpt lat="39.5479567" lon="9.35925"><ele>96.0</ele><time>2026-04-26T08:32:12.527Z</time></trkpt><trkpt lat="39.54801" lon="9.3593067"><ele>95.71428571428571</ele><time>2026-04-26T08:32:13.527Z</time></trkpt><trkpt lat="39.548075" lon="9.3594033"><ele>95.42857142857143</ele><time>2026-04-26T08:32:15.528Z</time></trkpt><trkpt lat="39.5481317" lon="9.3594767"><ele>95.14285714285714</ele><time>2026-04-26T08:32:17.527Z</time></trkpt><trkpt lat="39.5481817" lon="9.3595433"><ele>94.85714285714286</ele><time>2026-04-26T08:32:20.528Z</time></trkpt><trkpt lat="39.54812" lon="9.3595183"><ele>94.57142857142857</ele><time>2026-04-26T08:34:49.528Z</time></trkpt><trkpt lat="39.5480781" lon="9.3595822"><ele>94.28571428571428</ele><time>2026-04-26T08:35:02.527Z</time></trkpt><trkpt lat="39.5480132" lon="9.3595894"><ele>94.0</ele><time>2026-04-26T08:35:06.527Z</time></trkpt><trkpt lat="39.5481462" lon="9.3596385"><ele>94.0</ele><time>2026-04-26T08:36:35.44Z</time></trkpt><trkpt lat="39.5481225" lon="9.3595601"><ele>94.0</ele><time>2026-04-26T08:36:44.516Z</time></trkpt><trkpt lat="39.5480762" lon="9.359616"><ele>94.0</ele><time>2026-04-26T09:04:35.587Z</time></trkpt><trkpt lat="39.5480188" lon="9.359575"><ele>94.0</ele><time>2026-04-26T09:05:41.6Z</time></trkpt><trkpt lat="39.5479538" lon="9.3596041"><ele>94.0</ele><time>2026-04-26T09:05:47.619Z</time></trkpt><trkpt lat="39.5478887" lon="9.3595859"><ele>94.0</ele><time>2026-04-26T09:06:09.594Z</time></trkpt><trkpt lat="39.5479079" lon="9.3594498"><ele>94.0</ele><time>2026-04-26T09:06:24.446Z</time></trkpt><trkpt lat="39.54812" lon="9.3593733"><ele>94.0</ele><time>2026-04-26T09:06:51.53Z</time></trkpt><trkpt lat="39.5478346" lon="9.3597096"><ele>94.0</ele><time>2026-04-26T09:08:51.527Z</time></trkpt><trkpt lat="39.5479155" lon="9.3596828"><ele>94.0</ele><time>2026-04-26T09:08:52.528Z</time></trkpt><trkpt lat="39.5480213" lon="9.3596377"><ele>94.0</ele><time>2026-04-26T09:08:54.528Z</time></trkpt><trkpt lat="39.5480215" lon="9.3595411"><ele>94.0</ele><time>2026-04-26T09:08:56.528Z</time></trkpt><trkpt lat="39.5480882" lon="9.359579"><ele>94.0</ele><time>2026-04-26T09:09:14.548Z</time></trkpt><trkpt lat="39.5481888" lon="9.3595645"><ele>94.0</ele><time>2026-04-26T09:09:38.659Z</time></trkpt><trkpt lat="39.5481967" lon="9.3594767"><ele>94.0</ele><time>2026-04-26T09:13:10.528Z</time></trkpt><trkpt lat="39.5481233" lon="9.3593983"><ele>94.0</ele><time>2026-04-26T09:13:22.527Z</time></trkpt><trkpt lat="39.5480717" lon="9.3593467"><ele>94.0</ele><time>2026-04-26T09:13:23.527Z</time></trkpt><trkpt lat="39.5480017" lon="9.3592733"><ele>94.0</ele><time>2026-04-26T09:13:24.528Z</time></trkpt><trkpt lat="39.547925" lon="9.35919"><ele>94.0</ele><time>2026-04-26T09:13:25.528Z</time></trkpt><trkpt lat="39.5478417" lon="9.3590967"><ele>94.0</ele><time>2026-04-26T09:13:26.527Z</time></trkpt><trkpt lat="39.5477667" lon="9.3589917"><ele>94.5</ele><time>2026-04-26T09:13:27.528Z</time></trkpt><trkpt lat="39.54768" lon="9.35889"><ele>95.0</ele><time>2026-04-26T09:13:28.527Z</time></trkpt><trkpt lat="39.5475867" lon="9.35879"><ele>95.5</ele><time>2026-04-26T09:13:29.528Z</time></trkpt><trkpt lat="39.5474883" lon="9.3586767"><ele>96.0</ele><time>2026-04-26T09:13:30.527Z</time></trkpt><trkpt lat="39.547385" lon="9.3585633"><ele>96.0</ele><time>2026-04-26T09:13:31.528Z</time></trkpt><trkpt lat="39.5472767" lon="9.3584367"><ele>96.0</ele><time>2026-04-26T09:13:32.528Z</time></trkpt><trkpt lat="39.5471567" lon="9.358315"><ele>96.0</ele><time>2026-04-26T09:13:33.528Z</time></trkpt><trkpt lat="39.547045" lon="9.3581783"><ele>97.0</ele><time>2026-04-26T09:13:34.527Z</time></trkpt><trkpt lat="39.5469483" lon="9.3580583"><ele>98.0</ele><time>2026-04-26T09:13:35.527Z</time></trkpt><trkpt lat="39.5468633" lon="9.3579267"><ele>99.0</ele><time>2026-04-26T09:13:36.527Z</time></trkpt><trkpt lat="39.5467783" lon="9.3577717"><ele>100.0</ele><time>2026-04-26T09:13:37.528Z</time></trkpt><trkpt lat="39.5467083" lon="9.3576067"><ele>100.66666666666667</ele><time>2026-04-26T09:13:38.527Z</time></trkpt><trkpt lat="39.5466383" lon="9.3574233"><ele>101.33333333333334</ele><time>2026-04-26T09:13:39.527Z</time></trkpt><trkpt lat="39.5465783" lon="9.3572217"><ele>102.0</ele><time>2026-04-26T09:13:40.527Z</time></trkpt><trkpt lat="39.5465117" lon="9.35702"><ele>102.0</ele><time>2026-04-26T09:13:41.527Z</time></trkpt><trkpt lat="39.5464583" lon="9.3568183"><ele>102.0</ele><time>2026-04-26T09:13:42.528Z</time></trkpt><trkpt lat="39.5463967" lon="9.3566267"><ele>102.0</ele><time>2026-04-26T09:13:43.528Z</time></trkpt><trkpt lat="39.5463533" lon="9.35645"><ele>102.0</ele><time>2026-04-26T09:13:44.528Z</time></trkpt><trkpt lat="39.5463217" lon="9.3562567"><ele>102.0</ele><time>2026-04-26T09:13:45.527Z</time></trkpt><trkpt lat="39.5463017" lon="9.3560533"><ele>102.0</ele><time>2026-04-26T09:13:46.527Z</time></trkpt><trkpt lat="39.5462917" lon="9.3558567"><ele>102.0</ele><time>2026-04-26T09:13:47.528Z</time></trkpt><trkpt lat="39.5462883" lon="9.355635"><ele>102.0</ele><time>2026-04-26T09:13:48.528Z</time></trkpt><trkpt lat="39.546295" lon="9.3554217"><ele>102.0</ele><time>2026-04-26T09:13:49.528Z</time></trkpt><trkpt lat="39.546295" lon="9.3552017"><ele>102.33333333333334</ele><time>2026-04-26T09:13:50.527Z</time></trkpt><trkpt lat="39.5462817" lon="9.3549633"><ele>102.66666666666667</ele><time>2026-04-26T09:13:51.527Z</time></trkpt><trkpt lat="39.5462633" lon="9.3547433"><ele>103.0</ele><time>2026-04-26T09:13:52.527Z</time></trkpt><trkpt lat="39.5462317" lon="9.3545167"><ele>107.0</ele><time>2026-04-26T09:13:53.527Z</time></trkpt><trkpt lat="39.5461967" lon="9.3542833"><ele>111.0</ele><time>2026-04-26T09:13:54.527Z</time></trkpt><trkpt lat="39.54616" lon="9.3540417"><ele>115.0</ele><time>2026-04-26T09:13:55.527Z</time></trkpt><trkpt lat="39.546125" lon="9.3537867"><ele>115.66666666666667</ele><time>2026-04-26T09:13:56.528Z</time></trkpt><trkpt lat="39.5460983" lon="9.3535317"><ele>116.33333333333334</ele><time>2026-04-26T09:13:57.527Z</time></trkpt><trkpt lat="39.546075" lon="9.353295"><ele>117.0</ele><time>2026-04-26T09:13:58.527Z</time></trkpt><trkpt lat="39.5460633" lon="9.3530633"><ele>118.33333333333334</ele><time>2026-04-26T09:13:59.528Z</time></trkpt><trkpt lat="39.5460567" lon="9.3528333"><ele>119.66666666666667</ele><time>2026-04-26T09:14:00.527Z</time></trkpt><trkpt lat="39.54607" lon="9.3526117"><ele>121.0</ele><time>2026-04-26T09:14:01.528Z</time></trkpt><trkpt lat="39.5460567" lon="9.3523883"><ele>120.33333333333334</ele><time>2026-04-26T09:14:02.527Z</time></trkpt><trkpt lat="39.5460533" lon="9.3521583"><ele>119.66666666666666</ele><time>2026-04-26T09:14:03.527Z</time></trkpt><trkpt lat="39.54604" lon="9.35193"><ele>119.0</ele><time>2026-04-26T09:14:04.528Z</time></trkpt><trkpt lat="39.5460083" lon="9.351715"><ele>119.0</ele><time>2026-04-26T09:14:05.528Z</time></trkpt><trkpt lat="39.545955" lon="9.3515067"><ele>119.0</ele><time>2026-04-26T09:14:06.528Z</time></trkpt><trkpt lat="39.5458767" lon="9.3513167"><ele>119.0</ele><time>2026-04-26T09:14:07.528Z</time></trkpt><trkpt lat="39.5457833" lon="9.351135"><ele>118.0</ele><time>2026-04-26T09:14:08.527Z</time></trkpt><trkpt lat="39.5456983" lon="9.3509433"><ele>117.0</ele><time>2026-04-26T09:14:09.528Z</time></trkpt><trkpt lat="39.54562" lon="9.3507567"><ele>116.0</ele><time>2026-04-26T09:14:10.527Z</time></trkpt><trkpt lat="39.5455467" lon="9.3505667"><ele>114.66666666666666</ele><time>2026-04-26T09:14:11.527Z</time></trkpt><trkpt lat="39.54548" lon="9.3503667"><ele>113.33333333333334</ele><time>2026-04-26T09:14:12.527Z</time></trkpt><trkpt lat="39.5454217" lon="9.3501733"><ele>112.0</ele><time>2026-04-26T09:14:13.528Z</time></trkpt><trkpt lat="39.5453833" lon="9.34997"><ele>118.0</ele><time>2026-04-26T09:14:14.527Z</time></trkpt><trkpt lat="39.5453517" lon="9.3497533"><ele>124.0</ele><time>2026-04-26T09:14:15.528Z</time></trkpt><trkpt lat="39.5453083" lon="9.34953"><ele>130.0</ele><time>2026-04-26T09:14:16.526Z</time></trkpt><trkpt lat="39.5452467" lon="9.3493167"><ele>130.0</ele><time>2026-04-26T09:14:17.526Z</time></trkpt><trkpt lat="39.545165" lon="9.3491117"><ele>130.0</ele><time>2026-04-26T09:14:18.527Z</time></trkpt><trkpt lat="39.545105" lon="9.3488933"><ele>130.0</ele><time>2026-04-26T09:14:19.527Z</time></trkpt><trkpt lat="39.5450533" lon="9.3486933"><ele>127.66666666666667</ele><time>2026-04-26T09:14:20.526Z</time></trkpt><trkpt lat="39.5450217" lon="9.3484867"><ele>125.33333333333334</ele><time>2026-04-26T09:14:21.526Z</time></trkpt><trkpt lat="39.5449983" lon="9.348285"><ele>123.0</ele><time>2026-04-26T09:14:22.527Z</time></trkpt><trkpt lat="39.5449483" lon="9.3481017"><ele>123.33333333333334</ele><time>2026-04-26T09:14:23.527Z</time></trkpt><trkpt lat="39.5448717" lon="9.3479333"><ele>123.66666666666667</ele><time>2026-04-26T09:14:24.526Z</time></trkpt><trkpt lat="39.54478" lon="9.3477717"><ele>124.0</ele><time>2026-04-26T09:14:25.526Z</time></trkpt><trkpt lat="39.5446833" lon="9.3476117"><ele>124.0</ele><time>2026-04-26T09:14:26.526Z</time></trkpt><trkpt lat="39.544555" lon="9.34745"><ele>124.0</ele><time>2026-04-26T09:14:27.527Z</time></trkpt><trkpt lat="39.5444117" lon="9.3473067"><ele>124.0</ele><time>2026-04-26T09:14:28.526Z</time></trkpt><trkpt lat="39.5442717" lon="9.3471633"><ele>125.0</ele><time>2026-04-26T09:14:29.526Z</time></trkpt><trkpt lat="39.544155" lon="9.3470133"><ele>126.0</ele><time>2026-04-26T09:14:30.527Z</time></trkpt><trkpt lat="39.5440667" lon="9.3468417"><ele>127.0</ele><time>2026-04-26T09:14:31.526Z</time></trkpt><trkpt lat="39.543975" lon="9.3466517"><ele>127.0</ele><time>2026-04-26T09:14:32.526Z</time></trkpt><trkpt lat="39.5438767" lon="9.3464667"><ele>127.0</ele><time>2026-04-26T09:14:33.527Z</time></trkpt><trkpt lat="39.5437667" lon="9.3462867"><ele>127.0</ele><time>2026-04-26T09:14:34.526Z</time></trkpt><trkpt lat="39.5436467" lon="9.346105"><ele>132.0</ele><time>2026-04-26T09:14:35.527Z</time></trkpt><trkpt lat="39.54352" lon="9.345925"><ele>137.0</ele><time>2026-04-26T09:14:36.527Z</time></trkpt><trkpt lat="39.5434" lon="9.3457517"><ele>142.0</ele><time>2026-04-26T09:14:37.526Z</time></trkpt><trkpt lat="39.5432767" lon="9.3455817"><ele>141.33333333333334</ele><time>2026-04-26T09:14:38.526Z</time></trkpt><trkpt lat="39.543155" lon="9.34541"><ele>140.66666666666666</ele><time>2026-04-26T09:14:39.526Z</time></trkpt><trkpt lat="39.5430383" lon="9.3452383"><ele>140.0</ele><time>2026-04-26T09:14:40.526Z</time></trkpt><trkpt lat="39.542935" lon="9.3450583"><ele>139.5</ele><time>2026-04-26T09:14:41.527Z</time></trkpt><trkpt lat="39.54285" lon="9.3448817"><ele>139.0</ele><time>2026-04-26T09:14:42.526Z</time></trkpt><trkpt lat="39.5427867" lon="9.3447383"><ele>138.5</ele><time>2026-04-26T09:14:43.526Z</time></trkpt><trkpt lat="39.54272" lon="9.3446"><ele>138.0</ele><time>2026-04-26T09:14:44.526Z</time></trkpt><trkpt lat="39.542645" lon="9.344505"><ele>138.0</ele><time>2026-04-26T09:14:45.527Z</time></trkpt><trkpt lat="39.542545" lon="9.344485"><ele>138.0</ele><time>2026-04-26T09:14:46.527Z</time></trkpt><trkpt lat="39.5424333" lon="9.3445183"><ele>138.0</ele><time>2026-04-26T09:14:47.526Z</time></trkpt><trkpt lat="39.5423167" lon="9.3445633"><ele>138.0</ele><time>2026-04-26T09:14:48.527Z</time></trkpt><trkpt lat="39.54219" lon="9.3445933"><ele>138.0</ele><time>2026-04-26T09:14:49.527Z</time></trkpt><trkpt lat="39.5420717" lon="9.3445833"><ele>138.0</ele><time>2026-04-26T09:14:50.527Z</time></trkpt><trkpt lat="39.54197" lon="9.3445417"><ele>138.0</ele><time>2026-04-26T09:14:51.526Z</time></trkpt><trkpt lat="39.54189" lon="9.34445"><ele>138.0</ele><time>2026-04-26T09:14:52.526Z</time></trkpt><trkpt lat="39.5418483" lon="9.3443267"><ele>138.0</ele><time>2026-04-26T09:14:53.526Z</time></trkpt><trkpt lat="39.5418233" lon="9.3441667"><ele>140.0</ele><time>2026-04-26T09:14:54.527Z</time></trkpt><trkpt lat="39.541805" lon="9.3439917"><ele>142.0</ele><time>2026-04-26T09:14:55.527Z</time></trkpt><trkpt lat="39.5418" lon="9.3438133"><ele>144.0</ele><time>2026-04-26T09:14:56.527Z</time></trkpt><trkpt lat="39.54183" lon="9.3436517"><ele>146.0</ele><time>2026-04-26T09:14:57.527Z</time></trkpt><trkpt lat="39.5418533" lon="9.3435017"><ele>146.0</ele><time>2026-04-26T09:14:58.527Z</time></trkpt><trkpt lat="39.54186" lon="9.3433583"><ele>146.0</ele><time>2026-04-26T09:14:59.527Z</time></trkpt><trkpt lat="39.5418233" lon="9.343245"><ele>146.0</ele><time>2026-04-26T09:15:00.526Z</time></trkpt><trkpt lat="39.54175" lon="9.3431617"><ele>146.0</ele><time>2026-04-26T09:15:01.526Z</time></trkpt><trkpt lat="39.5416317" lon="9.3431067"><ele>146.0</ele><time>2026-04-26T09:15:02.527Z</time></trkpt><trkpt lat="39.54149" lon="9.3430767"><ele>146.0</ele><time>2026-04-26T09:15:03.527Z</time></trkpt><trkpt lat="39.54135" lon="9.3430783"><ele>146.0</ele><time>2026-04-26T09:15:04.527Z</time></trkpt><trkpt lat="39.541205" lon="9.3431117"><ele>146.0</ele><time>2026-04-26T09:15:05.526Z</time></trkpt><trkpt lat="39.5410633" lon="9.343195"><ele>146.0</ele><time>2026-04-26T09:15:06.526Z</time></trkpt><trkpt lat="39.54095" lon="9.34329"><ele>146.8</ele><time>2026-04-26T09:15:07.527Z</time></trkpt><trkpt lat="39.5408483" lon="9.343345"><ele>147.6</ele><time>2026-04-26T09:15:08.527Z</time></trkpt><trkpt lat="39.54076" lon="9.343345"><ele>148.4</ele><time>2026-04-26T09:15:09.526Z</time></trkpt><trkpt lat="39.5406883" lon="9.3433"><ele>149.2</ele><time>2026-04-26T09:15:10.526Z</time></trkpt><trkpt lat="39.5406233" lon="9.343185"><ele>150.0</ele><time>2026-04-26T09:15:11.527Z</time></trkpt><trkpt lat="39.5405617" lon="9.34303"><ele>152.0</ele><time>2026-04-26T09:15:12.527Z</time></trkpt><trkpt lat="39.540515" lon="9.3428833"><ele>154.0</ele><time>2026-04-26T09:15:13.527Z</time></trkpt><trkpt lat="39.5405" lon="9.342705"><ele>156.0</ele><time>2026-04-26T09:15:14.527Z</time></trkpt><trkpt lat="39.540495" lon="9.3425183"><ele>158.0</ele><time>2026-04-26T09:15:15.527Z</time></trkpt><trkpt lat="39.5404783" lon="9.3423233"><ele>161.33333333333331</ele><time>2026-04-26T09:15:16.526Z</time></trkpt><trkpt lat="39.540435" lon="9.34215"><ele>164.66666666666666</ele><time>2026-04-26T09:15:17.527Z</time></trkpt><trkpt lat="39.54035" lon="9.3419867"><ele>168.0</ele><time>2026-04-26T09:15:18.526Z</time></trkpt><trkpt lat="39.5402333" lon="9.34184"><ele>168.0</ele><time>2026-04-26T09:15:19.527Z</time></trkpt><trkpt lat="39.540095" lon="9.3417083"><ele>168.0</ele><time>2026-04-26T09:15:20.526Z</time></trkpt><trkpt lat="39.5399367" lon="9.3415917"><ele>168.0</ele><time>2026-04-26T09:15:21.526Z</time></trkpt><trkpt lat="39.5397867" lon="9.341475"><ele>167.33333333333334</ele><time>2026-04-26T09:15:22.527Z</time></trkpt><trkpt lat="39.53965" lon="9.34133"><ele>166.66666666666669</ele><time>2026-04-26T09:15:23.526Z</time></trkpt><trkpt lat="39.539515" lon="9.3411867"><ele>166.0</ele><time>2026-04-26T09:15:24.526Z</time></trkpt><trkpt lat="39.539385" lon="9.34105"><ele>166.0</ele><time>2026-04-26T09:15:25.527Z</time></trkpt><trkpt lat="39.539275" lon="9.340915"><ele>166.0</ele><time>2026-04-26T09:15:26.526Z</time></trkpt><trkpt lat="39.5391683" lon="9.34076"><ele>166.0</ele><time>2026-04-26T09:15:27.527Z</time></trkpt><trkpt lat="39.5390633" lon="9.3405983"><ele>173.0</ele><time>2026-04-26T09:15:28.527Z</time></trkpt><trkpt lat="39.5389633" lon="9.3404183"><ele>180.0</ele><time>2026-04-26T09:15:29.526Z</time></trkpt><trkpt lat="39.5388667" lon="9.34024"><ele>187.0</ele><time>2026-04-26T09:15:30.527Z</time></trkpt><trkpt lat="39.5387833" lon="9.3400467"><ele>180.0</ele><time>2026-04-26T09:15:31.526Z</time></trkpt><trkpt lat="39.538705" lon="9.3398567"><ele>173.0</ele><time>2026-04-26T09:15:32.526Z</time></trkpt><trkpt lat="39.5386317" lon="9.3396817"><ele>166.0</ele><time>2026-04-26T09:15:33.526Z</time></trkpt><trkpt lat="39.53858" lon="9.33948"><ele>166.0</ele><time>2026-04-26T09:15:34.526Z</time></trkpt><trkpt lat="39.5385417" lon="9.3392633"><ele>166.0</ele><time>2026-04-26T09:15:35.526Z</time></trkpt><trkpt lat="39.53851" lon="9.3390517"><ele>166.0</ele><time>2026-04-26T09:15:36.527Z</time></trkpt><trkpt lat="39.5384783" lon="9.3388383"><ele>170.33333333333334</ele><time>2026-04-26T09:15:37.526Z</time></trkpt><trkpt lat="39.5384333" lon="9.3386267"><ele>174.66666666666666</ele><time>2026-04-26T09:15:38.527Z</time></trkpt><trkpt lat="39.538385" lon="9.3384017"><ele>179.0</ele><time>2026-04-26T09:15:39.527Z</time></trkpt><trkpt lat="39.5383167" lon="9.338175"><ele>184.66666666666666</ele><time>2026-04-26T09:15:40.527Z</time></trkpt><trkpt lat="39.5382317" lon="9.3379467"><ele>190.33333333333331</ele><time>2026-04-26T09:15:41.527Z</time></trkpt><trkpt lat="39.53814" lon="9.3377317"><ele>196.0</ele><time>2026-04-26T09:15:42.527Z</time></trkpt><trkpt lat="39.5380533" lon="9.337525"><ele>196.0</ele><time>2026-04-26T09:15:43.527Z</time></trkpt><trkpt lat="39.5379567" lon="9.337335"><ele>196.0</ele><time>2026-04-26T09:15:44.526Z</time></trkpt><trkpt lat="39.5378317" lon="9.3371767"><ele>196.0</ele><time>2026-04-26T09:15:45.526Z</time></trkpt><trkpt lat="39.5376917" lon="9.33705"><ele>187.66666666666666</ele><time>2026-04-26T09:15:46.526Z</time></trkpt><trkpt lat="39.5375483" lon="9.336925"><ele>179.33333333333331</ele><time>2026-04-26T09:15:47.527Z</time></trkpt><trkpt lat="39.5374233" lon="9.3368017"><ele>171.0</ele><time>2026-04-26T09:15:48.526Z</time></trkpt><trkpt lat="39.5373133" lon="9.3366683"><ele>171.0</ele><time>2026-04-26T09:15:49.527Z</time></trkpt><trkpt lat="39.5372033" lon="9.3364983"><ele>171.0</ele><time>2026-04-26T09:15:50.526Z</time></trkpt><trkpt lat="39.5371017" lon="9.336305"><ele>171.0</ele><time>2026-04-26T09:15:51.527Z</time></trkpt><trkpt lat="39.536995" lon="9.33611"><ele>169.66666666666666</ele><time>2026-04-26T09:15:52.527Z</time></trkpt><trkpt lat="39.5368767" lon="9.33591"><ele>168.33333333333331</ele><time>2026-04-26T09:15:53.526Z</time></trkpt><trkpt lat="39.5367683" lon="9.3357117"><ele>167.0</ele><time>2026-04-26T09:15:54.526Z</time></trkpt><trkpt lat="39.5366733" lon="9.3355167"><ele>170.75</ele><time>2026-04-26T09:15:55.527Z</time></trkpt><trkpt lat="39.53658" lon="9.3353317"><ele>174.5</ele><time>2026-04-26T09:15:56.526Z</time></trkpt><trkpt lat="39.536495" lon="9.3351817"><ele>178.25</ele><time>2026-04-26T09:15:57.527Z</time></trkpt><trkpt lat="39.5364233" lon="9.3350783"><ele>182.0</ele><time>2026-04-26T09:15:58.527Z</time></trkpt><trkpt lat="39.536335" lon="9.3350067"><ele>182.0</ele><time>2026-04-26T09:15:59.527Z</time></trkpt><trkpt lat="39.5362383" lon="9.334995"><ele>182.0</ele><time>2026-04-26T09:16:00.527Z</time></trkpt><trkpt lat="39.53612" lon="9.3350433"><ele>182.0</ele><time>2026-04-26T09:16:01.527Z</time></trkpt><trkpt lat="39.5359817" lon="9.3351133"><ele>182.0</ele><time>2026-04-26T09:16:02.527Z</time></trkpt><trkpt lat="39.5358333" lon="9.3351767"><ele>185.66666666666666</ele><time>2026-04-26T09:16:03.527Z</time></trkpt><trkpt lat="39.5356667" lon="9.335235"><ele>189.33333333333331</ele><time>2026-04-26T09:16:04.527Z</time></trkpt><trkpt lat="39.5355" lon="9.335295"><ele>193.0</ele><time>2026-04-26T09:16:05.526Z</time></trkpt><trkpt lat="39.5353433" lon="9.3353733"><ele>193.0</ele><time>2026-04-26T09:16:06.527Z</time></trkpt><trkpt lat="39.5351783" lon="9.3354533"><ele>193.0</ele><time>2026-04-26T09:16:07.526Z</time></trkpt><trkpt lat="39.535015" lon="9.3355433"><ele>193.0</ele><time>2026-04-26T09:16:08.526Z</time></trkpt><trkpt lat="39.5348783" lon="9.3356517"><ele>187.0</ele><time>2026-04-26T09:16:09.527Z</time></trkpt><trkpt lat="39.5347517" lon="9.3357767"><ele>181.0</ele><time>2026-04-26T09:16:10.527Z</time></trkpt><trkpt lat="39.5346483" lon="9.3359217"><ele>175.0</ele><time>2026-04-26T09:16:11.527Z</time></trkpt><trkpt lat="39.53456" lon="9.3360767"><ele>175.25</ele><time>2026-04-26T09:16:12.526Z</time></trkpt><trkpt lat="39.5344917" lon="9.33623"><ele>175.5</ele><time>2026-04-26T09:16:13.526Z</time></trkpt><trkpt lat="39.53443" lon="9.3363567"><ele>175.75</ele><time>2026-04-26T09:16:14.526Z</time></trkpt><trkpt lat="39.5343583" lon="9.3364567"><ele>176.0</ele><time>2026-04-26T09:16:15.526Z</time></trkpt><trkpt lat="39.5342683" lon="9.336515"><ele>176.0</ele><time>2026-04-26T09:16:16.527Z</time></trkpt><trkpt lat="39.5341517" lon="9.336515"><ele>176.0</ele><time>2026-04-26T09:16:17.527Z</time></trkpt><trkpt lat="39.5340433" lon="9.3364883"><ele>176.0</ele><time>2026-04-26T09:16:18.527Z</time></trkpt><trkpt lat="39.533905" lon="9.3364467"><ele>176.0</ele><time>2026-04-26T09:16:19.527Z</time></trkpt><trkpt lat="39.533765" lon="9.336435"><ele>180.0</ele><time>2026-04-26T09:16:20.526Z</time></trkpt><trkpt lat="39.53361" lon="9.3364617"><ele>184.0</ele><time>2026-04-26T09:16:21.527Z</time></trkpt><trkpt lat="39.5334517" lon="9.3365383"><ele>188.0</ele><time>2026-04-26T09:16:22.526Z</time></trkpt><trkpt lat="39.5333067" lon="9.336635"><ele>188.0</ele><time>2026-04-26T09:16:23.527Z</time></trkpt><trkpt lat="39.5331767" lon="9.33676"><ele>188.0</ele><time>2026-04-26T09:16:24.526Z</time></trkpt><trkpt lat="39.5330833" lon="9.3368817"><ele>188.0</ele><time>2026-04-26T09:16:25.527Z</time></trkpt><trkpt lat="39.5329883" lon="9.336975"><ele>188.0</ele><time>2026-04-26T09:16:26.526Z</time></trkpt><trkpt lat="39.532885" lon="9.337035"><ele>189.25</ele><time>2026-04-26T09:16:27.526Z</time></trkpt><trkpt lat="39.532775" lon="9.3370083"><ele>190.5</ele><time>2026-04-26T09:16:28.526Z</time></trkpt><trkpt lat="39.5326683" lon="9.3369333"><ele>191.75</ele><time>2026-04-26T09:16:29.527Z</time></trkpt><trkpt lat="39.5325583" lon="9.3367933"><ele>193.0</ele><time>2026-04-26T09:16:30.526Z</time></trkpt><trkpt lat="39.5324483" lon="9.3366267"><ele>193.0</ele><time>2026-04-26T09:16:31.526Z</time></trkpt><trkpt lat="39.532315" lon="9.33645"><ele>193.0</ele><time>2026-04-26T09:16:32.526Z</time></trkpt><trkpt lat="39.5321617" lon="9.336275"><ele>193.0</ele><time>2026-04-26T09:16:33.526Z</time></trkpt><trkpt lat="39.5320017" lon="9.33611"><ele>194.33333333333331</ele><time>2026-04-26T09:16:34.527Z</time></trkpt><trkpt lat="39.531835" lon="9.3359567"><ele>195.66666666666669</ele><time>2026-04-26T09:16:35.526Z</time></trkpt><trkpt lat="39.5316883" lon="9.3358117"><ele>197.0</ele><time>2026-04-26T09:16:36.526Z</time></trkpt><trkpt lat="39.531545" lon="9.335685"><ele>197.0</ele><time>2026-04-26T09:16:37.526Z</time></trkpt><trkpt lat="39.531405" lon="9.335585"><ele>197.0</ele><time>2026-04-26T09:16:38.526Z</time></trkpt><trkpt lat="39.5312483" lon="9.3355167"><ele>197.0</ele><time>2026-04-26T09:16:39.526Z</time></trkpt><trkpt lat="39.5310667" lon="9.33548"><ele>206.66666666666669</ele><time>2026-04-26T09:16:40.526Z</time></trkpt><trkpt lat="39.5308683" lon="9.33547"><ele>216.33333333333331</ele><time>2026-04-26T09:16:41.526Z</time></trkpt><trkpt lat="39.5306717" lon="9.3354633"><ele>226.0</ele><time>2026-04-26T09:16:42.527Z</time></trkpt><trkpt lat="39.5304783" lon="9.3354883"><ele>219.33333333333331</ele><time>2026-04-26T09:16:43.526Z</time></trkpt><trkpt lat="39.5303" lon="9.3355583"><ele>212.66666666666669</ele><time>2026-04-26T09:16:44.526Z</time></trkpt><trkpt lat="39.5301383" lon="9.3356667"><ele>206.0</ele><time>2026-04-26T09:16:45.526Z</time></trkpt><trkpt lat="39.5300017" lon="9.3357783"><ele>206.0</ele><time>2026-04-26T09:16:46.527Z</time></trkpt><trkpt lat="39.52988" lon="9.3359033"><ele>206.0</ele><time>2026-04-26T09:16:47.527Z</time></trkpt><trkpt lat="39.5297717" lon="9.3360283"><ele>206.0</ele><time>2026-04-26T09:16:48.527Z</time></trkpt><trkpt lat="39.529655" lon="9.3361117"><ele>206.0</ele><time>2026-04-26T09:16:49.526Z</time></trkpt><trkpt lat="39.5295283" lon="9.3361333"><ele>206.75</ele><time>2026-04-26T09:16:50.527Z</time></trkpt><trkpt lat="39.5293933" lon="9.3360683"><ele>207.5</ele><time>2026-04-26T09:16:51.526Z</time></trkpt><trkpt lat="39.5292833" lon="9.3359617"><ele>208.25</ele><time>2026-04-26T09:16:52.526Z</time></trkpt><trkpt lat="39.5291733" lon="9.335805"><ele>209.0</ele><time>2026-04-26T09:16:53.526Z</time></trkpt><trkpt lat="39.5290617" lon="9.3356283"><ele>212.0</ele><time>2026-04-26T09:16:54.526Z</time></trkpt><trkpt lat="39.52894" lon="9.3354517"><ele>215.0</ele><time>2026-04-26T09:16:55.526Z</time></trkpt><trkpt lat="39.5288033" lon="9.3352833"><ele>218.0</ele><time>2026-04-26T09:16:56.526Z</time></trkpt><trkpt lat="39.5286583" lon="9.3351417"><ele>218.0</ele><time>2026-04-26T09:16:57.527Z</time></trkpt><trkpt lat="39.5285067" lon="9.3350267"><ele>218.0</ele><time>2026-04-26T09:16:58.526Z</time></trkpt><trkpt lat="39.5283433" lon="9.3349333"><ele>218.0</ele><time>2026-04-26T09:16:59.527Z</time></trkpt><trkpt lat="39.528165" lon="9.334865"><ele>218.0</ele><time>2026-04-26T09:17:00.526Z</time></trkpt><trkpt lat="39.527985" lon="9.3348167"><ele>218.0</ele><time>2026-04-26T09:17:01.527Z</time></trkpt><trkpt lat="39.5278033" lon="9.3347633"><ele>218.0</ele><time>2026-04-26T09:17:02.527Z</time></trkpt><trkpt lat="39.5276317" lon="9.3347"><ele>223.0</ele><time>2026-04-26T09:17:03.526Z</time></trkpt><trkpt lat="39.5274583" lon="9.3346433"><ele>228.0</ele><time>2026-04-26T09:17:04.526Z</time></trkpt><trkpt lat="39.527285" lon="9.3345783"><ele>233.0</ele><time>2026-04-26T09:17:05.527Z</time></trkpt><trkpt lat="39.5271217" lon="9.3345233"><ele>233.33333333333334</ele><time>2026-04-26T09:17:06.527Z</time></trkpt><trkpt lat="39.5269467" lon="9.3344817"><ele>233.66666666666669</ele><time>2026-04-26T09:17:07.526Z</time></trkpt><trkpt lat="39.52678" lon="9.3344317"><ele>234.0</ele><time>2026-04-26T09:17:08.526Z</time></trkpt><trkpt lat="39.5266083" lon="9.334375"><ele>234.0</ele><time>2026-04-26T09:17:09.527Z</time></trkpt><trkpt lat="39.5264383" lon="9.33431"><ele>234.0</ele><time>2026-04-26T09:17:10.526Z</time></trkpt><trkpt lat="39.5262733" lon="9.3342333"><ele>234.0</ele><time>2026-04-26T09:17:11.526Z</time></trkpt><trkpt lat="39.5261333" lon="9.3341633"><ele>232.75</ele><time>2026-04-26T09:17:12.526Z</time></trkpt><trkpt lat="39.5260083" lon="9.334095"><ele>231.5</ele><time>2026-04-26T09:17:13.526Z</time></trkpt><trkpt lat="39.5259067" lon="9.3340233"><ele>230.25</ele><time>2026-04-26T09:17:14.526Z</time></trkpt><trkpt lat="39.52583" lon="9.3339133"><ele>229.0</ele><time>2026-04-26T09:17:15.527Z</time></trkpt><trkpt lat="39.5257967" lon="9.3337767"><ele>229.0</ele><time>2026-04-26T09:17:16.526Z</time></trkpt><trkpt lat="39.5258117" lon="9.3336133"><ele>229.0</ele><time>2026-04-26T09:17:17.527Z</time></trkpt><trkpt lat="39.5258367" lon="9.3334167"><ele>229.0</ele><time>2026-04-26T09:17:18.526Z</time></trkpt><trkpt lat="39.525855" lon="9.333205"><ele>229.0</ele><time>2026-04-26T09:17:19.527Z</time></trkpt><trkpt lat="39.525855" lon="9.333"><ele>233.66666666666666</ele><time>2026-04-26T09:17:20.527Z</time></trkpt><trkpt lat="39.525815" lon="9.3328067"><ele>238.33333333333331</ele><time>2026-04-26T09:17:21.527Z</time></trkpt><trkpt lat="39.5257383" lon="9.3326217"><ele>243.0</ele><time>2026-04-26T09:17:22.527Z</time></trkpt><trkpt lat="39.5256267" lon="9.3324483"><ele>243.0</ele><time>2026-04-26T09:17:23.527Z</time></trkpt><trkpt lat="39.5254983" lon="9.3322917"><ele>243.0</ele><time>2026-04-26T09:17:24.527Z</time></trkpt><trkpt lat="39.5253667" lon="9.3321417"><ele>243.0</ele><time>2026-04-26T09:17:25.526Z</time></trkpt><trkpt lat="39.5252333" lon="9.331995"><ele>240.33333333333331</ele><time>2026-04-26T09:17:26.526Z</time></trkpt><trkpt lat="39.52511" lon="9.3318633"><ele>237.66666666666666</ele><time>2026-04-26T09:17:27.526Z</time></trkpt><trkpt lat="39.5249983" lon="9.3317183"><ele>235.0</ele><time>2026-04-26T09:17:28.527Z</time></trkpt><trkpt lat="39.524895" lon="9.3315617"><ele>235.0</ele><time>2026-04-26T09:17:29.526Z</time></trkpt><trkpt lat="39.524805" lon="9.3313983"><ele>235.0</ele><time>2026-04-26T09:17:30.527Z</time></trkpt><trkpt lat="39.5247483" lon="9.3312083"><ele>235.0</ele><time>2026-04-26T09:17:31.526Z</time></trkpt><trkpt lat="39.5247133" lon="9.3310067"><ele>238.66666666666666</ele><time>2026-04-26T09:17:32.527Z</time></trkpt><trkpt lat="39.5247083" lon="9.3307933"><ele>242.33333333333331</ele><time>2026-04-26T09:17:33.526Z</time></trkpt><trkpt lat="39.52471" lon="9.3305733"><ele>246.0</ele><time>2026-04-26T09:17:34.527Z</time></trkpt><trkpt lat="39.5246783" lon="9.3303617"><ele>249.66666666666669</ele><time>2026-04-26T09:17:35.527Z</time></trkpt><trkpt lat="39.524635" lon="9.3301533"><ele>253.33333333333334</ele><time>2026-04-26T09:17:36.527Z</time></trkpt><trkpt lat="39.5245733" lon="9.329955"><ele>257.0</ele><time>2026-04-26T09:17:37.527Z</time></trkpt><trkpt lat="39.5245167" lon="9.329775"><ele>250.5</ele><time>2026-04-26T09:17:38.527Z</time></trkpt><trkpt lat="39.5244683" lon="9.329615"><ele>244.0</ele><time>2026-04-26T09:17:39.527Z</time></trkpt><trkpt lat="39.524445" lon="9.3294517"><ele>237.5</ele><time>2026-04-26T09:17:40.526Z</time></trkpt><trkpt lat="39.5244433" lon="9.3292633"><ele>231.0</ele><time>2026-04-26T09:17:41.526Z</time></trkpt><trkpt lat="39.5244867" lon="9.3291"><ele>231.0</ele><time>2026-04-26T09:17:42.527Z</time></trkpt><trkpt lat="39.5245417" lon="9.32895"><ele>231.00000000000003</ele><time>2026-04-26T09:17:43.527Z</time></trkpt><trkpt lat="39.5245833" lon="9.3288217"><ele>231.00000000000003</ele><time>2026-04-26T09:17:44.527Z</time></trkpt><trkpt lat="39.52458" lon="9.3286933"><ele>231.0</ele><time>2026-04-26T09:17:45.526Z</time></trkpt><trkpt lat="39.5245467" lon="9.3285783"><ele>231.0</ele><time>2026-04-26T09:17:46.526Z</time></trkpt><trkpt lat="39.5244783" lon="9.3285017"><ele>236.25</ele><time>2026-04-26T09:17:47.526Z</time></trkpt><trkpt lat="39.5243983" lon="9.3284883"><ele>241.5</ele><time>2026-04-26T09:17:48.527Z</time></trkpt><trkpt lat="39.5242933" lon="9.32853"><ele>246.75</ele><time>2026-04-26T09:17:49.527Z</time></trkpt><trkpt lat="39.5241717" lon="9.328595"><ele>252.0</ele><time>2026-04-26T09:17:50.526Z</time></trkpt><trkpt lat="39.5240533" lon="9.3286683"><ele>252.0</ele><time>2026-04-26T09:17:51.526Z</time></trkpt><trkpt lat="39.5239317" lon="9.328705"><ele>252.0</ele><time>2026-04-26T09:17:52.527Z</time></trkpt><trkpt lat="39.5238117" lon="9.32866"><ele>252.0</ele><time>2026-04-26T09:17:53.526Z</time></trkpt><trkpt lat="39.523695" lon="9.3285667"><ele>252.0</ele><time>2026-04-26T09:17:54.527Z</time></trkpt><trkpt lat="39.5235817" lon="9.328445"><ele>252.33333333333331</ele><time>2026-04-26T09:17:55.527Z</time></trkpt><trkpt lat="39.5234583" lon="9.3283183"><ele>252.66666666666666</ele><time>2026-04-26T09:17:56.527Z</time></trkpt><trkpt lat="39.5233333" lon="9.3281817"><ele>253.0</ele><time>2026-04-26T09:17:57.527Z</time></trkpt><trkpt lat="39.5232033" lon="9.3280367"><ele>253.0</ele><time>2026-04-26T09:17:58.527Z</time></trkpt><trkpt lat="39.5230783" lon="9.3278933"><ele>253.0</ele><time>2026-04-26T09:17:59.526Z</time></trkpt><trkpt lat="39.5229533" lon="9.32776"><ele>253.0</ele><time>2026-04-26T09:18:00.527Z</time></trkpt><trkpt lat="39.5228433" lon="9.3276433"><ele>249.5</ele><time>2026-04-26T09:18:01.526Z</time></trkpt><trkpt lat="39.5227417" lon="9.3275017"><ele>246.0</ele><time>2026-04-26T09:18:02.527Z</time></trkpt><trkpt lat="39.5226717" lon="9.3273383"><ele>242.5</ele><time>2026-04-26T09:18:03.526Z</time></trkpt><trkpt lat="39.52263" lon="9.3271483"><ele>239.0</ele><time>2026-04-26T09:18:04.526Z</time></trkpt><trkpt lat="39.52263" lon="9.3269383"><ele>239.0</ele><time>2026-04-26T09:18:05.526Z</time></trkpt><trkpt lat="39.5226583" lon="9.3267283"><ele>239.0</ele><time>2026-04-26T09:18:06.527Z</time></trkpt><trkpt lat="39.5226983" lon="9.3265117"><ele>239.0</ele><time>2026-04-26T09:18:07.527Z</time></trkpt><trkpt lat="39.52274" lon="9.3263083"><ele>239.0</ele><time>2026-04-26T09:18:08.526Z</time></trkpt><trkpt lat="39.5228067" lon="9.3260767"><ele>239.0</ele><time>2026-04-26T09:18:09.527Z</time></trkpt><trkpt lat="39.5228667" lon="9.3258483"><ele>239.0</ele><time>2026-04-26T09:18:10.527Z</time></trkpt><trkpt lat="39.5229167" lon="9.3256167"><ele>248.33333333333334</ele><time>2026-04-26T09:18:11.526Z</time></trkpt><trkpt lat="39.5229767" lon="9.325385"><ele>257.6666666666667</ele><time>2026-04-26T09:18:12.527Z</time></trkpt><trkpt lat="39.52302" lon="9.32518"><ele>267.0</ele><time>2026-04-26T09:18:13.526Z</time></trkpt><trkpt lat="39.523065" lon="9.324985"><ele>267.0</ele><time>2026-04-26T09:18:14.527Z</time></trkpt><trkpt lat="39.52308" lon="9.3248133"><ele>267.0</ele><time>2026-04-26T09:18:15.527Z</time></trkpt><trkpt lat="39.5230767" lon="9.3246383"><ele>267.0</ele><time>2026-04-26T09:18:16.527Z</time></trkpt><trkpt lat="39.5230333" lon="9.324475"><ele>267.0</ele><time>2026-04-26T09:18:17.527Z</time></trkpt><trkpt lat="39.52297" lon="9.32432"><ele>268.75</ele><time>2026-04-26T09:18:18.526Z</time></trkpt><trkpt lat="39.5229317" lon="9.3241433"><ele>270.5</ele><time>2026-04-26T09:18:19.526Z</time></trkpt><trkpt lat="39.5229267" lon="9.3239433"><ele>272.25</ele><time>2026-04-26T09:18:20.527Z</time></trkpt><trkpt lat="39.522925" lon="9.323765"><ele>274.0</ele><time>2026-04-26T09:18:21.527Z</time></trkpt><trkpt lat="39.5229067" lon="9.32359"><ele>269.0</ele><time>2026-04-26T09:18:22.526Z</time></trkpt><trkpt lat="39.5228483" lon="9.323445"><ele>264.0</ele><time>2026-04-26T09:18:23.527Z</time></trkpt><trkpt lat="39.5227333" lon="9.323325"><ele>259.0</ele><time>2026-04-26T09:18:24.526Z</time></trkpt><trkpt lat="39.5225767" lon="9.3232233"><ele>254.0</ele><time>2026-04-26T09:18:25.527Z</time></trkpt><trkpt lat="39.5224267" lon="9.3231233"><ele>254.66666666666669</ele><time>2026-04-26T09:18:26.526Z</time></trkpt><trkpt lat="39.5222717" lon="9.3230467"><ele>255.33333333333331</ele><time>2026-04-26T09:18:27.526Z</time></trkpt><trkpt lat="39.5221183" lon="9.3229983"><ele>256.0</ele><time>2026-04-26T09:18:28.527Z</time></trkpt><trkpt lat="39.52197" lon="9.3229617"><ele>256.0</ele><time>2026-04-26T09:18:29.526Z</time></trkpt><trkpt lat="39.52184" lon="9.3229083"><ele>256.0</ele><time>2026-04-26T09:18:30.526Z</time></trkpt><trkpt lat="39.52172" lon="9.3228267"><ele>256.0</ele><time>2026-04-26T09:18:31.527Z</time></trkpt><trkpt lat="39.5216383" lon="9.3227183"><ele>256.0</ele><time>2026-04-26T09:18:32.526Z</time></trkpt><trkpt lat="39.5215967" lon="9.3226033"><ele>256.0</ele><time>2026-04-26T09:18:33.527Z</time></trkpt><trkpt lat="39.52162" lon="9.3224633"><ele>256.0</ele><time>2026-04-26T09:18:34.526Z</time></trkpt><trkpt lat="39.521695" lon="9.3223233"><ele>256.0</ele><time>2026-04-26T09:18:35.526Z</time></trkpt><trkpt lat="39.5217917" lon="9.3221717"><ele>256.0</ele><time>2026-04-26T09:18:36.526Z</time></trkpt><trkpt lat="39.521885" lon="9.3220083"><ele>255.0</ele><time>2026-04-26T09:18:37.526Z</time></trkpt><trkpt lat="39.52195" lon="9.32182"><ele>254.0</ele><time>2026-04-26T09:18:38.526Z</time></trkpt><trkpt lat="39.52199" lon="9.3216033"><ele>253.0</ele><time>2026-04-26T09:18:39.526Z</time></trkpt><trkpt lat="39.52201" lon="9.3213867"><ele>253.0</ele><time>2026-04-26T09:18:40.527Z</time></trkpt><trkpt lat="39.52204" lon="9.3211867"><ele>253.0</ele><time>2026-04-26T09:18:41.527Z</time></trkpt><trkpt lat="39.52207" lon="9.320995"><ele>253.0</ele><time>2026-04-26T09:18:42.526Z</time></trkpt><trkpt lat="39.52209" lon="9.3208083"><ele>255.33333333333331</ele><time>2026-04-26T09:18:43.527Z</time></trkpt><trkpt lat="39.52207" lon="9.320605"><ele>257.6666666666667</ele><time>2026-04-26T09:18:44.527Z</time></trkpt><trkpt lat="39.5220083" lon="9.320405"><ele>260.0</ele><time>2026-04-26T09:18:45.527Z</time></trkpt><trkpt lat="39.5219267" lon="9.3202017"><ele>260.0</ele><time>2026-04-26T09:18:46.527Z</time></trkpt><trkpt lat="39.5218267" lon="9.31999"><ele>260.0</ele><time>2026-04-26T09:18:47.526Z</time></trkpt><trkpt lat="39.521725" lon="9.3197867"><ele>260.0</ele><time>2026-04-26T09:18:48.527Z</time></trkpt><trkpt lat="39.5216217" lon="9.3195767"><ele>263.33333333333337</ele><time>2026-04-26T09:18:49.526Z</time></trkpt><trkpt lat="39.5215183" lon="9.3193633"><ele>266.6666666666667</ele><time>2026-04-26T09:18:50.526Z</time></trkpt><trkpt lat="39.5214167" lon="9.3191583"><ele>270.0</ele><time>2026-04-26T09:18:51.527Z</time></trkpt><trkpt lat="39.521325" lon="9.3189567"><ele>272.3333333333333</ele><time>2026-04-26T09:18:52.527Z</time></trkpt><trkpt lat="39.5212517" lon="9.3187733"><ele>274.66666666666663</ele><time>2026-04-26T09:18:53.526Z</time></trkpt><trkpt lat="39.5211883" lon="9.3185867"><ele>277.0</ele><time>2026-04-26T09:18:54.526Z</time></trkpt><trkpt lat="39.5211367" lon="9.3184133"><ele>273.0</ele><time>2026-04-26T09:18:55.527Z</time></trkpt><trkpt lat="39.5210667" lon="9.3182733"><ele>269.0</ele><time>2026-04-26T09:18:56.526Z</time></trkpt><trkpt lat="39.520975" lon="9.3181783"><ele>265.0</ele><time>2026-04-26T09:18:57.527Z</time></trkpt><trkpt lat="39.5208667" lon="9.318145"><ele>261.0</ele><time>2026-04-26T09:18:58.526Z</time></trkpt><trkpt lat="39.520745" lon="9.3181667"><ele>261.0</ele><time>2026-04-26T09:18:59.526Z</time></trkpt><trkpt lat="39.5206367" lon="9.3182217"><ele>261.0</ele><time>2026-04-26T09:19:00.526Z</time></trkpt><trkpt lat="39.5205233" lon="9.3182417"><ele>261.0</ele><time>2026-04-26T09:19:01.526Z</time></trkpt><trkpt lat="39.5204167" lon="9.3182233"><ele>261.0</ele><time>2026-04-26T09:19:02.526Z</time></trkpt><trkpt lat="39.52034" lon="9.3181367"><ele>261.0</ele><time>2026-04-26T09:19:03.527Z</time></trkpt><trkpt lat="39.5203167" lon="9.3179917"><ele>263.3333333333333</ele><time>2026-04-26T09:19:04.527Z</time></trkpt><trkpt lat="39.52029" lon="9.3178067"><ele>265.66666666666663</ele><time>2026-04-26T09:19:05.526Z</time></trkpt><trkpt lat="39.520245" lon="9.3176083"><ele>268.0</ele><time>2026-04-26T09:19:06.527Z</time></trkpt><trkpt lat="39.5201733" lon="9.317415"><ele>268.0</ele><time>2026-04-26T09:19:07.527Z</time></trkpt><trkpt lat="39.5200667" lon="9.3172433"><ele>268.0</ele><time>2026-04-26T09:19:08.526Z</time></trkpt><trkpt lat="39.519925" lon="9.3171017"><ele>268.0</ele><time>2026-04-26T09:19:09.526Z</time></trkpt><trkpt lat="39.51976" lon="9.3169717"><ele>272.0</ele><time>2026-04-26T09:19:10.526Z</time></trkpt><trkpt lat="39.5195783" lon="9.316895"><ele>276.0</ele><time>2026-04-26T09:19:11.527Z</time></trkpt><trkpt lat="39.5194033" lon="9.3168533"><ele>280.0</ele><time>2026-04-26T09:19:12.526Z</time></trkpt><trkpt lat="39.5192133" lon="9.3168367"><ele>280.0</ele><time>2026-04-26T09:19:13.527Z</time></trkpt><trkpt lat="39.519045" lon="9.3168167"><ele>280.0</ele><time>2026-04-26T09:19:14.527Z</time></trkpt><trkpt lat="39.518875" lon="9.3167517"><ele>280.0</ele><time>2026-04-26T09:19:15.527Z</time></trkpt><trkpt lat="39.518725" lon="9.3166533"><ele>277.66666666666663</ele><time>2026-04-26T09:19:16.527Z</time></trkpt><trkpt lat="39.5185867" lon="9.3165283"><ele>275.3333333333333</ele><time>2026-04-26T09:19:17.527Z</time></trkpt><trkpt lat="39.51845" lon="9.3163933"><ele>273.0</ele><time>2026-04-26T09:19:18.527Z</time></trkpt><trkpt lat="39.51831" lon="9.316245"><ele>274.0</ele><time>2026-04-26T09:19:19.527Z</time></trkpt><trkpt lat="39.518165" lon="9.3160983"><ele>275.0</ele><time>2026-04-26T09:19:20.526Z</time></trkpt><trkpt lat="39.5180083" lon="9.3159433"><ele>276.0</ele><time>2026-04-26T09:19:21.526Z</time></trkpt><trkpt lat="39.5178483" lon="9.3157817"><ele>276.0</ele><time>2026-04-26T09:19:22.527Z</time></trkpt><trkpt lat="39.5176867" lon="9.31563"><ele>276.0</ele><time>2026-04-26T09:19:23.526Z</time></trkpt><trkpt lat="39.5175367" lon="9.315475"><ele>276.0</ele><time>2026-04-26T09:19:24.526Z</time></trkpt><trkpt lat="39.5174" lon="9.3153317"><ele>277.25</ele><time>2026-04-26T09:19:25.526Z</time></trkpt><trkpt lat="39.5172783" lon="9.315195"><ele>278.5</ele><time>2026-04-26T09:19:26.527Z</time></trkpt><trkpt lat="39.5171733" lon="9.31507"><ele>279.75</ele><time>2026-04-26T09:19:27.526Z</time></trkpt><trkpt lat="39.5170883" lon="9.3149183"><ele>281.0</ele><time>2026-04-26T09:19:28.526Z</time></trkpt><trkpt lat="39.5170317" lon="9.314745"><ele>284.25</ele><time>2026-04-26T09:19:29.527Z</time></trkpt><trkpt lat="39.5169883" lon="9.3145733"><ele>287.5</ele><time>2026-04-26T09:19:30.526Z</time></trkpt><trkpt lat="39.516945" lon="9.31441"><ele>290.75</ele><time>2026-04-26T09:19:31.527Z</time></trkpt><trkpt lat="39.5168933" lon="9.3142833"><ele>294.0</ele><time>2026-04-26T09:19:32.526Z</time></trkpt><trkpt lat="39.51682" lon="9.314205"><ele>294.0</ele><time>2026-04-26T09:19:33.526Z</time></trkpt><trkpt lat="39.5167233" lon="9.3142"><ele>294.0</ele><time>2026-04-26T09:19:34.527Z</time></trkpt><trkpt lat="39.51663" lon="9.314265"><ele>294.0</ele><time>2026-04-26T09:19:35.526Z</time></trkpt><trkpt lat="39.5165583" lon="9.3143733"><ele>294.0</ele><time>2026-04-26T09:19:36.526Z</time></trkpt><trkpt lat="39.5164983" lon="9.3145217"><ele>294.0</ele><time>2026-04-26T09:19:37.527Z</time></trkpt><trkpt lat="39.5164167" lon="9.31466"><ele>292.25</ele><time>2026-04-26T09:19:38.527Z</time></trkpt><trkpt lat="39.5163083" lon="9.31475"><ele>290.5</ele><time>2026-04-26T09:19:39.526Z</time></trkpt><trkpt lat="39.5161683" lon="9.31479"><ele>288.75</ele><time>2026-04-26T09:19:40.527Z</time></trkpt><trkpt lat="39.516" lon="9.3147767"><ele>287.0</ele><time>2026-04-26T09:19:41.527Z</time></trkpt><trkpt lat="39.515825" lon="9.3147683"><ele>290.6666666666667</ele><time>2026-04-26T09:19:42.526Z</time></trkpt><trkpt lat="39.5156533" lon="9.3147317"><ele>294.3333333333333</ele><time>2026-04-26T09:19:43.526Z</time></trkpt><trkpt lat="39.5154733" lon="9.31466"><ele>298.0</ele><time>2026-04-26T09:19:44.527Z</time></trkpt><trkpt lat="39.5153" lon="9.314585"><ele>298.0</ele><time>2026-04-26T09:19:45.526Z</time></trkpt><trkpt lat="39.5151183" lon="9.3144883"><ele>298.0</ele><time>2026-04-26T09:19:46.526Z</time></trkpt><trkpt lat="39.51494" lon="9.31437"><ele>298.0</ele><time>2026-04-26T09:19:47.527Z</time></trkpt><trkpt lat="39.5147867" lon="9.31424"><ele>298.0</ele><time>2026-04-26T09:19:48.527Z</time></trkpt><trkpt lat="39.5146583" lon="9.314065"><ele>298.0</ele><time>2026-04-26T09:19:49.527Z</time></trkpt><trkpt lat="39.5145633" lon="9.3138817"><ele>298.0</ele><time>2026-04-26T09:19:50.526Z</time></trkpt><trkpt lat="39.5144717" lon="9.313715"><ele>298.5</ele><time>2026-04-26T09:19:51.526Z</time></trkpt><trkpt lat="39.514385" lon="9.3135717"><ele>299.0</ele><time>2026-04-26T09:19:52.527Z</time></trkpt><trkpt lat="39.5142967" lon="9.3134567"><ele>299.5</ele><time>2026-04-26T09:19:53.527Z</time></trkpt><trkpt lat="39.5142117" lon="9.31335"><ele>300.0</ele><time>2026-04-26T09:19:54.527Z</time></trkpt><trkpt lat="39.5140917" lon="9.31328"><ele>300.0</ele><time>2026-04-26T09:19:55.527Z</time></trkpt><trkpt lat="39.513955" lon="9.3132483"><ele>300.0</ele><time>2026-04-26T09:19:56.527Z</time></trkpt><trkpt lat="39.5138117" lon="9.3132667"><ele>300.0</ele><time>2026-04-26T09:19:57.526Z</time></trkpt><trkpt lat="39.51367" lon="9.31327"><ele>300.0</ele><time>2026-04-26T09:19:58.526Z</time></trkpt><trkpt lat="39.5135383" lon="9.3132117"><ele>299.25</ele><time>2026-04-26T09:19:59.526Z</time></trkpt><trkpt lat="39.513425" lon="9.3131083"><ele>298.5</ele><time>2026-04-26T09:20:00.526Z</time></trkpt><trkpt lat="39.5133167" lon="9.312965"><ele>297.75</ele><time>2026-04-26T09:20:01.527Z</time></trkpt><trkpt lat="39.51323" lon="9.3127983"><ele>297.0</ele><time>2026-04-26T09:20:02.526Z</time></trkpt><trkpt lat="39.5131517" lon="9.312605"><ele>299.3333333333333</ele><time>2026-04-26T09:20:03.527Z</time></trkpt><trkpt lat="39.5130717" lon="9.3123883"><ele>301.66666666666663</ele><time>2026-04-26T09:20:04.527Z</time></trkpt><trkpt lat="39.5129817" lon="9.3121817"><ele>304.0</ele><time>2026-04-26T09:20:05.526Z</time></trkpt><trkpt lat="39.5128933" lon="9.3119683"><ele>304.0</ele><time>2026-04-26T09:20:06.527Z</time></trkpt><trkpt lat="39.512815" lon="9.311755"><ele>304.0</ele><time>2026-04-26T09:20:07.526Z</time></trkpt><trkpt lat="39.5127417" lon="9.3115667"><ele>304.0</ele><time>2026-04-26T09:20:08.527Z</time></trkpt><trkpt lat="39.5126683" lon="9.3113767"><ele>304.66666666666663</ele><time>2026-04-26T09:20:09.527Z</time></trkpt><trkpt lat="39.51262" lon="9.3111817"><ele>305.3333333333333</ele><time>2026-04-26T09:20:10.526Z</time></trkpt><trkpt lat="39.5126033" lon="9.3109833"><ele>306.0</ele><time>2026-04-26T09:20:11.527Z</time></trkpt><trkpt lat="39.512625" lon="9.3107667"><ele>307.0</ele><time>2026-04-26T09:20:12.526Z</time></trkpt><trkpt lat="39.5126683" lon="9.310555"><ele>308.0</ele><time>2026-04-26T09:20:13.527Z</time></trkpt><trkpt lat="39.5127383" lon="9.310355"><ele>309.0</ele><time>2026-04-26T09:20:14.527Z</time></trkpt><trkpt lat="39.5127783" lon="9.3101917"><ele>309.0</ele><time>2026-04-26T09:20:15.527Z</time></trkpt><trkpt lat="39.5127917" lon="9.3100417"><ele>309.0</ele><time>2026-04-26T09:20:16.526Z</time></trkpt><trkpt lat="39.51279" lon="9.309895"><ele>309.0</ele><time>2026-04-26T09:20:17.526Z</time></trkpt><trkpt lat="39.512765" lon="9.3097683"><ele>309.0</ele><time>2026-04-26T09:20:18.527Z</time></trkpt><trkpt lat="39.5127" lon="9.309675"><ele>309.0</ele><time>2026-04-26T09:20:19.527Z</time></trkpt><trkpt lat="39.5126083" lon="9.3096367"><ele>309.0</ele><time>2026-04-26T09:20:20.527Z</time></trkpt><trkpt lat="39.5124867" lon="9.3096417"><ele>309.0</ele><time>2026-04-26T09:20:21.526Z</time></trkpt><trkpt lat="39.5123567" lon="9.3097"><ele>309.0</ele><time>2026-04-26T09:20:22.527Z</time></trkpt><trkpt lat="39.5122217" lon="9.3097867"><ele>309.0</ele><time>2026-04-26T09:20:23.526Z</time></trkpt><trkpt lat="39.5120817" lon="9.3098833"><ele>311.5</ele><time>2026-04-26T09:20:24.527Z</time></trkpt><trkpt lat="39.5119517" lon="9.3099717"><ele>314.0</ele><time>2026-04-26T09:20:25.527Z</time></trkpt><trkpt lat="39.5118133" lon="9.31003"><ele>316.5</ele><time>2026-04-26T09:20:26.527Z</time></trkpt><trkpt lat="39.511695" lon="9.3100867"><ele>319.0</ele><time>2026-04-26T09:20:27.526Z</time></trkpt><trkpt lat="39.5115933" lon="9.3101233"><ele>319.0</ele><time>2026-04-26T09:20:28.526Z</time></trkpt><trkpt lat="39.5115133" lon="9.3101833"><ele>319.0</ele><time>2026-04-26T09:20:29.527Z</time></trkpt><trkpt lat="39.51146" lon="9.3102717"><ele>319.0</ele><time>2026-04-26T09:20:30.526Z</time></trkpt><trkpt lat="39.511445" lon="9.3104133"><ele>319.0</ele><time>2026-04-26T09:20:31.526Z</time></trkpt><trkpt lat="39.5114817" lon="9.310555"><ele>319.0</ele><time>2026-04-26T09:20:32.526Z</time></trkpt><trkpt lat="39.5115617" lon="9.3107083"><ele>320.25</ele><time>2026-04-26T09:20:33.527Z</time></trkpt><trkpt lat="39.5116567" lon="9.3108433"><ele>321.5</ele><time>2026-04-26T09:20:34.527Z</time></trkpt><trkpt lat="39.5117217" lon="9.31101"><ele>322.75</ele><time>2026-04-26T09:20:35.526Z</time></trkpt><trkpt lat="39.51175" lon="9.3112017"><ele>324.0</ele><time>2026-04-26T09:20:36.527Z</time></trkpt><trkpt lat="39.51174" lon="9.3114083"><ele>324.0</ele><time>2026-04-26T09:20:37.527Z</time></trkpt><trkpt lat="39.5117433" lon="9.3116267"><ele>324.0</ele><time>2026-04-26T09:20:38.527Z</time></trkpt><trkpt lat="39.5117533" lon="9.3118667"><ele>324.0</ele><time>2026-04-26T09:20:39.527Z</time></trkpt><trkpt lat="39.5117683" lon="9.3121033"><ele>325.6666666666667</ele><time>2026-04-26T09:20:40.526Z</time></trkpt><trkpt lat="39.511795" lon="9.31235"><ele>327.33333333333337</ele><time>2026-04-26T09:20:41.527Z</time></trkpt><trkpt lat="39.5118283" lon="9.312585"><ele>329.0</ele><time>2026-04-26T09:20:42.527Z</time></trkpt><trkpt lat="39.5118667" lon="9.3128117"><ele>329.0</ele><time>2026-04-26T09:20:43.526Z</time></trkpt><trkpt lat="39.5119" lon="9.3130233"><ele>329.0</ele><time>2026-04-26T09:20:44.527Z</time></trkpt><trkpt lat="39.5119167" lon="9.3132"><ele>329.0</ele><time>2026-04-26T09:20:45.527Z</time></trkpt><trkpt lat="39.5119067" lon="9.3133717"><ele>329.0</ele><time>2026-04-26T09:20:46.527Z</time></trkpt><trkpt lat="39.5118733" lon="9.3134983"><ele>329.25</ele><time>2026-04-26T09:20:47.526Z</time></trkpt><trkpt lat="39.5117983" lon="9.3135983"><ele>329.5</ele><time>2026-04-26T09:20:48.527Z</time></trkpt><trkpt lat="39.5116933" lon="9.3136383"><ele>329.75</ele><time>2026-04-26T09:20:49.526Z</time></trkpt><trkpt lat="39.5115583" lon="9.3136233"><ele>330.0</ele><time>2026-04-26T09:20:50.526Z</time></trkpt><trkpt lat="39.5114033" lon="9.3135717"><ele>333.6666666666667</ele><time>2026-04-26T09:20:51.527Z</time></trkpt><trkpt lat="39.51123" lon="9.313495"><ele>337.33333333333337</ele><time>2026-04-26T09:20:52.526Z</time></trkpt><trkpt lat="39.5110433" lon="9.313445"><ele>341.0</ele><time>2026-04-26T09:20:53.526Z</time></trkpt><trkpt lat="39.5108533" lon="9.3134267"><ele>341.0</ele><time>2026-04-26T09:20:54.527Z</time></trkpt><trkpt lat="39.51067" lon="9.3134283"><ele>341.0</ele><time>2026-04-26T09:20:55.527Z</time></trkpt><trkpt lat="39.5105017" lon="9.3134533"><ele>341.0</ele><time>2026-04-26T09:20:56.526Z</time></trkpt><trkpt lat="39.5103383" lon="9.3134567"><ele>341.0</ele><time>2026-04-26T09:20:57.526Z</time></trkpt><trkpt lat="39.5101817" lon="9.3134233"><ele>341.0</ele><time>2026-04-26T09:20:58.526Z</time></trkpt><trkpt lat="39.5100217" lon="9.3133567"><ele>341.0</ele><time>2026-04-26T09:20:59.527Z</time></trkpt><trkpt lat="39.5098733" lon="9.313265"><ele>341.0</ele><time>2026-04-26T09:21:00.527Z</time></trkpt><trkpt lat="39.5097183" lon="9.31316"><ele>341.0</ele><time>2026-04-26T09:21:01.527Z</time></trkpt><trkpt lat="39.5095583" lon="9.3130433"><ele>341.0</ele><time>2026-04-26T09:21:02.527Z</time></trkpt><trkpt lat="39.5093867" lon="9.312935"><ele>348.0</ele><time>2026-04-26T09:21:03.527Z</time></trkpt><trkpt lat="39.5092117" lon="9.3128283"><ele>355.0</ele><time>2026-04-26T09:21:04.526Z</time></trkpt><trkpt lat="39.5090433" lon="9.3127267"><ele>362.0</ele><time>2026-04-26T09:21:05.526Z</time></trkpt><trkpt lat="39.5088733" lon="9.312625"><ele>359.0</ele><time>2026-04-26T09:21:06.527Z</time></trkpt><trkpt lat="39.50872" lon="9.3125267"><ele>356.0</ele><time>2026-04-26T09:21:07.527Z</time></trkpt><trkpt lat="39.50854" lon="9.3124533"><ele>353.0</ele><time>2026-04-26T09:21:08.526Z</time></trkpt><trkpt lat="39.5083583" lon="9.3124133"><ele>353.0</ele><time>2026-04-26T09:21:09.527Z</time></trkpt><trkpt lat="39.508175" lon="9.3123917"><ele>353.0</ele><time>2026-04-26T09:21:10.526Z</time></trkpt><trkpt lat="39.50801" lon="9.312395"><ele>353.0</ele><time>2026-04-26T09:21:11.526Z</time></trkpt><trkpt lat="39.5078483" lon="9.3123867"><ele>352.33333333333337</ele><time>2026-04-26T09:21:12.527Z</time></trkpt><trkpt lat="39.5076867" lon="9.3123417"><ele>351.6666666666667</ele><time>2026-04-26T09:21:13.527Z</time></trkpt><trkpt lat="39.5075183" lon="9.3122817"><ele>351.0</ele><time>2026-04-26T09:21:14.527Z</time></trkpt><trkpt lat="39.50735" lon="9.3122"><ele>356.0</ele><time>2026-04-26T09:21:15.527Z</time></trkpt><trkpt lat="39.5071917" lon="9.3121017"><ele>361.0</ele><time>2026-04-26T09:21:16.527Z</time></trkpt><trkpt lat="39.50703" lon="9.3119967"><ele>366.0</ele><time>2026-04-26T09:21:17.527Z</time></trkpt><trkpt lat="39.5068817" lon="9.3118933"><ele>366.0</ele><time>2026-04-26T09:21:18.527Z</time></trkpt><trkpt lat="39.5067483" lon="9.31179"><ele>366.0</ele><time>2026-04-26T09:21:19.527Z</time></trkpt><trkpt lat="39.5066367" lon="9.3116867"><ele>366.0</ele><time>2026-04-26T09:21:20.526Z</time></trkpt><trkpt lat="39.50654" lon="9.311595"><ele>366.0</ele><time>2026-04-26T09:21:21.527Z</time></trkpt><trkpt lat="39.5064467" lon="9.3115283"><ele>366.0</ele><time>2026-04-26T09:21:22.527Z</time></trkpt><trkpt lat="39.5063533" lon="9.3115167"><ele>366.0</ele><time>2026-04-26T09:21:23.526Z</time></trkpt><trkpt lat="39.506255" lon="9.311595"><ele>366.0</ele><time>2026-04-26T09:21:24.527Z</time></trkpt><trkpt lat="39.5061883" lon="9.311725"><ele>366.0</ele><time>2026-04-26T09:21:25.526Z</time></trkpt><trkpt lat="39.5061517" lon="9.31189"><ele>365.0</ele><time>2026-04-26T09:21:26.526Z</time></trkpt><trkpt lat="39.5060983" lon="9.31205"><ele>364.0</ele><time>2026-04-26T09:21:27.526Z</time></trkpt><trkpt lat="39.5060133" lon="9.3121833"><ele>363.0</ele><time>2026-04-26T09:21:28.527Z</time></trkpt><trkpt lat="39.5059017" lon="9.3122617"><ele>362.0</ele><time>2026-04-26T09:21:29.526Z</time></trkpt><trkpt lat="39.5057683" lon="9.3123"><ele>362.0</ele><time>2026-04-26T09:21:30.527Z</time></trkpt><trkpt lat="39.5056033" lon="9.3123"><ele>362.0</ele><time>2026-04-26T09:21:31.526Z</time></trkpt><trkpt lat="39.5054233" lon="9.3122983"><ele>362.0</ele><time>2026-04-26T09:21:32.526Z</time></trkpt><trkpt lat="39.5052417" lon="9.3122983"><ele>365.0</ele><time>2026-04-26T09:21:33.526Z</time></trkpt><trkpt lat="39.5050483" lon="9.3123217"><ele>368.0</ele><time>2026-04-26T09:21:34.526Z</time></trkpt><trkpt lat="39.504845" lon="9.3123817"><ele>371.0</ele><time>2026-04-26T09:21:35.526Z</time></trkpt><trkpt lat="39.5046517" lon="9.31246"><ele>373.0</ele><time>2026-04-26T09:21:36.526Z</time></trkpt><trkpt lat="39.50445" lon="9.3125267"><ele>375.0</ele><time>2026-04-26T09:21:37.527Z</time></trkpt><trkpt lat="39.50425" lon="9.312575"><ele>377.0</ele><time>2026-04-26T09:21:38.526Z</time></trkpt><trkpt lat="39.5040517" lon="9.3125917"><ele>377.0</ele><time>2026-04-26T09:21:39.527Z</time></trkpt><trkpt lat="39.5038783" lon="9.3125783"><ele>377.0</ele><time>2026-04-26T09:21:40.526Z</time></trkpt><trkpt lat="39.503715" lon="9.3125333"><ele>377.0</ele><time>2026-04-26T09:21:41.526Z</time></trkpt><trkpt lat="39.5035767" lon="9.3124417"><ele>377.0</ele><time>2026-04-26T09:21:42.526Z</time></trkpt><trkpt lat="39.5034733" lon="9.3123183"><ele>377.0</ele><time>2026-04-26T09:21:43.526Z</time></trkpt><trkpt lat="39.5034133" lon="9.31215"><ele>377.0</ele><time>2026-04-26T09:21:44.527Z</time></trkpt><trkpt lat="39.5034017" lon="9.31195"><ele>377.0</ele><time>2026-04-26T09:21:45.526Z</time></trkpt><trkpt lat="39.5034" lon="9.3117383"><ele>378.33333333333337</ele><time>2026-04-26T09:21:46.526Z</time></trkpt><trkpt lat="39.503405" lon="9.3115183"><ele>379.6666666666667</ele><time>2026-04-26T09:21:47.526Z</time></trkpt><trkpt lat="39.5033917" lon="9.3113267"><ele>381.0</ele><time>2026-04-26T09:21:48.526Z</time></trkpt><trkpt lat="39.50335" lon="9.3111517"><ele>382.0</ele><time>2026-04-26T09:21:49.526Z</time></trkpt><trkpt lat="39.50328" lon="9.31101"><ele>383.0</ele><time>2026-04-26T09:21:50.527Z</time></trkpt><trkpt lat="39.5031817" lon="9.3109183"><ele>384.0</ele><time>2026-04-26T09:21:51.526Z</time></trkpt><trkpt lat="39.503085" lon="9.31086"><ele>385.0</ele><time>2026-04-26T09:21:52.527Z</time></trkpt><trkpt lat="39.502995" lon="9.3108483"><ele>386.0</ele><time>2026-04-26T09:21:53.527Z</time></trkpt><trkpt lat="39.502885" lon="9.3108867"><ele>387.25</ele><time>2026-04-26T09:21:54.526Z</time></trkpt><trkpt lat="39.5027583" lon="9.3109633"><ele>388.5</ele><time>2026-04-26T09:21:55.526Z</time></trkpt><trkpt lat="39.502635" lon="9.3110517"><ele>389.75</ele><time>2026-04-26T09:21:56.527Z</time></trkpt><trkpt lat="39.5025083" lon="9.3111833"><ele>391.0</ele><time>2026-04-26T09:21:57.526Z</time></trkpt><trkpt lat="39.50239" lon="9.3113333"><ele>389.33333333333337</ele><time>2026-04-26T09:21:58.527Z</time></trkpt><trkpt lat="39.50229" lon="9.3115233"><ele>387.66666666666663</ele><time>2026-04-26T09:21:59.526Z</time></trkpt><trkpt lat="39.50222" lon="9.311735"><ele>386.0</ele><time>2026-04-26T09:22:00.526Z</time></trkpt><trkpt lat="39.5021667" lon="9.3119767"><ele>386.0</ele><time>2026-04-26T09:22:01.527Z</time></trkpt><trkpt lat="39.50213" lon="9.3122233"><ele>386.0</ele><time>2026-04-26T09:22:02.527Z</time></trkpt><trkpt lat="39.50209" lon="9.3124517"><ele>386.0</ele><time>2026-04-26T09:22:03.526Z</time></trkpt><trkpt lat="39.5020583" lon="9.3126533"><ele>388.0</ele><time>2026-04-26T09:22:04.526Z</time></trkpt><trkpt lat="39.502025" lon="9.3128283"><ele>390.0</ele><time>2026-04-26T09:22:05.527Z</time></trkpt><trkpt lat="39.5019817" lon="9.3129933"><ele>392.0</ele><time>2026-04-26T09:22:06.526Z</time></trkpt><trkpt lat="39.5019267" lon="9.3131217"><ele>394.0</ele><time>2026-04-26T09:22:07.526Z</time></trkpt><trkpt lat="39.501845" lon="9.313215"><ele>394.0</ele><time>2026-04-26T09:22:08.526Z</time></trkpt><trkpt lat="39.50174" lon="9.3132933"><ele>394.0</ele><time>2026-04-26T09:22:09.527Z</time></trkpt><trkpt lat="39.501595" lon="9.3133517"><ele>394.0</ele><time>2026-04-26T09:22:10.527Z</time></trkpt><trkpt lat="39.501435" lon="9.31341"><ele>394.0</ele><time>2026-04-26T09:22:11.527Z</time></trkpt><trkpt lat="39.5012783" lon="9.31346"><ele>393.5</ele><time>2026-04-26T09:22:12.526Z</time></trkpt><trkpt lat="39.501135" lon="9.3135017"><ele>393.0</ele><time>2026-04-26T09:22:13.526Z</time></trkpt><trkpt lat="39.5009917" lon="9.3135"><ele>392.5</ele><time>2026-04-26T09:22:14.526Z</time></trkpt><trkpt lat="39.5008533" lon="9.3134517"><ele>392.0</ele><time>2026-04-26T09:22:15.527Z</time></trkpt><trkpt lat="39.5007267" lon="9.3133517"><ele>392.0</ele><time>2026-04-26T09:22:16.526Z</time></trkpt><trkpt lat="39.500615" lon="9.3132067"><ele>392.0</ele><time>2026-04-26T09:22:17.526Z</time></trkpt><trkpt lat="39.5005317" lon="9.3130433"><ele>392.0</ele><time>2026-04-26T09:22:18.527Z</time></trkpt><trkpt lat="39.5004483" lon="9.31285"><ele>390.66666666666663</ele><time>2026-04-26T09:22:19.527Z</time></trkpt><trkpt lat="39.5003433" lon="9.3126767"><ele>389.33333333333337</ele><time>2026-04-26T09:22:20.526Z</time></trkpt><trkpt lat="39.5002033" lon="9.3125183"><ele>388.0</ele><time>2026-04-26T09:22:21.527Z</time></trkpt><trkpt lat="39.50003" lon="9.3123883"><ele>388.0</ele><time>2026-04-26T09:22:22.526Z</time></trkpt><trkpt lat="39.4998217" lon="9.312255"><ele>388.0</ele><time>2026-04-26T09:22:23.527Z</time></trkpt><trkpt lat="39.4996117" lon="9.312135"><ele>385.0</ele><time>2026-04-26T09:22:24.526Z</time></trkpt><trkpt lat="39.4993983" lon="9.3120033"><ele>382.0</ele><time>2026-04-26T09:22:25.526Z</time></trkpt><trkpt lat="39.49917" lon="9.31188"><ele>382.0</ele><time>2026-04-26T09:22:26.526Z</time></trkpt><trkpt lat="39.498935" lon="9.3117467"><ele>382.0</ele><time>2026-04-26T09:22:27.526Z</time></trkpt><trkpt lat="39.4987183" lon="9.3116183"><ele>382.5</ele><time>2026-04-26T09:22:28.527Z</time></trkpt><trkpt lat="39.4985" lon="9.3114883"><ele>383.0</ele><time>2026-04-26T09:22:29.527Z</time></trkpt><trkpt lat="39.498285" lon="9.3113533"><ele>383.0</ele><time>2026-04-26T09:22:30.526Z</time></trkpt><trkpt lat="39.498075" lon="9.3112267"><ele>383.0</ele><time>2026-04-26T09:22:31.527Z</time></trkpt><trkpt lat="39.49787" lon="9.31111"><ele>382.6666666666667</ele><time>2026-04-26T09:22:32.526Z</time></trkpt><trkpt lat="39.49768" lon="9.3109983"><ele>382.3333333333333</ele><time>2026-04-26T09:22:33.527Z</time></trkpt><trkpt lat="39.4975033" lon="9.3108833"><ele>382.0</ele><time>2026-04-26T09:22:34.526Z</time></trkpt><trkpt lat="39.4973267" lon="9.3107833"><ele>382.0</ele><time>2026-04-26T09:22:35.526Z</time></trkpt><trkpt lat="39.49716" lon="9.3106817"><ele>382.0</ele><time>2026-04-26T09:22:36.527Z</time></trkpt><trkpt lat="39.4970083" lon="9.3105833"><ele>382.0</ele><time>2026-04-26T09:22:37.527Z</time></trkpt><trkpt lat="39.4968783" lon="9.3104817"><ele>379.0</ele><time>2026-04-26T09:22:38.527Z</time></trkpt><trkpt lat="39.496765" lon="9.3103717"><ele>376.0</ele><time>2026-04-26T09:22:39.526Z</time></trkpt><trkpt lat="39.4966783" lon="9.3102283"><ele>373.0</ele><time>2026-04-26T09:22:40.526Z</time></trkpt><trkpt lat="39.4966383" lon="9.3100667"><ele>370.0</ele><time>2026-04-26T09:22:41.526Z</time></trkpt><trkpt lat="39.4966467" lon="9.30985"><ele>369.3333333333333</ele><time>2026-04-26T09:22:42.527Z</time></trkpt><trkpt lat="39.4966733" lon="9.3096267"><ele>368.6666666666667</ele><time>2026-04-26T09:22:43.527Z</time></trkpt><trkpt lat="39.4967067" lon="9.30941"><ele>368.0</ele><time>2026-04-26T09:22:44.527Z</time></trkpt><trkpt lat="39.4967467" lon="9.3092117"><ele>368.0</ele><time>2026-04-26T09:22:45.527Z</time></trkpt><trkpt lat="39.4967817" lon="9.30902"><ele>368.0</ele><time>2026-04-26T09:22:46.527Z</time></trkpt><trkpt lat="39.4968217" lon="9.3088417"><ele>368.0</ele><time>2026-04-26T09:22:47.526Z</time></trkpt><trkpt lat="39.49686" lon="9.308685"><ele>368.0</ele><time>2026-04-26T09:22:48.526Z</time></trkpt><trkpt lat="39.4968967" lon="9.3085217"><ele>368.0</ele><time>2026-04-26T09:22:49.526Z</time></trkpt><trkpt lat="39.4969333" lon="9.3083767"><ele>368.0</ele><time>2026-04-26T09:22:50.527Z</time></trkpt><trkpt lat="39.4969767" lon="9.3082333"><ele>368.0</ele><time>2026-04-26T09:22:51.526Z</time></trkpt><trkpt lat="39.4970467" lon="9.308125"><ele>368.0</ele><time>2026-04-26T09:22:52.526Z</time></trkpt><trkpt lat="39.49712" lon="9.3080017"><ele>368.0</ele><time>2026-04-26T09:22:53.527Z</time></trkpt><trkpt lat="39.4972067" lon="9.3078733"><ele>368.0</ele><time>2026-04-26T09:22:54.526Z</time></trkpt><trkpt lat="39.4972867" lon="9.3077567"><ele>368.0</ele><time>2026-04-26T09:22:55.527Z</time></trkpt><trkpt lat="39.497375" lon="9.3076383"><ele>368.0</ele><time>2026-04-26T09:22:56.527Z</time></trkpt><trkpt lat="39.497455" lon="9.3075183"><ele>368.0</ele><time>2026-04-26T09:22:57.527Z</time></trkpt><trkpt lat="39.49754" lon="9.3074"><ele>368.0</ele><time>2026-04-26T09:22:58.527Z</time></trkpt><trkpt lat="39.4976217" lon="9.3072633"><ele>368.0</ele><time>2026-04-26T09:22:59.526Z</time></trkpt><trkpt lat="39.49769" lon="9.307145"><ele>368.0</ele><time>2026-04-26T09:23:00.526Z</time></trkpt><trkpt lat="39.4977483" lon="9.3070367"><ele>368.4</ele><time>2026-04-26T09:23:01.526Z</time></trkpt><trkpt lat="39.4977867" lon="9.30693"><ele>368.79999999999995</ele><time>2026-04-26T09:23:02.526Z</time></trkpt><trkpt lat="39.497805" lon="9.30682"><ele>369.2</ele><time>2026-04-26T09:23:03.526Z</time></trkpt><trkpt lat="39.497775" lon="9.3067383"><ele>369.6</ele><time>2026-04-26T09:23:04.526Z</time></trkpt><trkpt lat="39.497705" lon="9.3066467"><ele>370.0</ele><time>2026-04-26T09:23:05.527Z</time></trkpt><trkpt lat="39.4976183" lon="9.3065483"><ele>370.0</ele><time>2026-04-26T09:23:06.526Z</time></trkpt><trkpt lat="39.4975417" lon="9.3064333"><ele>370.0</ele><time>2026-04-26T09:23:07.527Z</time></trkpt><trkpt lat="39.4974667" lon="9.30632"><ele>370.0</ele><time>2026-04-26T09:23:08.526Z</time></trkpt><trkpt lat="39.4973817" lon="9.30619"><ele>370.0</ele><time>2026-04-26T09:23:09.526Z</time></trkpt><trkpt lat="39.497295" lon="9.30607"><ele>370.0</ele><time>2026-04-26T09:23:10.527Z</time></trkpt><trkpt lat="39.497205" lon="9.3059483"><ele>370.0</ele><time>2026-04-26T09:23:11.526Z</time></trkpt><trkpt lat="39.4971117" lon="9.3058033"><ele>370.0</ele><time>2026-04-26T09:23:12.527Z</time></trkpt><trkpt lat="39.4970217" lon="9.3056767"><ele>370.0</ele><time>2026-04-26T09:23:13.526Z</time></trkpt><trkpt lat="39.4969417" lon="9.3055517"><ele>371.0</ele><time>2026-04-26T09:23:14.527Z</time></trkpt><trkpt lat="39.4968783" lon="9.3054167"><ele>372.0</ele><time>2026-04-26T09:23:15.526Z</time></trkpt><trkpt lat="39.4968067" lon="9.30527"><ele>373.0</ele><time>2026-04-26T09:23:16.527Z</time></trkpt><trkpt lat="39.496775" lon="9.3051017"><ele>374.0</ele><time>2026-04-26T09:23:17.527Z</time></trkpt><trkpt lat="39.4967517" lon="9.30491"><ele>374.75</ele><time>2026-04-26T09:23:18.526Z</time></trkpt><trkpt lat="39.496725" lon="9.3047217"><ele>375.5</ele><time>2026-04-26T09:23:19.526Z</time></trkpt><trkpt lat="39.4966967" lon="9.3045333"><ele>376.25</ele><time>2026-04-26T09:23:20.526Z</time></trkpt><trkpt lat="39.49668" lon="9.3043533"><ele>377.0</ele><time>2026-04-26T09:23:21.527Z</time></trkpt><trkpt lat="39.4966533" lon="9.3041683"><ele>377.0</ele><time>2026-04-26T09:23:22.527Z</time></trkpt><trkpt lat="39.4966267" lon="9.3039833"><ele>377.0</ele><time>2026-04-26T09:23:23.527Z</time></trkpt><trkpt lat="39.4966067" lon="9.30379"><ele>377.0</ele><time>2026-04-26T09:23:24.527Z</time></trkpt><trkpt lat="39.4965617" lon="9.3036217"><ele>377.0</ele><time>2026-04-26T09:23:25.526Z</time></trkpt><trkpt lat="39.4965017" lon="9.30346"><ele>378.25</ele><time>2026-04-26T09:23:26.526Z</time></trkpt><trkpt lat="39.4964417" lon="9.30329"><ele>379.5</ele><time>2026-04-26T09:23:27.527Z</time></trkpt><trkpt lat="39.4963683" lon="9.303145"><ele>380.75</ele><time>2026-04-26T09:23:28.526Z</time></trkpt><trkpt lat="39.4962967" lon="9.30298"><ele>382.0</ele><time>2026-04-26T09:23:29.527Z</time></trkpt><trkpt lat="39.4962233" lon="9.3028233"><ele>383.0</ele><time>2026-04-26T09:23:30.527Z</time></trkpt><trkpt lat="39.4961417" lon="9.302665"><ele>384.0</ele><time>2026-04-26T09:23:31.527Z</time></trkpt><trkpt lat="39.4960633" lon="9.3024967"><ele>385.0</ele><time>2026-04-26T09:23:32.527Z</time></trkpt><trkpt lat="39.4959917" lon="9.3023333"><ele>386.0</ele><time>2026-04-26T09:23:33.526Z</time></trkpt><trkpt lat="39.49593" lon="9.302165"><ele>386.0</ele><time>2026-04-26T09:23:34.526Z</time></trkpt><trkpt lat="39.49589" lon="9.3019833"><ele>386.0</ele><time>2026-04-26T09:23:35.526Z</time></trkpt><trkpt lat="39.4958717" lon="9.301805"><ele>386.0</ele><time>2026-04-26T09:23:36.526Z</time></trkpt><trkpt lat="39.495875" lon="9.3016117"><ele>386.0</ele><time>2026-04-26T09:23:37.527Z</time></trkpt><trkpt lat="39.4958817" lon="9.301395"><ele>386.0</ele><time>2026-04-26T09:23:38.526Z</time></trkpt><trkpt lat="39.4959017" lon="9.3011533"><ele>386.0</ele><time>2026-04-26T09:23:39.526Z</time></trkpt><trkpt lat="39.495915" lon="9.3009117"><ele>386.0</ele><time>2026-04-26T09:23:40.527Z</time></trkpt><trkpt lat="39.4959267" lon="9.300675"><ele>387.0</ele><time>2026-04-26T09:23:41.527Z</time></trkpt><trkpt lat="39.4959417" lon="9.3004467"><ele>388.0</ele><time>2026-04-26T09:23:42.527Z</time></trkpt><trkpt lat="39.49596" lon="9.3002267"><ele>389.0</ele><time>2026-04-26T09:23:43.526Z</time></trkpt><trkpt lat="39.4959933" lon="9.30002"><ele>389.0</ele><time>2026-04-26T09:23:44.526Z</time></trkpt><trkpt lat="39.4960317" lon="9.2998267"><ele>389.0</ele><time>2026-04-26T09:23:45.527Z</time></trkpt><trkpt lat="39.4960783" lon="9.299655"><ele>389.0</ele><time>2026-04-26T09:23:46.527Z</time></trkpt><trkpt lat="39.49613" lon="9.2994917"><ele>389.0</ele><time>2026-04-26T09:23:47.526Z</time></trkpt><trkpt lat="39.4961967" lon="9.29933"><ele>389.25</ele><time>2026-04-26T09:23:48.527Z</time></trkpt><trkpt lat="39.49625" lon="9.2991917"><ele>389.5</ele><time>2026-04-26T09:23:49.527Z</time></trkpt><trkpt lat="39.4963183" lon="9.2990367"><ele>389.75</ele><time>2026-04-26T09:23:50.526Z</time></trkpt><trkpt lat="39.4963867" lon="9.2988767"><ele>390.0</ele><time>2026-04-26T09:23:51.527Z</time></trkpt><trkpt lat="39.4964317" lon="9.298705"><ele>393.5</ele><time>2026-04-26T09:23:52.526Z</time></trkpt><trkpt lat="39.4964633" lon="9.2985233"><ele>397.0</ele><time>2026-04-26T09:23:53.527Z</time></trkpt><trkpt lat="39.4964433" lon="9.2983383"><ele>400.5</ele><time>2026-04-26T09:23:54.527Z</time></trkpt><trkpt lat="39.49641" lon="9.2981733"><ele>404.0</ele><time>2026-04-26T09:23:55.527Z</time></trkpt><trkpt lat="39.4963717" lon="9.2980283"><ele>404.75</ele><time>2026-04-26T09:23:56.526Z</time></trkpt><trkpt lat="39.4963183" lon="9.2978917"><ele>405.5</ele><time>2026-04-26T09:23:57.527Z</time></trkpt><trkpt lat="39.49624" lon="9.2977883"><ele>406.25</ele><time>2026-04-26T09:23:58.526Z</time></trkpt><trkpt lat="39.496145" lon="9.2977217"><ele>407.0</ele><time>2026-04-26T09:23:59.527Z</time></trkpt><trkpt lat="39.4960317" lon="9.297715"><ele>407.75</ele><time>2026-04-26T09:24:00.527Z</time></trkpt><trkpt lat="39.495935" lon="9.2977767"><ele>408.5</ele><time>2026-04-26T09:24:01.527Z</time></trkpt><trkpt lat="39.4958433" lon="9.2978667"><ele>409.25</ele><time>2026-04-26T09:24:02.527Z</time></trkpt><trkpt lat="39.4957567" lon="9.2980033"><ele>410.0</ele><time>2026-04-26T09:24:03.526Z</time></trkpt><trkpt lat="39.4956683" lon="9.2981367"><ele>409.3333333333333</ele><time>2026-04-26T09:24:04.527Z</time></trkpt><trkpt lat="39.4955467" lon="9.2982583"><ele>408.66666666666663</ele><time>2026-04-26T09:24:05.527Z</time></trkpt><trkpt lat="39.4954" lon="9.2983717"><ele>408.0</ele><time>2026-04-26T09:24:06.526Z</time></trkpt><trkpt lat="39.4952433" lon="9.2984617"><ele>408.0</ele><time>2026-04-26T09:24:07.526Z</time></trkpt><trkpt lat="39.49508" lon="9.2985283"><ele>408.0</ele><time>2026-04-26T09:24:08.527Z</time></trkpt><trkpt lat="39.49492" lon="9.29856"><ele>408.0</ele><time>2026-04-26T09:24:09.527Z</time></trkpt><trkpt lat="39.4947617" lon="9.298565"><ele>408.0</ele><time>2026-04-26T09:24:10.527Z</time></trkpt><trkpt lat="39.4946067" lon="9.29853"><ele>408.0</ele><time>2026-04-26T09:24:11.527Z</time></trkpt><trkpt lat="39.4944633" lon="9.2984533"><ele>408.0</ele><time>2026-04-26T09:24:12.527Z</time></trkpt><trkpt lat="39.494335" lon="9.2983467"><ele>407.66666666666663</ele><time>2026-04-26T09:24:13.527Z</time></trkpt><trkpt lat="39.4942183" lon="9.2982117"><ele>407.3333333333333</ele><time>2026-04-26T09:24:14.526Z</time></trkpt><trkpt lat="39.4941167" lon="9.2980583"><ele>407.0</ele><time>2026-04-26T09:24:15.527Z</time></trkpt><trkpt lat="39.4940467" lon="9.2979033"><ele>406.75</ele><time>2026-04-26T09:24:16.526Z</time></trkpt><trkpt lat="39.494" lon="9.297745"><ele>406.5</ele><time>2026-04-26T09:24:17.527Z</time></trkpt><trkpt lat="39.4939983" lon="9.2975667"><ele>406.25</ele><time>2026-04-26T09:24:18.526Z</time></trkpt><trkpt lat="39.4940333" lon="9.2973633"><ele>406.0</ele><time>2026-04-26T09:24:19.526Z</time></trkpt><trkpt lat="39.4941067" lon="9.297155"><ele>406.0</ele><time>2026-04-26T09:24:20.527Z</time></trkpt><trkpt lat="39.4941867" lon="9.29694"><ele>406.0</ele><time>2026-04-26T09:24:21.526Z</time></trkpt><trkpt lat="39.4942683" lon="9.2967183"><ele>406.0</ele><time>2026-04-26T09:24:22.527Z</time></trkpt><trkpt lat="39.4943383" lon="9.296485"><ele>405.0</ele><time>2026-04-26T09:24:23.526Z</time></trkpt><trkpt lat="39.494415" lon="9.2962633"><ele>404.0</ele><time>2026-04-26T09:24:24.526Z</time></trkpt><trkpt lat="39.4944683" lon="9.296045"><ele>403.0</ele><time>2026-04-26T09:24:25.526Z</time></trkpt><trkpt lat="39.49449" lon="9.295855"><ele>403.0</ele><time>2026-04-26T09:24:26.526Z</time></trkpt><trkpt lat="39.4945017" lon="9.2956817"><ele>403.0</ele><time>2026-04-26T09:24:27.526Z</time></trkpt><trkpt lat="39.4944417" lon="9.2955467"><ele>403.0</ele><time>2026-04-26T09:24:28.526Z</time></trkpt><trkpt lat="39.49433" lon="9.2954433"><ele>403.0</ele><time>2026-04-26T09:24:29.526Z</time></trkpt><trkpt lat="39.4942017" lon="9.2953817"><ele>404.33333333333337</ele><time>2026-04-26T09:24:30.527Z</time></trkpt><trkpt lat="39.4940467" lon="9.2953233"><ele>405.66666666666663</ele><time>2026-04-26T09:24:31.526Z</time></trkpt><trkpt lat="39.4938917" lon="9.295265"><ele>407.0</ele><time>2026-04-26T09:24:32.527Z</time></trkpt><trkpt lat="39.4937517" lon="9.2951667"><ele>407.0</ele><time>2026-04-26T09:24:33.527Z</time></trkpt><trkpt lat="39.4936167" lon="9.2950383"><ele>407.0</ele><time>2026-04-26T09:24:34.527Z</time></trkpt><trkpt lat="39.493485" lon="9.2948883"><ele>407.0</ele><time>2026-04-26T09:24:35.526Z</time></trkpt><trkpt lat="39.49335" lon="9.2947283"><ele>414.0</ele><time>2026-04-26T09:24:36.526Z</time></trkpt><trkpt lat="39.49321" lon="9.2945733"><ele>421.0</ele><time>2026-04-26T09:24:37.526Z</time></trkpt><trkpt lat="39.493065" lon="9.2944283"><ele>428.0</ele><time>2026-04-26T09:24:38.526Z</time></trkpt><trkpt lat="39.4929367" lon="9.2942933"><ele>421.3333333333333</ele><time>2026-04-26T09:24:39.526Z</time></trkpt><trkpt lat="39.4928167" lon="9.2941667"><ele>414.66666666666663</ele><time>2026-04-26T09:24:40.527Z</time></trkpt><trkpt lat="39.49271" lon="9.2940217"><ele>408.0</ele><time>2026-04-26T09:24:41.527Z</time></trkpt><trkpt lat="39.4926317" lon="9.2938683"><ele>407.25</ele><time>2026-04-26T09:24:42.526Z</time></trkpt><trkpt lat="39.4925883" lon="9.293705"><ele>406.5</ele><time>2026-04-26T09:24:43.526Z</time></trkpt><trkpt lat="39.49259" lon="9.2935083"><ele>405.75</ele><time>2026-04-26T09:24:44.526Z</time></trkpt><trkpt lat="39.4926" lon="9.29331"><ele>405.0</ele><time>2026-04-26T09:24:45.526Z</time></trkpt><trkpt lat="39.49263" lon="9.2931283"><ele>403.25</ele><time>2026-04-26T09:24:46.526Z</time></trkpt><trkpt lat="39.4926817" lon="9.292945"><ele>401.5</ele><time>2026-04-26T09:24:47.527Z</time></trkpt><trkpt lat="39.4927517" lon="9.2927967"><ele>399.75</ele><time>2026-04-26T09:24:48.527Z</time></trkpt><trkpt lat="39.4928533" lon="9.2926433"><ele>398.0</ele><time>2026-04-26T09:24:49.526Z</time></trkpt><trkpt lat="39.49296" lon="9.29251"><ele>401.0</ele><time>2026-04-26T09:24:50.527Z</time></trkpt><trkpt lat="39.4930817" lon="9.2923783"><ele>404.0</ele><time>2026-04-26T09:24:51.526Z</time></trkpt><trkpt lat="39.4932117" lon="9.2922483"><ele>407.0</ele><time>2026-04-26T09:24:52.527Z</time></trkpt><trkpt lat="39.49334" lon="9.29212"><ele>407.0</ele><time>2026-04-26T09:24:53.526Z</time></trkpt><trkpt lat="39.4934633" lon="9.2920067"><ele>407.0</ele><time>2026-04-26T09:24:54.527Z</time></trkpt><trkpt lat="39.493585" lon="9.2918983"><ele>407.0</ele><time>2026-04-26T09:24:55.527Z</time></trkpt><trkpt lat="39.4936967" lon="9.291805"><ele>407.0</ele><time>2026-04-26T09:24:56.526Z</time></trkpt><trkpt lat="39.4938083" lon="9.2917283"><ele>409.8</ele><time>2026-04-26T09:24:57.526Z</time></trkpt><trkpt lat="39.4939167" lon="9.291665"><ele>412.6</ele><time>2026-04-26T09:24:58.527Z</time></trkpt><trkpt lat="39.4940117" lon="9.2915783"><ele>415.40000000000003</ele><time>2026-04-26T09:24:59.526Z</time></trkpt><trkpt lat="39.4940633" lon="9.2914683"><ele>418.20000000000005</ele><time>2026-04-26T09:25:00.527Z</time></trkpt><trkpt lat="39.4940567" lon="9.29132"><ele>421.0</ele><time>2026-04-26T09:25:01.527Z</time></trkpt><trkpt lat="39.494015" lon="9.2912217"><ele>421.5</ele><time>2026-04-26T09:25:02.526Z</time></trkpt><trkpt lat="39.4939267" lon="9.2911433"><ele>422.0</ele><time>2026-04-26T09:25:03.526Z</time></trkpt><trkpt lat="39.4938067" lon="9.2911017"><ele>422.5</ele><time>2026-04-26T09:25:04.526Z</time></trkpt><trkpt lat="39.4936533" lon="9.29107"><ele>423.0</ele><time>2026-04-26T09:25:05.527Z</time></trkpt><trkpt lat="39.4934733" lon="9.2910467"><ele>423.66666666666663</ele><time>2026-04-26T09:25:06.527Z</time></trkpt><trkpt lat="39.4932833" lon="9.291025"><ele>424.3333333333333</ele><time>2026-04-26T09:25:07.527Z</time></trkpt><trkpt lat="39.4931067" lon="9.29098"><ele>425.0</ele><time>2026-04-26T09:25:08.527Z</time></trkpt><trkpt lat="39.4929217" lon="9.2909267"><ele>422.66666666666663</ele><time>2026-04-26T09:25:09.527Z</time></trkpt><trkpt lat="39.4927367" lon="9.2908433"><ele>420.33333333333337</ele><time>2026-04-26T09:25:10.527Z</time></trkpt><trkpt lat="39.492585" lon="9.2907317"><ele>418.0</ele><time>2026-04-26T09:25:11.527Z</time></trkpt><trkpt lat="39.4924667" lon="9.29057"><ele>424.0</ele><time>2026-04-26T09:25:12.526Z</time></trkpt><trkpt lat="39.4923567" lon="9.2903783"><ele>430.0</ele><time>2026-04-26T09:25:13.526Z</time></trkpt><trkpt lat="39.4922733" lon="9.290165"><ele>436.0</ele><time>2026-04-26T09:25:14.526Z</time></trkpt><trkpt lat="39.4922017" lon="9.28994"><ele>440.33333333333337</ele><time>2026-04-26T09:25:15.526Z</time></trkpt><trkpt lat="39.4921517" lon="9.289715"><ele>444.66666666666663</ele><time>2026-04-26T09:25:16.527Z</time></trkpt><trkpt lat="39.4921233" lon="9.289475"><ele>449.0</ele><time>2026-04-26T09:25:17.526Z</time></trkpt><trkpt lat="39.492105" lon="9.289265"><ele>448.5</ele><time>2026-04-26T09:25:18.527Z</time></trkpt><trkpt lat="39.4920833" lon="9.2890767"><ele>448.0</ele><time>2026-04-26T09:25:19.526Z</time></trkpt><trkpt lat="39.4920333" lon="9.2889267"><ele>447.5</ele><time>2026-04-26T09:25:20.526Z</time></trkpt><trkpt lat="39.491955" lon="9.2888267"><ele>447.0</ele><time>2026-04-26T09:25:21.527Z</time></trkpt><trkpt lat="39.4918517" lon="9.2887933"><ele>447.0</ele><time>2026-04-26T09:25:22.526Z</time></trkpt><trkpt lat="39.4917333" lon="9.2888267"><ele>447.0</ele><time>2026-04-26T09:25:23.526Z</time></trkpt><trkpt lat="39.4916183" lon="9.2889367"><ele>447.0</ele><time>2026-04-26T09:25:24.527Z</time></trkpt><trkpt lat="39.491515" lon="9.2890833"><ele>447.0</ele><time>2026-04-26T09:25:25.527Z</time></trkpt><trkpt lat="39.4913983" lon="9.2892467"><ele>445.0</ele><time>2026-04-26T09:25:26.527Z</time></trkpt><trkpt lat="39.491285" lon="9.2894067"><ele>443.0</ele><time>2026-04-26T09:25:27.527Z</time></trkpt><trkpt lat="39.4911667" lon="9.28954"><ele>441.0</ele><time>2026-04-26T09:25:28.526Z</time></trkpt><trkpt lat="39.491035" lon="9.28962"><ele>441.0</ele><time>2026-04-26T09:25:29.527Z</time></trkpt><trkpt lat="39.4909033" lon="9.2896383"><ele>441.0</ele><time>2026-04-26T09:25:30.526Z</time></trkpt><trkpt lat="39.4907567" lon="9.2895883"><ele>441.0</ele><time>2026-04-26T09:25:31.526Z</time></trkpt><trkpt lat="39.4906067" lon="9.289475"><ele>441.0</ele><time>2026-04-26T09:25:32.526Z</time></trkpt><trkpt lat="39.4904767" lon="9.2893217"><ele>441.0</ele><time>2026-04-26T09:25:33.527Z</time></trkpt><trkpt lat="39.490375" lon="9.2891533"><ele>441.0</ele><time>2026-04-26T09:25:34.527Z</time></trkpt><trkpt lat="39.4902833" lon="9.28897"><ele>444.66666666666663</ele><time>2026-04-26T09:25:35.527Z</time></trkpt><trkpt lat="39.4901817" lon="9.28881"><ele>448.3333333333333</ele><time>2026-04-26T09:25:36.527Z</time></trkpt><trkpt lat="39.490045" lon="9.288665"><ele>452.0</ele><time>2026-04-26T09:25:37.526Z</time></trkpt><trkpt lat="39.489875" lon="9.2885533"><ele>452.0</ele><time>2026-04-26T09:25:38.527Z</time></trkpt><trkpt lat="39.4897083" lon="9.28843"><ele>452.0</ele><time>2026-04-26T09:25:39.527Z</time></trkpt><trkpt lat="39.489575" lon="9.2883133"><ele>452.0</ele><time>2026-04-26T09:25:40.527Z</time></trkpt><trkpt lat="39.4894767" lon="9.2881883"><ele>448.75</ele><time>2026-04-26T09:25:41.527Z</time></trkpt><trkpt lat="39.4894133" lon="9.2880417"><ele>445.5</ele><time>2026-04-26T09:25:42.527Z</time></trkpt><trkpt lat="39.48938" lon="9.28787"><ele>442.25</ele><time>2026-04-26T09:25:43.527Z</time></trkpt><trkpt lat="39.489375" lon="9.2876767"><ele>439.0</ele><time>2026-04-26T09:25:44.527Z</time></trkpt><trkpt lat="39.4894033" lon="9.2874683"><ele>440.0</ele><time>2026-04-26T09:25:45.527Z</time></trkpt><trkpt lat="39.489445" lon="9.28725"><ele>441.0</ele><time>2026-04-26T09:25:46.527Z</time></trkpt><trkpt lat="39.4894883" lon="9.2870317"><ele>442.0</ele><time>2026-04-26T09:25:47.526Z</time></trkpt><trkpt lat="39.4895267" lon="9.286785"><ele>442.0</ele><time>2026-04-26T09:25:48.527Z</time></trkpt><trkpt lat="39.489545" lon="9.286495"><ele>442.0</ele><time>2026-04-26T09:25:49.527Z</time></trkpt><trkpt lat="39.4895317" lon="9.28621"><ele>442.0</ele><time>2026-04-26T09:25:50.527Z</time></trkpt><trkpt lat="39.489515" lon="9.2859483"><ele>443.6666666666667</ele><time>2026-04-26T09:25:51.527Z</time></trkpt><trkpt lat="39.48952" lon="9.2857167"><ele>445.33333333333337</ele><time>2026-04-26T09:25:52.526Z</time></trkpt><trkpt lat="39.48954" lon="9.2854767"><ele>447.0</ele><time>2026-04-26T09:25:53.527Z</time></trkpt><trkpt lat="39.4895933" lon="9.2852317"><ele>453.0</ele><time>2026-04-26T09:25:54.527Z</time></trkpt><trkpt lat="39.489675" lon="9.2850133"><ele>459.0</ele><time>2026-04-26T09:25:55.526Z</time></trkpt><trkpt lat="39.4897533" lon="9.284815"><ele>465.0</ele><time>2026-04-26T09:25:56.527Z</time></trkpt><trkpt lat="39.4898167" lon="9.2846467"><ele>465.4</ele><time>2026-04-26T09:25:57.527Z</time></trkpt><trkpt lat="39.4898467" lon="9.2844883"><ele>465.8</ele><time>2026-04-26T09:25:58.527Z</time></trkpt><trkpt lat="39.4898567" lon="9.28434"><ele>466.20000000000005</ele><time>2026-04-26T09:25:59.527Z</time></trkpt><trkpt lat="39.4898167" lon="9.2842167"><ele>466.6</ele><time>2026-04-26T09:26:00.526Z</time></trkpt><trkpt lat="39.4897433" lon="9.2841433"><ele>467.0</ele><time>2026-04-26T09:26:01.526Z</time></trkpt><trkpt lat="39.48964" lon="9.2841117"><ele>467.66666666666663</ele><time>2026-04-26T09:26:02.526Z</time></trkpt><trkpt lat="39.4895033" lon="9.2841417"><ele>468.33333333333337</ele><time>2026-04-26T09:26:03.526Z</time></trkpt><trkpt lat="39.4893367" lon="9.2842283"><ele>469.0</ele><time>2026-04-26T09:26:04.527Z</time></trkpt><trkpt lat="39.4891383" lon="9.2843783"><ele>469.0</ele><time>2026-04-26T09:26:05.526Z</time></trkpt><trkpt lat="39.4889667" lon="9.2845483"><ele>469.0</ele><time>2026-04-26T09:26:06.527Z</time></trkpt><trkpt lat="39.488805" lon="9.2847167"><ele>469.0</ele><time>2026-04-26T09:26:07.526Z</time></trkpt><trkpt lat="39.488645" lon="9.284885"><ele>469.6666666666667</ele><time>2026-04-26T09:26:08.527Z</time></trkpt><trkpt lat="39.4885133" lon="9.28507"><ele>470.33333333333337</ele><time>2026-04-26T09:26:09.527Z</time></trkpt><trkpt lat="39.4884167" lon="9.28528"><ele>471.0</ele><time>2026-04-26T09:26:10.526Z</time></trkpt><trkpt lat="39.488355" lon="9.2855183"><ele>468.66666666666663</ele><time>2026-04-26T09:26:11.526Z</time></trkpt><trkpt lat="39.4883067" lon="9.285755"><ele>466.3333333333333</ele><time>2026-04-26T09:26:12.527Z</time></trkpt><trkpt lat="39.488255" lon="9.2859583"><ele>464.0</ele><time>2026-04-26T09:26:13.526Z</time></trkpt><trkpt lat="39.4881767" lon="9.2861367"><ele>464.0</ele><time>2026-04-26T09:26:14.526Z</time></trkpt><trkpt lat="39.4880717" lon="9.28629"><ele>464.0</ele><time>2026-04-26T09:26:15.527Z</time></trkpt><trkpt lat="39.4879367" lon="9.2864183"><ele>464.0</ele><time>2026-04-26T09:26:16.526Z</time></trkpt><trkpt lat="39.4878033" lon="9.28653"><ele>465.5</ele><time>2026-04-26T09:26:17.527Z</time></trkpt><trkpt lat="39.4876767" lon="9.286625"><ele>467.0</ele><time>2026-04-26T09:26:18.526Z</time></trkpt><trkpt lat="39.4875467" lon="9.2866633"><ele>468.5</ele><time>2026-04-26T09:26:19.527Z</time></trkpt><trkpt lat="39.487435" lon="9.28666"><ele>470.0</ele><time>2026-04-26T09:26:20.527Z</time></trkpt><trkpt lat="39.4873283" lon="9.286605"><ele>470.0</ele><time>2026-04-26T09:26:21.527Z</time></trkpt><trkpt lat="39.4872333" lon="9.2864983"><ele>470.0</ele><time>2026-04-26T09:26:22.526Z</time></trkpt><trkpt lat="39.487145" lon="9.28638"><ele>470.0</ele><time>2026-04-26T09:26:23.527Z</time></trkpt><trkpt lat="39.4870917" lon="9.286245"><ele>470.0</ele><time>2026-04-26T09:26:24.526Z</time></trkpt><trkpt lat="39.4870717" lon="9.28608"><ele>472.0</ele><time>2026-04-26T09:26:25.527Z</time></trkpt><trkpt lat="39.4870833" lon="9.2858783"><ele>474.0</ele><time>2026-04-26T09:26:26.526Z</time></trkpt><trkpt lat="39.48712" lon="9.2856483"><ele>476.0</ele><time>2026-04-26T09:26:27.526Z</time></trkpt><trkpt lat="39.4871567" lon="9.28539"><ele>477.3333333333333</ele><time>2026-04-26T09:26:28.527Z</time></trkpt><trkpt lat="39.487175" lon="9.2851167"><ele>478.66666666666663</ele><time>2026-04-26T09:26:29.527Z</time></trkpt><trkpt lat="39.4871733" lon="9.2848317"><ele>480.0</ele><time>2026-04-26T09:26:30.526Z</time></trkpt><trkpt lat="39.4871267" lon="9.284555"><ele>472.0</ele><time>2026-04-26T09:26:31.526Z</time></trkpt><trkpt lat="39.4870733" lon="9.2842917"><ele>464.0</ele><time>2026-04-26T09:26:32.527Z</time></trkpt><trkpt lat="39.4870417" lon="9.2840217"><ele>456.0</ele><time>2026-04-26T09:26:33.527Z</time></trkpt><trkpt lat="39.4870333" lon="9.283765"><ele>455.33333333333337</ele><time>2026-04-26T09:26:34.527Z</time></trkpt><trkpt lat="39.4870283" lon="9.2835233"><ele>454.6666666666667</ele><time>2026-04-26T09:26:35.526Z</time></trkpt><trkpt lat="39.4870217" lon="9.2833017"><ele>454.0</ele><time>2026-04-26T09:26:36.527Z</time></trkpt><trkpt lat="39.4870133" lon="9.2831033"><ele>450.25</ele><time>2026-04-26T09:26:37.527Z</time></trkpt><trkpt lat="39.487025" lon="9.2829217"><ele>446.5</ele><time>2026-04-26T09:26:38.526Z</time></trkpt><trkpt lat="39.4870683" lon="9.28276"><ele>442.75</ele><time>2026-04-26T09:26:39.527Z</time></trkpt><trkpt lat="39.4871683" lon="9.2826233"><ele>439.0</ele><time>2026-04-26T09:26:40.526Z</time></trkpt><trkpt lat="39.4872883" lon="9.2825033"><ele>443.6666666666667</ele><time>2026-04-26T09:26:41.527Z</time></trkpt><trkpt lat="39.4874067" lon="9.2823583"><ele>448.33333333333337</ele><time>2026-04-26T09:26:42.526Z</time></trkpt><trkpt lat="39.4875283" lon="9.2821767"><ele>453.0</ele><time>2026-04-26T09:26:43.526Z</time></trkpt><trkpt lat="39.4876367" lon="9.2819567"><ele>453.0</ele><time>2026-04-26T09:26:44.526Z</time></trkpt><trkpt lat="39.48777" lon="9.28174"><ele>453.0</ele><time>2026-04-26T09:26:45.527Z</time></trkpt><trkpt lat="39.487915" lon="9.2815283"><ele>453.0</ele><time>2026-04-26T09:26:46.526Z</time></trkpt><trkpt lat="39.488055" lon="9.28133"><ele>458.66666666666663</ele><time>2026-04-26T09:26:47.527Z</time></trkpt><trkpt lat="39.48818" lon="9.2811333"><ele>464.3333333333333</ele><time>2026-04-26T09:26:48.526Z</time></trkpt><trkpt lat="39.4882933" lon="9.2809483"><ele>470.0</ele><time>2026-04-26T09:26:49.527Z</time></trkpt><trkpt lat="39.4883817" lon="9.280755"><ele>468.3333333333333</ele><time>2026-04-26T09:26:50.527Z</time></trkpt><trkpt lat="39.4884333" lon="9.280535"><ele>466.66666666666663</ele><time>2026-04-26T09:26:51.527Z</time></trkpt><trkpt lat="39.48846" lon="9.2802967"><ele>465.0</ele><time>2026-04-26T09:26:52.527Z</time></trkpt><trkpt lat="39.48846" lon="9.2800633"><ele>465.0</ele><time>2026-04-26T09:26:53.526Z</time></trkpt><trkpt lat="39.48844" lon="9.2798333"><ele>465.0</ele><time>2026-04-26T09:26:54.526Z</time></trkpt><trkpt lat="39.4883783" lon="9.2796183"><ele>465.0</ele><time>2026-04-26T09:26:55.526Z</time></trkpt><trkpt lat="39.4882883" lon="9.2794367"><ele>466.75</ele><time>2026-04-26T09:26:56.526Z</time></trkpt><trkpt lat="39.4882017" lon="9.27927"><ele>468.5</ele><time>2026-04-26T09:26:57.526Z</time></trkpt><trkpt lat="39.488125" lon="9.279135"><ele>470.25</ele><time>2026-04-26T09:26:58.527Z</time></trkpt><trkpt lat="39.488105" lon="9.278995"><ele>472.0</ele><time>2026-04-26T09:26:59.526Z</time></trkpt><trkpt lat="39.4881" lon="9.2788683"><ele>472.6</ele><time>2026-04-26T09:27:00.526Z</time></trkpt><trkpt lat="39.4880833" lon="9.2787433"><ele>473.20000000000005</ele><time>2026-04-26T09:27:01.527Z</time></trkpt><trkpt lat="39.48804" lon="9.2786517"><ele>473.8</ele><time>2026-04-26T09:27:02.526Z</time></trkpt><trkpt lat="39.4879517" lon="9.2786133"><ele>474.4</ele><time>2026-04-26T09:27:03.527Z</time></trkpt><trkpt lat="39.4878433" lon="9.2786333"><ele>475.0</ele><time>2026-04-26T09:27:04.526Z</time></trkpt><trkpt lat="39.4877233" lon="9.27871"><ele>473.6666666666667</ele><time>2026-04-26T09:27:05.526Z</time></trkpt><trkpt lat="39.487605" lon="9.27884"><ele>472.33333333333337</ele><time>2026-04-26T09:27:06.526Z</time></trkpt><trkpt lat="39.48751" lon="9.2790067"><ele>471.0</ele><time>2026-04-26T09:27:07.527Z</time></trkpt><trkpt lat="39.4874617" lon="9.2791883"><ele>471.0</ele><time>2026-04-26T09:27:08.527Z</time></trkpt><trkpt lat="39.4874367" lon="9.2793633"><ele>471.0</ele><time>2026-04-26T09:27:09.527Z</time></trkpt><trkpt lat="39.4874383" lon="9.2795183"><ele>471.0</ele><time>2026-04-26T09:27:10.527Z</time></trkpt><trkpt lat="39.4874183" lon="9.2796433"><ele>471.0</ele><time>2026-04-26T09:27:11.526Z</time></trkpt><trkpt lat="39.487375" lon="9.279755"><ele>468.5</ele><time>2026-04-26T09:27:12.527Z</time></trkpt><trkpt lat="39.48729" lon="9.2798517"><ele>466.0</ele><time>2026-04-26T09:27:13.527Z</time></trkpt><trkpt lat="39.487175" lon="9.2798967"><ele>463.5</ele><time>2026-04-26T09:27:14.526Z</time></trkpt><trkpt lat="39.4870533" lon="9.2798883"><ele>461.0</ele><time>2026-04-26T09:27:15.526Z</time></trkpt><trkpt lat="39.4869433" lon="9.2798333"><ele>463.0</ele><time>2026-04-26T09:27:16.526Z</time></trkpt><trkpt lat="39.486845" lon="9.279735"><ele>465.0</ele><time>2026-04-26T09:27:17.526Z</time></trkpt><trkpt lat="39.4867733" lon="9.2796417"><ele>467.0</ele><time>2026-04-26T09:27:18.525Z</time></trkpt><trkpt lat="39.4867167" lon="9.2795333"><ele>469.0</ele><time>2026-04-26T09:27:19.526Z</time></trkpt><trkpt lat="39.4866867" lon="9.27942"><ele>471.0</ele><time>2026-04-26T09:27:20.525Z</time></trkpt><trkpt lat="39.486705" lon="9.27928"><ele>471.0</ele><time>2026-04-26T09:27:21.525Z</time></trkpt><trkpt lat="39.4867217" lon="9.2791283"><ele>471.0</ele><time>2026-04-26T09:27:22.526Z</time></trkpt><trkpt lat="39.4867233" lon="9.278935"><ele>471.0</ele><time>2026-04-26T09:27:23.525Z</time></trkpt><trkpt lat="39.48671" lon="9.2787033"><ele>471.0</ele><time>2026-04-26T09:27:24.526Z</time></trkpt><trkpt lat="39.486685" lon="9.278485"><ele>475.0</ele><time>2026-04-26T09:27:25.525Z</time></trkpt><trkpt lat="39.4866517" lon="9.2782667"><ele>479.0</ele><time>2026-04-26T09:27:26.525Z</time></trkpt><trkpt lat="39.4865833" lon="9.278065"><ele>483.0</ele><time>2026-04-26T09:27:27.525Z</time></trkpt><trkpt lat="39.4864767" lon="9.2778933"><ele>479.0</ele><time>2026-04-26T09:27:28.526Z</time></trkpt><trkpt lat="39.4863483" lon="9.2777467"><ele>475.0</ele><time>2026-04-26T09:27:29.525Z</time></trkpt><trkpt lat="39.4862367" lon="9.2775917"><ele>471.0</ele><time>2026-04-26T09:27:30.526Z</time></trkpt><trkpt lat="39.4861517" lon="9.2774433"><ele>473.33333333333337</ele><time>2026-04-26T09:27:31.525Z</time></trkpt><trkpt lat="39.4860967" lon="9.2772633"><ele>475.6666666666667</ele><time>2026-04-26T09:27:32.525Z</time></trkpt><trkpt lat="39.486075" lon="9.27704"><ele>478.0</ele><time>2026-04-26T09:27:33.525Z</time></trkpt><trkpt lat="39.486085" lon="9.276785"><ele>478.0</ele><time>2026-04-26T09:27:34.525Z</time></trkpt><trkpt lat="39.4860867" lon="9.2765567"><ele>478.0</ele><time>2026-04-26T09:27:35.526Z</time></trkpt><trkpt lat="39.48607" lon="9.2763233"><ele>478.0</ele><time>2026-04-26T09:27:36.525Z</time></trkpt><trkpt lat="39.4860467" lon="9.27611"><ele>478.33333333333337</ele><time>2026-04-26T09:27:37.526Z</time></trkpt><trkpt lat="39.4860683" lon="9.27591"><ele>478.66666666666663</ele><time>2026-04-26T09:27:38.525Z</time></trkpt><trkpt lat="39.48613" lon="9.27571"><ele>479.0</ele><time>2026-04-26T09:27:39.525Z</time></trkpt><trkpt lat="39.4862417" lon="9.27553"><ele>485.66666666666663</ele><time>2026-04-26T09:27:40.525Z</time></trkpt><trkpt lat="39.4863633" lon="9.2753583"><ele>492.33333333333337</ele><time>2026-04-26T09:27:41.526Z</time></trkpt><trkpt lat="39.4864867" lon="9.2751917"><ele>499.0</ele><time>2026-04-26T09:27:42.526Z</time></trkpt><trkpt lat="39.4866083" lon="9.275025"><ele>499.0</ele><time>2026-04-26T09:27:43.526Z</time></trkpt><trkpt lat="39.4866883" lon="9.2748283"><ele>499.0</ele><time>2026-04-26T09:27:44.526Z</time></trkpt><trkpt lat="39.48675" lon="9.2746183"><ele>499.0</ele><time>2026-04-26T09:27:45.525Z</time></trkpt><trkpt lat="39.4868017" lon="9.2743983"><ele>499.6666666666667</ele><time>2026-04-26T09:27:46.526Z</time></trkpt><trkpt lat="39.486845" lon="9.2741833"><ele>500.33333333333337</ele><time>2026-04-26T09:27:47.525Z</time></trkpt><trkpt lat="39.4868633" lon="9.2739867"><ele>501.0</ele><time>2026-04-26T09:27:48.525Z</time></trkpt><trkpt lat="39.48685" lon="9.2737833"><ele>501.0</ele><time>2026-04-26T09:27:49.525Z</time></trkpt><trkpt lat="39.4867817" lon="9.27361"><ele>501.0</ele><time>2026-04-26T09:27:50.525Z</time></trkpt><trkpt lat="39.4866983" lon="9.2734483"><ele>501.0</ele><time>2026-04-26T09:27:51.525Z</time></trkpt><trkpt lat="39.4866533" lon="9.2732783"><ele>501.0</ele><time>2026-04-26T09:27:52.525Z</time></trkpt><trkpt lat="39.4866767" lon="9.2730767"><ele>498.66666666666663</ele><time>2026-04-26T09:27:53.525Z</time></trkpt><trkpt lat="39.48674" lon="9.27289"><ele>496.3333333333333</ele><time>2026-04-26T09:27:54.526Z</time></trkpt><trkpt lat="39.4868183" lon="9.2726767"><ele>494.0</ele><time>2026-04-26T09:27:55.525Z</time></trkpt><trkpt lat="39.48691" lon="9.2724583"><ele>492.3333333333333</ele><time>2026-04-26T09:27:56.526Z</time></trkpt><trkpt lat="39.4870033" lon="9.2722417"><ele>490.66666666666663</ele><time>2026-04-26T09:27:57.526Z</time></trkpt><trkpt lat="39.4871017" lon="9.27202"><ele>489.0</ele><time>2026-04-26T09:27:58.526Z</time></trkpt><trkpt lat="39.4872133" lon="9.2718083"><ele>497.66666666666663</ele><time>2026-04-26T09:27:59.525Z</time></trkpt><trkpt lat="39.4873333" lon="9.2716"><ele>506.3333333333333</ele><time>2026-04-26T09:28:00.526Z</time></trkpt><trkpt lat="39.4874183" lon="9.2713883"><ele>515.0</ele><time>2026-04-26T09:28:01.526Z</time></trkpt><trkpt lat="39.487475" lon="9.2711767"><ele>515.0</ele><time>2026-04-26T09:28:02.525Z</time></trkpt><trkpt lat="39.487495" lon="9.2709533"><ele>515.0</ele><time>2026-04-26T09:28:03.525Z</time></trkpt><trkpt lat="39.4874917" lon="9.2707133"><ele>515.0</ele><time>2026-04-26T09:28:04.526Z</time></trkpt><trkpt lat="39.487485" lon="9.27047"><ele>514.3333333333333</ele><time>2026-04-26T09:28:05.526Z</time></trkpt><trkpt lat="39.4875033" lon="9.2702383"><ele>513.6666666666666</ele><time>2026-04-26T09:28:06.526Z</time></trkpt><trkpt lat="39.4875483" lon="9.2700033"><ele>513.0</ele><time>2026-04-26T09:28:07.525Z</time></trkpt><trkpt lat="39.4876167" lon="9.2697717"><ele>510.33333333333337</ele><time>2026-04-26T09:28:08.525Z</time></trkpt><trkpt lat="39.4877083" lon="9.2695683"><ele>507.6666666666667</ele><time>2026-04-26T09:28:09.525Z</time></trkpt><trkpt lat="39.4878233" lon="9.2693667"><ele>505.0</ele><time>2026-04-26T09:28:10.525Z</time></trkpt><trkpt lat="39.48797" lon="9.2691617"><ele>511.33333333333337</ele><time>2026-04-26T09:28:11.526Z</time></trkpt><trkpt lat="39.4881117" lon="9.2689467"><ele>517.6666666666666</ele><time>2026-04-26T09:28:12.525Z</time></trkpt><trkpt lat="39.488255" lon="9.2687417"><ele>524.0</ele><time>2026-04-26T09:28:13.526Z</time></trkpt><trkpt lat="39.4883833" lon="9.2685567"><ele>524.0</ele><time>2026-04-26T09:28:14.526Z</time></trkpt><trkpt lat="39.4885" lon="9.26839"><ele>524.0</ele><time>2026-04-26T09:28:15.526Z</time></trkpt><trkpt lat="39.4885683" lon="9.268225"><ele>524.0</ele><time>2026-04-26T09:28:16.525Z</time></trkpt><trkpt lat="39.4886017" lon="9.268045"><ele>526.6666666666666</ele><time>2026-04-26T09:28:17.526Z</time></trkpt><trkpt lat="39.4885883" lon="9.2678233"><ele>529.3333333333334</ele><time>2026-04-26T09:28:18.526Z</time></trkpt><trkpt lat="39.4885717" lon="9.2675867"><ele>532.0</ele><time>2026-04-26T09:28:19.526Z</time></trkpt><trkpt lat="39.488565" lon="9.2673667"><ele>535.0</ele><time>2026-04-26T09:28:20.526Z</time></trkpt><trkpt lat="39.4885717" lon="9.26717"><ele>538.0</ele><time>2026-04-26T09:28:21.526Z</time></trkpt><trkpt lat="39.4885683" lon="9.267005"><ele>541.0</ele><time>2026-04-26T09:28:22.525Z</time></trkpt><trkpt lat="39.488555" lon="9.2668767"><ele>544.0</ele><time>2026-04-26T09:28:23.525Z</time></trkpt><trkpt lat="39.48851" lon="9.2668017"><ele>544.0</ele><time>2026-04-26T09:28:24.525Z</time></trkpt><trkpt lat="39.4883817" lon="9.2668067"><ele>544.0</ele><time>2026-04-26T09:28:26.526Z</time></trkpt><trkpt lat="39.4883133" lon="9.2669167"><ele>544.0</ele><time>2026-04-26T09:28:27.526Z</time></trkpt><trkpt lat="39.4882433" lon="9.267055"><ele>544.0</ele><time>2026-04-26T09:28:28.526Z</time></trkpt><trkpt lat="39.4881483" lon="9.2671933"><ele>542.3333333333334</ele><time>2026-04-26T09:28:29.526Z</time></trkpt><trkpt lat="39.4880217" lon="9.2673083"><ele>540.6666666666666</ele><time>2026-04-26T09:28:30.526Z</time></trkpt><trkpt lat="39.4878817" lon="9.267405"><ele>539.0</ele><time>2026-04-26T09:28:31.525Z</time></trkpt><trkpt lat="39.4877217" lon="9.267485"><ele>539.0</ele><time>2026-04-26T09:28:32.526Z</time></trkpt><trkpt lat="39.4875683" lon="9.2675533"><ele>539.0</ele><time>2026-04-26T09:28:33.525Z</time></trkpt><trkpt lat="39.4874217" lon="9.2675883"><ele>539.0</ele><time>2026-04-26T09:28:34.526Z</time></trkpt><trkpt lat="39.4872967" lon="9.2675833"><ele>539.0</ele><time>2026-04-26T09:28:35.526Z</time></trkpt><trkpt lat="39.487185" lon="9.2675017"><ele>539.0</ele><time>2026-04-26T09:28:36.525Z</time></trkpt><trkpt lat="39.487115" lon="9.26739"><ele>539.0</ele><time>2026-04-26T09:28:37.526Z</time></trkpt><trkpt lat="39.4870833" lon="9.26724"><ele>539.0</ele><time>2026-04-26T09:28:38.526Z</time></trkpt><trkpt lat="39.4870833" lon="9.2670583"><ele>539.0</ele><time>2026-04-26T09:28:39.526Z</time></trkpt><trkpt lat="39.48708" lon="9.2668767"><ele>540.3333333333333</ele><time>2026-04-26T09:28:40.526Z</time></trkpt><trkpt lat="39.4870333" lon="9.266685"><ele>541.6666666666666</ele><time>2026-04-26T09:28:41.526Z</time></trkpt><trkpt lat="39.4869467" lon="9.2665017"><ele>543.0</ele><time>2026-04-26T09:28:42.526Z</time></trkpt><trkpt lat="39.4868633" lon="9.2663167"><ele>543.0</ele><time>2026-04-26T09:28:43.525Z</time></trkpt><trkpt lat="39.48682" lon="9.26612"><ele>543.0</ele><time>2026-04-26T09:28:44.525Z</time></trkpt><trkpt lat="39.4867967" lon="9.265895"><ele>543.0</ele><time>2026-04-26T09:28:45.525Z</time></trkpt><trkpt lat="39.4867967" lon="9.2656733"><ele>542.3333333333334</ele><time>2026-04-26T09:28:46.526Z</time></trkpt><trkpt lat="39.48681" lon="9.2654517"><ele>541.6666666666667</ele><time>2026-04-26T09:28:47.526Z</time></trkpt><trkpt lat="39.4868367" lon="9.2652517"><ele>541.0</ele><time>2026-04-26T09:28:48.526Z</time></trkpt><trkpt lat="39.4868933" lon="9.2650633"><ele>541.0</ele><time>2026-04-26T09:28:49.525Z</time></trkpt><trkpt lat="39.4869633" lon="9.26491"><ele>541.0</ele><time>2026-04-26T09:28:50.526Z</time></trkpt><trkpt lat="39.4870717" lon="9.26478"><ele>541.0</ele><time>2026-04-26T09:28:51.525Z</time></trkpt><trkpt lat="39.4872" lon="9.2646333"><ele>545.6666666666667</ele><time>2026-04-26T09:28:52.526Z</time></trkpt><trkpt lat="39.4873233" lon="9.26447"><ele>550.3333333333334</ele><time>2026-04-26T09:28:53.525Z</time></trkpt><trkpt lat="39.487455" lon="9.2642933"><ele>555.0</ele><time>2026-04-26T09:28:54.526Z</time></trkpt><trkpt lat="39.4875633" lon="9.2640817"><ele>554.3333333333334</ele><time>2026-04-26T09:28:55.525Z</time></trkpt><trkpt lat="39.48763" lon="9.2638533"><ele>553.6666666666667</ele><time>2026-04-26T09:28:56.525Z</time></trkpt><trkpt lat="39.4876717" lon="9.2636017"><ele>553.0</ele><time>2026-04-26T09:28:57.525Z</time></trkpt><trkpt lat="39.487685" lon="9.26333"><ele>556.0</ele><time>2026-04-26T09:28:58.526Z</time></trkpt><trkpt lat="39.4876617" lon="9.2630433"><ele>559.0</ele><time>2026-04-26T09:28:59.525Z</time></trkpt><trkpt lat="39.4876367" lon="9.262785"><ele>562.0</ele><time>2026-04-26T09:29:00.526Z</time></trkpt><trkpt lat="39.4875967" lon="9.26253"><ele>562.0</ele><time>2026-04-26T09:29:01.526Z</time></trkpt><trkpt lat="39.487515" lon="9.26231"><ele>562.0</ele><time>2026-04-26T09:29:02.525Z</time></trkpt><trkpt lat="39.4874117" lon="9.2621283"><ele>562.0</ele><time>2026-04-26T09:29:03.525Z</time></trkpt><trkpt lat="39.4873267" lon="9.2619633"><ele>564.0</ele><time>2026-04-26T09:29:04.525Z</time></trkpt><trkpt lat="39.4872883" lon="9.2618017"><ele>566.0</ele><time>2026-04-26T09:29:05.526Z</time></trkpt><trkpt lat="39.48732" lon="9.26161"><ele>568.0</ele><time>2026-04-26T09:29:06.526Z</time></trkpt><trkpt lat="39.4873933" lon="9.2614267"><ele>570.0</ele><time>2026-04-26T09:29:07.526Z</time></trkpt><trkpt lat="39.4874667" lon="9.26122"><ele>570.3333333333334</ele><time>2026-04-26T09:29:08.525Z</time></trkpt><trkpt lat="39.4875333" lon="9.2609917"><ele>570.6666666666667</ele><time>2026-04-26T09:29:09.525Z</time></trkpt><trkpt lat="39.487565" lon="9.2607233"><ele>571.0</ele><time>2026-04-26T09:29:10.526Z</time></trkpt><trkpt lat="39.4875417" lon="9.2604517"><ele>572.0</ele><time>2026-04-26T09:29:11.525Z</time></trkpt><trkpt lat="39.4875217" lon="9.2601883"><ele>573.0</ele><time>2026-04-26T09:29:12.526Z</time></trkpt><trkpt lat="39.4875267" lon="9.259935"><ele>574.0</ele><time>2026-04-26T09:29:13.526Z</time></trkpt><trkpt lat="39.487545" lon="9.2596833"><ele>574.3333333333334</ele><time>2026-04-26T09:29:14.525Z</time></trkpt><trkpt lat="39.4875867" lon="9.2594267"><ele>574.6666666666666</ele><time>2026-04-26T09:29:15.525Z</time></trkpt><trkpt lat="39.4876433" lon="9.2591833"><ele>575.0</ele><time>2026-04-26T09:29:16.525Z</time></trkpt><trkpt lat="39.487705" lon="9.2589467"><ele>575.0</ele><time>2026-04-26T09:29:17.526Z</time></trkpt><trkpt lat="39.4877667" lon="9.2587233"><ele>575.0</ele><time>2026-04-26T09:29:18.525Z</time></trkpt><trkpt lat="39.487825" lon="9.25852"><ele>575.0</ele><time>2026-04-26T09:29:19.526Z</time></trkpt><trkpt lat="39.4878833" lon="9.2583433"><ele>578.25</ele><time>2026-04-26T09:29:20.526Z</time></trkpt><trkpt lat="39.4879583" lon="9.2581983"><ele>581.5</ele><time>2026-04-26T09:29:21.526Z</time></trkpt><trkpt lat="39.4880517" lon="9.2580883"><ele>584.75</ele><time>2026-04-26T09:29:22.525Z</time></trkpt><trkpt lat="39.488145" lon="9.2579817"><ele>588.0</ele><time>2026-04-26T09:29:23.525Z</time></trkpt><trkpt lat="39.4882033" lon="9.2578283"><ele>588.25</ele><time>2026-04-26T09:29:24.526Z</time></trkpt><trkpt lat="39.4882333" lon="9.257675"><ele>588.5</ele><time>2026-04-26T09:29:25.526Z</time></trkpt><trkpt lat="39.488215" lon="9.2575033"><ele>588.75</ele><time>2026-04-26T09:29:26.526Z</time></trkpt><trkpt lat="39.4881433" lon="9.2573517"><ele>589.0</ele><time>2026-04-26T09:29:27.525Z</time></trkpt><trkpt lat="39.4880317" lon="9.2572283"><ele>594.0</ele><time>2026-04-26T09:29:28.525Z</time></trkpt><trkpt lat="39.4879017" lon="9.2571183"><ele>599.0</ele><time>2026-04-26T09:29:29.526Z</time></trkpt><trkpt lat="39.48775" lon="9.257045"><ele>604.0</ele><time>2026-04-26T09:29:30.526Z</time></trkpt><trkpt lat="39.4875883" lon="9.257035"><ele>604.0</ele><time>2026-04-26T09:29:31.526Z</time></trkpt><trkpt lat="39.4874317" lon="9.25705"><ele>604.0</ele><time>2026-04-26T09:29:32.526Z</time></trkpt><trkpt lat="39.487285" lon="9.2570267"><ele>604.0</ele><time>2026-04-26T09:29:33.525Z</time></trkpt><trkpt lat="39.4871433" lon="9.2569683"><ele>598.3333333333334</ele><time>2026-04-26T09:29:34.526Z</time></trkpt><trkpt lat="39.487005" lon="9.2568567"><ele>592.6666666666666</ele><time>2026-04-26T09:29:35.526Z</time></trkpt><trkpt lat="39.4869017" lon="9.25671"><ele>587.0</ele><time>2026-04-26T09:29:36.525Z</time></trkpt><trkpt lat="39.486815" lon="9.2565233"><ele>591.0</ele><time>2026-04-26T09:29:37.525Z</time></trkpt><trkpt lat="39.486755" lon="9.2562983"><ele>595.0</ele><time>2026-04-26T09:29:38.525Z</time></trkpt><trkpt lat="39.4867083" lon="9.256055"><ele>599.0</ele><time>2026-04-26T09:29:39.525Z</time></trkpt><trkpt lat="39.4866367" lon="9.2558367"><ele>599.0</ele><time>2026-04-26T09:29:40.525Z</time></trkpt><trkpt lat="39.4865517" lon="9.255625"><ele>599.0</ele><time>2026-04-26T09:29:41.526Z</time></trkpt><trkpt lat="39.4864767" lon="9.2554267"><ele>599.0</ele><time>2026-04-26T09:29:42.526Z</time></trkpt><trkpt lat="39.4864383" lon="9.2551867"><ele>602.6666666666666</ele><time>2026-04-26T09:29:43.525Z</time></trkpt><trkpt lat="39.4864183" lon="9.2549383"><ele>606.3333333333334</ele><time>2026-04-26T09:29:44.526Z</time></trkpt><trkpt lat="39.48641" lon="9.2547067"><ele>610.0</ele><time>2026-04-26T09:29:45.525Z</time></trkpt><trkpt lat="39.4864117" lon="9.2544917"><ele>610.6666666666667</ele><time>2026-04-26T09:29:46.525Z</time></trkpt><trkpt lat="39.48646" lon="9.254275"><ele>611.3333333333334</ele><time>2026-04-26T09:29:47.526Z</time></trkpt><trkpt lat="39.4865183" lon="9.2540817"><ele>612.0</ele><time>2026-04-26T09:29:48.526Z</time></trkpt><trkpt lat="39.486565" lon="9.2539083"><ele>613.0</ele><time>2026-04-26T09:29:49.525Z</time></trkpt><trkpt lat="39.486575" lon="9.25374"><ele>614.0</ele><time>2026-04-26T09:29:50.526Z</time></trkpt><trkpt lat="39.4865217" lon="9.25361"><ele>615.0</ele><time>2026-04-26T09:29:51.526Z</time></trkpt><trkpt lat="39.4864383" lon="9.253505"><ele>616.0</ele><time>2026-04-26T09:29:52.525Z</time></trkpt><trkpt lat="39.4863567" lon="9.2533683"><ele>616.0</ele><time>2026-04-26T09:29:53.526Z</time></trkpt><trkpt lat="39.486305" lon="9.2532183"><ele>616.0</ele><time>2026-04-26T09:29:54.526Z</time></trkpt><trkpt lat="39.4863083" lon="9.2530483"><ele>616.0</ele><time>2026-04-26T09:29:55.525Z</time></trkpt><trkpt lat="39.486345" lon="9.2528733"><ele>616.0</ele><time>2026-04-26T09:29:56.525Z</time></trkpt><trkpt lat="39.4863917" lon="9.25269"><ele>616.6666666666667</ele><time>2026-04-26T09:29:57.526Z</time></trkpt><trkpt lat="39.4864283" lon="9.2524967"><ele>617.3333333333334</ele><time>2026-04-26T09:29:58.526Z</time></trkpt><trkpt lat="39.48645" lon="9.2522833"><ele>618.0</ele><time>2026-04-26T09:29:59.526Z</time></trkpt><trkpt lat="39.48647" lon="9.2520383"><ele>618.6666666666666</ele><time>2026-04-26T09:30:00.526Z</time></trkpt><trkpt lat="39.4864917" lon="9.251775"><ele>619.3333333333333</ele><time>2026-04-26T09:30:01.525Z</time></trkpt><trkpt lat="39.4865033" lon="9.251495"><ele>620.0</ele><time>2026-04-26T09:30:02.526Z</time></trkpt><trkpt lat="39.4865117" lon="9.2512133"><ele>620.6666666666666</ele><time>2026-04-26T09:30:03.526Z</time></trkpt><trkpt lat="39.4865233" lon="9.25096"><ele>621.3333333333334</ele><time>2026-04-26T09:30:04.525Z</time></trkpt><trkpt lat="39.48652" lon="9.250725"><ele>622.0</ele><time>2026-04-26T09:30:05.526Z</time></trkpt><trkpt lat="39.4865" lon="9.250515"><ele>623.0</ele><time>2026-04-26T09:30:06.526Z</time></trkpt><trkpt lat="39.486445" lon="9.2503417"><ele>624.0</ele><time>2026-04-26T09:30:07.525Z</time></trkpt><trkpt lat="39.4863417" lon="9.2501933"><ele>625.0</ele><time>2026-04-26T09:30:08.525Z</time></trkpt><trkpt lat="39.486215" lon="9.25008"><ele>624.0</ele><time>2026-04-26T09:30:09.526Z</time></trkpt><trkpt lat="39.4860767" lon="9.2499617"><ele>623.0</ele><time>2026-04-26T09:30:10.526Z</time></trkpt><trkpt lat="39.4859567" lon="9.24981"><ele>622.0</ele><time>2026-04-26T09:30:11.526Z</time></trkpt><trkpt lat="39.4858683" lon="9.2496167"><ele>622.0</ele><time>2026-04-26T09:30:12.526Z</time></trkpt><trkpt lat="39.4858183" lon="9.2493767"><ele>622.0</ele><time>2026-04-26T09:30:13.525Z</time></trkpt><trkpt lat="39.48577" lon="9.2491183"><ele>622.0</ele><time>2026-04-26T09:30:14.526Z</time></trkpt><trkpt lat="39.485715" lon="9.248835"><ele>622.3333333333334</ele><time>2026-04-26T09:30:15.525Z</time></trkpt><trkpt lat="39.4856567" lon="9.2485567"><ele>622.6666666666666</ele><time>2026-04-26T09:30:16.526Z</time></trkpt><trkpt lat="39.485585" lon="9.248285"><ele>623.0</ele><time>2026-04-26T09:30:17.526Z</time></trkpt><trkpt lat="39.4855067" lon="9.2480067"><ele>622.6666666666666</ele><time>2026-04-26T09:30:18.526Z</time></trkpt><trkpt lat="39.4854133" lon="9.247745"><ele>622.3333333333334</ele><time>2026-04-26T09:30:19.526Z</time></trkpt><trkpt lat="39.48529" lon="9.2475"><ele>622.0</ele><time>2026-04-26T09:30:20.525Z</time></trkpt><trkpt lat="39.4851417" lon="9.2472467"><ele>622.0</ele><time>2026-04-26T09:30:21.525Z</time></trkpt><trkpt lat="39.4849667" lon="9.2469833"><ele>622.0</ele><time>2026-04-26T09:30:22.525Z</time></trkpt><trkpt lat="39.4847883" lon="9.246705"><ele>623.5</ele><time>2026-04-26T09:30:23.525Z</time></trkpt><trkpt lat="39.4846067" lon="9.2464267"><ele>625.0</ele><time>2026-04-26T09:30:24.526Z</time></trkpt><trkpt lat="39.4844217" lon="9.2461533"><ele>625.0</ele><time>2026-04-26T09:30:25.526Z</time></trkpt><trkpt lat="39.4842383" lon="9.2458967"><ele>625.0</ele><time>2026-04-26T09:30:26.526Z</time></trkpt><trkpt lat="39.484065" lon="9.2456433"><ele>625.0</ele><time>2026-04-26T09:30:27.526Z</time></trkpt><trkpt lat="39.48391" lon="9.2454033"><ele>625.0</ele><time>2026-04-26T09:30:28.526Z</time></trkpt><trkpt lat="39.4837583" lon="9.245185"><ele>626.3333333333334</ele><time>2026-04-26T09:30:29.525Z</time></trkpt><trkpt lat="39.4836417" lon="9.244985"><ele>627.6666666666666</ele><time>2026-04-26T09:30:30.526Z</time></trkpt><trkpt lat="39.483525" lon="9.2447867"><ele>629.0</ele><time>2026-04-26T09:30:31.525Z</time></trkpt><trkpt lat="39.483445" lon="9.2445917"><ele>629.0</ele><time>2026-04-26T09:30:32.526Z</time></trkpt><trkpt lat="39.4833967" lon="9.24438"><ele>629.0</ele><time>2026-04-26T09:30:33.525Z</time></trkpt><trkpt lat="39.483385" lon="9.244155"><ele>629.0</ele><time>2026-04-26T09:30:34.525Z</time></trkpt><trkpt lat="39.4834183" lon="9.2439267"><ele>629.0</ele><time>2026-04-26T09:30:35.525Z</time></trkpt><trkpt lat="39.483485" lon="9.24369"><ele>629.0</ele><time>2026-04-26T09:30:36.526Z</time></trkpt><trkpt lat="39.4835617" lon="9.2434383"><ele>629.0</ele><time>2026-04-26T09:30:37.526Z</time></trkpt><trkpt lat="39.4836383" lon="9.2431633"><ele>628.0</ele><time>2026-04-26T09:30:38.525Z</time></trkpt><trkpt lat="39.483725" lon="9.2428767"><ele>627.0</ele><time>2026-04-26T09:30:39.526Z</time></trkpt><trkpt lat="39.48381" lon="9.24258"><ele>628.5</ele><time>2026-04-26T09:30:40.525Z</time></trkpt><trkpt lat="39.4838967" lon="9.242275"><ele>630.0</ele><time>2026-04-26T09:30:41.525Z</time></trkpt><trkpt lat="39.4839833" lon="9.2419667"><ele>630.0</ele><time>2026-04-26T09:30:42.526Z</time></trkpt><trkpt lat="39.4840717" lon="9.2416567"><ele>630.0</ele><time>2026-04-26T09:30:43.526Z</time></trkpt><trkpt lat="39.4841667" lon="9.2413467"><ele>628.5</ele><time>2026-04-26T09:30:44.525Z</time></trkpt><trkpt lat="39.4842667" lon="9.2410333"><ele>627.0</ele><time>2026-04-26T09:30:45.525Z</time></trkpt><trkpt lat="39.4843583" lon="9.240725"><ele>626.5</ele><time>2026-04-26T09:30:46.526Z</time></trkpt><trkpt lat="39.4844467" lon="9.2404133"><ele>626.0</ele><time>2026-04-26T09:30:47.525Z</time></trkpt><trkpt lat="39.4845433" lon="9.2400917"><ele>622.5</ele><time>2026-04-26T09:30:48.525Z</time></trkpt><trkpt lat="39.48464" lon="9.239765"><ele>619.0</ele><time>2026-04-26T09:30:49.526Z</time></trkpt><trkpt lat="39.4847333" lon="9.2394283"><ele>619.0</ele><time>2026-04-26T09:30:50.525Z</time></trkpt><trkpt lat="39.4848283" lon="9.239075"><ele>619.0</ele><time>2026-04-26T09:30:51.525Z</time></trkpt><trkpt lat="39.4849217" lon="9.2387317"><ele>618.0</ele><time>2026-04-26T09:30:52.525Z</time></trkpt><trkpt lat="39.4850217" lon="9.23838"><ele>617.0</ele><time>2026-04-26T09:30:53.525Z</time></trkpt><trkpt lat="39.4851217" lon="9.23803"><ele>615.5</ele><time>2026-04-26T09:30:54.526Z</time></trkpt><trkpt lat="39.4852167" lon="9.237675"><ele>614.0</ele><time>2026-04-26T09:30:55.526Z</time></trkpt><trkpt lat="39.4853217" lon="9.23732"><ele>613.0</ele><time>2026-04-26T09:30:56.525Z</time></trkpt><trkpt lat="39.48542" lon="9.23697"><ele>612.0</ele><time>2026-04-26T09:30:57.526Z</time></trkpt><trkpt lat="39.4855167" lon="9.23663"><ele>611.0</ele><time>2026-04-26T09:30:58.526Z</time></trkpt><trkpt lat="39.4856083" lon="9.2363"><ele>610.0</ele><time>2026-04-26T09:30:59.526Z</time></trkpt><trkpt lat="39.4857067" lon="9.2359717"><ele>610.0</ele><time>2026-04-26T09:31:00.525Z</time></trkpt><trkpt lat="39.4857983" lon="9.2356717"><ele>610.0</ele><time>2026-04-26T09:31:01.525Z</time></trkpt><trkpt lat="39.4858733" lon="9.23539"><ele>608.3333333333334</ele><time>2026-04-26T09:31:02.526Z</time></trkpt><trkpt lat="39.4859433" lon="9.2351233"><ele>606.6666666666666</ele><time>2026-04-26T09:31:03.525Z</time></trkpt><trkpt lat="39.48599" lon="9.2348667"><ele>605.0</ele><time>2026-04-26T09:31:04.526Z</time></trkpt><trkpt lat="39.4859917" lon="9.2346167"><ele>605.0</ele><time>2026-04-26T09:31:05.525Z</time></trkpt><trkpt lat="39.4859583" lon="9.2343567"><ele>605.0</ele><time>2026-04-26T09:31:06.525Z</time></trkpt><trkpt lat="39.4858883" lon="9.2341083"><ele>605.0</ele><time>2026-04-26T09:31:07.525Z</time></trkpt><trkpt lat="39.485785" lon="9.2338733"><ele>605.0</ele><time>2026-04-26T09:31:08.526Z</time></trkpt><trkpt lat="39.48567" lon="9.233635"><ele>605.0</ele><time>2026-04-26T09:31:09.525Z</time></trkpt><trkpt lat="39.4855683" lon="9.2334167"><ele>605.0</ele><time>2026-04-26T09:31:10.525Z</time></trkpt><trkpt lat="39.485495" lon="9.2332"><ele>604.0</ele><time>2026-04-26T09:31:11.526Z</time></trkpt><trkpt lat="39.485455" lon="9.232975"><ele>603.0</ele><time>2026-04-26T09:31:12.526Z</time></trkpt><trkpt lat="39.4854517" lon="9.2327483"><ele>602.0</ele><time>2026-04-26T09:31:13.526Z</time></trkpt><trkpt lat="39.4854883" lon="9.2325267"><ele>602.0</ele><time>2026-04-26T09:31:14.526Z</time></trkpt><trkpt lat="39.4855233" lon="9.2323067"><ele>602.0</ele><time>2026-04-26T09:31:15.526Z</time></trkpt><trkpt lat="39.4855317" lon="9.2320783"><ele>602.0</ele><time>2026-04-26T09:31:16.526Z</time></trkpt><trkpt lat="39.4854883" lon="9.2318533"><ele>598.6666666666666</ele><time>2026-04-26T09:31:17.526Z</time></trkpt><trkpt lat="39.4853917" lon="9.231655"><ele>595.3333333333334</ele><time>2026-04-26T09:31:18.525Z</time></trkpt><trkpt lat="39.48526" lon="9.23147"><ele>592.0</ele><time>2026-04-26T09:31:19.525Z</time></trkpt><trkpt lat="39.4851033" lon="9.2312667"><ele>592.0</ele><time>2026-04-26T09:31:20.525Z</time></trkpt><trkpt lat="39.4849683" lon="9.23104"><ele>592.0</ele><time>2026-04-26T09:31:21.525Z</time></trkpt><trkpt lat="39.4848383" lon="9.2308217"><ele>592.0</ele><time>2026-04-26T09:31:22.526Z</time></trkpt><trkpt lat="39.4847" lon="9.2306417"><ele>587.6666666666667</ele><time>2026-04-26T09:31:23.526Z</time></trkpt><trkpt lat="39.48456" lon="9.2305017"><ele>583.3333333333334</ele><time>2026-04-26T09:31:24.525Z</time></trkpt><trkpt lat="39.48443" lon="9.2303767"><ele>579.0</ele><time>2026-04-26T09:31:25.526Z</time></trkpt><trkpt lat="39.4843167" lon="9.230215"><ele>579.0</ele><time>2026-04-26T09:31:26.526Z</time></trkpt><trkpt lat="39.484235" lon="9.2300167"><ele>579.0</ele><time>2026-04-26T09:31:27.526Z</time></trkpt><trkpt lat="39.4841683" lon="9.229805"><ele>579.0</ele><time>2026-04-26T09:31:28.526Z</time></trkpt><trkpt lat="39.4841183" lon="9.2296017"><ele>579.0</ele><time>2026-04-26T09:31:29.525Z</time></trkpt><trkpt lat="39.4841017" lon="9.229365"><ele>579.0</ele><time>2026-04-26T09:31:30.526Z</time></trkpt><trkpt lat="39.4840767" lon="9.229125"><ele>579.0</ele><time>2026-04-26T09:31:31.525Z</time></trkpt><trkpt lat="39.4840483" lon="9.2289133"><ele>577.75</ele><time>2026-04-26T09:31:32.525Z</time></trkpt><trkpt lat="39.4840133" lon="9.228735"><ele>576.5</ele><time>2026-04-26T09:31:33.526Z</time></trkpt><trkpt lat="39.4839917" lon="9.2285717"><ele>575.25</ele><time>2026-04-26T09:31:34.525Z</time></trkpt><trkpt lat="39.4840033" lon="9.228405"><ele>574.0</ele><time>2026-04-26T09:31:35.525Z</time></trkpt><trkpt lat="39.4840417" lon="9.228225"><ele>565.6666666666667</ele><time>2026-04-26T09:31:36.525Z</time></trkpt><trkpt lat="39.4841267" lon="9.22808"><ele>557.3333333333334</ele><time>2026-04-26T09:31:37.525Z</time></trkpt><trkpt lat="39.48425" lon="9.2279567"><ele>549.0</ele><time>2026-04-26T09:31:38.525Z</time></trkpt><trkpt lat="39.4843917" lon="9.2278467"><ele>549.0</ele><time>2026-04-26T09:31:39.525Z</time></trkpt><trkpt lat="39.4845517" lon="9.2277317"><ele>549.0</ele><time>2026-04-26T09:31:40.525Z</time></trkpt><trkpt lat="39.48471" lon="9.2275733"><ele>549.0</ele><time>2026-04-26T09:31:41.526Z</time></trkpt><trkpt lat="39.484855" lon="9.2273933"><ele>548.6666666666666</ele><time>2026-04-26T09:31:42.525Z</time></trkpt><trkpt lat="39.4849817" lon="9.2272"><ele>548.3333333333333</ele><time>2026-04-26T09:31:43.525Z</time></trkpt><trkpt lat="39.485105" lon="9.2270067"><ele>548.0</ele><time>2026-04-26T09:31:44.525Z</time></trkpt><trkpt lat="39.4852333" lon="9.2268317"><ele>548.0</ele><time>2026-04-26T09:31:45.525Z</time></trkpt><trkpt lat="39.4853783" lon="9.2266767"><ele>548.0</ele><time>2026-04-26T09:31:46.525Z</time></trkpt><trkpt lat="39.485515" lon="9.226505"><ele>548.0</ele><time>2026-04-26T09:31:47.525Z</time></trkpt><trkpt lat="39.48562" lon="9.22629"><ele>549.0</ele><time>2026-04-26T09:31:48.525Z</time></trkpt><trkpt lat="39.485695" lon="9.22606"><ele>550.0</ele><time>2026-04-26T09:31:49.525Z</time></trkpt><trkpt lat="39.48574" lon="9.22583"><ele>551.0</ele><time>2026-04-26T09:31:50.525Z</time></trkpt><trkpt lat="39.485765" lon="9.225585"><ele>551.0</ele><time>2026-04-26T09:31:51.526Z</time></trkpt><trkpt lat="39.4858033" lon="9.2253583"><ele>551.0</ele><time>2026-04-26T09:31:52.526Z</time></trkpt><trkpt lat="39.485865" lon="9.22516"><ele>551.0</ele><time>2026-04-26T09:31:53.526Z</time></trkpt><trkpt lat="39.4859617" lon="9.2249867"><ele>550.6666666666666</ele><time>2026-04-26T09:31:54.525Z</time></trkpt><trkpt lat="39.48606" lon="9.2248033"><ele>550.3333333333334</ele><time>2026-04-26T09:31:55.525Z</time></trkpt><trkpt lat="39.48613" lon="9.2246"><ele>550.0</ele><time>2026-04-26T09:31:56.525Z</time></trkpt><trkpt lat="39.486195" lon="9.224375"><ele>550.0</ele><time>2026-04-26T09:31:57.525Z</time></trkpt><trkpt lat="39.4862417" lon="9.2241267"><ele>550.0</ele><time>2026-04-26T09:31:58.525Z</time></trkpt><trkpt lat="39.4862917" lon="9.2238617"><ele>550.0</ele><time>2026-04-26T09:31:59.526Z</time></trkpt><trkpt lat="39.4863233" lon="9.2236233"><ele>543.3333333333334</ele><time>2026-04-26T09:32:00.525Z</time></trkpt><trkpt lat="39.48636" lon="9.22341"><ele>536.6666666666666</ele><time>2026-04-26T09:32:01.526Z</time></trkpt><trkpt lat="39.4863717" lon="9.2232117"><ele>530.0</ele><time>2026-04-26T09:32:02.525Z</time></trkpt><trkpt lat="39.4863467" lon="9.2229983"><ele>528.0</ele><time>2026-04-26T09:32:03.525Z</time></trkpt><trkpt lat="39.486285" lon="9.2227933"><ele>526.0</ele><time>2026-04-26T09:32:04.526Z</time></trkpt><trkpt lat="39.4861933" lon="9.222635"><ele>524.0</ele><time>2026-04-26T09:32:05.526Z</time></trkpt><trkpt lat="39.48609" lon="9.2225283"><ele>527.5</ele><time>2026-04-26T09:32:06.526Z</time></trkpt><trkpt lat="39.4859683" lon="9.2224583"><ele>531.0</ele><time>2026-04-26T09:32:07.525Z</time></trkpt><trkpt lat="39.4858283" lon="9.2224367"><ele>534.5</ele><time>2026-04-26T09:32:08.526Z</time></trkpt><trkpt lat="39.4857017" lon="9.2224067"><ele>538.0</ele><time>2026-04-26T09:32:09.526Z</time></trkpt><trkpt lat="39.485575" lon="9.222355"><ele>537.0</ele><time>2026-04-26T09:32:10.525Z</time></trkpt><trkpt lat="39.4854633" lon="9.2222667"><ele>536.0</ele><time>2026-04-26T09:32:11.526Z</time></trkpt><trkpt lat="39.4853717" lon="9.22214"><ele>535.0</ele><time>2026-04-26T09:32:12.526Z</time></trkpt><trkpt lat="39.4853183" lon="9.2219833"><ele>534.0</ele><time>2026-04-26T09:32:13.526Z</time></trkpt><trkpt lat="39.4853083" lon="9.2218033"><ele>534.0</ele><time>2026-04-26T09:32:14.525Z</time></trkpt><trkpt lat="39.4853483" lon="9.2216"><ele>534.0</ele><time>2026-04-26T09:32:15.525Z</time></trkpt><trkpt lat="39.4854117" lon="9.2214133"><ele>534.0</ele><time>2026-04-26T09:32:16.526Z</time></trkpt><trkpt lat="39.48552" lon="9.22124"><ele>534.3333333333334</ele><time>2026-04-26T09:32:17.526Z</time></trkpt><trkpt lat="39.4856567" lon="9.2210883"><ele>534.6666666666667</ele><time>2026-04-26T09:32:18.526Z</time></trkpt><trkpt lat="39.485795" lon="9.2209283"><ele>535.0</ele><time>2026-04-26T09:32:19.526Z</time></trkpt><trkpt lat="39.4859217" lon="9.2207517"><ele>540.0</ele><time>2026-04-26T09:32:20.526Z</time></trkpt><trkpt lat="39.48603" lon="9.22054"><ele>545.0</ele><time>2026-04-26T09:32:21.525Z</time></trkpt><trkpt lat="39.4861117" lon="9.220305"><ele>550.0</ele><time>2026-04-26T09:32:22.525Z</time></trkpt><trkpt lat="39.486195" lon="9.2200633"><ele>547.6666666666667</ele><time>2026-04-26T09:32:23.525Z</time></trkpt><trkpt lat="39.4862733" lon="9.21982"><ele>545.3333333333334</ele><time>2026-04-26T09:32:24.526Z</time></trkpt><trkpt lat="39.4863617" lon="9.2196017"><ele>543.0</ele><time>2026-04-26T09:32:25.526Z</time></trkpt><trkpt lat="39.4864767" lon="9.2194033"><ele>543.0</ele><time>2026-04-26T09:32:26.525Z</time></trkpt><trkpt lat="39.4866217" lon="9.2192583"><ele>543.0</ele><time>2026-04-26T09:32:27.526Z</time></trkpt><trkpt lat="39.486785" lon="9.219165"><ele>543.0</ele><time>2026-04-26T09:32:28.525Z</time></trkpt><trkpt lat="39.4869533" lon="9.2190933"><ele>542.3333333333334</ele><time>2026-04-26T09:32:29.525Z</time></trkpt><trkpt lat="39.4871117" lon="9.2190017"><ele>541.6666666666667</ele><time>2026-04-26T09:32:30.526Z</time></trkpt><trkpt lat="39.487245" lon="9.2188733"><ele>541.0</ele><time>2026-04-26T09:32:31.526Z</time></trkpt><trkpt lat="39.4873667" lon="9.2186967"><ele>541.0</ele><time>2026-04-26T09:32:32.525Z</time></trkpt><trkpt lat="39.487475" lon="9.2185167"><ele>541.0</ele><time>2026-04-26T09:32:33.525Z</time></trkpt><trkpt lat="39.487575" lon="9.21834"><ele>541.0</ele><time>2026-04-26T09:32:34.525Z</time></trkpt><trkpt lat="39.487645" lon="9.21817"><ele>542.0</ele><time>2026-04-26T09:32:35.526Z</time></trkpt><trkpt lat="39.4876783" lon="9.2179933"><ele>543.0</ele><time>2026-04-26T09:32:36.526Z</time></trkpt><trkpt lat="39.4876667" lon="9.21778"><ele>544.0</ele><time>2026-04-26T09:32:37.525Z</time></trkpt><trkpt lat="39.4876333" lon="9.217545"><ele>542.0</ele><time>2026-04-26T09:32:38.525Z</time></trkpt><trkpt lat="39.4875967" lon="9.21729"><ele>540.0</ele><time>2026-04-26T09:32:39.525Z</time></trkpt><trkpt lat="39.4875533" lon="9.2170167"><ele>538.0</ele><time>2026-04-26T09:32:40.526Z</time></trkpt><trkpt lat="39.4875133" lon="9.2167333"><ele>537.0</ele><time>2026-04-26T09:32:41.525Z</time></trkpt><trkpt lat="39.4874567" lon="9.21645"><ele>536.0</ele><time>2026-04-26T09:32:42.525Z</time></trkpt><trkpt lat="39.4873933" lon="9.2161833"><ele>535.0</ele><time>2026-04-26T09:32:43.525Z</time></trkpt><trkpt lat="39.4873267" lon="9.2159283"><ele>535.0</ele><time>2026-04-26T09:32:44.525Z</time></trkpt><trkpt lat="39.4872733" lon="9.21567"><ele>535.0</ele><time>2026-04-26T09:32:45.525Z</time></trkpt><trkpt lat="39.4872233" lon="9.2154167"><ele>535.0</ele><time>2026-04-26T09:32:46.526Z</time></trkpt><trkpt lat="39.4871933" lon="9.2151567"><ele>534.0</ele><time>2026-04-26T09:32:47.525Z</time></trkpt><trkpt lat="39.487185" lon="9.21489"><ele>533.0</ele><time>2026-04-26T09:32:48.525Z</time></trkpt><trkpt lat="39.4871817" lon="9.2146267"><ele>532.0</ele><time>2026-04-26T09:32:49.525Z</time></trkpt><trkpt lat="39.4871533" lon="9.2143867"><ele>529.6666666666667</ele><time>2026-04-26T09:32:50.526Z</time></trkpt><trkpt lat="39.4870917" lon="9.214175"><ele>527.3333333333334</ele><time>2026-04-26T09:32:51.525Z</time></trkpt><trkpt lat="39.4869983" lon="9.2139817"><ele>525.0</ele><time>2026-04-26T09:32:52.526Z</time></trkpt><trkpt lat="39.4869067" lon="9.21379"><ele>523.6666666666666</ele><time>2026-04-26T09:32:53.526Z</time></trkpt><trkpt lat="39.4868483" lon="9.2135883"><ele>522.3333333333333</ele><time>2026-04-26T09:32:54.525Z</time></trkpt><trkpt lat="39.4868217" lon="9.2133367"><ele>521.0</ele><time>2026-04-26T09:32:55.525Z</time></trkpt><trkpt lat="39.4868267" lon="9.2130567"><ele>519.3333333333333</ele><time>2026-04-26T09:32:56.526Z</time></trkpt><trkpt lat="39.48683" lon="9.21277"><ele>517.6666666666666</ele><time>2026-04-26T09:32:57.526Z</time></trkpt><trkpt lat="39.4868317" lon="9.212495"><ele>516.0</ele><time>2026-04-26T09:32:58.525Z</time></trkpt><trkpt lat="39.4868217" lon="9.2122333"><ele>514.3333333333334</ele><time>2026-04-26T09:32:59.526Z</time></trkpt><trkpt lat="39.4867917" lon="9.211985"><ele>512.6666666666667</ele><time>2026-04-26T09:33:00.526Z</time></trkpt><trkpt lat="39.4867283" lon="9.2117583"><ele>511.0</ele><time>2026-04-26T09:33:01.525Z</time></trkpt><trkpt lat="39.4866417" lon="9.211535"><ele>509.33333333333337</ele><time>2026-04-26T09:33:02.525Z</time></trkpt><trkpt lat="39.4865617" lon="9.2113017"><ele>507.66666666666663</ele><time>2026-04-26T09:33:03.526Z</time></trkpt><trkpt lat="39.486495" lon="9.2110667"><ele>506.0</ele><time>2026-04-26T09:33:04.526Z</time></trkpt><trkpt lat="39.48646" lon="9.2108167"><ele>504.66666666666663</ele><time>2026-04-26T09:33:05.525Z</time></trkpt><trkpt lat="39.4864583" lon="9.2105633"><ele>503.33333333333337</ele><time>2026-04-26T09:33:06.525Z</time></trkpt><trkpt lat="39.4864817" lon="9.2102967"><ele>502.0</ele><time>2026-04-26T09:33:07.525Z</time></trkpt><trkpt lat="39.48653" lon="9.2100333"><ele>499.0</ele><time>2026-04-26T09:33:08.526Z</time></trkpt><trkpt lat="39.4865833" lon="9.2097767"><ele>496.0</ele><time>2026-04-26T09:33:09.525Z</time></trkpt><trkpt lat="39.48662" lon="9.2095317"><ele>493.0</ele><time>2026-04-26T09:33:10.526Z</time></trkpt><trkpt lat="39.4866467" lon="9.2093133"><ele>493.0</ele><time>2026-04-26T09:33:11.526Z</time></trkpt><trkpt lat="39.4866867" lon="9.2091283"><ele>493.0</ele><time>2026-04-26T09:33:12.525Z</time></trkpt><trkpt lat="39.48677" lon="9.20899"><ele>493.0</ele><time>2026-04-26T09:33:13.526Z</time></trkpt><trkpt lat="39.4868783" lon="9.2089083"><ele>493.0</ele><time>2026-04-26T09:33:14.525Z</time></trkpt><trkpt lat="39.4870167" lon="9.20889"><ele>492.6666666666667</ele><time>2026-04-26T09:33:15.525Z</time></trkpt><trkpt lat="39.4871733" lon="9.2089433"><ele>492.33333333333337</ele><time>2026-04-26T09:33:16.526Z</time></trkpt><trkpt lat="39.487335" lon="9.2090233"><ele>492.0</ele><time>2026-04-26T09:33:17.526Z</time></trkpt><trkpt lat="39.4874817" lon="9.2091"><ele>492.0</ele><time>2026-04-26T09:33:18.525Z</time></trkpt><trkpt lat="39.4876017" lon="9.2091517"><ele>492.0</ele><time>2026-04-26T09:33:19.526Z</time></trkpt><trkpt lat="39.4877267" lon="9.209165"><ele>492.0</ele><time>2026-04-26T09:33:20.526Z</time></trkpt><trkpt lat="39.4878333" lon="9.209115"><ele>492.0</ele><time>2026-04-26T09:33:21.526Z</time></trkpt><trkpt lat="39.4879183" lon="9.2089967"><ele>491.25</ele><time>2026-04-26T09:33:22.525Z</time></trkpt><trkpt lat="39.48797" lon="9.2088367"><ele>490.5</ele><time>2026-04-26T09:33:23.526Z</time></trkpt><trkpt lat="39.4880033" lon="9.20865"><ele>489.75</ele><time>2026-04-26T09:33:24.526Z</time></trkpt><trkpt lat="39.4880317" lon="9.2084417"><ele>489.0</ele><time>2026-04-26T09:33:25.525Z</time></trkpt><trkpt lat="39.488065" lon="9.20822"><ele>486.0</ele><time>2026-04-26T09:33:26.526Z</time></trkpt><trkpt lat="39.4881017" lon="9.2079783"><ele>483.0</ele><time>2026-04-26T09:33:27.526Z</time></trkpt><trkpt lat="39.4881333" lon="9.207725"><ele>480.0</ele><time>2026-04-26T09:33:28.526Z</time></trkpt><trkpt lat="39.488145" lon="9.2074717"><ele>477.0</ele><time>2026-04-26T09:33:29.525Z</time></trkpt><trkpt lat="39.4881383" lon="9.207245"><ele>474.0</ele><time>2026-04-26T09:33:30.526Z</time></trkpt><trkpt lat="39.4881383" lon="9.2070383"><ele>471.0</ele><time>2026-04-26T09:33:31.525Z</time></trkpt><trkpt lat="39.488155" lon="9.2068433"><ele>471.0</ele><time>2026-04-26T09:33:32.526Z</time></trkpt><trkpt lat="39.4882083" lon="9.2066783"><ele>471.0</ele><time>2026-04-26T09:33:33.526Z</time></trkpt><trkpt lat="39.48831" lon="9.2065283"><ele>471.0</ele><time>2026-04-26T09:33:34.525Z</time></trkpt><trkpt lat="39.4884467" lon="9.2063817"><ele>471.33333333333337</ele><time>2026-04-26T09:33:35.525Z</time></trkpt><trkpt lat="39.4886017" lon="9.2062217"><ele>471.6666666666667</ele><time>2026-04-26T09:33:36.525Z</time></trkpt><trkpt lat="39.488745" lon="9.2060283"><ele>472.0</ele><time>2026-04-26T09:33:37.525Z</time></trkpt><trkpt lat="39.488865" lon="9.205805"><ele>469.0</ele><time>2026-04-26T09:33:38.526Z</time></trkpt><trkpt lat="39.4889633" lon="9.2055633"><ele>466.0</ele><time>2026-04-26T09:33:39.525Z</time></trkpt><trkpt lat="39.48904" lon="9.2053317"><ele>463.0</ele><time>2026-04-26T09:33:40.526Z</time></trkpt><trkpt lat="39.4891167" lon="9.205125"><ele>463.0</ele><time>2026-04-26T09:33:41.526Z</time></trkpt><trkpt lat="39.4892183" lon="9.20494"><ele>463.0</ele><time>2026-04-26T09:33:42.525Z</time></trkpt><trkpt lat="39.489335" lon="9.2047667"><ele>463.0</ele><time>2026-04-26T09:33:43.526Z</time></trkpt><trkpt lat="39.4894767" lon="9.2046117"><ele>460.6666666666667</ele><time>2026-04-26T09:33:44.525Z</time></trkpt><trkpt lat="39.4896333" lon="9.2044867"><ele>458.33333333333337</ele><time>2026-04-26T09:33:45.526Z</time></trkpt><trkpt lat="39.4897933" lon="9.2043967"><ele>456.0</ele><time>2026-04-26T09:33:46.526Z</time></trkpt><trkpt lat="39.489945" lon="9.2042883"><ele>456.0</ele><time>2026-04-26T09:33:47.525Z</time></trkpt><trkpt lat="39.490075" lon="9.204135"><ele>456.0</ele><time>2026-04-26T09:33:48.525Z</time></trkpt><trkpt lat="39.4901683" lon="9.20392"><ele>456.0</ele><time>2026-04-26T09:33:49.526Z</time></trkpt><trkpt lat="39.490255" lon="9.2036633"><ele>455.0</ele><time>2026-04-26T09:33:50.525Z</time></trkpt><trkpt lat="39.4903317" lon="9.2033933"><ele>454.0</ele><time>2026-04-26T09:33:51.525Z</time></trkpt><trkpt lat="39.4904183" lon="9.2031383"><ele>453.0</ele><time>2026-04-26T09:33:52.526Z</time></trkpt><trkpt lat="39.4904783" lon="9.2028983"><ele>453.0</ele><time>2026-04-26T09:33:53.526Z</time></trkpt><trkpt lat="39.4905083" lon="9.2026583"><ele>453.0</ele><time>2026-04-26T09:33:54.526Z</time></trkpt><trkpt lat="39.4905083" lon="9.2023983"><ele>453.0</ele><time>2026-04-26T09:33:55.525Z</time></trkpt><trkpt lat="39.4904967" lon="9.2021717"><ele>450.66666666666663</ele><time>2026-04-26T09:33:56.525Z</time></trkpt><trkpt lat="39.49048" lon="9.2019617"><ele>448.3333333333333</ele><time>2026-04-26T09:33:57.526Z</time></trkpt><trkpt lat="39.4904917" lon="9.2017367"><ele>446.0</ele><time>2026-04-26T09:33:58.526Z</time></trkpt><trkpt lat="39.4905467" lon="9.201485"><ele>443.66666666666663</ele><time>2026-04-26T09:33:59.526Z</time></trkpt><trkpt lat="39.4906283" lon="9.201235"><ele>441.33333333333337</ele><time>2026-04-26T09:34:00.525Z</time></trkpt><trkpt lat="39.4906917" lon="9.2009867"><ele>439.0</ele><time>2026-04-26T09:34:01.525Z</time></trkpt><trkpt lat="39.49072" lon="9.2007017"><ele>436.5</ele><time>2026-04-26T09:34:02.526Z</time></trkpt><trkpt lat="39.490735" lon="9.200395"><ele>434.0</ele><time>2026-04-26T09:34:03.526Z</time></trkpt><trkpt lat="39.4907433" lon="9.2001083"><ele>434.0</ele><time>2026-04-26T09:34:04.526Z</time></trkpt><trkpt lat="39.4907233" lon="9.1998517"><ele>434.0</ele><time>2026-04-26T09:34:05.525Z</time></trkpt><trkpt lat="39.4906917" lon="9.1995783"><ele>434.0</ele><time>2026-04-26T09:34:06.525Z</time></trkpt><trkpt lat="39.4906283" lon="9.1993133"><ele>433.0</ele><time>2026-04-26T09:34:07.525Z</time></trkpt><trkpt lat="39.4905583" lon="9.1990717"><ele>432.0</ele><time>2026-04-26T09:34:08.525Z</time></trkpt><trkpt lat="39.490495" lon="9.1988483"><ele>431.0</ele><time>2026-04-26T09:34:09.526Z</time></trkpt><trkpt lat="39.49044" lon="9.1986367"><ele>425.3333333333333</ele><time>2026-04-26T09:34:10.525Z</time></trkpt><trkpt lat="39.4903833" lon="9.1984467"><ele>419.66666666666663</ele><time>2026-04-26T09:34:11.526Z</time></trkpt><trkpt lat="39.4903783" lon="9.19822"><ele>414.0</ele><time>2026-04-26T09:34:12.525Z</time></trkpt><trkpt lat="39.4904017" lon="9.1979567"><ele>417.0</ele><time>2026-04-26T09:34:13.526Z</time></trkpt><trkpt lat="39.4904433" lon="9.1977117"><ele>420.0</ele><time>2026-04-26T09:34:14.525Z</time></trkpt><trkpt lat="39.4904867" lon="9.1975067"><ele>423.0</ele><time>2026-04-26T09:34:15.526Z</time></trkpt><trkpt lat="39.490555" lon="9.19734"><ele>421.25</ele><time>2026-04-26T09:34:16.525Z</time></trkpt><trkpt lat="39.4906467" lon="9.1971967"><ele>419.5</ele><time>2026-04-26T09:34:17.526Z</time></trkpt><trkpt lat="39.4907467" lon="9.1970517"><ele>417.75</ele><time>2026-04-26T09:34:18.525Z</time></trkpt><trkpt lat="39.4908233" lon="9.1968967"><ele>416.0</ele><time>2026-04-26T09:34:19.525Z</time></trkpt><trkpt lat="39.4908633" lon="9.1967167"><ele>416.0</ele><time>2026-04-26T09:34:20.525Z</time></trkpt><trkpt lat="39.490845" lon="9.1965183"><ele>416.0</ele><time>2026-04-26T09:34:21.526Z</time></trkpt><trkpt lat="39.4907833" lon="9.196315"><ele>416.0</ele><time>2026-04-26T09:34:22.526Z</time></trkpt><trkpt lat="39.490725" lon="9.1960783"><ele>415.3333333333333</ele><time>2026-04-26T09:34:23.525Z</time></trkpt><trkpt lat="39.4906733" lon="9.195825"><ele>414.66666666666663</ele><time>2026-04-26T09:34:24.526Z</time></trkpt><trkpt lat="39.4906283" lon="9.1955683"><ele>414.0</ele><time>2026-04-26T09:34:25.526Z</time></trkpt><trkpt lat="39.4906" lon="9.1953083"><ele>413.0</ele><time>2026-04-26T09:34:26.525Z</time></trkpt><trkpt lat="39.4905933" lon="9.195055"><ele>412.0</ele><time>2026-04-26T09:34:27.525Z</time></trkpt><trkpt lat="39.4906" lon="9.194815"><ele>411.0</ele><time>2026-04-26T09:34:28.526Z</time></trkpt><trkpt lat="39.490625" lon="9.194595"><ele>408.0</ele><time>2026-04-26T09:34:29.526Z</time></trkpt><trkpt lat="39.49068" lon="9.1944"><ele>405.0</ele><time>2026-04-26T09:34:30.525Z</time></trkpt><trkpt lat="39.4907617" lon="9.1942167"><ele>402.0</ele><time>2026-04-26T09:34:31.526Z</time></trkpt><trkpt lat="39.4908617" lon="9.1940583"><ele>398.0</ele><time>2026-04-26T09:34:32.526Z</time></trkpt><trkpt lat="39.4909617" lon="9.1939"><ele>394.0</ele><time>2026-04-26T09:34:33.525Z</time></trkpt><trkpt lat="39.4910683" lon="9.1937483"><ele>390.0</ele><time>2026-04-26T09:34:34.526Z</time></trkpt><trkpt lat="39.4911933" lon="9.1936133"><ele>389.75</ele><time>2026-04-26T09:34:35.525Z</time></trkpt><trkpt lat="39.49133" lon="9.1935367"><ele>389.5</ele><time>2026-04-26T09:34:36.526Z</time></trkpt><trkpt lat="39.49147" lon="9.1935"><ele>389.25</ele><time>2026-04-26T09:34:37.525Z</time></trkpt><trkpt lat="39.491625" lon="9.1935033"><ele>389.0</ele><time>2026-04-26T09:34:38.526Z</time></trkpt><trkpt lat="39.4917883" lon="9.1935367"><ele>389.0</ele><time>2026-04-26T09:34:39.525Z</time></trkpt><trkpt lat="39.49195" lon="9.19357"><ele>389.0</ele><time>2026-04-26T09:34:40.525Z</time></trkpt><trkpt lat="39.4921083" lon="9.1936183"><ele>389.0</ele><time>2026-04-26T09:34:41.525Z</time></trkpt><trkpt lat="39.4922467" lon="9.193665"><ele>387.2</ele><time>2026-04-26T09:34:42.525Z</time></trkpt><trkpt lat="39.4923617" lon="9.19371"><ele>385.4</ele><time>2026-04-26T09:34:43.526Z</time></trkpt><trkpt lat="39.49246" lon="9.1937183"><ele>383.6</ele><time>2026-04-26T09:34:44.525Z</time></trkpt><trkpt lat="39.4925467" lon="9.1936817"><ele>381.8</ele><time>2026-04-26T09:34:45.525Z</time></trkpt><trkpt lat="39.4925933" lon="9.1936"><ele>380.0</ele><time>2026-04-26T09:34:46.526Z</time></trkpt><trkpt lat="39.4925933" lon="9.1935"><ele>380.0</ele><time>2026-04-26T09:34:47.525Z</time></trkpt><trkpt lat="39.4925467" lon="9.1934267"><ele>380.0</ele><time>2026-04-26T09:34:48.526Z</time></trkpt><trkpt lat="39.492465" lon="9.1933783"><ele>380.0</ele><time>2026-04-26T09:34:49.526Z</time></trkpt><trkpt lat="39.4923567" lon="9.1933633"><ele>380.0</ele><time>2026-04-26T09:34:50.526Z</time></trkpt><trkpt lat="39.4922267" lon="9.193345"><ele>380.0</ele><time>2026-04-26T09:34:51.525Z</time></trkpt><trkpt lat="39.492075" lon="9.1932933"><ele>378.6666666666667</ele><time>2026-04-26T09:34:52.525Z</time></trkpt><trkpt lat="39.491915" lon="9.1932133"><ele>377.3333333333333</ele><time>2026-04-26T09:34:53.525Z</time></trkpt><trkpt lat="39.4917533" lon="9.193115"><ele>376.0</ele><time>2026-04-26T09:34:54.526Z</time></trkpt><trkpt lat="39.4915967" lon="9.1930233"><ele>376.0</ele><time>2026-04-26T09:34:55.526Z</time></trkpt><trkpt lat="39.49147" lon="9.1929433"><ele>376.0</ele><time>2026-04-26T09:34:56.526Z</time></trkpt><trkpt lat="39.4913567" lon="9.1928467"><ele>376.0</ele><time>2026-04-26T09:34:57.525Z</time></trkpt><trkpt lat="39.4912817" lon="9.1927083"><ele>376.0</ele><time>2026-04-26T09:34:58.526Z</time></trkpt><trkpt lat="39.49125" lon="9.1925117"><ele>375.66666666666663</ele><time>2026-04-26T09:34:59.525Z</time></trkpt><trkpt lat="39.4912383" lon="9.1922983"><ele>375.3333333333333</ele><time>2026-04-26T09:35:00.526Z</time></trkpt><trkpt lat="39.491225" lon="9.1920583"><ele>375.0</ele><time>2026-04-26T09:35:01.526Z</time></trkpt><trkpt lat="39.491195" lon="9.1918133"><ele>375.0</ele><time>2026-04-26T09:35:02.526Z</time></trkpt><trkpt lat="39.49114" lon="9.19157"><ele>375.0</ele><time>2026-04-26T09:35:03.525Z</time></trkpt><trkpt lat="39.4910617" lon="9.1913517"><ele>375.0</ele><time>2026-04-26T09:35:04.525Z</time></trkpt><trkpt lat="39.4909467" lon="9.1911683"><ele>374.3333333333333</ele><time>2026-04-26T09:35:05.525Z</time></trkpt><trkpt lat="39.4908" lon="9.1910333"><ele>373.66666666666663</ele><time>2026-04-26T09:35:06.526Z</time></trkpt><trkpt lat="39.4906417" lon="9.1909383"><ele>373.0</ele><time>2026-04-26T09:35:07.525Z</time></trkpt><trkpt lat="39.490475" lon="9.19087"><ele>370.3333333333333</ele><time>2026-04-26T09:35:08.525Z</time></trkpt><trkpt lat="39.4903167" lon="9.1907883"><ele>367.6666666666667</ele><time>2026-04-26T09:35:09.526Z</time></trkpt><trkpt lat="39.49017" lon="9.190665"><ele>365.0</ele><time>2026-04-26T09:35:10.525Z</time></trkpt><trkpt lat="39.4900433" lon="9.1905"><ele>365.0</ele><time>2026-04-26T09:35:11.525Z</time></trkpt><trkpt lat="39.4899317" lon="9.1903117"><ele>365.0</ele><time>2026-04-26T09:35:12.525Z</time></trkpt><trkpt lat="39.4898533" lon="9.1901"><ele>365.0</ele><time>2026-04-26T09:35:13.526Z</time></trkpt><trkpt lat="39.4897883" lon="9.1898633"><ele>364.33333333333337</ele><time>2026-04-26T09:35:14.525Z</time></trkpt><trkpt lat="39.4897233" lon="9.1896217"><ele>363.6666666666667</ele><time>2026-04-26T09:35:15.525Z</time></trkpt><trkpt lat="39.4896583" lon="9.1893767"><ele>363.0</ele><time>2026-04-26T09:35:16.526Z</time></trkpt><trkpt lat="39.4895967" lon="9.1891167"><ele>359.0</ele><time>2026-04-26T09:35:17.525Z</time></trkpt><trkpt lat="39.4895383" lon="9.18886"><ele>355.0</ele><time>2026-04-26T09:35:18.525Z</time></trkpt><trkpt lat="39.4894767" lon="9.1886033"><ele>351.0</ele><time>2026-04-26T09:35:19.525Z</time></trkpt><trkpt lat="39.4893967" lon="9.1883567"><ele>350.3333333333333</ele><time>2026-04-26T09:35:20.525Z</time></trkpt><trkpt lat="39.4892833" lon="9.1881317"><ele>349.66666666666663</ele><time>2026-04-26T09:35:21.525Z</time></trkpt><trkpt lat="39.4891467" lon="9.1879217"><ele>349.0</ele><time>2026-04-26T09:35:22.525Z</time></trkpt><trkpt lat="39.4889933" lon="9.1877067"><ele>349.0</ele><time>2026-04-26T09:35:23.525Z</time></trkpt><trkpt lat="39.48882" lon="9.1874833"><ele>349.0</ele><time>2026-04-26T09:35:24.526Z</time></trkpt><trkpt lat="39.48864" lon="9.18726"><ele>346.0</ele><time>2026-04-26T09:35:25.525Z</time></trkpt><trkpt lat="39.4884533" lon="9.1870317"><ele>343.0</ele><time>2026-04-26T09:35:26.525Z</time></trkpt><trkpt lat="39.4882783" lon="9.1867983"><ele>343.0</ele><time>2026-04-26T09:35:27.525Z</time></trkpt><trkpt lat="39.4880983" lon="9.186565"><ele>343.0</ele><time>2026-04-26T09:35:28.526Z</time></trkpt><trkpt lat="39.487915" lon="9.1863317"><ele>339.5</ele><time>2026-04-26T09:35:29.526Z</time></trkpt><trkpt lat="39.4877267" lon="9.1861"><ele>336.0</ele><time>2026-04-26T09:35:30.525Z</time></trkpt><trkpt lat="39.4875433" lon="9.185865"><ele>335.5</ele><time>2026-04-26T09:35:31.525Z</time></trkpt><trkpt lat="39.4873667" lon="9.1856317"><ele>335.0</ele><time>2026-04-26T09:35:32.526Z</time></trkpt><trkpt lat="39.4871833" lon="9.1853933"><ele>334.0</ele><time>2026-04-26T09:35:33.525Z</time></trkpt><trkpt lat="39.4869983" lon="9.1851683"><ele>333.0</ele><time>2026-04-26T09:35:34.526Z</time></trkpt><trkpt lat="39.4868183" lon="9.184925"><ele>331.0</ele><time>2026-04-26T09:35:35.526Z</time></trkpt><trkpt lat="39.4866233" lon="9.18468"><ele>329.0</ele><time>2026-04-26T09:35:36.526Z</time></trkpt><trkpt lat="39.4864267" lon="9.18443"><ele>329.0</ele><time>2026-04-26T09:35:37.526Z</time></trkpt><trkpt lat="39.4862367" lon="9.1841783"><ele>329.0</ele><time>2026-04-26T09:35:38.526Z</time></trkpt><trkpt lat="39.4860433" lon="9.1839367"><ele>328.0</ele><time>2026-04-26T09:35:39.525Z</time></trkpt><trkpt lat="39.48585" lon="9.1836967"><ele>327.0</ele><time>2026-04-26T09:35:40.526Z</time></trkpt><trkpt lat="39.4856567" lon="9.183455"><ele>327.0</ele><time>2026-04-26T09:35:41.526Z</time></trkpt><trkpt lat="39.4854733" lon="9.1832117"><ele>327.0</ele><time>2026-04-26T09:35:42.526Z</time></trkpt><trkpt lat="39.4853" lon="9.1829733"><ele>327.0</ele><time>2026-04-26T09:35:43.526Z</time></trkpt><trkpt lat="39.4851117" lon="9.182745"><ele>327.0</ele><time>2026-04-26T09:35:44.526Z</time></trkpt><trkpt lat="39.4849367" lon="9.1825233"><ele>327.0</ele><time>2026-04-26T09:35:45.526Z</time></trkpt><trkpt lat="39.4847783" lon="9.1823217"><ele>327.0</ele><time>2026-04-26T09:35:46.526Z</time></trkpt><trkpt lat="39.48464" lon="9.182155"><ele>327.0</ele><time>2026-04-26T09:35:47.525Z</time></trkpt><trkpt lat="39.4845133" lon="9.1819933"><ele>327.0</ele><time>2026-04-26T09:35:48.526Z</time></trkpt><trkpt lat="39.4843833" lon="9.18184"><ele>327.0</ele><time>2026-04-26T09:35:49.526Z</time></trkpt><trkpt lat="39.4842583" lon="9.181675"><ele>327.0</ele><time>2026-04-26T09:35:50.525Z</time></trkpt><trkpt lat="39.4841233" lon="9.1815067"><ele>326.6666666666667</ele><time>2026-04-26T09:35:51.526Z</time></trkpt><trkpt lat="39.48399" lon="9.1813383"><ele>326.33333333333337</ele><time>2026-04-26T09:35:52.526Z</time></trkpt><trkpt lat="39.4838583" lon="9.181175"><ele>326.0</ele><time>2026-04-26T09:35:53.526Z</time></trkpt><trkpt lat="39.48371" lon="9.181"><ele>325.33333333333337</ele><time>2026-04-26T09:35:54.525Z</time></trkpt><trkpt lat="39.4835567" lon="9.18081"><ele>324.6666666666667</ele><time>2026-04-26T09:35:55.526Z</time></trkpt><trkpt lat="39.4833983" lon="9.1806"><ele>324.0</ele><time>2026-04-26T09:35:56.525Z</time></trkpt><trkpt lat="39.4832333" lon="9.180375"><ele>325.5</ele><time>2026-04-26T09:35:57.525Z</time></trkpt><trkpt lat="39.48307" lon="9.18015"><ele>327.0</ele><time>2026-04-26T09:35:58.526Z</time></trkpt><trkpt lat="39.482905" lon="9.1799183"><ele>328.0</ele><time>2026-04-26T09:35:59.526Z</time></trkpt><trkpt lat="39.482735" lon="9.179695"><ele>329.0</ele><time>2026-04-26T09:36:00.525Z</time></trkpt><trkpt lat="39.48255" lon="9.1794667"><ele>329.0</ele><time>2026-04-26T09:36:01.526Z</time></trkpt><trkpt lat="39.48236" lon="9.1792517"><ele>329.0</ele><time>2026-04-26T09:36:02.526Z</time></trkpt><trkpt lat="39.4821717" lon="9.1790317"><ele>328.5</ele><time>2026-04-26T09:36:03.526Z</time></trkpt><trkpt lat="39.4819933" lon="9.178825"><ele>328.0</ele><time>2026-04-26T09:36:04.526Z</time></trkpt><trkpt lat="39.481805" lon="9.17864"><ele>328.0</ele><time>2026-04-26T09:36:05.526Z</time></trkpt><trkpt lat="39.4816233" lon="9.1784617"><ele>328.0</ele><time>2026-04-26T09:36:06.525Z</time></trkpt><trkpt lat="39.4814617" lon="9.1783017"><ele>328.0</ele><time>2026-04-26T09:36:07.526Z</time></trkpt><trkpt lat="39.4813233" lon="9.1781617"><ele>327.0</ele><time>2026-04-26T09:36:08.526Z</time></trkpt><trkpt lat="39.4811867" lon="9.1780167"><ele>326.0</ele><time>2026-04-26T09:36:09.525Z</time></trkpt><trkpt lat="39.481075" lon="9.17788"><ele>325.0</ele><time>2026-04-26T09:36:10.525Z</time></trkpt><trkpt lat="39.4809617" lon="9.177735"><ele>325.0</ele><time>2026-04-26T09:36:11.525Z</time></trkpt><trkpt lat="39.4808767" lon="9.1775783"><ele>325.0</ele><time>2026-04-26T09:36:12.526Z</time></trkpt><trkpt lat="39.480795" lon="9.1773983"><ele>325.0</ele><time>2026-04-26T09:36:13.526Z</time></trkpt><trkpt lat="39.4807" lon="9.1771833"><ele>324.3333333333333</ele><time>2026-04-26T09:36:14.526Z</time></trkpt><trkpt lat="39.4806083" lon="9.1769417"><ele>323.6666666666667</ele><time>2026-04-26T09:36:15.525Z</time></trkpt><trkpt lat="39.480525" lon="9.1767183"><ele>323.0</ele><time>2026-04-26T09:36:16.526Z</time></trkpt><trkpt lat="39.4804383" lon="9.1765117"><ele>318.6666666666667</ele><time>2026-04-26T09:36:17.525Z</time></trkpt><trkpt lat="39.480375" lon="9.1762967"><ele>314.3333333333333</ele><time>2026-04-26T09:36:18.526Z</time></trkpt><trkpt lat="39.4803467" lon="9.1760767"><ele>310.0</ele><time>2026-04-26T09:36:19.526Z</time></trkpt><trkpt lat="39.4803433" lon="9.1758583"><ele>309.0</ele><time>2026-04-26T09:36:20.526Z</time></trkpt><trkpt lat="39.480375" lon="9.1756333"><ele>308.0</ele><time>2026-04-26T09:36:21.526Z</time></trkpt><trkpt lat="39.48042" lon="9.1754133"><ele>307.0</ele><time>2026-04-26T09:36:22.525Z</time></trkpt><trkpt lat="39.480455" lon="9.1751833"><ele>309.3333333333333</ele><time>2026-04-26T09:36:23.526Z</time></trkpt><trkpt lat="39.4804683" lon="9.1749467"><ele>311.6666666666667</ele><time>2026-04-26T09:36:24.525Z</time></trkpt><trkpt lat="39.480465" lon="9.1747083"><ele>314.0</ele><time>2026-04-26T09:36:25.526Z</time></trkpt><trkpt lat="39.4804667" lon="9.1744783"><ele>314.0</ele><time>2026-04-26T09:36:26.526Z</time></trkpt><trkpt lat="39.4804567" lon="9.17425"><ele>314.0</ele><time>2026-04-26T09:36:27.526Z</time></trkpt><trkpt lat="39.4804283" lon="9.1740383"><ele>314.0</ele><time>2026-04-26T09:36:28.526Z</time></trkpt><trkpt lat="39.480365" lon="9.17385"><ele>310.33333333333337</ele><time>2026-04-26T09:36:29.526Z</time></trkpt><trkpt lat="39.4802767" lon="9.1736583"><ele>306.6666666666667</ele><time>2026-04-26T09:36:30.525Z</time></trkpt><trkpt lat="39.48018" lon="9.173465"><ele>303.0</ele><time>2026-04-26T09:36:31.526Z</time></trkpt><trkpt lat="39.4800767" lon="9.1732883"><ele>303.3333333333333</ele><time>2026-04-26T09:36:32.526Z</time></trkpt><trkpt lat="39.47997" lon="9.173115"><ele>303.66666666666663</ele><time>2026-04-26T09:36:33.526Z</time></trkpt><trkpt lat="39.47986" lon="9.1729517"><ele>304.0</ele><time>2026-04-26T09:36:34.525Z</time></trkpt><trkpt lat="39.47974" lon="9.1728117"><ele>304.0</ele><time>2026-04-26T09:36:35.526Z</time></trkpt><trkpt lat="39.4796233" lon="9.17269"><ele>304.0</ele><time>2026-04-26T09:36:36.526Z</time></trkpt><trkpt lat="39.4795217" lon="9.17258"><ele>304.0</ele><time>2026-04-26T09:36:37.525Z</time></trkpt><trkpt lat="39.4794283" lon="9.1724883"><ele>304.0</ele><time>2026-04-26T09:36:38.525Z</time></trkpt><trkpt lat="39.4793333" lon="9.1723983"><ele>302.59999999999997</ele><time>2026-04-26T09:36:39.526Z</time></trkpt><trkpt lat="39.4792433" lon="9.1722983"><ele>301.2</ele><time>2026-04-26T09:36:40.525Z</time></trkpt><trkpt lat="39.479165" lon="9.1722033"><ele>299.79999999999995</ele><time>2026-04-26T09:36:41.526Z</time></trkpt><trkpt lat="39.4790933" lon="9.1721283"><ele>298.4</ele><time>2026-04-26T09:36:42.526Z</time></trkpt><trkpt lat="39.479025" lon="9.1720667"><ele>297.0</ele><time>2026-04-26T09:36:43.525Z</time></trkpt><trkpt lat="39.47895" lon="9.172"><ele>297.0</ele><time>2026-04-26T09:36:44.525Z</time></trkpt><trkpt lat="39.4788783" lon="9.1719467"><ele>297.0</ele><time>2026-04-26T09:36:45.526Z</time></trkpt><trkpt lat="39.4788033" lon="9.171895"><ele>297.0</ele><time>2026-04-26T09:36:46.526Z</time></trkpt><trkpt lat="39.47873" lon="9.171825"><ele>297.0</ele><time>2026-04-26T09:36:47.526Z</time></trkpt><trkpt lat="39.4786333" lon="9.17175"><ele>297.0</ele><time>2026-04-26T09:36:48.526Z</time></trkpt><trkpt lat="39.47853" lon="9.1716567"><ele>296.75</ele><time>2026-04-26T09:36:49.525Z</time></trkpt><trkpt lat="39.4784283" lon="9.1715633"><ele>296.5</ele><time>2026-04-26T09:36:50.526Z</time></trkpt><trkpt lat="39.4783267" lon="9.171465"><ele>296.25</ele><time>2026-04-26T09:36:51.526Z</time></trkpt><trkpt lat="39.4782167" lon="9.17135"><ele>296.0</ele><time>2026-04-26T09:36:52.526Z</time></trkpt><trkpt lat="39.4781083" lon="9.1712383"><ele>295.5</ele><time>2026-04-26T09:36:53.525Z</time></trkpt><trkpt lat="39.478005" lon="9.17113"><ele>295.0</ele><time>2026-04-26T09:36:54.525Z</time></trkpt><trkpt lat="39.4779033" lon="9.1710433"><ele>294.5</ele><time>2026-04-26T09:36:55.526Z</time></trkpt><trkpt lat="39.4778367" lon="9.1709367"><ele>294.0</ele><time>2026-04-26T09:36:56.525Z</time></trkpt><trkpt lat="39.4777433" lon="9.17084"><ele>294.0</ele><time>2026-04-26T09:36:57.526Z</time></trkpt><trkpt lat="39.47765" lon="9.1707217"><ele>294.0</ele><time>2026-04-26T09:36:58.526Z</time></trkpt><trkpt lat="39.4775633" lon="9.1706"><ele>294.0</ele><time>2026-04-26T09:36:59.525Z</time></trkpt><trkpt lat="39.4774683" lon="9.170495"><ele>294.0</ele><time>2026-04-26T09:37:00.526Z</time></trkpt><trkpt lat="39.4773583" lon="9.1704017"><ele>293.75</ele><time>2026-04-26T09:37:01.526Z</time></trkpt><trkpt lat="39.47727" lon="9.1703017"><ele>293.5</ele><time>2026-04-26T09:37:02.525Z</time></trkpt><trkpt lat="39.4771917" lon="9.1701833"><ele>293.25</ele><time>2026-04-26T09:37:03.526Z</time></trkpt><trkpt lat="39.4771133" lon="9.1700683"><ele>293.0</ele><time>2026-04-26T09:37:04.525Z</time></trkpt><trkpt lat="39.4770317" lon="9.1699883"><ele>293.0</ele><time>2026-04-26T09:37:05.525Z</time></trkpt><trkpt lat="39.4769433" lon="9.1699083"><ele>293.0</ele><time>2026-04-26T09:37:06.526Z</time></trkpt><trkpt lat="39.4768817" lon="9.1698333"><ele>293.0</ele><time>2026-04-26T09:37:07.526Z</time></trkpt><trkpt lat="39.47681" lon="9.1697683"><ele>293.0</ele><time>2026-04-26T09:37:08.525Z</time></trkpt><trkpt lat="39.4767283" lon="9.1697267"><ele>293.0</ele><time>2026-04-26T09:37:09.525Z</time></trkpt><trkpt lat="39.4766383" lon="9.1697267"><ele>292.8</ele><time>2026-04-26T09:37:10.526Z</time></trkpt><trkpt lat="39.4765533" lon="9.1697517"><ele>292.6</ele><time>2026-04-26T09:37:11.526Z</time></trkpt><trkpt lat="39.4764633" lon="9.1697867"><ele>292.4</ele><time>2026-04-26T09:37:12.526Z</time></trkpt><trkpt lat="39.4763467" lon="9.16984"><ele>292.2</ele><time>2026-04-26T09:37:13.525Z</time></trkpt><trkpt lat="39.4762433" lon="9.1698967"><ele>292.0</ele><time>2026-04-26T09:37:14.525Z</time></trkpt><trkpt lat="39.47614" lon="9.1699517"><ele>292.0</ele><time>2026-04-26T09:37:15.525Z</time></trkpt><trkpt lat="39.476045" lon="9.1700117"><ele>292.0</ele><time>2026-04-26T09:37:16.526Z</time></trkpt><trkpt lat="39.47595" lon="9.17006"><ele>292.0</ele><time>2026-04-26T09:37:17.525Z</time></trkpt><trkpt lat="39.47586" lon="9.17011"><ele>292.0</ele><time>2026-04-26T09:37:18.526Z</time></trkpt><trkpt lat="39.47578" lon="9.1701617"><ele>292.0</ele><time>2026-04-26T09:37:19.525Z</time></trkpt><trkpt lat="39.4756883" lon="9.1702017"><ele>292.0</ele><time>2026-04-26T09:37:20.525Z</time></trkpt><trkpt lat="39.4755833" lon="9.1702483"><ele>292.0</ele><time>2026-04-26T09:37:21.525Z</time></trkpt><trkpt lat="39.4754867" lon="9.1702933"><ele>292.0</ele><time>2026-04-26T09:37:22.526Z</time></trkpt><trkpt lat="39.4753883" lon="9.1703317"><ele>292.0</ele><time>2026-04-26T09:37:23.525Z</time></trkpt><trkpt lat="39.4752883" lon="9.1703933"><ele>292.0</ele><time>2026-04-26T09:37:24.526Z</time></trkpt><trkpt lat="39.4751867" lon="9.1704483"><ele>292.0</ele><time>2026-04-26T09:37:25.526Z</time></trkpt><trkpt lat="39.4750833" lon="9.1705067"><ele>292.0</ele><time>2026-04-26T09:37:26.525Z</time></trkpt><trkpt lat="39.4749617" lon="9.170545"><ele>292.0</ele><time>2026-04-26T09:37:27.526Z</time></trkpt><trkpt lat="39.4748267" lon="9.1706033"><ele>292.0</ele><time>2026-04-26T09:37:28.526Z</time></trkpt><trkpt lat="39.4746833" lon="9.1706717"><ele>292.66666666666663</ele><time>2026-04-26T09:37:29.525Z</time></trkpt><trkpt lat="39.474545" lon="9.1707483"><ele>293.3333333333333</ele><time>2026-04-26T09:37:30.526Z</time></trkpt><trkpt lat="39.47441" lon="9.1708383"><ele>294.0</ele><time>2026-04-26T09:37:31.526Z</time></trkpt><trkpt lat="39.47429" lon="9.17095"><ele>294.0</ele><time>2026-04-26T09:37:32.525Z</time></trkpt><trkpt lat="39.4741567" lon="9.1710417"><ele>294.0</ele><time>2026-04-26T09:37:33.525Z</time></trkpt><trkpt lat="39.4740333" lon="9.171145"><ele>294.0</ele><time>2026-04-26T09:37:34.525Z</time></trkpt><trkpt lat="39.4739" lon="9.1712483"><ele>292.3333333333333</ele><time>2026-04-26T09:37:35.526Z</time></trkpt><trkpt lat="39.4737667" lon="9.1713717"><ele>290.66666666666663</ele><time>2026-04-26T09:37:36.525Z</time></trkpt><trkpt lat="39.4736417" lon="9.1714717"><ele>289.0</ele><time>2026-04-26T09:37:37.526Z</time></trkpt><trkpt lat="39.4735167" lon="9.1715683"><ele>289.0</ele><time>2026-04-26T09:37:38.525Z</time></trkpt><trkpt lat="39.4733883" lon="9.1716583"><ele>289.0</ele><time>2026-04-26T09:37:39.525Z</time></trkpt><trkpt lat="39.47326" lon="9.171725"><ele>289.0</ele><time>2026-04-26T09:37:40.525Z</time></trkpt><trkpt lat="39.4731283" lon="9.17176"><ele>289.0</ele><time>2026-04-26T09:37:41.525Z</time></trkpt><trkpt lat="39.4729767" lon="9.1717783"><ele>288.0</ele><time>2026-04-26T09:37:42.525Z</time></trkpt><trkpt lat="39.4728317" lon="9.1717667"><ele>287.0</ele><time>2026-04-26T09:37:43.526Z</time></trkpt><trkpt lat="39.4726783" lon="9.17171"><ele>286.0</ele><time>2026-04-26T09:37:44.525Z</time></trkpt><trkpt lat="39.4725333" lon="9.1716183"><ele>284.0</ele><time>2026-04-26T09:37:45.525Z</time></trkpt><trkpt lat="39.4724033" lon="9.17152"><ele>282.0</ele><time>2026-04-26T09:37:46.526Z</time></trkpt><trkpt lat="39.4722667" lon="9.1713633"><ele>280.0</ele><time>2026-04-26T09:37:47.526Z</time></trkpt><trkpt lat="39.4721467" lon="9.1711683"><ele>280.66666666666663</ele><time>2026-04-26T09:37:48.526Z</time></trkpt><trkpt lat="39.4720383" lon="9.1709567"><ele>281.3333333333333</ele><time>2026-04-26T09:37:49.526Z</time></trkpt><trkpt lat="39.4719183" lon="9.1707367"><ele>282.0</ele><time>2026-04-26T09:37:50.526Z</time></trkpt><trkpt lat="39.4717967" lon="9.1705283"><ele>282.0</ele><time>2026-04-26T09:37:51.525Z</time></trkpt><trkpt lat="39.4716883" lon="9.1703267"><ele>282.0</ele><time>2026-04-26T09:37:52.525Z</time></trkpt><trkpt lat="39.4715767" lon="9.1701433"><ele>282.0</ele><time>2026-04-26T09:37:53.525Z</time></trkpt><trkpt lat="39.4714567" lon="9.1699717"><ele>281.6666666666667</ele><time>2026-04-26T09:37:54.526Z</time></trkpt><trkpt lat="39.471315" lon="9.1698117"><ele>281.33333333333337</ele><time>2026-04-26T09:37:55.525Z</time></trkpt><trkpt lat="39.4711467" lon="9.1696717"><ele>281.0</ele><time>2026-04-26T09:37:56.526Z</time></trkpt><trkpt lat="39.4709667" lon="9.1695617"><ele>281.0</ele><time>2026-04-26T09:37:57.525Z</time></trkpt><trkpt lat="39.4708167" lon="9.16948"><ele>281.0</ele><time>2026-04-26T09:37:58.526Z</time></trkpt><trkpt lat="39.4706667" lon="9.1694133"><ele>281.0</ele><time>2026-04-26T09:37:59.526Z</time></trkpt><trkpt lat="39.47054" lon="9.1693433"><ele>279.33333333333337</ele><time>2026-04-26T09:38:00.525Z</time></trkpt><trkpt lat="39.4704117" lon="9.1692733"><ele>277.6666666666667</ele><time>2026-04-26T09:38:01.526Z</time></trkpt><trkpt lat="39.4702683" lon="9.169195"><ele>276.0</ele><time>2026-04-26T09:38:02.526Z</time></trkpt><trkpt lat="39.4701083" lon="9.169105"><ele>274.6666666666667</ele><time>2026-04-26T09:38:03.526Z</time></trkpt><trkpt lat="39.4699317" lon="9.169005"><ele>273.33333333333337</ele><time>2026-04-26T09:38:04.526Z</time></trkpt><trkpt lat="39.4697333" lon="9.1688983"><ele>272.0</ele><time>2026-04-26T09:38:05.525Z</time></trkpt><trkpt lat="39.4695367" lon="9.1688033"><ele>272.0</ele><time>2026-04-26T09:38:06.526Z</time></trkpt><trkpt lat="39.4693217" lon="9.168705"><ele>272.0</ele><time>2026-04-26T09:38:07.525Z</time></trkpt><trkpt lat="39.4691117" lon="9.1685983"><ele>272.0</ele><time>2026-04-26T09:38:08.526Z</time></trkpt><trkpt lat="39.4688933" lon="9.16849"><ele>272.0</ele><time>2026-04-26T09:38:09.525Z</time></trkpt><trkpt lat="39.468665" lon="9.1683717"><ele>273.5</ele><time>2026-04-26T09:38:10.525Z</time></trkpt><trkpt lat="39.4684483" lon="9.1682567"><ele>275.0</ele><time>2026-04-26T09:38:11.526Z</time></trkpt><trkpt lat="39.46824" lon="9.1681467"><ele>276.33333333333337</ele><time>2026-04-26T09:38:12.525Z</time></trkpt><trkpt lat="39.46804" lon="9.1680433"><ele>277.6666666666667</ele><time>2026-04-26T09:38:13.525Z</time></trkpt><trkpt lat="39.4678367" lon="9.167925"><ele>279.0</ele><time>2026-04-26T09:38:14.526Z</time></trkpt><trkpt lat="39.4676283" lon="9.1678183"><ele>282.5</ele><time>2026-04-26T09:38:15.526Z</time></trkpt><trkpt lat="39.4674133" lon="9.1677083"><ele>286.0</ele><time>2026-04-26T09:38:16.526Z</time></trkpt><trkpt lat="39.4672067" lon="9.1676083"><ele>287.3333333333333</ele><time>2026-04-26T09:38:17.526Z</time></trkpt><trkpt lat="39.4670083" lon="9.1675033"><ele>288.6666666666667</ele><time>2026-04-26T09:38:18.525Z</time></trkpt><trkpt lat="39.466815" lon="9.167385"><ele>290.0</ele><time>2026-04-26T09:38:19.525Z</time></trkpt><trkpt lat="39.4666383" lon="9.16726"><ele>290.33333333333337</ele><time>2026-04-26T09:38:20.526Z</time></trkpt><trkpt lat="39.46647" lon="9.1671117"><ele>290.6666666666667</ele><time>2026-04-26T09:38:21.526Z</time></trkpt><trkpt lat="39.466315" lon="9.1669183"><ele>291.0</ele><time>2026-04-26T09:38:22.526Z</time></trkpt><trkpt lat="39.466165" lon="9.1667033"><ele>294.5</ele><time>2026-04-26T09:38:23.525Z</time></trkpt><trkpt lat="39.46603" lon="9.16646"><ele>298.0</ele><time>2026-04-26T09:38:24.525Z</time></trkpt><trkpt lat="39.46589" lon="9.1662017"><ele>298.0</ele><time>2026-04-26T09:38:25.525Z</time></trkpt><trkpt lat="39.4657533" lon="9.1659217"><ele>298.0</ele><time>2026-04-26T09:38:26.526Z</time></trkpt><trkpt lat="39.465615" lon="9.165635"><ele>298.5</ele><time>2026-04-26T09:38:27.525Z</time></trkpt><trkpt lat="39.4654783" lon="9.1653433"><ele>299.0</ele><time>2026-04-26T09:38:28.525Z</time></trkpt><trkpt lat="39.46535" lon="9.165065"><ele>303.5</ele><time>2026-04-26T09:38:29.526Z</time></trkpt><trkpt lat="39.465215" lon="9.16479"><ele>308.0</ele><time>2026-04-26T09:38:30.526Z</time></trkpt><trkpt lat="39.4650817" lon="9.1645133"><ele>308.0</ele><time>2026-04-26T09:38:31.525Z</time></trkpt><trkpt lat="39.464945" lon="9.1642267"><ele>308.0</ele><time>2026-04-26T09:38:32.526Z</time></trkpt><trkpt lat="39.464815" lon="9.163915"><ele>307.5</ele><time>2026-04-26T09:38:33.525Z</time></trkpt><trkpt lat="39.4646783" lon="9.163625"><ele>307.0</ele><time>2026-04-26T09:38:34.525Z</time></trkpt><trkpt lat="39.4645417" lon="9.1633383"><ele>309.5</ele><time>2026-04-26T09:38:35.525Z</time></trkpt><trkpt lat="39.4644017" lon="9.1630583"><ele>312.0</ele><time>2026-04-26T09:38:36.526Z</time></trkpt><trkpt lat="39.464265" lon="9.1627783"><ele>312.0</ele><time>2026-04-26T09:38:37.526Z</time></trkpt><trkpt lat="39.4641267" lon="9.1625067"><ele>312.0</ele><time>2026-04-26T09:38:38.526Z</time></trkpt><trkpt lat="39.463995" lon="9.162235"><ele>309.5</ele><time>2026-04-26T09:38:39.526Z</time></trkpt><trkpt lat="39.463865" lon="9.1619733"><ele>307.0</ele><time>2026-04-26T09:38:40.526Z</time></trkpt><trkpt lat="39.46373" lon="9.16172"><ele>315.0</ele><time>2026-04-26T09:38:41.525Z</time></trkpt><trkpt lat="39.4635967" lon="9.1614567"><ele>323.0</ele><time>2026-04-26T09:38:42.525Z</time></trkpt><trkpt lat="39.463475" lon="9.1611867"><ele>323.0</ele><time>2026-04-26T09:38:43.525Z</time></trkpt><trkpt lat="39.4633433" lon="9.1609117"><ele>323.0</ele><time>2026-04-26T09:38:44.526Z</time></trkpt><trkpt lat="39.4632067" lon="9.1606333"><ele>323.0</ele><time>2026-04-26T09:38:45.526Z</time></trkpt><trkpt lat="39.463055" lon="9.16036"><ele>323.0</ele><time>2026-04-26T09:38:46.526Z</time></trkpt><trkpt lat="39.4629117" lon="9.1600933"><ele>328.0</ele><time>2026-04-26T09:38:47.526Z</time></trkpt><trkpt lat="39.46275" lon="9.15985"><ele>333.0</ele><time>2026-04-26T09:38:48.525Z</time></trkpt><trkpt lat="39.462575" lon="9.159635"><ele>333.0</ele><time>2026-04-26T09:38:49.526Z</time></trkpt><trkpt lat="39.4623983" lon="9.1594367"><ele>333.0</ele><time>2026-04-26T09:38:50.525Z</time></trkpt><trkpt lat="39.4622117" lon="9.1592583"><ele>331.0</ele><time>2026-04-26T09:38:51.526Z</time></trkpt><trkpt lat="39.462015" lon="9.159105"><ele>329.0</ele><time>2026-04-26T09:38:52.525Z</time></trkpt><trkpt lat="39.4617967" lon="9.1589567"><ele>335.5</ele><time>2026-04-26T09:38:53.526Z</time></trkpt><trkpt lat="39.461555" lon="9.1588267"><ele>342.0</ele><time>2026-04-26T09:38:54.525Z</time></trkpt><trkpt lat="39.4613" lon="9.158725"><ele>341.0</ele><time>2026-04-26T09:38:55.525Z</time></trkpt><trkpt lat="39.4610333" lon="9.1586517"><ele>340.0</ele><time>2026-04-26T09:38:56.525Z</time></trkpt><trkpt lat="39.46076" lon="9.1585967"><ele>340.0</ele><time>2026-04-26T09:38:57.525Z</time></trkpt><trkpt lat="39.4604967" lon="9.1585517"><ele>340.0</ele><time>2026-04-26T09:38:58.525Z</time></trkpt><trkpt lat="39.4602433" lon="9.158495"><ele>339.0</ele><time>2026-04-26T09:38:59.525Z</time></trkpt><trkpt lat="39.4600117" lon="9.1584417"><ele>338.0</ele><time>2026-04-26T09:39:00.525Z</time></trkpt><trkpt lat="39.4597983" lon="9.158405"><ele>338.0</ele><time>2026-04-26T09:39:01.526Z</time></trkpt><trkpt lat="39.4595933" lon="9.1583767"><ele>338.0</ele><time>2026-04-26T09:39:02.525Z</time></trkpt><trkpt lat="39.459395" lon="9.158395"><ele>338.0</ele><time>2026-04-26T09:39:03.525Z</time></trkpt><trkpt lat="39.4591933" lon="9.1584667"><ele>338.0</ele><time>2026-04-26T09:39:04.525Z</time></trkpt><trkpt lat="39.458995" lon="9.1586"><ele>338.0</ele><time>2026-04-26T09:39:05.526Z</time></trkpt><trkpt lat="39.4587917" lon="9.158765"><ele>342.5</ele><time>2026-04-26T09:39:06.525Z</time></trkpt><trkpt lat="39.45859" lon="9.1589067"><ele>347.0</ele><time>2026-04-26T09:39:07.525Z</time></trkpt><trkpt lat="39.45838" lon="9.1590017"><ele>340.0</ele><time>2026-04-26T09:39:08.526Z</time></trkpt><trkpt lat="39.45815" lon="9.1590783"><ele>333.0</ele><time>2026-04-26T09:39:09.526Z</time></trkpt><trkpt lat="39.4579117" lon="9.1591283"><ele>333.0</ele><time>2026-04-26T09:39:10.525Z</time></trkpt><trkpt lat="39.4576583" lon="9.1591583"><ele>333.0</ele><time>2026-04-26T09:39:11.525Z</time></trkpt><trkpt lat="39.457405" lon="9.15918"><ele>333.0</ele><time>2026-04-26T09:39:12.526Z</time></trkpt><trkpt lat="39.4571433" lon="9.1591917"><ele>333.0</ele><time>2026-04-26T09:39:13.525Z</time></trkpt><trkpt lat="39.4568883" lon="9.1592033"><ele>330.0</ele><time>2026-04-26T09:39:14.526Z</time></trkpt><trkpt lat="39.4566283" lon="9.1592183"><ele>327.0</ele><time>2026-04-26T09:39:15.526Z</time></trkpt><trkpt lat="39.45637" lon="9.1592417"><ele>324.5</ele><time>2026-04-26T09:39:16.526Z</time></trkpt><trkpt lat="39.4561133" lon="9.1592667"><ele>322.0</ele><time>2026-04-26T09:39:17.525Z</time></trkpt><trkpt lat="39.4558633" lon="9.159285"><ele>322.0</ele><time>2026-04-26T09:39:18.526Z</time></trkpt><trkpt lat="39.4556383" lon="9.1592983"><ele>322.0</ele><time>2026-04-26T09:39:19.525Z</time></trkpt><trkpt lat="39.4554367" lon="9.1593083"><ele>322.0</ele><time>2026-04-26T09:39:20.526Z</time></trkpt><trkpt lat="39.455255" lon="9.15928"><ele>321.3333333333333</ele><time>2026-04-26T09:39:21.525Z</time></trkpt><trkpt lat="39.45509" lon="9.1592117"><ele>320.6666666666667</ele><time>2026-04-26T09:39:22.525Z</time></trkpt><trkpt lat="39.4549283" lon="9.1591"><ele>320.0</ele><time>2026-04-26T09:39:23.525Z</time></trkpt><trkpt lat="39.4547883" lon="9.15894"><ele>319.0</ele><time>2026-04-26T09:39:24.526Z</time></trkpt><trkpt lat="39.4546933" lon="9.1587433"><ele>318.0</ele><time>2026-04-26T09:39:25.525Z</time></trkpt><trkpt lat="39.454625" lon="9.1585317"><ele>317.0</ele><time>2026-04-26T09:39:26.526Z</time></trkpt><trkpt lat="39.4546033" lon="9.1583117"><ele>313.33333333333337</ele><time>2026-04-26T09:39:27.526Z</time></trkpt><trkpt lat="39.4546233" lon="9.1580833"><ele>309.6666666666667</ele><time>2026-04-26T09:39:28.526Z</time></trkpt><trkpt lat="39.45468" lon="9.157865"><ele>306.0</ele><time>2026-04-26T09:39:29.525Z</time></trkpt><trkpt lat="39.4547617" lon="9.1576783"><ele>306.0</ele><time>2026-04-26T09:39:30.525Z</time></trkpt><trkpt lat="39.4548633" lon="9.1575183"><ele>306.0</ele><time>2026-04-26T09:39:31.526Z</time></trkpt><trkpt lat="39.4549867" lon="9.1573833"><ele>306.0</ele><time>2026-04-26T09:39:32.526Z</time></trkpt><trkpt lat="39.4551317" lon="9.1572933"><ele>301.0</ele><time>2026-04-26T09:39:33.526Z</time></trkpt><trkpt lat="39.4553183" lon="9.1572367"><ele>296.0</ele><time>2026-04-26T09:39:34.526Z</time></trkpt><trkpt lat="39.455505" lon="9.157195"><ele>291.0</ele><time>2026-04-26T09:39:35.525Z</time></trkpt><trkpt lat="39.4557083" lon="9.1571583"><ele>288.6666666666667</ele><time>2026-04-26T09:39:36.526Z</time></trkpt><trkpt lat="39.4559067" lon="9.1571133"><ele>286.33333333333337</ele><time>2026-04-26T09:39:37.525Z</time></trkpt><trkpt lat="39.4560883" lon="9.1570667"><ele>284.0</ele><time>2026-04-26T09:39:38.526Z</time></trkpt><trkpt lat="39.4562783" lon="9.1569717"><ele>284.6666666666667</ele><time>2026-04-26T09:39:39.525Z</time></trkpt><trkpt lat="39.4564517" lon="9.1568283"><ele>285.3333333333333</ele><time>2026-04-26T09:39:40.526Z</time></trkpt><trkpt lat="39.4566067" lon="9.156645"><ele>286.0</ele><time>2026-04-26T09:39:41.526Z</time></trkpt><trkpt lat="39.4567183" lon="9.1564233"><ele>286.0</ele><time>2026-04-26T09:39:42.525Z</time></trkpt><trkpt lat="39.4568133" lon="9.1561783"><ele>286.0</ele><time>2026-04-26T09:39:43.525Z</time></trkpt><trkpt lat="39.4569033" lon="9.15592"><ele>286.0</ele><time>2026-04-26T09:39:44.525Z</time></trkpt><trkpt lat="39.456995" lon="9.1556583"><ele>289.0</ele><time>2026-04-26T09:39:45.525Z</time></trkpt><trkpt lat="39.4570983" lon="9.1553933"><ele>292.0</ele><time>2026-04-26T09:39:46.526Z</time></trkpt><trkpt lat="39.457205" lon="9.155115"><ele>287.0</ele><time>2026-04-26T09:39:47.526Z</time></trkpt><trkpt lat="39.4573133" lon="9.1548433"><ele>282.0</ele><time>2026-04-26T09:39:48.525Z</time></trkpt><trkpt lat="39.4574117" lon="9.15459"><ele>282.0</ele><time>2026-04-26T09:39:49.526Z</time></trkpt><trkpt lat="39.4574967" lon="9.1543383"><ele>282.0</ele><time>2026-04-26T09:39:50.526Z</time></trkpt><trkpt lat="39.457575" lon="9.1540983"><ele>282.0</ele><time>2026-04-26T09:39:51.526Z</time></trkpt><trkpt lat="39.4576333" lon="9.1538583"><ele>280.0</ele><time>2026-04-26T09:39:52.525Z</time></trkpt><trkpt lat="39.4576533" lon="9.1536267"><ele>278.0</ele><time>2026-04-26T09:39:53.526Z</time></trkpt><trkpt lat="39.45764" lon="9.1533767"><ele>276.0</ele><time>2026-04-26T09:39:54.525Z</time></trkpt><trkpt lat="39.457585" lon="9.15314"><ele>274.3333333333333</ele><time>2026-04-26T09:39:55.526Z</time></trkpt><trkpt lat="39.4574967" lon="9.1529317"><ele>272.66666666666663</ele><time>2026-04-26T09:39:56.525Z</time></trkpt><trkpt lat="39.4573817" lon="9.1527617"><ele>271.0</ele><time>2026-04-26T09:39:57.525Z</time></trkpt><trkpt lat="39.45725" lon="9.1526183"><ele>268.0</ele><time>2026-04-26T09:39:58.526Z</time></trkpt><trkpt lat="39.4571017" lon="9.1525067"><ele>265.0</ele><time>2026-04-26T09:39:59.526Z</time></trkpt><trkpt lat="39.4569383" lon="9.1524333"><ele>262.0</ele><time>2026-04-26T09:40:00.525Z</time></trkpt><trkpt lat="39.456755" lon="9.1523967"><ele>262.0</ele><time>2026-04-26T09:40:01.526Z</time></trkpt><trkpt lat="39.4565783" lon="9.1524133"><ele>262.0</ele><time>2026-04-26T09:40:02.525Z</time></trkpt><trkpt lat="39.4564217" lon="9.152455"><ele>262.0</ele><time>2026-04-26T09:40:03.525Z</time></trkpt><trkpt lat="39.4562867" lon="9.152535"><ele>259.25</ele><time>2026-04-26T09:40:04.526Z</time></trkpt><trkpt lat="39.45616" lon="9.1526317"><ele>256.5</ele><time>2026-04-26T09:40:05.525Z</time></trkpt><trkpt lat="39.4560517" lon="9.15277"><ele>253.75</ele><time>2026-04-26T09:40:06.526Z</time></trkpt><trkpt lat="39.4559617" lon="9.152925"><ele>251.0</ele><time>2026-04-26T09:40:07.526Z</time></trkpt><trkpt lat="39.45591" lon="9.15309"><ele>253.33333333333334</ele><time>2026-04-26T09:40:08.525Z</time></trkpt><trkpt lat="39.45587" lon="9.15326"><ele>255.66666666666669</ele><time>2026-04-26T09:40:09.525Z</time></trkpt><trkpt lat="39.4558383" lon="9.153455"><ele>258.0</ele><time>2026-04-26T09:40:10.525Z</time></trkpt><trkpt lat="39.4558267" lon="9.153665"><ele>258.0</ele><time>2026-04-26T09:40:11.526Z</time></trkpt><trkpt lat="39.4558283" lon="9.153885"><ele>258.0</ele><time>2026-04-26T09:40:12.526Z</time></trkpt><trkpt lat="39.4558217" lon="9.1541017"><ele>258.0</ele><time>2026-04-26T09:40:13.526Z</time></trkpt><trkpt lat="39.455805" lon="9.15431"><ele>258.3333333333333</ele><time>2026-04-26T09:40:14.525Z</time></trkpt><trkpt lat="39.4557783" lon="9.1545117"><ele>258.66666666666663</ele><time>2026-04-26T09:40:15.526Z</time></trkpt><trkpt lat="39.4557233" lon="9.1546867"><ele>259.0</ele><time>2026-04-26T09:40:16.525Z</time></trkpt><trkpt lat="39.4556317" lon="9.154845"><ele>258.66666666666663</ele><time>2026-04-26T09:40:17.526Z</time></trkpt><trkpt lat="39.4555117" lon="9.1549933"><ele>258.3333333333333</ele><time>2026-04-26T09:40:18.525Z</time></trkpt><trkpt lat="39.4553767" lon="9.1550867"><ele>258.0</ele><time>2026-04-26T09:40:19.525Z</time></trkpt><trkpt lat="39.45523" lon="9.1551283"><ele>256.0</ele><time>2026-04-26T09:40:20.526Z</time></trkpt><trkpt lat="39.45505" lon="9.1551133"><ele>254.0</ele><time>2026-04-26T09:40:21.525Z</time></trkpt><trkpt lat="39.4548683" lon="9.15509"><ele>252.0</ele><time>2026-04-26T09:40:22.526Z</time></trkpt><trkpt lat="39.4546767" lon="9.1550417"><ele>252.66666666666669</ele><time>2026-04-26T09:40:23.526Z</time></trkpt><trkpt lat="39.4544767" lon="9.155"><ele>253.33333333333334</ele><time>2026-04-26T09:40:24.525Z</time></trkpt><trkpt lat="39.4542733" lon="9.1549567"><ele>254.0</ele><time>2026-04-26T09:40:25.526Z</time></trkpt><trkpt lat="39.45407" lon="9.1549083"><ele>249.0</ele><time>2026-04-26T09:40:26.526Z</time></trkpt><trkpt lat="39.453855" lon="9.154855"><ele>244.0</ele><time>2026-04-26T09:40:27.525Z</time></trkpt><trkpt lat="39.4536467" lon="9.1548133"><ele>239.0</ele><time>2026-04-26T09:40:28.526Z</time></trkpt><trkpt lat="39.4534317" lon="9.1547867"><ele>239.0</ele><time>2026-04-26T09:40:29.526Z</time></trkpt><trkpt lat="39.4531983" lon="9.15477"><ele>239.0</ele><time>2026-04-26T09:40:30.525Z</time></trkpt><trkpt lat="39.4529733" lon="9.154765"><ele>233.5</ele><time>2026-04-26T09:40:31.526Z</time></trkpt><trkpt lat="39.452745" lon="9.15477"><ele>228.0</ele><time>2026-04-26T09:40:32.526Z</time></trkpt><trkpt lat="39.4524933" lon="9.1547817"><ele>228.0</ele><time>2026-04-26T09:40:33.525Z</time></trkpt><trkpt lat="39.452235" lon="9.15481"><ele>228.0</ele><time>2026-04-26T09:40:34.525Z</time></trkpt><trkpt lat="39.4519633" lon="9.1548583"><ele>226.5</ele><time>2026-04-26T09:40:35.526Z</time></trkpt><trkpt lat="39.4516933" lon="9.154925"><ele>225.0</ele><time>2026-04-26T09:40:36.526Z</time></trkpt><trkpt lat="39.451425" lon="9.1550033"><ele>222.5</ele><time>2026-04-26T09:40:37.526Z</time></trkpt><trkpt lat="39.4511567" lon="9.155095"><ele>220.0</ele><time>2026-04-26T09:40:38.526Z</time></trkpt><trkpt lat="39.4508783" lon="9.1552167"><ele>220.0</ele><time>2026-04-26T09:40:39.525Z</time></trkpt><trkpt lat="39.4505867" lon="9.1553767"><ele>220.0</ele><time>2026-04-26T09:40:40.526Z</time></trkpt><trkpt lat="39.4502933" lon="9.155535"><ele>221.5</ele><time>2026-04-26T09:40:41.526Z</time></trkpt><trkpt lat="39.45001" lon="9.15569"><ele>223.0</ele><time>2026-04-26T09:40:42.525Z</time></trkpt><trkpt lat="39.44973" lon="9.1558433"><ele>216.5</ele><time>2026-04-26T09:40:43.526Z</time></trkpt><trkpt lat="39.4494667" lon="9.155985"><ele>210.0</ele><time>2026-04-26T09:40:44.525Z</time></trkpt><trkpt lat="39.4492217" lon="9.15613"><ele>210.0</ele><time>2026-04-26T09:40:45.525Z</time></trkpt><trkpt lat="39.4489783" lon="9.15627"><ele>210.0</ele><time>2026-04-26T09:40:46.526Z</time></trkpt><trkpt lat="39.4487367" lon="9.1563817"><ele>207.0</ele><time>2026-04-26T09:40:47.526Z</time></trkpt><trkpt lat="39.4485067" lon="9.156465"><ele>204.0</ele><time>2026-04-26T09:40:48.525Z</time></trkpt><trkpt lat="39.4482683" lon="9.156515"><ele>205.66666666666669</ele><time>2026-04-26T09:40:49.526Z</time></trkpt><trkpt lat="39.4480417" lon="9.1565467"><ele>207.33333333333334</ele><time>2026-04-26T09:40:50.525Z</time></trkpt><trkpt lat="39.4478433" lon="9.1565817"><ele>209.0</ele><time>2026-04-26T09:40:51.525Z</time></trkpt><trkpt lat="39.4476617" lon="9.1565783"><ele>209.0</ele><time>2026-04-26T09:40:52.525Z</time></trkpt><trkpt lat="39.447495" lon="9.1565367"><ele>209.0</ele><time>2026-04-26T09:40:53.525Z</time></trkpt><trkpt lat="39.4473483" lon="9.1564617"><ele>209.0</ele><time>2026-04-26T09:40:54.525Z</time></trkpt><trkpt lat="39.4472117" lon="9.1563333"><ele>205.0</ele><time>2026-04-26T09:40:55.525Z</time></trkpt><trkpt lat="39.4471" lon="9.1561767"><ele>201.0</ele><time>2026-04-26T09:40:56.525Z</time></trkpt><trkpt lat="39.4469867" lon="9.1560417"><ele>197.0</ele><time>2026-04-26T09:40:57.526Z</time></trkpt><trkpt lat="39.4468433" lon="9.15592"><ele>197.0</ele><time>2026-04-26T09:40:58.526Z</time></trkpt><trkpt lat="39.4466783" lon="9.155855"><ele>197.0</ele><time>2026-04-26T09:40:59.525Z</time></trkpt><trkpt lat="39.4465033" lon="9.1558533"><ele>197.0</ele><time>2026-04-26T09:41:00.526Z</time></trkpt><trkpt lat="39.4463117" lon="9.1559067"><ele>195.0</ele><time>2026-04-26T09:41:01.525Z</time></trkpt><trkpt lat="39.4461283" lon="9.155985"><ele>193.0</ele><time>2026-04-26T09:41:02.526Z</time></trkpt><trkpt lat="39.4459567" lon="9.1560283"><ele>191.0</ele><time>2026-04-26T09:41:03.525Z</time></trkpt><trkpt lat="39.44578" lon="9.156035"><ele>191.0</ele><time>2026-04-26T09:41:04.525Z</time></trkpt><trkpt lat="39.445615" lon="9.1560017"><ele>191.0</ele><time>2026-04-26T09:41:05.526Z</time></trkpt><trkpt lat="39.4454633" lon="9.1559033"><ele>191.0</ele><time>2026-04-26T09:41:06.525Z</time></trkpt><trkpt lat="39.4453217" lon="9.1557717"><ele>189.33333333333331</ele><time>2026-04-26T09:41:07.526Z</time></trkpt><trkpt lat="39.445165" lon="9.1556333"><ele>187.66666666666666</ele><time>2026-04-26T09:41:08.525Z</time></trkpt><trkpt lat="39.445005" lon="9.15548"><ele>186.0</ele><time>2026-04-26T09:41:09.526Z</time></trkpt><trkpt lat="39.44486" lon="9.1552983"><ele>186.0</ele><time>2026-04-26T09:41:10.526Z</time></trkpt><trkpt lat="39.4447183" lon="9.155095"><ele>186.0</ele><time>2026-04-26T09:41:11.525Z</time></trkpt><trkpt lat="39.44459" lon="9.1548867"><ele>186.0</ele><time>2026-04-26T09:41:12.525Z</time></trkpt><trkpt lat="39.4444633" lon="9.154685"><ele>184.33333333333334</ele><time>2026-04-26T09:41:13.526Z</time></trkpt><trkpt lat="39.44432" lon="9.1544917"><ele>182.66666666666669</ele><time>2026-04-26T09:41:14.526Z</time></trkpt><trkpt lat="39.4441567" lon="9.1543283"><ele>181.0</ele><time>2026-04-26T09:41:15.525Z</time></trkpt><trkpt lat="39.4439633" lon="9.1541783"><ele>179.5</ele><time>2026-04-26T09:41:16.525Z</time></trkpt><trkpt lat="39.4437533" lon="9.15405"><ele>178.0</ele><time>2026-04-26T09:41:17.525Z</time></trkpt><trkpt lat="39.44354" lon="9.1539267"><ele>177.5</ele><time>2026-04-26T09:41:18.526Z</time></trkpt><trkpt lat="39.4433283" lon="9.1538067"><ele>177.0</ele><time>2026-04-26T09:41:19.526Z</time></trkpt><trkpt lat="39.4431083" lon="9.153695"><ele>175.5</ele><time>2026-04-26T09:41:20.526Z</time></trkpt><trkpt lat="39.4428883" lon="9.15358"><ele>174.0</ele><time>2026-04-26T09:41:21.525Z</time></trkpt><trkpt lat="39.4426617" lon="9.1534533"><ele>174.0</ele><time>2026-04-26T09:41:22.525Z</time></trkpt><trkpt lat="39.4424283" lon="9.1533267"><ele>174.0</ele><time>2026-04-26T09:41:23.525Z</time></trkpt><trkpt lat="39.442205" lon="9.1532083"><ele>172.5</ele><time>2026-04-26T09:41:24.525Z</time></trkpt><trkpt lat="39.4419867" lon="9.1530933"><ele>171.0</ele><time>2026-04-26T09:41:25.526Z</time></trkpt><trkpt lat="39.4417833" lon="9.1529817"><ele>171.0</ele><time>2026-04-26T09:41:26.526Z</time></trkpt><trkpt lat="39.441595" lon="9.1528717"><ele>171.0</ele><time>2026-04-26T09:41:27.525Z</time></trkpt><trkpt lat="39.4414133" lon="9.152755"><ele>171.0</ele><time>2026-04-26T09:41:28.526Z</time></trkpt><trkpt lat="39.4412383" lon="9.1526167"><ele>169.66666666666666</ele><time>2026-04-26T09:41:29.526Z</time></trkpt><trkpt lat="39.44108" lon="9.1524617"><ele>168.33333333333331</ele><time>2026-04-26T09:41:30.525Z</time></trkpt><trkpt lat="39.4409233" lon="9.1522833"><ele>167.0</ele><time>2026-04-26T09:41:31.525Z</time></trkpt><trkpt lat="39.4407667" lon="9.152095"><ele>167.0</ele><time>2026-04-26T09:41:32.526Z</time></trkpt><trkpt lat="39.4406183" lon="9.15187"><ele>167.0</ele><time>2026-04-26T09:41:33.525Z</time></trkpt><trkpt lat="39.4404633" lon="9.15164"><ele>164.5</ele><time>2026-04-26T09:41:34.525Z</time></trkpt><trkpt lat="39.4403033" lon="9.1514"><ele>162.0</ele><time>2026-04-26T09:41:35.525Z</time></trkpt><trkpt lat="39.4401417" lon="9.1511567"><ele>162.0</ele><time>2026-04-26T09:41:36.525Z</time></trkpt><trkpt lat="39.4399833" lon="9.1509117"><ele>162.0</ele><time>2026-04-26T09:41:37.526Z</time></trkpt><trkpt lat="39.439825" lon="9.1506683"><ele>161.5</ele><time>2026-04-26T09:41:38.526Z</time></trkpt><trkpt lat="39.4396683" lon="9.1504217"><ele>161.0</ele><time>2026-04-26T09:41:39.526Z</time></trkpt><trkpt lat="39.4395083" lon="9.15018"><ele>161.0</ele><time>2026-04-26T09:41:40.526Z</time></trkpt><trkpt lat="39.4393517" lon="9.1499517"><ele>161.0</ele><time>2026-04-26T09:41:41.525Z</time></trkpt><trkpt lat="39.4391917" lon="9.149745"><ele>160.0</ele><time>2026-04-26T09:41:42.526Z</time></trkpt><trkpt lat="39.43901" lon="9.149555"><ele>159.0</ele><time>2026-04-26T09:41:43.525Z</time></trkpt><trkpt lat="39.4388083" lon="9.1493817"><ele>159.0</ele><time>2026-04-26T09:41:44.526Z</time></trkpt><trkpt lat="39.438615" lon="9.1492333"><ele>159.0</ele><time>2026-04-26T09:41:45.525Z</time></trkpt><trkpt lat="39.438425" lon="9.1491067"><ele>159.0</ele><time>2026-04-26T09:41:46.525Z</time></trkpt><trkpt lat="39.4382417" lon="9.1489867"><ele>159.0</ele><time>2026-04-26T09:41:47.525Z</time></trkpt><trkpt lat="39.4380583" lon="9.14887"><ele>159.0</ele><time>2026-04-26T09:41:48.526Z</time></trkpt><trkpt lat="39.4378767" lon="9.14875"><ele>159.0</ele><time>2026-04-26T09:41:49.526Z</time></trkpt><trkpt lat="39.4377067" lon="9.1486333"><ele>158.66666666666666</ele><time>2026-04-26T09:41:50.525Z</time></trkpt><trkpt lat="39.4375317" lon="9.1485283"><ele>158.33333333333331</ele><time>2026-04-26T09:41:51.525Z</time></trkpt><trkpt lat="39.437365" lon="9.1484217"><ele>158.0</ele><time>2026-04-26T09:41:52.525Z</time></trkpt><trkpt lat="39.4372017" lon="9.1483183"><ele>158.33333333333331</ele><time>2026-04-26T09:41:53.526Z</time></trkpt><trkpt lat="39.437035" lon="9.14821"><ele>158.66666666666666</ele><time>2026-04-26T09:41:54.525Z</time></trkpt><trkpt lat="39.43687" lon="9.1481117"><ele>159.0</ele><time>2026-04-26T09:41:55.526Z</time></trkpt><trkpt lat="39.4367" lon="9.1480033"><ele>159.0</ele><time>2026-04-26T09:41:56.526Z</time></trkpt><trkpt lat="39.4365267" lon="9.1478933"><ele>159.0</ele><time>2026-04-26T09:41:57.525Z</time></trkpt><trkpt lat="39.4363467" lon="9.1477783"><ele>159.0</ele><time>2026-04-26T09:41:58.526Z</time></trkpt><trkpt lat="39.4361533" lon="9.1476583"><ele>159.33333333333334</ele><time>2026-04-26T09:41:59.526Z</time></trkpt><trkpt lat="39.4359567" lon="9.1475383"><ele>159.66666666666669</ele><time>2026-04-26T09:42:00.524Z</time></trkpt><trkpt lat="39.435755" lon="9.147415"><ele>160.0</ele><time>2026-04-26T09:42:01.524Z</time></trkpt><trkpt lat="39.435555" lon="9.1472933"><ele>159.33333333333334</ele><time>2026-04-26T09:42:02.525Z</time></trkpt><trkpt lat="39.43535" lon="9.1471683"><ele>158.66666666666666</ele><time>2026-04-26T09:42:03.525Z</time></trkpt><trkpt lat="39.4351467" lon="9.1470533"><ele>158.0</ele><time>2026-04-26T09:42:04.525Z</time></trkpt><trkpt lat="39.4349417" lon="9.146955"><ele>158.0</ele><time>2026-04-26T09:42:05.525Z</time></trkpt><trkpt lat="39.43473" lon="9.1468967"><ele>158.0</ele><time>2026-04-26T09:42:06.525Z</time></trkpt><trkpt lat="39.4345133" lon="9.14687"><ele>158.0</ele><time>2026-04-26T09:42:07.525Z</time></trkpt><trkpt lat="39.4343167" lon="9.1468683"><ele>157.33333333333331</ele><time>2026-04-26T09:42:08.524Z</time></trkpt><trkpt lat="39.4341067" lon="9.1469283"><ele>156.66666666666666</ele><time>2026-04-26T09:42:09.525Z</time></trkpt><trkpt lat="39.4339033" lon="9.1470117"><ele>156.0</ele><time>2026-04-26T09:42:10.525Z</time></trkpt><trkpt lat="39.4337217" lon="9.147135"><ele>156.0</ele><time>2026-04-26T09:42:11.524Z</time></trkpt><trkpt lat="39.4335367" lon="9.147295"><ele>156.0</ele><time>2026-04-26T09:42:12.525Z</time></trkpt><trkpt lat="39.43337" lon="9.147475"><ele>156.0</ele><time>2026-04-26T09:42:13.525Z</time></trkpt><trkpt lat="39.43321" lon="9.1476467"><ele>156.66666666666666</ele><time>2026-04-26T09:42:14.525Z</time></trkpt><trkpt lat="39.433055" lon="9.1477933"><ele>157.33333333333331</ele><time>2026-04-26T09:42:15.525Z</time></trkpt><trkpt lat="39.4329033" lon="9.14795"><ele>158.0</ele><time>2026-04-26T09:42:16.525Z</time></trkpt><trkpt lat="39.4327767" lon="9.1480983"><ele>158.33333333333331</ele><time>2026-04-26T09:42:17.524Z</time></trkpt><trkpt lat="39.432625" lon="9.1482433"><ele>158.66666666666666</ele><time>2026-04-26T09:42:18.524Z</time></trkpt><trkpt lat="39.4324583" lon="9.148385"><ele>159.0</ele><time>2026-04-26T09:42:19.525Z</time></trkpt><trkpt lat="39.43228" lon="9.1485"><ele>159.0</ele><time>2026-04-26T09:42:20.525Z</time></trkpt><trkpt lat="39.4320883" lon="9.1485933"><ele>159.0</ele><time>2026-04-26T09:42:21.524Z</time></trkpt><trkpt lat="39.4319117" lon="9.1486583"><ele>159.0</ele><time>2026-04-26T09:42:22.525Z</time></trkpt><trkpt lat="39.4317" lon="9.1487"><ele>159.0</ele><time>2026-04-26T09:42:23.524Z</time></trkpt><trkpt lat="39.4314433" lon="9.14874"><ele>159.0</ele><time>2026-04-26T09:42:24.524Z</time></trkpt><trkpt lat="39.4311783" lon="9.1487433"><ele>158.5</ele><time>2026-04-26T09:42:25.524Z</time></trkpt><trkpt lat="39.4309017" lon="9.1487517"><ele>158.0</ele><time>2026-04-26T09:42:26.525Z</time></trkpt><trkpt lat="39.430625" lon="9.1487617"><ele>158.0</ele><time>2026-04-26T09:42:27.524Z</time></trkpt><trkpt lat="39.430365" lon="9.14876"><ele>158.0</ele><time>2026-04-26T09:42:28.524Z</time></trkpt><trkpt lat="39.4301083" lon="9.1487583"><ele>158.0</ele><time>2026-04-26T09:42:29.525Z</time></trkpt><trkpt lat="39.4298683" lon="9.14876"><ele>158.0</ele><time>2026-04-26T09:42:30.524Z</time></trkpt><trkpt lat="39.4296317" lon="9.14876"><ele>159.0</ele><time>2026-04-26T09:42:31.524Z</time></trkpt><trkpt lat="39.4294067" lon="9.1487467"><ele>160.0</ele><time>2026-04-26T09:42:32.524Z</time></trkpt><trkpt lat="39.429165" lon="9.1487133"><ele>160.0</ele><time>2026-04-26T09:42:33.525Z</time></trkpt><trkpt lat="39.4289017" lon="9.1486617"><ele>160.0</ele><time>2026-04-26T09:42:34.525Z</time></trkpt><trkpt lat="39.428655" lon="9.148595"><ele>161.5</ele><time>2026-04-26T09:42:35.524Z</time></trkpt><trkpt lat="39.4283917" lon="9.148525"><ele>163.0</ele><time>2026-04-26T09:42:36.525Z</time></trkpt><trkpt lat="39.4281417" lon="9.1484583"><ele>163.5</ele><time>2026-04-26T09:42:37.524Z</time></trkpt><trkpt lat="39.42789" lon="9.14839"><ele>164.0</ele><time>2026-04-26T09:42:38.524Z</time></trkpt><trkpt lat="39.4276117" lon="9.148315"><ele>164.0</ele><time>2026-04-26T09:42:39.525Z</time></trkpt><trkpt lat="39.4273367" lon="9.1482517"><ele>164.0</ele><time>2026-04-26T09:42:40.524Z</time></trkpt><trkpt lat="39.4270667" lon="9.14818"><ele>162.5</ele><time>2026-04-26T09:42:41.524Z</time></trkpt><trkpt lat="39.4267833" lon="9.1481067"><ele>161.0</ele><time>2026-04-26T09:42:42.525Z</time></trkpt><trkpt lat="39.4265067" lon="9.148035"><ele>161.5</ele><time>2026-04-26T09:42:43.525Z</time></trkpt><trkpt lat="39.4262367" lon="9.1479617"><ele>162.0</ele><time>2026-04-26T09:42:44.525Z</time></trkpt><trkpt lat="39.425965" lon="9.1478967"><ele>162.0</ele><time>2026-04-26T09:42:45.524Z</time></trkpt><trkpt lat="39.4257067" lon="9.1478233"><ele>162.0</ele><time>2026-04-26T09:42:46.524Z</time></trkpt><trkpt lat="39.4254467" lon="9.14776"><ele>165.5</ele><time>2026-04-26T09:42:47.525Z</time></trkpt><trkpt lat="39.4251883" lon="9.1477"><ele>169.0</ele><time>2026-04-26T09:42:48.525Z</time></trkpt><trkpt lat="39.4249517" lon="9.1476517"><ele>169.0</ele><time>2026-04-26T09:42:49.524Z</time></trkpt><trkpt lat="39.4247133" lon="9.14762"><ele>169.0</ele><time>2026-04-26T09:42:50.525Z</time></trkpt><trkpt lat="39.42445" lon="9.1476117"><ele>170.0</ele><time>2026-04-26T09:42:51.524Z</time></trkpt><trkpt lat="39.4242083" lon="9.1476283"><ele>171.0</ele><time>2026-04-26T09:42:52.525Z</time></trkpt><trkpt lat="39.4239833" lon="9.1476667"><ele>173.0</ele><time>2026-04-26T09:42:53.525Z</time></trkpt><trkpt lat="39.4237833" lon="9.1477067"><ele>175.0</ele><time>2026-04-26T09:42:54.525Z</time></trkpt><trkpt lat="39.4235683" lon="9.1477333"><ele>177.0</ele><time>2026-04-26T09:42:55.524Z</time></trkpt><trkpt lat="39.423385" lon="9.14779"><ele>177.0</ele><time>2026-04-26T09:42:56.525Z</time></trkpt><trkpt lat="39.4232333" lon="9.1479183"><ele>177.0</ele><time>2026-04-26T09:42:57.525Z</time></trkpt><trkpt lat="39.4230767" lon="9.14808"><ele>177.0</ele><time>2026-04-26T09:42:58.524Z</time></trkpt><trkpt lat="39.4229283" lon="9.148285"><ele>183.5</ele><time>2026-04-26T09:42:59.525Z</time></trkpt><trkpt lat="39.4227883" lon="9.1485133"><ele>190.0</ele><time>2026-04-26T09:43:00.524Z</time></trkpt><trkpt lat="39.4226383" lon="9.1487333"><ele>190.0</ele><time>2026-04-26T09:43:01.524Z</time></trkpt><trkpt lat="39.4224867" lon="9.1489567"><ele>190.0</ele><time>2026-04-26T09:43:02.524Z</time></trkpt><trkpt lat="39.422315" lon="9.149165"><ele>193.5</ele><time>2026-04-26T09:43:03.525Z</time></trkpt><trkpt lat="39.42212" lon="9.1493617"><ele>197.0</ele><time>2026-04-26T09:43:04.524Z</time></trkpt><trkpt lat="39.4219233" lon="9.149555"><ele>197.0</ele><time>2026-04-26T09:43:05.525Z</time></trkpt><trkpt lat="39.4217217" lon="9.1497433"><ele>197.0</ele><time>2026-04-26T09:43:06.524Z</time></trkpt><trkpt lat="39.4215417" lon="9.1499083"><ele>199.66666666666669</ele><time>2026-04-26T09:43:07.524Z</time></trkpt><trkpt lat="39.42139" lon="9.1500717"><ele>202.33333333333331</ele><time>2026-04-26T09:43:08.525Z</time></trkpt><trkpt lat="39.4212783" lon="9.15025"><ele>205.0</ele><time>2026-04-26T09:43:09.524Z</time></trkpt><trkpt lat="39.4212133" lon="9.1504783"><ele>203.0</ele><time>2026-04-26T09:43:10.524Z</time></trkpt><trkpt lat="39.4211883" lon="9.150725"><ele>201.0</ele><time>2026-04-26T09:43:11.525Z</time></trkpt><trkpt lat="39.4211733" lon="9.1509967"><ele>199.0</ele><time>2026-04-26T09:43:12.525Z</time></trkpt><trkpt lat="39.4211283" lon="9.1512633"><ele>199.0</ele><time>2026-04-26T09:43:13.524Z</time></trkpt><trkpt lat="39.4210533" lon="9.151525"><ele>199.0</ele><time>2026-04-26T09:43:14.525Z</time></trkpt><trkpt lat="39.4209667" lon="9.1517817"><ele>199.0</ele><time>2026-04-26T09:43:15.525Z</time></trkpt><trkpt lat="39.4208833" lon="9.1520417"><ele>198.33333333333331</ele><time>2026-04-26T09:43:16.525Z</time></trkpt><trkpt lat="39.4208083" lon="9.15229"><ele>197.66666666666669</ele><time>2026-04-26T09:43:17.524Z</time></trkpt><trkpt lat="39.4207133" lon="9.1525067"><ele>197.0</ele><time>2026-04-26T09:43:18.525Z</time></trkpt><trkpt lat="39.4205967" lon="9.1527033"><ele>204.0</ele><time>2026-04-26T09:43:19.524Z</time></trkpt><trkpt lat="39.42043" lon="9.1528983"><ele>211.0</ele><time>2026-04-26T09:43:20.524Z</time></trkpt><trkpt lat="39.4202617" lon="9.1531183"><ele>208.0</ele><time>2026-04-26T09:43:21.524Z</time></trkpt><trkpt lat="39.4201017" lon="9.1533667"><ele>205.0</ele><time>2026-04-26T09:43:22.525Z</time></trkpt><trkpt lat="39.4199367" lon="9.15364"><ele>205.0</ele><time>2026-04-26T09:43:23.525Z</time></trkpt><trkpt lat="39.41977" lon="9.153935"><ele>205.0</ele><time>2026-04-26T09:43:24.524Z</time></trkpt><trkpt lat="39.4196017" lon="9.1542333"><ele>210.0</ele><time>2026-04-26T09:43:25.524Z</time></trkpt><trkpt lat="39.4194367" lon="9.1545133"><ele>215.0</ele><time>2026-04-26T09:43:26.525Z</time></trkpt><trkpt lat="39.4192767" lon="9.1547917"><ele>209.5</ele><time>2026-04-26T09:43:27.525Z</time></trkpt><trkpt lat="39.4191217" lon="9.15506"><ele>204.0</ele><time>2026-04-26T09:43:28.525Z</time></trkpt><trkpt lat="39.4189733" lon="9.1553217"><ele>204.0</ele><time>2026-04-26T09:43:29.524Z</time></trkpt><trkpt lat="39.4188233" lon="9.155565"><ele>204.0</ele><time>2026-04-26T09:43:30.524Z</time></trkpt><trkpt lat="39.4186867" lon="9.1557867"><ele>209.0</ele><time>2026-04-26T09:43:31.524Z</time></trkpt><trkpt lat="39.4185517" lon="9.155995"><ele>214.0</ele><time>2026-04-26T09:43:32.524Z</time></trkpt><trkpt lat="39.41841" lon="9.156175"><ele>219.0</ele><time>2026-04-26T09:43:33.524Z</time></trkpt><trkpt lat="39.4182517" lon="9.1563517"><ele>219.0</ele><time>2026-04-26T09:43:34.525Z</time></trkpt><trkpt lat="39.4180783" lon="9.156505"><ele>219.0</ele><time>2026-04-26T09:43:35.524Z</time></trkpt><trkpt lat="39.417885" lon="9.1566283"><ele>219.0</ele><time>2026-04-26T09:43:36.525Z</time></trkpt><trkpt lat="39.4176733" lon="9.15672"><ele>220.33333333333331</ele><time>2026-04-26T09:43:37.525Z</time></trkpt><trkpt lat="39.4174617" lon="9.15679"><ele>221.66666666666666</ele><time>2026-04-26T09:43:38.525Z</time></trkpt><trkpt lat="39.417245" lon="9.156825"><ele>223.0</ele><time>2026-04-26T09:43:39.524Z</time></trkpt><trkpt lat="39.4170367" lon="9.1568717"><ele>218.0</ele><time>2026-04-26T09:43:40.524Z</time></trkpt><trkpt lat="39.416805" lon="9.1569033"><ele>213.0</ele><time>2026-04-26T09:43:41.525Z</time></trkpt><trkpt lat="39.41658" lon="9.156945"><ele>213.0</ele><time>2026-04-26T09:43:42.525Z</time></trkpt><trkpt lat="39.4163417" lon="9.1569817"><ele>213.0</ele><time>2026-04-26T09:43:43.524Z</time></trkpt><trkpt lat="39.4161" lon="9.1570283"><ele>211.0</ele><time>2026-04-26T09:43:44.524Z</time></trkpt><trkpt lat="39.4158333" lon="9.1570733"><ele>209.0</ele><time>2026-04-26T09:43:45.524Z</time></trkpt><trkpt lat="39.4155567" lon="9.1571133"><ele>205.0</ele><time>2026-04-26T09:43:46.524Z</time></trkpt><trkpt lat="39.4152767" lon="9.1571617"><ele>201.0</ele><time>2026-04-26T09:43:47.525Z</time></trkpt><trkpt lat="39.41499" lon="9.157215"><ele>201.0</ele><time>2026-04-26T09:43:48.524Z</time></trkpt><trkpt lat="39.4147033" lon="9.1572583"><ele>201.0</ele><time>2026-04-26T09:43:49.524Z</time></trkpt><trkpt lat="39.4144267" lon="9.1573017"><ele>198.0</ele><time>2026-04-26T09:43:50.525Z</time></trkpt><trkpt lat="39.4141533" lon="9.1573567"><ele>195.0</ele><time>2026-04-26T09:43:51.524Z</time></trkpt><trkpt lat="39.4138783" lon="9.157405"><ele>194.0</ele><time>2026-04-26T09:43:52.524Z</time></trkpt><trkpt lat="39.4136033" lon="9.1574533"><ele>193.0</ele><time>2026-04-26T09:43:53.525Z</time></trkpt><trkpt lat="39.41333" lon="9.1575"><ele>193.0</ele><time>2026-04-26T09:43:54.525Z</time></trkpt><trkpt lat="39.4130617" lon="9.1575417"><ele>193.0</ele><time>2026-04-26T09:43:55.524Z</time></trkpt><trkpt lat="39.4127967" lon="9.157595"><ele>192.5</ele><time>2026-04-26T09:43:56.525Z</time></trkpt><trkpt lat="39.4125233" lon="9.1576433"><ele>192.0</ele><time>2026-04-26T09:43:57.524Z</time></trkpt><trkpt lat="39.4122567" lon="9.1576867"><ele>192.0</ele><time>2026-04-26T09:43:58.525Z</time></trkpt><trkpt lat="39.412" lon="9.157725"><ele>192.0</ele><time>2026-04-26T09:43:59.525Z</time></trkpt><trkpt lat="39.4117517" lon="9.1577667"><ele>192.0</ele><time>2026-04-26T09:44:00.525Z</time></trkpt><trkpt lat="39.4115067" lon="9.1578017"><ele>192.0</ele><time>2026-04-26T09:44:01.524Z</time></trkpt><trkpt lat="39.4112733" lon="9.157845"><ele>193.0</ele><time>2026-04-26T09:44:02.525Z</time></trkpt><trkpt lat="39.4110467" lon="9.157895"><ele>194.0</ele><time>2026-04-26T09:44:03.524Z</time></trkpt><trkpt lat="39.4108183" lon="9.15795"><ele>194.0</ele><time>2026-04-26T09:44:04.524Z</time></trkpt><trkpt lat="39.4105917" lon="9.15803"><ele>194.0</ele><time>2026-04-26T09:44:05.524Z</time></trkpt><trkpt lat="39.410375" lon="9.158125"><ele>191.5</ele><time>2026-04-26T09:44:06.525Z</time></trkpt><trkpt lat="39.410155" lon="9.1582267"><ele>189.0</ele><time>2026-04-26T09:44:07.524Z</time></trkpt><trkpt lat="39.4099383" lon="9.158335"><ele>189.0</ele><time>2026-04-26T09:44:08.524Z</time></trkpt><trkpt lat="39.4097167" lon="9.1584633"><ele>189.0</ele><time>2026-04-26T09:44:09.525Z</time></trkpt><trkpt lat="39.4094883" lon="9.1585867"><ele>185.5</ele><time>2026-04-26T09:44:10.525Z</time></trkpt><trkpt lat="39.4092683" lon="9.1587067"><ele>182.0</ele><time>2026-04-26T09:44:11.525Z</time></trkpt><trkpt lat="39.409055" lon="9.15882"><ele>182.0</ele><time>2026-04-26T09:44:12.525Z</time></trkpt><trkpt lat="39.408835" lon="9.1589317"><ele>182.0</ele><time>2026-04-26T09:44:13.524Z</time></trkpt><trkpt lat="39.4086167" lon="9.15905"><ele>182.5</ele><time>2026-04-26T09:44:14.525Z</time></trkpt><trkpt lat="39.40841" lon="9.1591667"><ele>183.0</ele><time>2026-04-26T09:44:15.525Z</time></trkpt><trkpt lat="39.4082" lon="9.159275"><ele>183.0</ele><time>2026-04-26T09:44:16.525Z</time></trkpt><trkpt lat="39.4079983" lon="9.15937"><ele>183.0</ele><time>2026-04-26T09:44:17.524Z</time></trkpt><trkpt lat="39.40779" lon="9.15943"><ele>183.0</ele><time>2026-04-26T09:44:18.524Z</time></trkpt><trkpt lat="39.4075733" lon="9.1594617"><ele>181.0</ele><time>2026-04-26T09:44:19.525Z</time></trkpt><trkpt lat="39.4073667" lon="9.1594667"><ele>179.0</ele><time>2026-04-26T09:44:20.525Z</time></trkpt><trkpt lat="39.4071767" lon="9.1594517"><ele>177.0</ele><time>2026-04-26T09:44:21.524Z</time></trkpt><trkpt lat="39.4069867" lon="9.159415"><ele>176.0</ele><time>2026-04-26T09:44:22.524Z</time></trkpt><trkpt lat="39.40679" lon="9.15936"><ele>175.0</ele><time>2026-04-26T09:44:23.524Z</time></trkpt><trkpt lat="39.406595" lon="9.1592783"><ele>174.0</ele><time>2026-04-26T09:44:24.524Z</time></trkpt><trkpt lat="39.406405" lon="9.1591767"><ele>174.0</ele><time>2026-04-26T09:44:25.524Z</time></trkpt><trkpt lat="39.406225" lon="9.1590667"><ele>174.0</ele><time>2026-04-26T09:44:26.524Z</time></trkpt><trkpt lat="39.40604" lon="9.1589567"><ele>174.0</ele><time>2026-04-26T09:44:27.525Z</time></trkpt><trkpt lat="39.4058633" lon="9.15886"><ele>174.33333333333334</ele><time>2026-04-26T09:44:28.525Z</time></trkpt><trkpt lat="39.4056933" lon="9.158765"><ele>174.66666666666669</ele><time>2026-04-26T09:44:29.525Z</time></trkpt><trkpt lat="39.40553" lon="9.1586683"><ele>175.0</ele><time>2026-04-26T09:44:30.525Z</time></trkpt><trkpt lat="39.4053717" lon="9.1585783"><ele>176.66666666666669</ele><time>2026-04-26T09:44:31.525Z</time></trkpt><trkpt lat="39.405215" lon="9.15848"><ele>178.33333333333334</ele><time>2026-04-26T09:44:32.525Z</time></trkpt><trkpt lat="39.4050583" lon="9.1583883"><ele>180.0</ele><time>2026-04-26T09:44:33.525Z</time></trkpt><trkpt lat="39.4049017" lon="9.1582983"><ele>180.0</ele><time>2026-04-26T09:44:34.525Z</time></trkpt><trkpt lat="39.4047617" lon="9.158215"><ele>180.0</ele><time>2026-04-26T09:44:35.524Z</time></trkpt><trkpt lat="39.4046167" lon="9.1581267"><ele>180.0</ele><time>2026-04-26T09:44:36.524Z</time></trkpt><trkpt lat="39.40447" lon="9.1580433"><ele>179.25</ele><time>2026-04-26T09:44:37.524Z</time></trkpt><trkpt lat="39.404325" lon="9.1579683"><ele>178.5</ele><time>2026-04-26T09:44:38.525Z</time></trkpt><trkpt lat="39.404195" lon="9.15789"><ele>177.75</ele><time>2026-04-26T09:44:39.524Z</time></trkpt><trkpt lat="39.4040667" lon="9.15781"><ele>177.0</ele><time>2026-04-26T09:44:40.524Z</time></trkpt><trkpt lat="39.40394" lon="9.1577333"><ele>176.5</ele><time>2026-04-26T09:44:41.525Z</time></trkpt><trkpt lat="39.4038167" lon="9.1576633"><ele>176.0</ele><time>2026-04-26T09:44:42.524Z</time></trkpt><trkpt lat="39.4037017" lon="9.1575933"><ele>175.5</ele><time>2026-04-26T09:44:43.525Z</time></trkpt><trkpt lat="39.4035967" lon="9.1575233"><ele>175.0</ele><time>2026-04-26T09:44:44.524Z</time></trkpt><trkpt lat="39.4034933" lon="9.1574617"><ele>175.0</ele><time>2026-04-26T09:44:45.525Z</time></trkpt><trkpt lat="39.4033983" lon="9.1574067"><ele>175.0</ele><time>2026-04-26T09:44:46.524Z</time></trkpt><trkpt lat="39.4033117" lon="9.1573583"><ele>175.0</ele><time>2026-04-26T09:44:47.524Z</time></trkpt><trkpt lat="39.4032267" lon="9.157305"><ele>175.0</ele><time>2026-04-26T09:44:48.525Z</time></trkpt><trkpt lat="39.4031417" lon="9.157245"><ele>175.0</ele><time>2026-04-26T09:44:49.524Z</time></trkpt><trkpt lat="39.4030467" lon="9.1571833"><ele>175.25</ele><time>2026-04-26T09:44:50.524Z</time></trkpt><trkpt lat="39.4029417" lon="9.15712"><ele>175.5</ele><time>2026-04-26T09:44:51.524Z</time></trkpt><trkpt lat="39.40282" lon="9.1570533"><ele>175.75</ele><time>2026-04-26T09:44:52.524Z</time></trkpt><trkpt lat="39.4026933" lon="9.1569817"><ele>176.0</ele><time>2026-04-26T09:44:53.524Z</time></trkpt><trkpt lat="39.4025633" lon="9.156905"><ele>176.0</ele><time>2026-04-26T09:44:54.525Z</time></trkpt><trkpt lat="39.4024167" lon="9.15683"><ele>176.0</ele><time>2026-04-26T09:44:55.524Z</time></trkpt><trkpt lat="39.402265" lon="9.1567683"><ele>176.0</ele><time>2026-04-26T09:44:56.525Z</time></trkpt><trkpt lat="39.4021067" lon="9.15672"><ele>175.0</ele><time>2026-04-26T09:44:57.525Z</time></trkpt><trkpt lat="39.4019583" lon="9.1566867"><ele>174.0</ele><time>2026-04-26T09:44:58.524Z</time></trkpt><trkpt lat="39.4018167" lon="9.1566567"><ele>173.0</ele><time>2026-04-26T09:44:59.524Z</time></trkpt><trkpt lat="39.40168" lon="9.156635"><ele>172.0</ele><time>2026-04-26T09:45:00.524Z</time></trkpt><trkpt lat="39.40155" lon="9.1566233"><ele>172.0</ele><time>2026-04-26T09:45:01.525Z</time></trkpt><trkpt lat="39.4014067" lon="9.156615"><ele>172.0</ele><time>2026-04-26T09:45:02.525Z</time></trkpt><trkpt lat="39.40127" lon="9.15662"><ele>172.0</ele><time>2026-04-26T09:45:03.525Z</time></trkpt><trkpt lat="39.4011267" lon="9.1566417"><ele>172.0</ele><time>2026-04-26T09:45:04.524Z</time></trkpt><trkpt lat="39.4009783" lon="9.15667"><ele>171.33333333333334</ele><time>2026-04-26T09:45:05.525Z</time></trkpt><trkpt lat="39.40083" lon="9.1567167"><ele>170.66666666666666</ele><time>2026-04-26T09:45:06.525Z</time></trkpt><trkpt lat="39.400685" lon="9.1567733"><ele>170.0</ele><time>2026-04-26T09:45:07.525Z</time></trkpt><trkpt lat="39.4005333" lon="9.1568467"><ele>169.0</ele><time>2026-04-26T09:45:08.524Z</time></trkpt><trkpt lat="39.4003933" lon="9.1569233"><ele>168.0</ele><time>2026-04-26T09:45:09.525Z</time></trkpt><trkpt lat="39.40026" lon="9.15701"><ele>167.0</ele><time>2026-04-26T09:45:10.525Z</time></trkpt><trkpt lat="39.4001317" lon="9.157085"><ele>166.0</ele><time>2026-04-26T09:45:11.524Z</time></trkpt><trkpt lat="39.4000183" lon="9.15716"><ele>166.0</ele><time>2026-04-26T09:45:12.524Z</time></trkpt><trkpt lat="39.3998967" lon="9.15723"><ele>166.0</ele><time>2026-04-26T09:45:13.524Z</time></trkpt><trkpt lat="39.3997767" lon="9.1573183"><ele>166.0</ele><time>2026-04-26T09:45:14.525Z</time></trkpt><trkpt lat="39.3996633" lon="9.157375"><ele>166.0</ele><time>2026-04-26T09:45:15.524Z</time></trkpt><trkpt lat="39.399565" lon="9.1574217"><ele>166.0</ele><time>2026-04-26T09:45:16.525Z</time></trkpt><trkpt lat="39.3994667" lon="9.1574517"><ele>166.0</ele><time>2026-04-26T09:45:17.525Z</time></trkpt><trkpt lat="39.3993983" lon="9.1574683"><ele>166.0</ele><time>2026-04-26T09:45:18.525Z</time></trkpt><trkpt lat="39.3993233" lon="9.1574883"><ele>166.0</ele><time>2026-04-26T09:45:20.524Z</time></trkpt><trkpt lat="39.3992367" lon="9.1574817"><ele>166.0</ele><time>2026-04-26T09:45:23.525Z</time></trkpt><trkpt lat="39.399105" lon="9.1574433"><ele>166.0</ele><time>2026-04-26T09:45:25.525Z</time></trkpt><trkpt lat="39.3990233" lon="9.1574133"><ele>166.0</ele><time>2026-04-26T09:45:26.525Z</time></trkpt><trkpt lat="39.3989567" lon="9.1574217"><ele>166.0</ele><time>2026-04-26T09:45:27.524Z</time></trkpt><trkpt lat="39.3988967" lon="9.1574483"><ele>166.0</ele><time>2026-04-26T09:45:28.524Z</time></trkpt><trkpt lat="39.398775" lon="9.15753"><ele>166.0</ele><time>2026-04-26T09:45:30.525Z</time></trkpt><trkpt lat="39.3987017" lon="9.1575683"><ele>166.0</ele><time>2026-04-26T09:45:31.524Z</time></trkpt><trkpt lat="39.39862" lon="9.15759"><ele>166.0</ele><time>2026-04-26T09:45:32.524Z</time></trkpt><trkpt lat="39.3985283" lon="9.1575917"><ele>166.0</ele><time>2026-04-26T09:45:33.524Z</time></trkpt><trkpt lat="39.39843" lon="9.1575867"><ele>166.0</ele><time>2026-04-26T09:45:34.524Z</time></trkpt><trkpt lat="39.3983183" lon="9.157575"><ele>166.0</ele><time>2026-04-26T09:45:35.525Z</time></trkpt><trkpt lat="39.3981967" lon="9.1575633"><ele>166.0</ele><time>2026-04-26T09:45:36.525Z</time></trkpt><trkpt lat="39.3980667" lon="9.157545"><ele>166.0</ele><time>2026-04-26T09:45:37.524Z</time></trkpt><trkpt lat="39.3979217" lon="9.1575117"><ele>166.0</ele><time>2026-04-26T09:45:38.524Z</time></trkpt><trkpt lat="39.3977617" lon="9.1574817"><ele>166.0</ele><time>2026-04-26T09:45:39.525Z</time></trkpt><trkpt lat="39.397605" lon="9.157445"><ele>166.0</ele><time>2026-04-26T09:45:40.525Z</time></trkpt><trkpt lat="39.3974483" lon="9.15741"><ele>166.0</ele><time>2026-04-26T09:45:41.524Z</time></trkpt><trkpt lat="39.39729" lon="9.1573717"><ele>166.0</ele><time>2026-04-26T09:45:42.524Z</time></trkpt><trkpt lat="39.3971233" lon="9.1573333"><ele>165.33333333333334</ele><time>2026-04-26T09:45:43.525Z</time></trkpt><trkpt lat="39.3969567" lon="9.1572883"><ele>164.66666666666666</ele><time>2026-04-26T09:45:44.525Z</time></trkpt><trkpt lat="39.3967783" lon="9.1572517"><ele>164.0</ele><time>2026-04-26T09:45:45.525Z</time></trkpt><trkpt lat="39.3965767" lon="9.157205"><ele>164.0</ele><time>2026-04-26T09:45:46.524Z</time></trkpt><trkpt lat="39.3963467" lon="9.15716"><ele>164.0</ele><time>2026-04-26T09:45:47.524Z</time></trkpt><trkpt lat="39.3960967" lon="9.1571117"><ele>163.5</ele><time>2026-04-26T09:45:48.524Z</time></trkpt><trkpt lat="39.3958267" lon="9.1570517"><ele>163.0</ele><time>2026-04-26T09:45:49.524Z</time></trkpt><trkpt lat="39.3955283" lon="9.15698"><ele>162.5</ele><time>2026-04-26T09:45:50.525Z</time></trkpt><trkpt lat="39.3952333" lon="9.1569083"><ele>162.0</ele><time>2026-04-26T09:45:51.524Z</time></trkpt><trkpt lat="39.39494" lon="9.1568417"><ele>162.5</ele><time>2026-04-26T09:45:52.525Z</time></trkpt><trkpt lat="39.3946533" lon="9.15678"><ele>163.0</ele><time>2026-04-26T09:45:53.525Z</time></trkpt><trkpt lat="39.3943633" lon="9.1567183"><ele>163.0</ele><time>2026-04-26T09:45:54.524Z</time></trkpt><trkpt lat="39.3940717" lon="9.1566517"><ele>163.0</ele><time>2026-04-26T09:45:55.524Z</time></trkpt><trkpt lat="39.3937833" lon="9.1565867"><ele>162.0</ele><time>2026-04-26T09:45:56.524Z</time></trkpt><trkpt lat="39.3935" lon="9.1565217"><ele>161.0</ele><time>2026-04-26T09:45:57.525Z</time></trkpt><trkpt lat="39.3932133" lon="9.156455"><ele>161.5</ele><time>2026-04-26T09:45:58.525Z</time></trkpt><trkpt lat="39.3929233" lon="9.1563917"><ele>162.0</ele><time>2026-04-26T09:45:59.525Z</time></trkpt><trkpt lat="39.39263" lon="9.1563283"><ele>162.0</ele><time>2026-04-26T09:46:00.524Z</time></trkpt><trkpt lat="39.39234" lon="9.156265"><ele>162.0</ele><time>2026-04-26T09:46:01.525Z</time></trkpt><trkpt lat="39.392055" lon="9.1562017"><ele>162.5</ele><time>2026-04-26T09:46:02.525Z</time></trkpt><trkpt lat="39.3917667" lon="9.1561333"><ele>163.0</ele><time>2026-04-26T09:46:03.525Z</time></trkpt><trkpt lat="39.3914783" lon="9.1560633"><ele>162.5</ele><time>2026-04-26T09:46:04.525Z</time></trkpt><trkpt lat="39.3911783" lon="9.1559967"><ele>162.0</ele><time>2026-04-26T09:46:05.525Z</time></trkpt><trkpt lat="39.3908883" lon="9.155915"><ele>162.0</ele><time>2026-04-26T09:46:06.524Z</time></trkpt><trkpt lat="39.3906017" lon="9.155855"><ele>162.0</ele><time>2026-04-26T09:46:07.524Z</time></trkpt><trkpt lat="39.3903083" lon="9.1557967"><ele>162.5</ele><time>2026-04-26T09:46:08.525Z</time></trkpt><trkpt lat="39.3900167" lon="9.1557317"><ele>163.0</ele><time>2026-04-26T09:46:09.524Z</time></trkpt><trkpt lat="39.3897317" lon="9.15567"><ele>161.5</ele><time>2026-04-26T09:46:10.524Z</time></trkpt><trkpt lat="39.3894417" lon="9.155605"><ele>160.0</ele><time>2026-04-26T09:46:11.524Z</time></trkpt><trkpt lat="39.3891467" lon="9.1555383"><ele>160.0</ele><time>2026-04-26T09:46:12.524Z</time></trkpt><trkpt lat="39.388865" lon="9.1554767"><ele>160.0</ele><time>2026-04-26T09:46:13.525Z</time></trkpt><trkpt lat="39.388595" lon="9.155415"><ele>162.0</ele><time>2026-04-26T09:46:14.525Z</time></trkpt><trkpt lat="39.3883317" lon="9.1553517"><ele>164.0</ele><time>2026-04-26T09:46:15.525Z</time></trkpt><trkpt lat="39.3880767" lon="9.1553"><ele>164.5</ele><time>2026-04-26T09:46:16.525Z</time></trkpt><trkpt lat="39.38782" lon="9.1552483"><ele>165.0</ele><time>2026-04-26T09:46:17.524Z</time></trkpt><trkpt lat="39.387565" lon="9.15519"><ele>165.0</ele><time>2026-04-26T09:46:18.524Z</time></trkpt><trkpt lat="39.3873233" lon="9.1551333"><ele>165.0</ele><time>2026-04-26T09:46:19.525Z</time></trkpt><trkpt lat="39.3870817" lon="9.1550817"><ele>165.0</ele><time>2026-04-26T09:46:20.524Z</time></trkpt><trkpt lat="39.38684" lon="9.1550283"><ele>165.0</ele><time>2026-04-26T09:46:21.524Z</time></trkpt><trkpt lat="39.3866" lon="9.1549767"><ele>165.0</ele><time>2026-04-26T09:46:22.525Z</time></trkpt><trkpt lat="39.3863617" lon="9.1549233"><ele>165.0</ele><time>2026-04-26T09:46:23.524Z</time></trkpt><trkpt lat="39.38613" lon="9.15486"><ele>164.5</ele><time>2026-04-26T09:46:24.525Z</time></trkpt><trkpt lat="39.3858933" lon="9.154815"><ele>164.0</ele><time>2026-04-26T09:46:25.525Z</time></trkpt><trkpt lat="39.3856533" lon="9.1547667"><ele>164.0</ele><time>2026-04-26T09:46:26.524Z</time></trkpt><trkpt lat="39.3854167" lon="9.1547133"><ele>164.0</ele><time>2026-04-26T09:46:27.524Z</time></trkpt><trkpt lat="39.3851683" lon="9.1546617"><ele>164.0</ele><time>2026-04-26T09:46:28.525Z</time></trkpt><trkpt lat="39.3849283" lon="9.1546117"><ele>164.0</ele><time>2026-04-26T09:46:29.525Z</time></trkpt><trkpt lat="39.3846867" lon="9.1545567"><ele>164.5</ele><time>2026-04-26T09:46:30.525Z</time></trkpt><trkpt lat="39.3844417" lon="9.1545"><ele>165.0</ele><time>2026-04-26T09:46:31.525Z</time></trkpt><trkpt lat="39.3841933" lon="9.1544433"><ele>165.0</ele><time>2026-04-26T09:46:32.524Z</time></trkpt><trkpt lat="39.383945" lon="9.1543867"><ele>165.0</ele><time>2026-04-26T09:46:33.525Z</time></trkpt><trkpt lat="39.383695" lon="9.154335"><ele>165.0</ele><time>2026-04-26T09:46:34.524Z</time></trkpt><trkpt lat="39.383445" lon="9.1542817"><ele>165.0</ele><time>2026-04-26T09:46:35.524Z</time></trkpt><trkpt lat="39.3831917" lon="9.1542333"><ele>165.0</ele><time>2026-04-26T09:46:36.524Z</time></trkpt><trkpt lat="39.3829417" lon="9.15419"><ele>165.0</ele><time>2026-04-26T09:46:37.525Z</time></trkpt><trkpt lat="39.3826883" lon="9.1541517"><ele>165.0</ele><time>2026-04-26T09:46:38.524Z</time></trkpt><trkpt lat="39.3824383" lon="9.1541183"><ele>165.0</ele><time>2026-04-26T09:46:39.525Z</time></trkpt><trkpt lat="39.3821933" lon="9.154095"><ele>165.5</ele><time>2026-04-26T09:46:40.525Z</time></trkpt><trkpt lat="39.3819383" lon="9.1540783"><ele>166.0</ele><time>2026-04-26T09:46:41.524Z</time></trkpt><trkpt lat="39.3816967" lon="9.1540717"><ele>166.0</ele><time>2026-04-26T09:46:42.524Z</time></trkpt><trkpt lat="39.38147" lon="9.1540667"><ele>166.0</ele><time>2026-04-26T09:46:43.524Z</time></trkpt><trkpt lat="39.38125" lon="9.1540683"><ele>166.0</ele><time>2026-04-26T09:46:44.524Z</time></trkpt><trkpt lat="39.3810433" lon="9.15406"><ele>166.0</ele><time>2026-04-26T09:46:45.524Z</time></trkpt><trkpt lat="39.38085" lon="9.1540683"><ele>166.0</ele><time>2026-04-26T09:46:46.524Z</time></trkpt><trkpt lat="39.3806733" lon="9.154075"><ele>166.0</ele><time>2026-04-26T09:46:47.525Z</time></trkpt><trkpt lat="39.3805133" lon="9.1540783"><ele>165.75</ele><time>2026-04-26T09:46:48.525Z</time></trkpt><trkpt lat="39.380365" lon="9.1540883"><ele>165.5</ele><time>2026-04-26T09:46:49.525Z</time></trkpt><trkpt lat="39.3802233" lon="9.1540917"><ele>165.25</ele><time>2026-04-26T09:46:50.525Z</time></trkpt><trkpt lat="39.380085" lon="9.1540917"><ele>165.0</ele><time>2026-04-26T09:46:51.524Z</time></trkpt><trkpt lat="39.3799733" lon="9.1540917"><ele>165.0</ele><time>2026-04-26T09:46:52.525Z</time></trkpt><trkpt lat="39.3798733" lon="9.1540683"><ele>165.0</ele><time>2026-04-26T09:46:53.524Z</time></trkpt><trkpt lat="39.3798033" lon="9.1540183"><ele>165.0</ele><time>2026-04-26T09:46:54.524Z</time></trkpt><trkpt lat="39.3797583" lon="9.15394"><ele>165.0</ele><time>2026-04-26T09:46:55.525Z</time></trkpt><trkpt lat="39.3797483" lon="9.1538517"><ele>165.0</ele><time>2026-04-26T09:46:56.524Z</time></trkpt><trkpt lat="39.3797817" lon="9.1537583"><ele>165.0</ele><time>2026-04-26T09:46:57.525Z</time></trkpt><trkpt lat="39.37985" lon="9.1536467"><ele>164.33333333333334</ele><time>2026-04-26T09:46:58.525Z</time></trkpt><trkpt lat="39.3799483" lon="9.153505"><ele>163.66666666666669</ele><time>2026-04-26T09:46:59.525Z</time></trkpt><trkpt lat="39.3800617" lon="9.1533383"><ele>163.0</ele><time>2026-04-26T09:47:00.524Z</time></trkpt><trkpt lat="39.38018" lon="9.15316"><ele>162.66666666666669</ele><time>2026-04-26T09:47:01.525Z</time></trkpt><trkpt lat="39.3802967" lon="9.1529717"><ele>162.33333333333334</ele><time>2026-04-26T09:47:02.525Z</time></trkpt><trkpt lat="39.3804233" lon="9.1527567"><ele>162.0</ele><time>2026-04-26T09:47:03.525Z</time></trkpt><trkpt lat="39.3805617" lon="9.1525467"><ele>160.5</ele><time>2026-04-26T09:47:04.525Z</time></trkpt><trkpt lat="39.38071" lon="9.1523117"><ele>159.0</ele><time>2026-04-26T09:47:05.525Z</time></trkpt><trkpt lat="39.3808733" lon="9.1520617"><ele>159.0</ele><time>2026-04-26T09:47:06.524Z</time></trkpt><trkpt lat="39.3810367" lon="9.151805"><ele>159.0</ele><time>2026-04-26T09:47:07.524Z</time></trkpt><trkpt lat="39.3812033" lon="9.151545"><ele>159.0</ele><time>2026-04-26T09:47:08.525Z</time></trkpt><trkpt lat="39.38137" lon="9.1512667"><ele>159.0</ele><time>2026-04-26T09:47:09.525Z</time></trkpt><trkpt lat="39.3815467" lon="9.15099"><ele>159.0</ele><time>2026-04-26T09:47:10.524Z</time></trkpt><trkpt lat="39.3817217" lon="9.15072"><ele>159.0</ele><time>2026-04-26T09:47:11.525Z</time></trkpt><trkpt lat="39.3818917" lon="9.15045"><ele>159.0</ele><time>2026-04-26T09:47:12.524Z</time></trkpt><trkpt lat="39.38206" lon="9.1501883"><ele>159.0</ele><time>2026-04-26T09:47:13.525Z</time></trkpt><trkpt lat="39.382225" lon="9.14993"><ele>158.0</ele><time>2026-04-26T09:47:14.525Z</time></trkpt><trkpt lat="39.3823783" lon="9.1496667"><ele>157.0</ele><time>2026-04-26T09:47:15.525Z</time></trkpt><trkpt lat="39.3825433" lon="9.1494117"><ele>157.0</ele><time>2026-04-26T09:47:16.524Z</time></trkpt><trkpt lat="39.3827033" lon="9.1491567"><ele>157.0</ele><time>2026-04-26T09:47:17.524Z</time></trkpt><trkpt lat="39.3828633" lon="9.1489033"><ele>158.0</ele><time>2026-04-26T09:47:18.524Z</time></trkpt><trkpt lat="39.3830233" lon="9.1486533"><ele>159.0</ele><time>2026-04-26T09:47:19.524Z</time></trkpt><trkpt lat="39.3831833" lon="9.1484017"><ele>158.0</ele><time>2026-04-26T09:47:20.525Z</time></trkpt><trkpt lat="39.383345" lon="9.1481567"><ele>157.0</ele><time>2026-04-26T09:47:21.524Z</time></trkpt><trkpt lat="39.3835033" lon="9.1479133"><ele>157.0</ele><time>2026-04-26T09:47:22.525Z</time></trkpt><trkpt lat="39.3836667" lon="9.1476717"><ele>157.0</ele><time>2026-04-26T09:47:23.524Z</time></trkpt><trkpt lat="39.383815" lon="9.1474333"><ele>156.5</ele><time>2026-04-26T09:47:24.524Z</time></trkpt><trkpt lat="39.3839567" lon="9.1472083"><ele>156.0</ele><time>2026-04-26T09:47:25.524Z</time></trkpt><trkpt lat="39.3840917" lon="9.1469667"><ele>156.0</ele><time>2026-04-26T09:47:26.525Z</time></trkpt><trkpt lat="39.384205" lon="9.1467117"><ele>156.0</ele><time>2026-04-26T09:47:27.524Z</time></trkpt><trkpt lat="39.3843067" lon="9.14643"><ele>155.0</ele><time>2026-04-26T09:47:28.525Z</time></trkpt><trkpt lat="39.384395" lon="9.1461283"><ele>154.0</ele><time>2026-04-26T09:47:29.524Z</time></trkpt><trkpt lat="39.3844633" lon="9.14581"><ele>152.0</ele><time>2026-04-26T09:47:30.524Z</time></trkpt><trkpt lat="39.3845083" lon="9.1454817"><ele>150.0</ele><time>2026-04-26T09:47:31.524Z</time></trkpt><trkpt lat="39.38455" lon="9.1451517"><ele>149.5</ele><time>2026-04-26T09:47:32.524Z</time></trkpt><trkpt lat="39.384595" lon="9.1448167"><ele>149.0</ele><time>2026-04-26T09:47:33.524Z</time></trkpt><trkpt lat="39.3846283" lon="9.14448"><ele>149.0</ele><time>2026-04-26T09:47:34.524Z</time></trkpt><trkpt lat="39.3846733" lon="9.1441483"><ele>149.0</ele><time>2026-04-26T09:47:35.524Z</time></trkpt><trkpt lat="39.3847167" lon="9.143815"><ele>149.0</ele><time>2026-04-26T09:47:36.524Z</time></trkpt><trkpt lat="39.38475" lon="9.14348"><ele>149.0</ele><time>2026-04-26T09:47:37.524Z</time></trkpt><trkpt lat="39.384785" lon="9.1431567"><ele>149.0</ele><time>2026-04-26T09:47:38.524Z</time></trkpt><trkpt lat="39.3848267" lon="9.142845"><ele>149.0</ele><time>2026-04-26T09:47:39.524Z</time></trkpt><trkpt lat="39.3848583" lon="9.1425483"><ele>149.0</ele><time>2026-04-26T09:47:40.524Z</time></trkpt><trkpt lat="39.3848667" lon="9.14227"><ele>149.0</ele><time>2026-04-26T09:47:41.524Z</time></trkpt><trkpt lat="39.3848733" lon="9.14198"><ele>149.0</ele><time>2026-04-26T09:47:42.524Z</time></trkpt><trkpt lat="39.38486" lon="9.1416783"><ele>148.5</ele><time>2026-04-26T09:47:43.524Z</time></trkpt><trkpt lat="39.3848217" lon="9.1413583"><ele>148.0</ele><time>2026-04-26T09:47:44.525Z</time></trkpt><trkpt lat="39.38477" lon="9.1410317"><ele>147.5</ele><time>2026-04-26T09:47:45.525Z</time></trkpt><trkpt lat="39.3847017" lon="9.1407033"><ele>147.0</ele><time>2026-04-26T09:47:46.525Z</time></trkpt><trkpt lat="39.3846333" lon="9.1403817"><ele>147.0</ele><time>2026-04-26T09:47:47.524Z</time></trkpt><trkpt lat="39.3845617" lon="9.14005"><ele>147.0</ele><time>2026-04-26T09:47:48.524Z</time></trkpt><trkpt lat="39.384485" lon="9.1397067"><ele>147.0</ele><time>2026-04-26T09:47:49.525Z</time></trkpt><trkpt lat="39.3844133" lon="9.139365"><ele>147.0</ele><time>2026-04-26T09:47:50.525Z</time></trkpt><trkpt lat="39.3843467" lon="9.1390233"><ele>147.0</ele><time>2026-04-26T09:47:51.524Z</time></trkpt><trkpt lat="39.3842783" lon="9.1386917"><ele>147.0</ele><time>2026-04-26T09:47:52.524Z</time></trkpt><trkpt lat="39.38421" lon="9.1383767"><ele>146.5</ele><time>2026-04-26T09:47:53.525Z</time></trkpt><trkpt lat="39.3841433" lon="9.138075"><ele>146.0</ele><time>2026-04-26T09:47:54.525Z</time></trkpt><trkpt lat="39.3840883" lon="9.1377917"><ele>146.0</ele><time>2026-04-26T09:47:55.525Z</time></trkpt><trkpt lat="39.3840233" lon="9.1375067"><ele>146.0</ele><time>2026-04-26T09:47:56.524Z</time></trkpt><trkpt lat="39.3839583" lon="9.13722"><ele>145.0</ele><time>2026-04-26T09:47:57.524Z</time></trkpt><trkpt lat="39.38389" lon="9.136925"><ele>144.0</ele><time>2026-04-26T09:47:58.525Z</time></trkpt><trkpt lat="39.38383" lon="9.1366267"><ele>144.0</ele><time>2026-04-26T09:47:59.525Z</time></trkpt><trkpt lat="39.38377" lon="9.1363283"><ele>144.0</ele><time>2026-04-26T09:48:00.525Z</time></trkpt><trkpt lat="39.3837167" lon="9.136025"><ele>143.0</ele><time>2026-04-26T09:48:01.524Z</time></trkpt><trkpt lat="39.3836783" lon="9.1357133"><ele>142.0</ele><time>2026-04-26T09:48:02.525Z</time></trkpt><trkpt lat="39.3836483" lon="9.1353933"><ele>142.0</ele><time>2026-04-26T09:48:03.525Z</time></trkpt><trkpt lat="39.3836267" lon="9.1350733"><ele>142.0</ele><time>2026-04-26T09:48:04.524Z</time></trkpt><trkpt lat="39.3836067" lon="9.13475"><ele>142.5</ele><time>2026-04-26T09:48:05.525Z</time></trkpt><trkpt lat="39.3835767" lon="9.134415"><ele>143.0</ele><time>2026-04-26T09:48:06.525Z</time></trkpt><trkpt lat="39.3835583" lon="9.1340783"><ele>143.0</ele><time>2026-04-26T09:48:07.525Z</time></trkpt><trkpt lat="39.3835383" lon="9.1337417"><ele>143.0</ele><time>2026-04-26T09:48:08.524Z</time></trkpt><trkpt lat="39.3835133" lon="9.133405"><ele>141.5</ele><time>2026-04-26T09:48:09.525Z</time></trkpt><trkpt lat="39.3834817" lon="9.1330683"><ele>140.0</ele><time>2026-04-26T09:48:10.524Z</time></trkpt><trkpt lat="39.3834617" lon="9.132735"><ele>140.0</ele><time>2026-04-26T09:48:11.525Z</time></trkpt><trkpt lat="39.3834267" lon="9.1324017"><ele>140.0</ele><time>2026-04-26T09:48:12.524Z</time></trkpt><trkpt lat="39.3834033" lon="9.1320667"><ele>139.0</ele><time>2026-04-26T09:48:13.524Z</time></trkpt><trkpt lat="39.3833933" lon="9.1317433"><ele>138.0</ele><time>2026-04-26T09:48:14.524Z</time></trkpt><trkpt lat="39.3833917" lon="9.1314233"><ele>138.0</ele><time>2026-04-26T09:48:15.524Z</time></trkpt><trkpt lat="39.3834017" lon="9.1310983"><ele>138.0</ele><time>2026-04-26T09:48:16.525Z</time></trkpt><trkpt lat="39.3834267" lon="9.13077"><ele>136.5</ele><time>2026-04-26T09:48:17.524Z</time></trkpt><trkpt lat="39.3834683" lon="9.130435"><ele>135.0</ele><time>2026-04-26T09:48:18.524Z</time></trkpt><trkpt lat="39.3835083" lon="9.1300917"><ele>135.5</ele><time>2026-04-26T09:48:19.525Z</time></trkpt><trkpt lat="39.3835467" lon="9.1297383"><ele>136.0</ele><time>2026-04-26T09:48:20.524Z</time></trkpt><trkpt lat="39.3835917" lon="9.1293633"><ele>136.5</ele><time>2026-04-26T09:48:21.524Z</time></trkpt><trkpt lat="39.38363" lon="9.1289617"><ele>137.0</ele><time>2026-04-26T09:48:22.525Z</time></trkpt><trkpt lat="39.383675" lon="9.1285417"><ele>136.5</ele><time>2026-04-26T09:48:23.524Z</time></trkpt><trkpt lat="39.38372" lon="9.128105"><ele>136.0</ele><time>2026-04-26T09:48:24.524Z</time></trkpt><trkpt lat="39.383765" lon="9.1276717"><ele>135.5</ele><time>2026-04-26T09:48:25.524Z</time></trkpt><trkpt lat="39.3838067" lon="9.1272433"><ele>135.0</ele><time>2026-04-26T09:48:26.524Z</time></trkpt><trkpt lat="39.3838467" lon="9.1268433"><ele>135.0</ele><time>2026-04-26T09:48:27.525Z</time></trkpt><trkpt lat="39.3838833" lon="9.1264683"><ele>135.0</ele><time>2026-04-26T09:48:28.524Z</time></trkpt><trkpt lat="39.3839217" lon="9.1261"><ele>135.0</ele><time>2026-04-26T09:48:29.524Z</time></trkpt><trkpt lat="39.3839583" lon="9.12573"><ele>135.0</ele><time>2026-04-26T09:48:30.524Z</time></trkpt><trkpt lat="39.384" lon="9.125375"><ele>134.5</ele><time>2026-04-26T09:48:31.525Z</time></trkpt><trkpt lat="39.3840367" lon="9.1250133"><ele>134.0</ele><time>2026-04-26T09:48:32.524Z</time></trkpt><trkpt lat="39.3840767" lon="9.1246383"><ele>134.0</ele><time>2026-04-26T09:48:33.524Z</time></trkpt><trkpt lat="39.3841183" lon="9.1242517"><ele>134.0</ele><time>2026-04-26T09:48:34.524Z</time></trkpt><trkpt lat="39.384165" lon="9.1238483"><ele>134.0</ele><time>2026-04-26T09:48:35.525Z</time></trkpt><trkpt lat="39.38421" lon="9.1234317"><ele>134.0</ele><time>2026-04-26T09:48:36.524Z</time></trkpt><trkpt lat="39.3842583" lon="9.123"><ele>134.0</ele><time>2026-04-26T09:48:37.524Z</time></trkpt><trkpt lat="39.384305" lon="9.12258"><ele>134.0</ele><time>2026-04-26T09:48:38.524Z</time></trkpt><trkpt lat="39.3843467" lon="9.12217"><ele>133.5</ele><time>2026-04-26T09:48:39.525Z</time></trkpt><trkpt lat="39.3843933" lon="9.1217617"><ele>133.0</ele><time>2026-04-26T09:48:40.524Z</time></trkpt><trkpt lat="39.38443" lon="9.1213633"><ele>132.0</ele><time>2026-04-26T09:48:41.524Z</time></trkpt><trkpt lat="39.3844633" lon="9.1209767"><ele>131.0</ele><time>2026-04-26T09:48:42.525Z</time></trkpt><trkpt lat="39.3845067" lon="9.1206067"><ele>130.5</ele><time>2026-04-26T09:48:43.525Z</time></trkpt><trkpt lat="39.3845417" lon="9.1202533"><ele>130.0</ele><time>2026-04-26T09:48:44.524Z</time></trkpt><trkpt lat="39.3845833" lon="9.1199133"><ele>129.5</ele><time>2026-04-26T09:48:45.524Z</time></trkpt><trkpt lat="39.3846183" lon="9.1195833"><ele>129.0</ele><time>2026-04-26T09:48:46.524Z</time></trkpt><trkpt lat="39.3846517" lon="9.1192467"><ele>127.5</ele><time>2026-04-26T09:48:47.524Z</time></trkpt><trkpt lat="39.3846817" lon="9.118915"><ele>126.0</ele><time>2026-04-26T09:48:48.525Z</time></trkpt><trkpt lat="39.3847183" lon="9.1185783"><ele>126.0</ele><time>2026-04-26T09:48:49.524Z</time></trkpt><trkpt lat="39.384755" lon="9.118235"><ele>126.0</ele><time>2026-04-26T09:48:50.525Z</time></trkpt><trkpt lat="39.384795" lon="9.1178883"><ele>126.0</ele><time>2026-04-26T09:48:51.524Z</time></trkpt><trkpt lat="39.3848333" lon="9.1175417"><ele>126.0</ele><time>2026-04-26T09:48:52.525Z</time></trkpt><trkpt lat="39.3848717" lon="9.1171967"><ele>126.0</ele><time>2026-04-26T09:48:53.524Z</time></trkpt><trkpt lat="39.3849033" lon="9.1168517"><ele>126.0</ele><time>2026-04-26T09:48:54.524Z</time></trkpt><trkpt lat="39.38494" lon="9.1165017"><ele>126.0</ele><time>2026-04-26T09:48:55.524Z</time></trkpt><trkpt lat="39.3849733" lon="9.1161517"><ele>126.0</ele><time>2026-04-26T09:48:56.524Z</time></trkpt><trkpt lat="39.3850067" lon="9.1158117"><ele>125.0</ele><time>2026-04-26T09:48:57.524Z</time></trkpt><trkpt lat="39.3850367" lon="9.1154717"><ele>124.0</ele><time>2026-04-26T09:48:58.524Z</time></trkpt><trkpt lat="39.385065" lon="9.1151267"><ele>123.5</ele><time>2026-04-26T09:48:59.525Z</time></trkpt><trkpt lat="39.385095" lon="9.114785"><ele>123.0</ele><time>2026-04-26T09:49:00.525Z</time></trkpt><trkpt lat="39.3851083" lon="9.11444"><ele>123.0</ele><time>2026-04-26T09:49:01.525Z</time></trkpt><trkpt lat="39.3851067" lon="9.1141083"><ele>123.0</ele><time>2026-04-26T09:49:02.525Z</time></trkpt><trkpt lat="39.385105" lon="9.1137667"><ele>122.5</ele><time>2026-04-26T09:49:03.525Z</time></trkpt><trkpt lat="39.3851017" lon="9.1134283"><ele>122.0</ele><time>2026-04-26T09:49:04.525Z</time></trkpt><trkpt lat="39.3851" lon="9.1130967"><ele>122.0</ele><time>2026-04-26T09:49:05.524Z</time></trkpt><trkpt lat="39.3851117" lon="9.1127583"><ele>122.0</ele><time>2026-04-26T09:49:06.524Z</time></trkpt><trkpt lat="39.385115" lon="9.112425"><ele>122.0</ele><time>2026-04-26T09:49:07.525Z</time></trkpt><trkpt lat="39.3851183" lon="9.1120867"><ele>122.0</ele><time>2026-04-26T09:49:08.524Z</time></trkpt><trkpt lat="39.3851217" lon="9.1117517"><ele>122.0</ele><time>2026-04-26T09:49:09.525Z</time></trkpt><trkpt lat="39.3851217" lon="9.1114267"><ele>122.0</ele><time>2026-04-26T09:49:10.525Z</time></trkpt><trkpt lat="39.3851233" lon="9.1110933"><ele>122.0</ele><time>2026-04-26T09:49:11.524Z</time></trkpt><trkpt lat="39.385135" lon="9.11076"><ele>122.0</ele><time>2026-04-26T09:49:12.524Z</time></trkpt><trkpt lat="39.3851533" lon="9.11045"><ele>121.5</ele><time>2026-04-26T09:49:13.524Z</time></trkpt><trkpt lat="39.385155" lon="9.1101233"><ele>121.0</ele><time>2026-04-26T09:49:14.524Z</time></trkpt><trkpt lat="39.3851567" lon="9.1098033"><ele>121.0</ele><time>2026-04-26T09:49:15.525Z</time></trkpt><trkpt lat="39.3851583" lon="9.1094817"><ele>121.0</ele><time>2026-04-26T09:49:16.524Z</time></trkpt><trkpt lat="39.38516" lon="9.10915"><ele>120.5</ele><time>2026-04-26T09:49:17.525Z</time></trkpt><trkpt lat="39.38517" lon="9.10882"><ele>120.0</ele><time>2026-04-26T09:49:18.524Z</time></trkpt><trkpt lat="39.3851733" lon="9.1084867"><ele>120.0</ele><time>2026-04-26T09:49:19.525Z</time></trkpt><trkpt lat="39.3851783" lon="9.1081583"><ele>120.0</ele><time>2026-04-26T09:49:20.525Z</time></trkpt><trkpt lat="39.3851767" lon="9.1078267"><ele>120.0</ele><time>2026-04-26T09:49:21.524Z</time></trkpt><trkpt lat="39.385175" lon="9.1074917"><ele>120.0</ele><time>2026-04-26T09:49:22.525Z</time></trkpt><trkpt lat="39.38518" lon="9.1071633"><ele>120.5</ele><time>2026-04-26T09:49:23.524Z</time></trkpt><trkpt lat="39.3851767" lon="9.1068383"><ele>121.0</ele><time>2026-04-26T09:49:24.524Z</time></trkpt><trkpt lat="39.3851867" lon="9.1065167"><ele>120.0</ele><time>2026-04-26T09:49:25.525Z</time></trkpt><trkpt lat="39.3851933" lon="9.1062067"><ele>119.0</ele><time>2026-04-26T09:49:26.524Z</time></trkpt><trkpt lat="39.385195" lon="9.1058833"><ele>119.0</ele><time>2026-04-26T09:49:27.525Z</time></trkpt><trkpt lat="39.3851917" lon="9.1055583"><ele>119.0</ele><time>2026-04-26T09:49:28.525Z</time></trkpt><trkpt lat="39.385195" lon="9.1052383"><ele>119.0</ele><time>2026-04-26T09:49:29.524Z</time></trkpt><trkpt lat="39.3852" lon="9.1049217"><ele>119.0</ele><time>2026-04-26T09:49:30.524Z</time></trkpt><trkpt lat="39.3852033" lon="9.1046033"><ele>118.5</ele><time>2026-04-26T09:49:31.525Z</time></trkpt><trkpt lat="39.3852083" lon="9.1042717"><ele>118.0</ele><time>2026-04-26T09:49:32.525Z</time></trkpt><trkpt lat="39.385215" lon="9.1039367"><ele>117.0</ele><time>2026-04-26T09:49:33.524Z</time></trkpt><trkpt lat="39.3852233" lon="9.1036"><ele>116.0</ele><time>2026-04-26T09:49:34.525Z</time></trkpt><trkpt lat="39.3852267" lon="9.10327"><ele>116.0</ele><time>2026-04-26T09:49:35.524Z</time></trkpt><trkpt lat="39.385225" lon="9.1029433"><ele>116.0</ele><time>2026-04-26T09:49:36.525Z</time></trkpt><trkpt lat="39.385225" lon="9.10262"><ele>115.5</ele><time>2026-04-26T09:49:37.525Z</time></trkpt><trkpt lat="39.38522" lon="9.1023017"><ele>115.0</ele><time>2026-04-26T09:49:38.525Z</time></trkpt><trkpt lat="39.3852283" lon="9.101985"><ele>115.0</ele><time>2026-04-26T09:49:39.525Z</time></trkpt><trkpt lat="39.38523" lon="9.10168"><ele>115.0</ele><time>2026-04-26T09:49:40.525Z</time></trkpt><trkpt lat="39.3852283" lon="9.1013767"><ele>115.0</ele><time>2026-04-26T09:49:41.525Z</time></trkpt><trkpt lat="39.385225" lon="9.1010717"><ele>115.0</ele><time>2026-04-26T09:49:42.525Z</time></trkpt><trkpt lat="39.3852217" lon="9.1007517"><ele>115.0</ele><time>2026-04-26T09:49:43.525Z</time></trkpt><trkpt lat="39.3852283" lon="9.100445"><ele>115.0</ele><time>2026-04-26T09:49:44.524Z</time></trkpt><trkpt lat="39.3852383" lon="9.100155"><ele>115.0</ele><time>2026-04-26T09:49:45.525Z</time></trkpt><trkpt lat="39.3852467" lon="9.0998733"><ele>115.0</ele><time>2026-04-26T09:49:46.525Z</time></trkpt><trkpt lat="39.3852617" lon="9.09962"><ele>115.0</ele><time>2026-04-26T09:49:47.525Z</time></trkpt><trkpt lat="39.3852817" lon="9.0993683"><ele>115.0</ele><time>2026-04-26T09:49:48.525Z</time></trkpt><trkpt lat="39.3853267" lon="9.0991233"><ele>115.0</ele><time>2026-04-26T09:49:49.525Z</time></trkpt><trkpt lat="39.3853817" lon="9.09887"><ele>115.0</ele><time>2026-04-26T09:49:50.524Z</time></trkpt><trkpt lat="39.3854317" lon="9.0986167"><ele>115.0</ele><time>2026-04-26T09:49:51.525Z</time></trkpt><trkpt lat="39.3854733" lon="9.0983567"><ele>115.0</ele><time>2026-04-26T09:49:52.525Z</time></trkpt><trkpt lat="39.3855217" lon="9.098095"><ele>115.0</ele><time>2026-04-26T09:49:53.525Z</time></trkpt><trkpt lat="39.3855717" lon="9.09784"><ele>113.33333333333334</ele><time>2026-04-26T09:49:54.524Z</time></trkpt><trkpt lat="39.3856083" lon="9.0975883"><ele>111.66666666666666</ele><time>2026-04-26T09:49:55.524Z</time></trkpt><trkpt lat="39.385655" lon="9.09733"><ele>110.0</ele><time>2026-04-26T09:49:56.524Z</time></trkpt><trkpt lat="39.385705" lon="9.0970783"><ele>110.0</ele><time>2026-04-26T09:49:57.525Z</time></trkpt><trkpt lat="39.38576" lon="9.09681"><ele>110.0</ele><time>2026-04-26T09:49:58.524Z</time></trkpt><trkpt lat="39.3858167" lon="9.09654"><ele>110.0</ele><time>2026-04-26T09:49:59.525Z</time></trkpt><trkpt lat="39.3858717" lon="9.0962733"><ele>110.0</ele><time>2026-04-26T09:50:00.525Z</time></trkpt><trkpt lat="39.3859217" lon="9.096005"><ele>110.0</ele><time>2026-04-26T09:50:01.524Z</time></trkpt><trkpt lat="39.3859783" lon="9.0957367"><ele>110.0</ele><time>2026-04-26T09:50:02.525Z</time></trkpt><trkpt lat="39.38602" lon="9.0954567"><ele>111.0</ele><time>2026-04-26T09:50:03.525Z</time></trkpt><trkpt lat="39.3860733" lon="9.09517"><ele>112.0</ele><time>2026-04-26T09:50:04.524Z</time></trkpt><trkpt lat="39.3861233" lon="9.0948783"><ele>113.5</ele><time>2026-04-26T09:50:05.525Z</time></trkpt><trkpt lat="39.3861817" lon="9.094565"><ele>115.0</ele><time>2026-04-26T09:50:06.525Z</time></trkpt><trkpt lat="39.386235" lon="9.0942533"><ele>116.5</ele><time>2026-04-26T09:50:07.525Z</time></trkpt><trkpt lat="39.386295" lon="9.09394"><ele>118.0</ele><time>2026-04-26T09:50:08.525Z</time></trkpt><trkpt lat="39.386355" lon="9.0936417"><ele>112.5</ele><time>2026-04-26T09:50:09.525Z</time></trkpt><trkpt lat="39.386405" lon="9.0933367"><ele>107.0</ele><time>2026-04-26T09:50:10.525Z</time></trkpt><trkpt lat="39.3864633" lon="9.0930333"><ele>106.5</ele><time>2026-04-26T09:50:11.524Z</time></trkpt><trkpt lat="39.3865283" lon="9.0927267"><ele>106.0</ele><time>2026-04-26T09:50:12.524Z</time></trkpt><trkpt lat="39.3865883" lon="9.0924217"><ele>106.0</ele><time>2026-04-26T09:50:13.524Z</time></trkpt><trkpt lat="39.3866517" lon="9.0921167"><ele>106.0</ele><time>2026-04-26T09:50:14.525Z</time></trkpt><trkpt lat="39.3867133" lon="9.091815"><ele>106.66666666666667</ele><time>2026-04-26T09:50:15.524Z</time></trkpt><trkpt lat="39.38676" lon="9.0915283"><ele>107.33333333333334</ele><time>2026-04-26T09:50:16.525Z</time></trkpt><trkpt lat="39.3868" lon="9.09125"><ele>108.0</ele><time>2026-04-26T09:50:17.524Z</time></trkpt><trkpt lat="39.38683" lon="9.09097"><ele>107.33333333333334</ele><time>2026-04-26T09:50:18.525Z</time></trkpt><trkpt lat="39.3868567" lon="9.0906817"><ele>106.66666666666667</ele><time>2026-04-26T09:50:19.524Z</time></trkpt><trkpt lat="39.386875" lon="9.0903933"><ele>106.0</ele><time>2026-04-26T09:50:20.524Z</time></trkpt><trkpt lat="39.38689" lon="9.0901017"><ele>105.66666666666667</ele><time>2026-04-26T09:50:21.524Z</time></trkpt><trkpt lat="39.3869183" lon="9.0898117"><ele>105.33333333333334</ele><time>2026-04-26T09:50:22.525Z</time></trkpt><trkpt lat="39.38694" lon="9.0895333"><ele>105.0</ele><time>2026-04-26T09:50:23.524Z</time></trkpt><trkpt lat="39.386965" lon="9.08927"><ele>104.0</ele><time>2026-04-26T09:50:24.524Z</time></trkpt><trkpt lat="39.3869833" lon="9.0890133"><ele>103.0</ele><time>2026-04-26T09:50:25.524Z</time></trkpt><trkpt lat="39.3869983" lon="9.0887617"><ele>102.0</ele><time>2026-04-26T09:50:26.525Z</time></trkpt><trkpt lat="39.3870133" lon="9.088525"><ele>102.0</ele><time>2026-04-26T09:50:27.524Z</time></trkpt><trkpt lat="39.38703" lon="9.0882983"><ele>102.0</ele><time>2026-04-26T09:50:28.524Z</time></trkpt><trkpt lat="39.3870517" lon="9.0880617"><ele>102.0</ele><time>2026-04-26T09:50:29.524Z</time></trkpt><trkpt lat="39.3870667" lon="9.0878167"><ele>102.33333333333334</ele><time>2026-04-26T09:50:30.525Z</time></trkpt><trkpt lat="39.387085" lon="9.0875667"><ele>102.66666666666667</ele><time>2026-04-26T09:50:31.525Z</time></trkpt><trkpt lat="39.3871" lon="9.0873033"><ele>103.0</ele><time>2026-04-26T09:50:32.524Z</time></trkpt><trkpt lat="39.387125" lon="9.0870283"><ele>103.0</ele><time>2026-04-26T09:50:33.525Z</time></trkpt><trkpt lat="39.3871717" lon="9.0867583"><ele>103.0</ele><time>2026-04-26T09:50:34.524Z</time></trkpt><trkpt lat="39.3872333" lon="9.08649"><ele>103.0</ele><time>2026-04-26T09:50:35.525Z</time></trkpt><trkpt lat="39.387315" lon="9.086245"><ele>102.0</ele><time>2026-04-26T09:50:36.524Z</time></trkpt><trkpt lat="39.3874067" lon="9.086015"><ele>101.0</ele><time>2026-04-26T09:50:37.525Z</time></trkpt><trkpt lat="39.3875117" lon="9.085795"><ele>100.0</ele><time>2026-04-26T09:50:38.525Z</time></trkpt><trkpt lat="39.3876183" lon="9.0855817"><ele>99.66666666666667</ele><time>2026-04-26T09:50:39.525Z</time></trkpt><trkpt lat="39.3877383" lon="9.0853783"><ele>99.33333333333334</ele><time>2026-04-26T09:50:40.525Z</time></trkpt><trkpt lat="39.3878783" lon="9.0851917"><ele>99.0</ele><time>2026-04-26T09:50:41.525Z</time></trkpt><trkpt lat="39.388015" lon="9.0850267"><ele>98.66666666666666</ele><time>2026-04-26T09:50:42.525Z</time></trkpt><trkpt lat="39.3881483" lon="9.084855"><ele>98.33333333333333</ele><time>2026-04-26T09:50:43.525Z</time></trkpt><trkpt lat="39.3882817" lon="9.0846833"><ele>98.0</ele><time>2026-04-26T09:50:44.524Z</time></trkpt><trkpt lat="39.3883967" lon="9.0845033"><ele>98.0</ele><time>2026-04-26T09:50:45.525Z</time></trkpt><trkpt lat="39.3885083" lon="9.0843033"><ele>98.0</ele><time>2026-04-26T09:50:46.524Z</time></trkpt><trkpt lat="39.3886067" lon="9.084085"><ele>98.0</ele><time>2026-04-26T09:50:47.524Z</time></trkpt><trkpt lat="39.3886883" lon="9.083855"><ele>97.66666666666666</ele><time>2026-04-26T09:50:48.524Z</time></trkpt><trkpt lat="39.388745" lon="9.0836217"><ele>97.33333333333334</ele><time>2026-04-26T09:50:49.525Z</time></trkpt><trkpt lat="39.3887833" lon="9.0833783"><ele>97.0</ele><time>2026-04-26T09:50:50.525Z</time></trkpt><trkpt lat="39.38881" lon="9.0831283"><ele>96.66666666666667</ele><time>2026-04-26T09:50:51.525Z</time></trkpt><trkpt lat="39.3888233" lon="9.082865"><ele>96.33333333333334</ele><time>2026-04-26T09:50:52.524Z</time></trkpt><trkpt lat="39.3888133" lon="9.08261"><ele>96.0</ele><time>2026-04-26T09:50:53.525Z</time></trkpt><trkpt lat="39.3887967" lon="9.0823483"><ele>95.66666666666667</ele><time>2026-04-26T09:50:54.524Z</time></trkpt><trkpt lat="39.38876" lon="9.0820917"><ele>95.33333333333334</ele><time>2026-04-26T09:50:55.524Z</time></trkpt><trkpt lat="39.3887133" lon="9.0818467"><ele>95.0</ele><time>2026-04-26T09:50:56.525Z</time></trkpt><trkpt lat="39.3886583" lon="9.0815933"><ele>95.0</ele><time>2026-04-26T09:50:57.524Z</time></trkpt><trkpt lat="39.388605" lon="9.081335"><ele>95.0</ele><time>2026-04-26T09:50:58.525Z</time></trkpt><trkpt lat="39.3885583" lon="9.0810867"><ele>95.0</ele><time>2026-04-26T09:50:59.524Z</time></trkpt><trkpt lat="39.38852" lon="9.0808417"><ele>94.66666666666667</ele><time>2026-04-26T09:51:00.524Z</time></trkpt><trkpt lat="39.3884683" lon="9.0806133"><ele>94.33333333333333</ele><time>2026-04-26T09:51:01.525Z</time></trkpt><trkpt lat="39.388425" lon="9.0803817"><ele>94.0</ele><time>2026-04-26T09:51:02.525Z</time></trkpt><trkpt lat="39.38838" lon="9.0801533"><ele>93.66666666666666</ele><time>2026-04-26T09:51:03.524Z</time></trkpt><trkpt lat="39.3883317" lon="9.0799217"><ele>93.33333333333333</ele><time>2026-04-26T09:51:04.525Z</time></trkpt><trkpt lat="39.3882867" lon="9.0796833"><ele>93.0</ele><time>2026-04-26T09:51:05.525Z</time></trkpt><trkpt lat="39.3882467" lon="9.07945"><ele>93.0</ele><time>2026-04-26T09:51:06.525Z</time></trkpt><trkpt lat="39.3882067" lon="9.0792017"><ele>93.0</ele><time>2026-04-26T09:51:07.524Z</time></trkpt><trkpt lat="39.3881617" lon="9.0789633"><ele>93.0</ele><time>2026-04-26T09:51:08.525Z</time></trkpt><trkpt lat="39.3881233" lon="9.078735"><ele>93.66666666666667</ele><time>2026-04-26T09:51:09.525Z</time></trkpt><trkpt lat="39.3880783" lon="9.0785017"><ele>94.33333333333334</ele><time>2026-04-26T09:51:10.524Z</time></trkpt><trkpt lat="39.38804" lon="9.0782667"><ele>95.0</ele><time>2026-04-26T09:51:11.524Z</time></trkpt><trkpt lat="39.3879967" lon="9.0780333"><ele>97.33333333333334</ele><time>2026-04-26T09:51:12.525Z</time></trkpt><trkpt lat="39.387945" lon="9.07781"><ele>99.66666666666667</ele><time>2026-04-26T09:51:13.525Z</time></trkpt><trkpt lat="39.38789" lon="9.077585"><ele>102.0</ele><time>2026-04-26T09:51:14.525Z</time></trkpt><trkpt lat="39.3878417" lon="9.0773533"><ele>102.33333333333334</ele><time>2026-04-26T09:51:15.524Z</time></trkpt><trkpt lat="39.387795" lon="9.0771167"><ele>102.66666666666667</ele><time>2026-04-26T09:51:16.524Z</time></trkpt><trkpt lat="39.3877567" lon="9.0768833"><ele>103.0</ele><time>2026-04-26T09:51:17.525Z</time></trkpt><trkpt lat="39.387725" lon="9.076635"><ele>102.33333333333334</ele><time>2026-04-26T09:51:18.524Z</time></trkpt><trkpt lat="39.38768" lon="9.0763983"><ele>101.66666666666666</ele><time>2026-04-26T09:51:19.524Z</time></trkpt><trkpt lat="39.3876483" lon="9.0761467"><ele>101.0</ele><time>2026-04-26T09:51:20.525Z</time></trkpt><trkpt lat="39.3876183" lon="9.0759017"><ele>102.0</ele><time>2026-04-26T09:51:21.525Z</time></trkpt><trkpt lat="39.38759" lon="9.0756483"><ele>103.0</ele><time>2026-04-26T09:51:22.525Z</time></trkpt><trkpt lat="39.3875717" lon="9.0753933"><ele>104.0</ele><time>2026-04-26T09:51:23.525Z</time></trkpt><trkpt lat="39.3875583" lon="9.0751333"><ele>101.33333333333333</ele><time>2026-04-26T09:51:24.524Z</time></trkpt><trkpt lat="39.387545" lon="9.0748783"><ele>98.66666666666666</ele><time>2026-04-26T09:51:25.524Z</time></trkpt><trkpt lat="39.3875117" lon="9.07462"><ele>96.0</ele><time>2026-04-26T09:51:26.524Z</time></trkpt><trkpt lat="39.387475" lon="9.0743567"><ele>94.66666666666667</ele><time>2026-04-26T09:51:27.525Z</time></trkpt><trkpt lat="39.387445" lon="9.0741017"><ele>93.33333333333334</ele><time>2026-04-26T09:51:28.524Z</time></trkpt><trkpt lat="39.3874117" lon="9.0738433"><ele>92.0</ele><time>2026-04-26T09:51:29.524Z</time></trkpt><trkpt lat="39.3873783" lon="9.0735817"><ele>92.0</ele><time>2026-04-26T09:51:30.525Z</time></trkpt><trkpt lat="39.387345" lon="9.0733217"><ele>92.0</ele><time>2026-04-26T09:51:31.525Z</time></trkpt><trkpt lat="39.38732" lon="9.0730567"><ele>92.0</ele><time>2026-04-26T09:51:32.524Z</time></trkpt><trkpt lat="39.3873017" lon="9.0727917"><ele>91.66666666666667</ele><time>2026-04-26T09:51:33.525Z</time></trkpt><trkpt lat="39.387285" lon="9.07253"><ele>91.33333333333333</ele><time>2026-04-26T09:51:34.524Z</time></trkpt><trkpt lat="39.3872867" lon="9.07226"><ele>91.0</ele><time>2026-04-26T09:51:35.525Z</time></trkpt><trkpt lat="39.3873117" lon="9.072"><ele>91.0</ele><time>2026-04-26T09:51:36.524Z</time></trkpt><trkpt lat="39.387365" lon="9.0717317"><ele>91.0</ele><time>2026-04-26T09:51:37.524Z</time></trkpt><trkpt lat="39.387435" lon="9.0714767"><ele>91.0</ele><time>2026-04-26T09:51:38.524Z</time></trkpt><trkpt lat="39.3875233" lon="9.07123"><ele>91.0</ele><time>2026-04-26T09:51:39.524Z</time></trkpt><trkpt lat="39.38763" lon="9.0709967"><ele>91.0</ele><time>2026-04-26T09:51:40.524Z</time></trkpt><trkpt lat="39.38775" lon="9.0707867"><ele>91.0</ele><time>2026-04-26T09:51:41.525Z</time></trkpt><trkpt lat="39.38788" lon="9.0705983"><ele>90.0</ele><time>2026-04-26T09:51:42.524Z</time></trkpt><trkpt lat="39.3880167" lon="9.07042"><ele>89.0</ele><time>2026-04-26T09:51:43.524Z</time></trkpt><trkpt lat="39.3881817" lon="9.0702533"><ele>88.0</ele><time>2026-04-26T09:51:44.524Z</time></trkpt><trkpt lat="39.3883667" lon="9.0701017"><ele>88.0</ele><time>2026-04-26T09:51:45.525Z</time></trkpt><trkpt lat="39.3885617" lon="9.0699667"><ele>88.0</ele><time>2026-04-26T09:51:46.524Z</time></trkpt><trkpt lat="39.388755" lon="9.069845"><ele>88.0</ele><time>2026-04-26T09:51:47.524Z</time></trkpt><trkpt lat="39.3889567" lon="9.0697233"><ele>88.33333333333333</ele><time>2026-04-26T09:51:48.524Z</time></trkpt><trkpt lat="39.389155" lon="9.069605"><ele>88.66666666666667</ele><time>2026-04-26T09:51:49.524Z</time></trkpt><trkpt lat="39.3893533" lon="9.0694867"><ele>89.0</ele><time>2026-04-26T09:51:50.525Z</time></trkpt><trkpt lat="39.38955" lon="9.0693683"><ele>88.33333333333334</ele><time>2026-04-26T09:51:51.525Z</time></trkpt><trkpt lat="39.3897533" lon="9.0692483"><ele>87.66666666666667</ele><time>2026-04-26T09:51:52.524Z</time></trkpt><trkpt lat="39.3899467" lon="9.0691267"><ele>87.0</ele><time>2026-04-26T09:51:53.525Z</time></trkpt><trkpt lat="39.39013" lon="9.0690083"><ele>87.0</ele><time>2026-04-26T09:51:54.525Z</time></trkpt><trkpt lat="39.3903133" lon="9.0688967"><ele>87.0</ele><time>2026-04-26T09:51:55.525Z</time></trkpt><trkpt lat="39.3904967" lon="9.0687767"><ele>87.0</ele><time>2026-04-26T09:51:56.525Z</time></trkpt><trkpt lat="39.390675" lon="9.0686567"><ele>86.0</ele><time>2026-04-26T09:51:57.525Z</time></trkpt><trkpt lat="39.390855" lon="9.068545"><ele>85.0</ele><time>2026-04-26T09:51:58.525Z</time></trkpt><trkpt lat="39.391045" lon="9.0684283"><ele>84.0</ele><time>2026-04-26T09:51:59.524Z</time></trkpt><trkpt lat="39.39123" lon="9.0683167"><ele>84.33333333333333</ele><time>2026-04-26T09:52:00.524Z</time></trkpt><trkpt lat="39.391425" lon="9.068205"><ele>84.66666666666666</ele><time>2026-04-26T09:52:01.524Z</time></trkpt><trkpt lat="39.391615" lon="9.0680833"><ele>85.0</ele><time>2026-04-26T09:52:02.524Z</time></trkpt><trkpt lat="39.3918033" lon="9.0679667"><ele>85.0</ele><time>2026-04-26T09:52:03.524Z</time></trkpt><trkpt lat="39.39199" lon="9.0678517"><ele>85.0</ele><time>2026-04-26T09:52:04.524Z</time></trkpt><trkpt lat="39.3921533" lon="9.06774"><ele>85.0</ele><time>2026-04-26T09:52:05.524Z</time></trkpt><trkpt lat="39.3923167" lon="9.0676417"><ele>84.33333333333333</ele><time>2026-04-26T09:52:06.524Z</time></trkpt><trkpt lat="39.39248" lon="9.0675383"><ele>83.66666666666667</ele><time>2026-04-26T09:52:07.525Z</time></trkpt><trkpt lat="39.3926483" lon="9.0674267"><ele>83.0</ele><time>2026-04-26T09:52:08.525Z</time></trkpt><trkpt lat="39.3928167" lon="9.067315"><ele>83.0</ele><time>2026-04-26T09:52:09.525Z</time></trkpt><trkpt lat="39.3929933" lon="9.06721"><ele>83.0</ele><time>2026-04-26T09:52:10.525Z</time></trkpt><trkpt lat="39.3931667" lon="9.0671033"><ele>83.0</ele><time>2026-04-26T09:52:11.524Z</time></trkpt><trkpt lat="39.3933417" lon="9.066985"><ele>82.66666666666667</ele><time>2026-04-26T09:52:12.525Z</time></trkpt><trkpt lat="39.3934917" lon="9.0668733"><ele>82.33333333333333</ele><time>2026-04-26T09:52:13.525Z</time></trkpt><trkpt lat="39.3936267" lon="9.0667417"><ele>82.0</ele><time>2026-04-26T09:52:14.524Z</time></trkpt><trkpt lat="39.3937467" lon="9.0666167"><ele>82.0</ele><time>2026-04-26T09:52:15.525Z</time></trkpt><trkpt lat="39.3938567" lon="9.0664817"><ele>82.0</ele><time>2026-04-26T09:52:16.525Z</time></trkpt><trkpt lat="39.3939517" lon="9.066335"><ele>82.0</ele><time>2026-04-26T09:52:17.524Z</time></trkpt><trkpt lat="39.3940367" lon="9.0661867"><ele>82.0</ele><time>2026-04-26T09:52:18.524Z</time></trkpt><trkpt lat="39.3941" lon="9.0660567"><ele>82.0</ele><time>2026-04-26T09:52:19.524Z</time></trkpt><trkpt lat="39.3941517" lon="9.06595"><ele>82.0</ele><time>2026-04-26T09:52:20.524Z</time></trkpt><trkpt lat="39.39419" lon="9.0658667"><ele>82.0</ele><time>2026-04-26T09:52:21.525Z</time></trkpt><trkpt lat="39.39423" lon="9.06579"><ele>82.0</ele><time>2026-04-26T09:52:22.524Z</time></trkpt><trkpt lat="39.3942733" lon="9.0657233"><ele>82.0</ele><time>2026-04-26T09:52:23.525Z</time></trkpt><trkpt lat="39.3943383" lon="9.0656767"><ele>82.0</ele><time>2026-04-26T09:52:24.524Z</time></trkpt><trkpt lat="39.3944067" lon="9.0656417"><ele>82.0</ele><time>2026-04-26T09:52:25.525Z</time></trkpt><trkpt lat="39.39447" lon="9.0656083"><ele>82.0</ele><time>2026-04-26T09:52:26.525Z</time></trkpt><trkpt lat="39.3945233" lon="9.0654583"><ele>82.0</ele><time>2026-04-26T09:52:28.524Z</time></trkpt><trkpt lat="39.3945" lon="9.0653633"><ele>82.0</ele><time>2026-04-26T09:52:29.524Z</time></trkpt><trkpt lat="39.3944533" lon="9.065275"><ele>82.0</ele><time>2026-04-26T09:52:30.524Z</time></trkpt><trkpt lat="39.3944133" lon="9.0651633"><ele>82.0</ele><time>2026-04-26T09:52:31.525Z</time></trkpt><trkpt lat="39.3943867" lon="9.0650183"><ele>82.0</ele><time>2026-04-26T09:52:32.524Z</time></trkpt><trkpt lat="39.3943717" lon="9.064865"><ele>82.0</ele><time>2026-04-26T09:52:33.524Z</time></trkpt><trkpt lat="39.3943567" lon="9.0646983"><ele>82.0</ele><time>2026-04-26T09:52:34.524Z</time></trkpt><trkpt lat="39.3943333" lon="9.0645267"><ele>82.0</ele><time>2026-04-26T09:52:35.524Z</time></trkpt><trkpt lat="39.3943033" lon="9.06434"><ele>82.0</ele><time>2026-04-26T09:52:36.524Z</time></trkpt><trkpt lat="39.3942717" lon="9.06414"><ele>82.0</ele><time>2026-04-26T09:52:37.524Z</time></trkpt><trkpt lat="39.3942283" lon="9.063935"><ele>81.66666666666666</ele><time>2026-04-26T09:52:38.525Z</time></trkpt><trkpt lat="39.3941833" lon="9.0637217"><ele>81.33333333333333</ele><time>2026-04-26T09:52:39.525Z</time></trkpt><trkpt lat="39.3941317" lon="9.0634917"><ele>81.0</ele><time>2026-04-26T09:52:40.525Z</time></trkpt><trkpt lat="39.3940667" lon="9.0632233"><ele>79.5</ele><time>2026-04-26T09:52:41.524Z</time></trkpt><trkpt lat="39.3940117" lon="9.062925"><ele>78.0</ele><time>2026-04-26T09:52:42.524Z</time></trkpt><trkpt lat="39.3939483" lon="9.0626067"><ele>78.0</ele><time>2026-04-26T09:52:43.525Z</time></trkpt><trkpt lat="39.3938917" lon="9.0622833"><ele>78.0</ele><time>2026-04-26T09:52:44.524Z</time></trkpt><trkpt lat="39.3938317" lon="9.0619633"><ele>78.5</ele><time>2026-04-26T09:52:45.524Z</time></trkpt><trkpt lat="39.3937767" lon="9.061645"><ele>79.0</ele><time>2026-04-26T09:52:46.525Z</time></trkpt><trkpt lat="39.3937117" lon="9.0613367"><ele>79.0</ele><time>2026-04-26T09:52:47.525Z</time></trkpt><trkpt lat="39.3936633" lon="9.0610467"><ele>79.0</ele><time>2026-04-26T09:52:48.525Z</time></trkpt><trkpt lat="39.3936183" lon="9.0607617"><ele>79.0</ele><time>2026-04-26T09:52:49.524Z</time></trkpt><trkpt lat="39.3935683" lon="9.060475"><ele>79.0</ele><time>2026-04-26T09:52:50.524Z</time></trkpt><trkpt lat="39.393515" lon="9.0601967"><ele>79.0</ele><time>2026-04-26T09:52:51.525Z</time></trkpt><trkpt lat="39.39345" lon="9.0599133"><ele>78.5</ele><time>2026-04-26T09:52:52.525Z</time></trkpt><trkpt lat="39.3933883" lon="9.0596183"><ele>78.0</ele><time>2026-04-26T09:52:53.524Z</time></trkpt><trkpt lat="39.39332" lon="9.059305"><ele>78.0</ele><time>2026-04-26T09:52:54.524Z</time></trkpt></trkseg></trk></gpx>